<?xml version="1.0" encoding="UTF-8" standalone="no" ?>
<gpx xmlns="http://www.topografix.com/GPX/1/1" xmlns:xsi="http://www.w3.org/2001/XMLSchema-instance" xsi:schemaLocation="http://www.topografix.com/GPX/1/1 http://www.topografix.com/GPX/1/1/gpx.xsd" version="1.1" creator="VisuGPX - https://www.visugpx.com">
  <metadata>
    <name>2 jours en Chartreuse depuis St Laurent du Pont</name>
    <desc><![CDATA[Belle randonnée équestre avec étape au Planolet, au gîte le Perce-Neige. Quelques passages sur route passante et dénivelé. Passage par la voie Sarde et le couvent de la grande Chartreuse.]]></desc>
  </metadata>
  <trk>
    <name><![CDATA[2013-06-15 536616]]></name>
    <trkseg>
      <trkpt lat="45.3906" lon="5.71305">
        <ele>389</ele>
        <time>2013-06-14T09:02:58Z</time>
      </trkpt>
      <trkpt lat="45.3906" lon="5.71305">
        <ele>392</ele>
        <time>2013-06-14T09:03:06Z</time>
      </trkpt>
      <trkpt lat="45.3906" lon="5.71305">
        <ele>395</ele>
        <time>2013-06-14T09:03:12Z</time>
      </trkpt>
      <trkpt lat="45.3906" lon="5.71306">
        <ele>399</ele>
        <time>2013-06-14T09:03:20Z</time>
      </trkpt>
      <trkpt lat="45.39061" lon="5.71306">
        <ele>401</ele>
        <time>2013-06-14T09:03:31Z</time>
      </trkpt>
      <trkpt lat="45.39063" lon="5.71309">
        <ele>403</ele>
        <time>2013-06-14T09:03:58Z</time>
      </trkpt>
      <trkpt lat="45.39064" lon="5.71305">
        <ele>405</ele>
        <time>2013-06-14T09:05:56Z</time>
      </trkpt>
      <trkpt lat="45.39062" lon="5.71302">
        <ele>405</ele>
        <time>2013-06-14T09:06:29Z</time>
      </trkpt>
      <trkpt lat="45.39062" lon="5.71302">
        <ele>405</ele>
        <time>2013-06-14T09:08:41Z</time>
      </trkpt>
      <trkpt lat="45.39062" lon="5.71301">
        <ele>405</ele>
        <time>2013-06-14T09:09:43Z</time>
      </trkpt>
      <trkpt lat="45.39061" lon="5.71301">
        <ele>406</ele>
        <time>2013-06-14T09:13:57Z</time>
      </trkpt>
      <trkpt lat="45.39061" lon="5.71304">
        <ele>405</ele>
        <time>2013-06-14T09:17:25Z</time>
      </trkpt>
      <trkpt lat="45.39064" lon="5.71304">
        <ele>406</ele>
        <time>2013-06-14T09:17:50Z</time>
      </trkpt>
      <trkpt lat="45.39064" lon="5.71303">
        <ele>406</ele>
        <time>2013-06-14T09:18:52Z</time>
      </trkpt>
      <trkpt lat="45.39061" lon="5.71308">
        <ele>406</ele>
        <time>2013-06-14T09:20:34Z</time>
      </trkpt>
      <trkpt lat="45.39058" lon="5.71313">
        <ele>406</ele>
        <time>2013-06-14T09:20:38Z</time>
      </trkpt>
      <trkpt lat="45.3905" lon="5.71311">
        <ele>406</ele>
        <time>2013-06-14T09:20:55Z</time>
      </trkpt>
      <trkpt lat="45.39047" lon="5.71315">
        <ele>406</ele>
        <time>2013-06-14T09:21:15Z</time>
      </trkpt>
      <trkpt lat="45.39046" lon="5.71316">
        <ele>406</ele>
        <time>2013-06-14T09:22:54Z</time>
      </trkpt>
      <trkpt lat="45.39046" lon="5.71315">
        <ele>406</ele>
        <time>2013-06-14T09:25:17Z</time>
      </trkpt>
      <trkpt lat="45.39047" lon="5.71313">
        <ele>406</ele>
        <time>2013-06-14T09:27:00Z</time>
      </trkpt>
      <trkpt lat="45.39051" lon="5.71314">
        <ele>406</ele>
        <time>2013-06-14T09:27:04Z</time>
      </trkpt>
      <trkpt lat="45.39097" lon="5.71326">
        <ele>406</ele>
        <time>2013-06-14T09:27:37Z</time>
      </trkpt>
      <trkpt lat="45.39142" lon="5.71339">
        <ele>406</ele>
        <time>2013-06-14T09:28:09Z</time>
      </trkpt>
      <trkpt lat="45.39189" lon="5.71354">
        <ele>406</ele>
        <time>2013-06-14T09:28:44Z</time>
      </trkpt>
      <trkpt lat="45.392" lon="5.71356">
        <ele>406</ele>
        <time>2013-06-14T09:28:56Z</time>
      </trkpt>
      <trkpt lat="45.39204" lon="5.71351">
        <ele>406</ele>
        <time>2013-06-14T09:29:00Z</time>
      </trkpt>
      <trkpt lat="45.39232" lon="5.71278">
        <ele>405</ele>
        <time>2013-06-14T09:29:41Z</time>
      </trkpt>
      <trkpt lat="45.39263" lon="5.71203">
        <ele>405</ele>
        <time>2013-06-14T09:30:22Z</time>
      </trkpt>
      <trkpt lat="45.39298" lon="5.71118">
        <ele>405</ele>
        <time>2013-06-14T09:31:08Z</time>
      </trkpt>
      <trkpt lat="45.39328" lon="5.71041">
        <ele>405</ele>
        <time>2013-06-14T09:31:51Z</time>
      </trkpt>
      <trkpt lat="45.39333" lon="5.71033">
        <ele>405</ele>
        <time>2013-06-14T09:31:57Z</time>
      </trkpt>
      <trkpt lat="45.39344" lon="5.71031">
        <ele>404</ele>
        <time>2013-06-14T09:32:15Z</time>
      </trkpt>
      <trkpt lat="45.39345" lon="5.7103">
        <ele>404</ele>
        <time>2013-06-14T09:32:45Z</time>
      </trkpt>
      <trkpt lat="45.39346" lon="5.71029">
        <ele>403</ele>
        <time>2013-06-14T09:33:34Z</time>
      </trkpt>
      <trkpt lat="45.39349" lon="5.71035">
        <ele>404</ele>
        <time>2013-06-14T09:34:23Z</time>
      </trkpt>
      <trkpt lat="45.39348" lon="5.71046">
        <ele>404</ele>
        <time>2013-06-14T09:35:03Z</time>
      </trkpt>
      <trkpt lat="45.39349" lon="5.71043">
        <ele>403</ele>
        <time>2013-06-14T09:35:14Z</time>
      </trkpt>
      <trkpt lat="45.39346" lon="5.71041">
        <ele>403</ele>
        <time>2013-06-14T09:35:44Z</time>
      </trkpt>
      <trkpt lat="45.39346" lon="5.71041">
        <ele>403</ele>
        <time>2013-06-14T09:36:14Z</time>
      </trkpt>
      <trkpt lat="45.39354" lon="5.71051">
        <ele>403</ele>
        <time>2013-06-14T09:36:22Z</time>
      </trkpt>
      <trkpt lat="45.39371" lon="5.7107">
        <ele>403</ele>
        <time>2013-06-14T09:36:41Z</time>
      </trkpt>
      <trkpt lat="45.39406" lon="5.71095">
        <ele>403</ele>
        <time>2013-06-14T09:37:04Z</time>
      </trkpt>
      <trkpt lat="45.39445" lon="5.71123">
        <ele>403</ele>
        <time>2013-06-14T09:37:30Z</time>
      </trkpt>
      <trkpt lat="45.39489" lon="5.71163">
        <ele>403</ele>
        <time>2013-06-14T09:38:06Z</time>
      </trkpt>
      <trkpt lat="45.39522" lon="5.71193">
        <ele>403</ele>
        <time>2013-06-14T09:38:32Z</time>
      </trkpt>
      <trkpt lat="45.39554" lon="5.71222">
        <ele>403</ele>
        <time>2013-06-14T09:38:56Z</time>
      </trkpt>
      <trkpt lat="45.39581" lon="5.71244">
        <ele>403</ele>
        <time>2013-06-14T09:39:19Z</time>
      </trkpt>
      <trkpt lat="45.39616" lon="5.71279">
        <ele>404</ele>
        <time>2013-06-14T09:39:47Z</time>
      </trkpt>
      <trkpt lat="45.39638" lon="5.71298">
        <ele>404</ele>
        <time>2013-06-14T09:40:05Z</time>
      </trkpt>
      <trkpt lat="45.39644" lon="5.71303">
        <ele>404</ele>
        <time>2013-06-14T09:40:10Z</time>
      </trkpt>
      <trkpt lat="45.39648" lon="5.71306">
        <ele>404</ele>
        <time>2013-06-14T09:40:13Z</time>
      </trkpt>
      <trkpt lat="45.39675" lon="5.71332">
        <ele>404</ele>
        <time>2013-06-14T09:40:34Z</time>
      </trkpt>
      <trkpt lat="45.39706" lon="5.7136">
        <ele>404</ele>
        <time>2013-06-14T09:40:58Z</time>
      </trkpt>
      <trkpt lat="45.39745" lon="5.71396">
        <ele>404</ele>
        <time>2013-06-14T09:41:28Z</time>
      </trkpt>
      <trkpt lat="45.3977" lon="5.7142">
        <ele>405</ele>
        <time>2013-06-14T09:41:48Z</time>
      </trkpt>
      <trkpt lat="45.39799" lon="5.71448">
        <ele>405</ele>
        <time>2013-06-14T09:42:15Z</time>
      </trkpt>
      <trkpt lat="45.39834" lon="5.71477">
        <ele>405</ele>
        <time>2013-06-14T09:42:41Z</time>
      </trkpt>
      <trkpt lat="45.39848" lon="5.7149">
        <ele>405</ele>
        <time>2013-06-14T09:42:52Z</time>
      </trkpt>
      <trkpt lat="45.39871" lon="5.71509">
        <ele>405</ele>
        <time>2013-06-14T09:43:12Z</time>
      </trkpt>
      <trkpt lat="45.39896" lon="5.71531">
        <ele>405</ele>
        <time>2013-06-14T09:43:31Z</time>
      </trkpt>
      <trkpt lat="45.3992" lon="5.71556">
        <ele>405</ele>
        <time>2013-06-14T09:43:52Z</time>
      </trkpt>
      <trkpt lat="45.39925" lon="5.71559">
        <ele>405</ele>
        <time>2013-06-14T09:43:56Z</time>
      </trkpt>
      <trkpt lat="45.39955" lon="5.71589">
        <ele>405</ele>
        <time>2013-06-14T09:44:20Z</time>
      </trkpt>
      <trkpt lat="45.39987" lon="5.71621">
        <ele>405</ele>
        <time>2013-06-14T09:44:47Z</time>
      </trkpt>
      <trkpt lat="45.39997" lon="5.71628">
        <ele>405</ele>
        <time>2013-06-14T09:44:54Z</time>
      </trkpt>
      <trkpt lat="45.40022" lon="5.71651">
        <ele>405</ele>
        <time>2013-06-14T09:45:15Z</time>
      </trkpt>
      <trkpt lat="45.40063" lon="5.71687">
        <ele>405</ele>
        <time>2013-06-14T09:45:44Z</time>
      </trkpt>
      <trkpt lat="45.40085" lon="5.71705">
        <ele>405</ele>
        <time>2013-06-14T09:46:07Z</time>
      </trkpt>
      <trkpt lat="45.4011" lon="5.71739">
        <ele>406</ele>
        <time>2013-06-14T09:46:30Z</time>
      </trkpt>
      <trkpt lat="45.40137" lon="5.71775">
        <ele>405</ele>
        <time>2013-06-14T09:46:58Z</time>
      </trkpt>
      <trkpt lat="45.40166" lon="5.71816">
        <ele>405</ele>
        <time>2013-06-14T09:47:26Z</time>
      </trkpt>
      <trkpt lat="45.40183" lon="5.71836">
        <ele>406</ele>
        <time>2013-06-14T09:47:41Z</time>
      </trkpt>
      <trkpt lat="45.40191" lon="5.71846">
        <ele>406</ele>
        <time>2013-06-14T09:47:47Z</time>
      </trkpt>
      <trkpt lat="45.40194" lon="5.7185">
        <ele>406</ele>
        <time>2013-06-14T09:47:49Z</time>
      </trkpt>
      <trkpt lat="45.40199" lon="5.71862">
        <ele>406</ele>
        <time>2013-06-14T09:47:56Z</time>
      </trkpt>
      <trkpt lat="45.4021" lon="5.7188">
        <ele>406</ele>
        <time>2013-06-14T09:48:11Z</time>
      </trkpt>
      <trkpt lat="45.40223" lon="5.719">
        <ele>406</ele>
        <time>2013-06-14T09:48:25Z</time>
      </trkpt>
      <trkpt lat="45.40239" lon="5.71916">
        <ele>405</ele>
        <time>2013-06-14T09:48:35Z</time>
      </trkpt>
      <trkpt lat="45.40243" lon="5.71922">
        <ele>406</ele>
        <time>2013-06-14T09:48:39Z</time>
      </trkpt>
      <trkpt lat="45.40256" lon="5.71936">
        <ele>405</ele>
        <time>2013-06-14T09:48:49Z</time>
      </trkpt>
      <trkpt lat="45.40257" lon="5.71939">
        <ele>406</ele>
        <time>2013-06-14T09:48:51Z</time>
      </trkpt>
      <trkpt lat="45.40259" lon="5.71943">
        <ele>406</ele>
        <time>2013-06-14T09:48:54Z</time>
      </trkpt>
      <trkpt lat="45.40265" lon="5.71951">
        <ele>405</ele>
        <time>2013-06-14T09:49:00Z</time>
      </trkpt>
      <trkpt lat="45.40293" lon="5.71984">
        <ele>405</ele>
        <time>2013-06-14T09:49:24Z</time>
      </trkpt>
      <trkpt lat="45.403" lon="5.71991">
        <ele>405</ele>
        <time>2013-06-14T09:49:30Z</time>
      </trkpt>
      <trkpt lat="45.40301" lon="5.71994">
        <ele>405</ele>
        <time>2013-06-14T09:49:32Z</time>
      </trkpt>
      <trkpt lat="45.40335" lon="5.72038">
        <ele>405</ele>
        <time>2013-06-14T09:50:03Z</time>
      </trkpt>
      <trkpt lat="45.40372" lon="5.72083">
        <ele>405</ele>
        <time>2013-06-14T09:50:36Z</time>
      </trkpt>
      <trkpt lat="45.40378" lon="5.72093">
        <ele>405</ele>
        <time>2013-06-14T09:50:56Z</time>
      </trkpt>
      <trkpt lat="45.40378" lon="5.72093">
        <ele>406</ele>
        <time>2013-06-14T09:51:10Z</time>
      </trkpt>
      <trkpt lat="45.40379" lon="5.72098">
        <ele>405</ele>
        <time>2013-06-14T09:51:14Z</time>
      </trkpt>
      <trkpt lat="45.40374" lon="5.72107">
        <ele>405</ele>
        <time>2013-06-14T09:51:19Z</time>
      </trkpt>
      <trkpt lat="45.40373" lon="5.7211">
        <ele>405</ele>
        <time>2013-06-14T09:51:21Z</time>
      </trkpt>
      <trkpt lat="45.40374" lon="5.72117">
        <ele>405</ele>
        <time>2013-06-14T09:51:25Z</time>
      </trkpt>
      <trkpt lat="45.40376" lon="5.72121">
        <ele>405</ele>
        <time>2013-06-14T09:51:27Z</time>
      </trkpt>
      <trkpt lat="45.40408" lon="5.7216">
        <ele>405</ele>
        <time>2013-06-14T09:51:55Z</time>
      </trkpt>
      <trkpt lat="45.40438" lon="5.72199">
        <ele>404</ele>
        <time>2013-06-14T09:52:24Z</time>
      </trkpt>
      <trkpt lat="45.40474" lon="5.72244">
        <ele>404</ele>
        <time>2013-06-14T09:52:56Z</time>
      </trkpt>
      <trkpt lat="45.4051" lon="5.72289">
        <ele>405</ele>
        <time>2013-06-14T09:53:29Z</time>
      </trkpt>
      <trkpt lat="45.40545" lon="5.72338">
        <ele>404</ele>
        <time>2013-06-14T09:54:02Z</time>
      </trkpt>
      <trkpt lat="45.40549" lon="5.72344">
        <ele>404</ele>
        <time>2013-06-14T09:54:06Z</time>
      </trkpt>
      <trkpt lat="45.40555" lon="5.7235">
        <ele>404</ele>
        <time>2013-06-14T09:54:11Z</time>
      </trkpt>
      <trkpt lat="45.40558" lon="5.72354">
        <ele>404</ele>
        <time>2013-06-14T09:54:14Z</time>
      </trkpt>
      <trkpt lat="45.40559" lon="5.72362">
        <ele>404</ele>
        <time>2013-06-14T09:54:18Z</time>
      </trkpt>
      <trkpt lat="45.40574" lon="5.72377">
        <ele>404</ele>
        <time>2013-06-14T09:54:30Z</time>
      </trkpt>
      <trkpt lat="45.40589" lon="5.72389">
        <ele>404</ele>
        <time>2013-06-14T09:54:40Z</time>
      </trkpt>
      <trkpt lat="45.4059" lon="5.72391">
        <ele>404</ele>
        <time>2013-06-14T09:54:41Z</time>
      </trkpt>
      <trkpt lat="45.40592" lon="5.72397">
        <ele>404</ele>
        <time>2013-06-14T09:54:45Z</time>
      </trkpt>
      <trkpt lat="45.40595" lon="5.72403">
        <ele>404</ele>
        <time>2013-06-14T09:54:49Z</time>
      </trkpt>
      <trkpt lat="45.406" lon="5.72404">
        <ele>404</ele>
        <time>2013-06-14T09:54:51Z</time>
      </trkpt>
      <trkpt lat="45.40609" lon="5.72413">
        <ele>404</ele>
        <time>2013-06-14T09:54:58Z</time>
      </trkpt>
      <trkpt lat="45.40613" lon="5.72416">
        <ele>404</ele>
        <time>2013-06-14T09:55:00Z</time>
      </trkpt>
      <trkpt lat="45.40614" lon="5.72424">
        <ele>404</ele>
        <time>2013-06-14T09:55:04Z</time>
      </trkpt>
      <trkpt lat="45.40618" lon="5.72433">
        <ele>404</ele>
        <time>2013-06-14T09:55:09Z</time>
      </trkpt>
      <trkpt lat="45.40631" lon="5.72451">
        <ele>404</ele>
        <time>2013-06-14T09:55:22Z</time>
      </trkpt>
      <trkpt lat="45.40632" lon="5.72458">
        <ele>404</ele>
        <time>2013-06-14T09:55:27Z</time>
      </trkpt>
      <trkpt lat="45.40646" lon="5.72464">
        <ele>404</ele>
        <time>2013-06-14T09:55:34Z</time>
      </trkpt>
      <trkpt lat="45.40649" lon="5.7247">
        <ele>404</ele>
        <time>2013-06-14T09:55:38Z</time>
      </trkpt>
      <trkpt lat="45.40652" lon="5.72476">
        <ele>403</ele>
        <time>2013-06-14T09:55:42Z</time>
      </trkpt>
      <trkpt lat="45.40653" lon="5.72483">
        <ele>403</ele>
        <time>2013-06-14T09:55:46Z</time>
      </trkpt>
      <trkpt lat="45.40656" lon="5.72486">
        <ele>403</ele>
        <time>2013-06-14T09:55:48Z</time>
      </trkpt>
      <trkpt lat="45.40666" lon="5.72489">
        <ele>403</ele>
        <time>2013-06-14T09:55:52Z</time>
      </trkpt>
      <trkpt lat="45.40667" lon="5.72495">
        <ele>403</ele>
        <time>2013-06-14T09:55:56Z</time>
      </trkpt>
      <trkpt lat="45.40668" lon="5.72508">
        <ele>403</ele>
        <time>2013-06-14T09:56:01Z</time>
      </trkpt>
      <trkpt lat="45.40676" lon="5.72519">
        <ele>403</ele>
        <time>2013-06-14T09:56:10Z</time>
      </trkpt>
      <trkpt lat="45.40684" lon="5.72533">
        <ele>403</ele>
        <time>2013-06-14T09:56:18Z</time>
      </trkpt>
      <trkpt lat="45.40686" lon="5.72537">
        <ele>403</ele>
        <time>2013-06-14T09:56:21Z</time>
      </trkpt>
      <trkpt lat="45.4069" lon="5.7254">
        <ele>403</ele>
        <time>2013-06-14T09:56:24Z</time>
      </trkpt>
      <trkpt lat="45.40705" lon="5.72574">
        <ele>404</ele>
        <time>2013-06-14T09:56:46Z</time>
      </trkpt>
      <trkpt lat="45.40724" lon="5.72618">
        <ele>404</ele>
        <time>2013-06-14T09:57:13Z</time>
      </trkpt>
      <trkpt lat="45.40729" lon="5.72626">
        <ele>403</ele>
        <time>2013-06-14T09:57:18Z</time>
      </trkpt>
      <trkpt lat="45.4073" lon="5.72631">
        <ele>403</ele>
        <time>2013-06-14T09:57:21Z</time>
      </trkpt>
      <trkpt lat="45.40745" lon="5.72661">
        <ele>403</ele>
        <time>2013-06-14T09:57:40Z</time>
      </trkpt>
      <trkpt lat="45.4076" lon="5.72694">
        <ele>403</ele>
        <time>2013-06-14T09:58:00Z</time>
      </trkpt>
      <trkpt lat="45.40763" lon="5.72698">
        <ele>403</ele>
        <time>2013-06-14T09:58:02Z</time>
      </trkpt>
      <trkpt lat="45.40775" lon="5.7272">
        <ele>404</ele>
        <time>2013-06-14T09:58:21Z</time>
      </trkpt>
      <trkpt lat="45.40782" lon="5.7274">
        <ele>404</ele>
        <time>2013-06-14T09:58:32Z</time>
      </trkpt>
      <trkpt lat="45.40801" lon="5.72773">
        <ele>404</ele>
        <time>2013-06-14T09:58:52Z</time>
      </trkpt>
      <trkpt lat="45.40804" lon="5.72782">
        <ele>405</ele>
        <time>2013-06-14T09:58:59Z</time>
      </trkpt>
      <trkpt lat="45.40807" lon="5.72793">
        <ele>404</ele>
        <time>2013-06-14T09:59:10Z</time>
      </trkpt>
      <trkpt lat="45.40823" lon="5.72781">
        <ele>405</ele>
        <time>2013-06-14T09:59:22Z</time>
      </trkpt>
      <trkpt lat="45.40829" lon="5.72787">
        <ele>404</ele>
        <time>2013-06-14T09:59:25Z</time>
      </trkpt>
      <trkpt lat="45.40832" lon="5.7279">
        <ele>404</ele>
        <time>2013-06-14T09:59:27Z</time>
      </trkpt>
      <trkpt lat="45.40843" lon="5.72831">
        <ele>404</ele>
        <time>2013-06-14T09:59:50Z</time>
      </trkpt>
      <trkpt lat="45.40857" lon="5.7287">
        <ele>403</ele>
        <time>2013-06-14T10:00:14Z</time>
      </trkpt>
      <trkpt lat="45.40874" lon="5.72918">
        <ele>403</ele>
        <time>2013-06-14T10:00:40Z</time>
      </trkpt>
      <trkpt lat="45.40893" lon="5.72978">
        <ele>404</ele>
        <time>2013-06-14T10:01:11Z</time>
      </trkpt>
      <trkpt lat="45.40913" lon="5.73035">
        <ele>404</ele>
        <time>2013-06-14T10:01:42Z</time>
      </trkpt>
      <trkpt lat="45.40935" lon="5.73098">
        <ele>404</ele>
        <time>2013-06-14T10:02:17Z</time>
      </trkpt>
      <trkpt lat="45.40959" lon="5.73163">
        <ele>404</ele>
        <time>2013-06-14T10:02:54Z</time>
      </trkpt>
      <trkpt lat="45.40976" lon="5.73215">
        <ele>404</ele>
        <time>2013-06-14T10:03:24Z</time>
      </trkpt>
      <trkpt lat="45.40977" lon="5.73218">
        <ele>404</ele>
        <time>2013-06-14T10:03:26Z</time>
      </trkpt>
      <trkpt lat="45.4098" lon="5.73222">
        <ele>403</ele>
        <time>2013-06-14T10:03:30Z</time>
      </trkpt>
      <trkpt lat="45.40981" lon="5.73225">
        <ele>403</ele>
        <time>2013-06-14T10:03:32Z</time>
      </trkpt>
      <trkpt lat="45.40996" lon="5.73258">
        <ele>403</ele>
        <time>2013-06-14T10:03:53Z</time>
      </trkpt>
      <trkpt lat="45.41023" lon="5.73296">
        <ele>403</ele>
        <time>2013-06-14T10:04:21Z</time>
      </trkpt>
      <trkpt lat="45.41042" lon="5.7332">
        <ele>403</ele>
        <time>2013-06-14T10:04:37Z</time>
      </trkpt>
      <trkpt lat="45.41062" lon="5.73356">
        <ele>403</ele>
        <time>2013-06-14T10:05:02Z</time>
      </trkpt>
      <trkpt lat="45.41065" lon="5.7336">
        <ele>404</ele>
        <time>2013-06-14T10:05:05Z</time>
      </trkpt>
      <trkpt lat="45.41085" lon="5.73387">
        <ele>403</ele>
        <time>2013-06-14T10:05:25Z</time>
      </trkpt>
      <trkpt lat="45.41108" lon="5.73427">
        <ele>403</ele>
        <time>2013-06-14T10:05:51Z</time>
      </trkpt>
      <trkpt lat="45.41109" lon="5.73429">
        <ele>402</ele>
        <time>2013-06-14T10:05:53Z</time>
      </trkpt>
      <trkpt lat="45.41122" lon="5.73449">
        <ele>403</ele>
        <time>2013-06-14T10:06:09Z</time>
      </trkpt>
      <trkpt lat="45.41138" lon="5.73472">
        <ele>403</ele>
        <time>2013-06-14T10:06:25Z</time>
      </trkpt>
      <trkpt lat="45.41163" lon="5.7351">
        <ele>402</ele>
        <time>2013-06-14T10:06:51Z</time>
      </trkpt>
      <trkpt lat="45.41179" lon="5.73537">
        <ele>402</ele>
        <time>2013-06-14T10:07:08Z</time>
      </trkpt>
      <trkpt lat="45.41208" lon="5.73583">
        <ele>402</ele>
        <time>2013-06-14T10:07:36Z</time>
      </trkpt>
      <trkpt lat="45.41238" lon="5.73623">
        <ele>402</ele>
        <time>2013-06-14T10:08:04Z</time>
      </trkpt>
      <trkpt lat="45.41239" lon="5.73627">
        <ele>403</ele>
        <time>2013-06-14T10:08:06Z</time>
      </trkpt>
      <trkpt lat="45.41269" lon="5.73674">
        <ele>401</ele>
        <time>2013-06-14T10:08:36Z</time>
      </trkpt>
      <trkpt lat="45.41297" lon="5.73711">
        <ele>401</ele>
        <time>2013-06-14T10:09:01Z</time>
      </trkpt>
      <trkpt lat="45.41321" lon="5.73739">
        <ele>401</ele>
        <time>2013-06-14T10:09:24Z</time>
      </trkpt>
      <trkpt lat="45.41321" lon="5.73741">
        <ele>401</ele>
        <time>2013-06-14T10:09:25Z</time>
      </trkpt>
      <trkpt lat="45.41332" lon="5.7375">
        <ele>401</ele>
        <time>2013-06-14T10:09:32Z</time>
      </trkpt>
      <trkpt lat="45.41354" lon="5.7377">
        <ele>401</ele>
        <time>2013-06-14T10:09:48Z</time>
      </trkpt>
      <trkpt lat="45.41368" lon="5.73783">
        <ele>401</ele>
        <time>2013-06-14T10:10:11Z</time>
      </trkpt>
      <trkpt lat="45.41369" lon="5.73782">
        <ele>401</ele>
        <time>2013-06-14T10:10:41Z</time>
      </trkpt>
      <trkpt lat="45.41369" lon="5.73781">
        <ele>401</ele>
        <time>2013-06-14T10:11:12Z</time>
      </trkpt>
      <trkpt lat="45.4137" lon="5.7379">
        <ele>401</ele>
        <time>2013-06-14T10:11:19Z</time>
      </trkpt>
      <trkpt lat="45.41354" lon="5.73815">
        <ele>402</ele>
        <time>2013-06-14T10:12:22Z</time>
      </trkpt>
      <trkpt lat="45.41387" lon="5.73834">
        <ele>401</ele>
        <time>2013-06-14T10:12:47Z</time>
      </trkpt>
      <trkpt lat="45.41393" lon="5.73842">
        <ele>401</ele>
        <time>2013-06-14T10:13:04Z</time>
      </trkpt>
      <trkpt lat="45.41382" lon="5.73834">
        <ele>401</ele>
        <time>2013-06-14T10:13:12Z</time>
      </trkpt>
      <trkpt lat="45.41367" lon="5.73863">
        <ele>401</ele>
        <time>2013-06-14T10:13:30Z</time>
      </trkpt>
      <trkpt lat="45.4136" lon="5.73876">
        <ele>400</ele>
        <time>2013-06-14T10:13:37Z</time>
      </trkpt>
      <trkpt lat="45.41345" lon="5.739">
        <ele>400</ele>
        <time>2013-06-14T10:13:52Z</time>
      </trkpt>
      <trkpt lat="45.41334" lon="5.73923">
        <ele>401</ele>
        <time>2013-06-14T10:14:01Z</time>
      </trkpt>
      <trkpt lat="45.41332" lon="5.73927">
        <ele>400</ele>
        <time>2013-06-14T10:14:06Z</time>
      </trkpt>
      <trkpt lat="45.41326" lon="5.73938">
        <ele>400</ele>
        <time>2013-06-14T10:14:12Z</time>
      </trkpt>
      <trkpt lat="45.41323" lon="5.73946">
        <ele>400</ele>
        <time>2013-06-14T10:14:15Z</time>
      </trkpt>
      <trkpt lat="45.4132" lon="5.73951">
        <ele>401</ele>
        <time>2013-06-14T10:14:18Z</time>
      </trkpt>
      <trkpt lat="45.41306" lon="5.73978">
        <ele>400</ele>
        <time>2013-06-14T10:14:33Z</time>
      </trkpt>
      <trkpt lat="45.41297" lon="5.73993">
        <ele>401</ele>
        <time>2013-06-14T10:14:45Z</time>
      </trkpt>
      <trkpt lat="45.41295" lon="5.73997">
        <ele>401</ele>
        <time>2013-06-14T10:14:48Z</time>
      </trkpt>
      <trkpt lat="45.41292" lon="5.74">
        <ele>401</ele>
        <time>2013-06-14T10:14:51Z</time>
      </trkpt>
      <trkpt lat="45.41292" lon="5.74007">
        <ele>401</ele>
        <time>2013-06-14T10:14:54Z</time>
      </trkpt>
      <trkpt lat="45.41288" lon="5.74018">
        <ele>401</ele>
        <time>2013-06-14T10:14:59Z</time>
      </trkpt>
      <trkpt lat="45.41288" lon="5.74029">
        <ele>401</ele>
        <time>2013-06-14T10:15:04Z</time>
      </trkpt>
      <trkpt lat="45.41292" lon="5.7403">
        <ele>401</ele>
        <time>2013-06-14T10:15:07Z</time>
      </trkpt>
      <trkpt lat="45.41296" lon="5.74036">
        <ele>400</ele>
        <time>2013-06-14T10:15:12Z</time>
      </trkpt>
      <trkpt lat="45.41302" lon="5.74039">
        <ele>400</ele>
        <time>2013-06-14T10:15:16Z</time>
      </trkpt>
      <trkpt lat="45.41317" lon="5.74049">
        <ele>400</ele>
        <time>2013-06-14T10:15:27Z</time>
      </trkpt>
      <trkpt lat="45.41322" lon="5.7406">
        <ele>400</ele>
        <time>2013-06-14T10:15:31Z</time>
      </trkpt>
      <trkpt lat="45.41327" lon="5.7407">
        <ele>400</ele>
        <time>2013-06-14T10:15:37Z</time>
      </trkpt>
      <trkpt lat="45.4134" lon="5.74082">
        <ele>400</ele>
        <time>2013-06-14T10:15:47Z</time>
      </trkpt>
      <trkpt lat="45.41349" lon="5.74089">
        <ele>400</ele>
        <time>2013-06-14T10:15:53Z</time>
      </trkpt>
      <trkpt lat="45.41355" lon="5.74096">
        <ele>400</ele>
        <time>2013-06-14T10:15:59Z</time>
      </trkpt>
      <trkpt lat="45.41357" lon="5.74098">
        <ele>399</ele>
        <time>2013-06-14T10:16:01Z</time>
      </trkpt>
      <trkpt lat="45.41368" lon="5.74107">
        <ele>399</ele>
        <time>2013-06-14T10:16:09Z</time>
      </trkpt>
      <trkpt lat="45.41376" lon="5.74118">
        <ele>400</ele>
        <time>2013-06-14T10:16:15Z</time>
      </trkpt>
      <trkpt lat="45.41384" lon="5.74124">
        <ele>399</ele>
        <time>2013-06-14T10:16:21Z</time>
      </trkpt>
      <trkpt lat="45.41387" lon="5.74131">
        <ele>399</ele>
        <time>2013-06-14T10:16:25Z</time>
      </trkpt>
      <trkpt lat="45.41407" lon="5.74144">
        <ele>399</ele>
        <time>2013-06-14T10:16:37Z</time>
      </trkpt>
      <trkpt lat="45.41409" lon="5.74147">
        <ele>399</ele>
        <time>2013-06-14T10:16:39Z</time>
      </trkpt>
      <trkpt lat="45.4141" lon="5.74168">
        <ele>399</ele>
        <time>2013-06-14T10:16:48Z</time>
      </trkpt>
      <trkpt lat="45.41408" lon="5.74176">
        <ele>399</ele>
        <time>2013-06-14T10:16:55Z</time>
      </trkpt>
      <trkpt lat="45.41404" lon="5.74191">
        <ele>399</ele>
        <time>2013-06-14T10:17:02Z</time>
      </trkpt>
      <trkpt lat="45.41401" lon="5.74227">
        <ele>399</ele>
        <time>2013-06-14T10:17:17Z</time>
      </trkpt>
      <trkpt lat="45.41399" lon="5.74238">
        <ele>399</ele>
        <time>2013-06-14T10:17:22Z</time>
      </trkpt>
      <trkpt lat="45.41398" lon="5.7426">
        <ele>399</ele>
        <time>2013-06-14T10:17:35Z</time>
      </trkpt>
      <trkpt lat="45.41396" lon="5.74273">
        <ele>400</ele>
        <time>2013-06-14T10:17:44Z</time>
      </trkpt>
      <trkpt lat="45.4139" lon="5.74287">
        <ele>400</ele>
        <time>2013-06-14T10:17:50Z</time>
      </trkpt>
      <trkpt lat="45.41391" lon="5.74289">
        <ele>400</ele>
        <time>2013-06-14T10:17:57Z</time>
      </trkpt>
      <trkpt lat="45.41383" lon="5.74286">
        <ele>400</ele>
        <time>2013-06-14T10:18:04Z</time>
      </trkpt>
      <trkpt lat="45.41363" lon="5.74278">
        <ele>400</ele>
        <time>2013-06-14T10:18:18Z</time>
      </trkpt>
      <trkpt lat="45.41342" lon="5.74272">
        <ele>400</ele>
        <time>2013-06-14T10:18:31Z</time>
      </trkpt>
      <trkpt lat="45.41339" lon="5.74274">
        <ele>401</ele>
        <time>2013-06-14T10:18:33Z</time>
      </trkpt>
      <trkpt lat="45.4133" lon="5.74281">
        <ele>401</ele>
        <time>2013-06-14T10:18:39Z</time>
      </trkpt>
      <trkpt lat="45.41329" lon="5.74283">
        <ele>401</ele>
        <time>2013-06-14T10:18:41Z</time>
      </trkpt>
      <trkpt lat="45.41331" lon="5.74306">
        <ele>401</ele>
        <time>2013-06-14T10:18:50Z</time>
      </trkpt>
      <trkpt lat="45.4133" lon="5.74314">
        <ele>401</ele>
        <time>2013-06-14T10:18:58Z</time>
      </trkpt>
      <trkpt lat="45.41352" lon="5.74325">
        <ele>401</ele>
        <time>2013-06-14T10:19:13Z</time>
      </trkpt>
      <trkpt lat="45.41358" lon="5.74331">
        <ele>401</ele>
        <time>2013-06-14T10:19:25Z</time>
      </trkpt>
      <trkpt lat="45.4136" lon="5.74333">
        <ele>401</ele>
        <time>2013-06-14T10:19:38Z</time>
      </trkpt>
      <trkpt lat="45.41361" lon="5.74334">
        <ele>401</ele>
        <time>2013-06-14T10:20:14Z</time>
      </trkpt>
      <trkpt lat="45.4139" lon="5.74337">
        <ele>401</ele>
        <time>2013-06-14T10:20:47Z</time>
      </trkpt>
      <trkpt lat="45.41434" lon="5.74344">
        <ele>401</ele>
        <time>2013-06-14T10:21:14Z</time>
      </trkpt>
      <trkpt lat="45.41464" lon="5.74351">
        <ele>400</ele>
        <time>2013-06-14T10:21:35Z</time>
      </trkpt>
      <trkpt lat="45.41473" lon="5.74355">
        <ele>400</ele>
        <time>2013-06-14T10:21:41Z</time>
      </trkpt>
      <trkpt lat="45.4152" lon="5.74367">
        <ele>400</ele>
        <time>2013-06-14T10:22:12Z</time>
      </trkpt>
      <trkpt lat="45.41555" lon="5.74385">
        <ele>400</ele>
        <time>2013-06-14T10:22:37Z</time>
      </trkpt>
      <trkpt lat="45.41585" lon="5.74425">
        <ele>400</ele>
        <time>2013-06-14T10:23:05Z</time>
      </trkpt>
      <trkpt lat="45.41607" lon="5.74471">
        <ele>399</ele>
        <time>2013-06-14T10:23:32Z</time>
      </trkpt>
      <trkpt lat="45.41627" lon="5.74516">
        <ele>399</ele>
        <time>2013-06-14T10:23:58Z</time>
      </trkpt>
      <trkpt lat="45.41629" lon="5.74523">
        <ele>399</ele>
        <time>2013-06-14T10:24:02Z</time>
      </trkpt>
      <trkpt lat="45.41631" lon="5.74532">
        <ele>399</ele>
        <time>2013-06-14T10:24:06Z</time>
      </trkpt>
      <trkpt lat="45.41635" lon="5.74543">
        <ele>398</ele>
        <time>2013-06-14T10:24:12Z</time>
      </trkpt>
      <trkpt lat="45.4165" lon="5.74573">
        <ele>398</ele>
        <time>2013-06-14T10:24:30Z</time>
      </trkpt>
      <trkpt lat="45.41651" lon="5.74577">
        <ele>398</ele>
        <time>2013-06-14T10:24:32Z</time>
      </trkpt>
      <trkpt lat="45.41653" lon="5.74582">
        <ele>398</ele>
        <time>2013-06-14T10:24:35Z</time>
      </trkpt>
      <trkpt lat="45.41657" lon="5.74588">
        <ele>398</ele>
        <time>2013-06-14T10:24:39Z</time>
      </trkpt>
      <trkpt lat="45.41662" lon="5.74595">
        <ele>398</ele>
        <time>2013-06-14T10:24:44Z</time>
      </trkpt>
      <trkpt lat="45.41664" lon="5.74597">
        <ele>398</ele>
        <time>2013-06-14T10:24:46Z</time>
      </trkpt>
      <trkpt lat="45.41672" lon="5.74611">
        <ele>398</ele>
        <time>2013-06-14T10:24:54Z</time>
      </trkpt>
      <trkpt lat="45.41676" lon="5.74621">
        <ele>398</ele>
        <time>2013-06-14T10:25:00Z</time>
      </trkpt>
      <trkpt lat="45.41702" lon="5.74675">
        <ele>398</ele>
        <time>2013-06-14T10:25:32Z</time>
      </trkpt>
      <trkpt lat="45.41703" lon="5.74679">
        <ele>398</ele>
        <time>2013-06-14T10:25:34Z</time>
      </trkpt>
      <trkpt lat="45.41715" lon="5.74698">
        <ele>398</ele>
        <time>2013-06-14T10:25:45Z</time>
      </trkpt>
      <trkpt lat="45.41718" lon="5.74705">
        <ele>398</ele>
        <time>2013-06-14T10:25:49Z</time>
      </trkpt>
      <trkpt lat="45.41721" lon="5.74711">
        <ele>398</ele>
        <time>2013-06-14T10:25:53Z</time>
      </trkpt>
      <trkpt lat="45.41748" lon="5.74763">
        <ele>397</ele>
        <time>2013-06-14T10:26:24Z</time>
      </trkpt>
      <trkpt lat="45.41751" lon="5.74768">
        <ele>397</ele>
        <time>2013-06-14T10:26:27Z</time>
      </trkpt>
      <trkpt lat="45.41761" lon="5.74797">
        <ele>397</ele>
        <time>2013-06-14T10:26:42Z</time>
      </trkpt>
      <trkpt lat="45.4178" lon="5.74837">
        <ele>397</ele>
        <time>2013-06-14T10:27:05Z</time>
      </trkpt>
      <trkpt lat="45.41781" lon="5.74838">
        <ele>397</ele>
        <time>2013-06-14T10:27:06Z</time>
      </trkpt>
      <trkpt lat="45.41784" lon="5.74843">
        <ele>396</ele>
        <time>2013-06-14T10:27:09Z</time>
      </trkpt>
      <trkpt lat="45.41789" lon="5.7485">
        <ele>397</ele>
        <time>2013-06-14T10:27:16Z</time>
      </trkpt>
      <trkpt lat="45.41796" lon="5.7486">
        <ele>396</ele>
        <time>2013-06-14T10:27:22Z</time>
      </trkpt>
      <trkpt lat="45.41807" lon="5.74873">
        <ele>397</ele>
        <time>2013-06-14T10:27:30Z</time>
      </trkpt>
      <trkpt lat="45.41833" lon="5.74896">
        <ele>396</ele>
        <time>2013-06-14T10:27:51Z</time>
      </trkpt>
      <trkpt lat="45.41841" lon="5.74902">
        <ele>396</ele>
        <time>2013-06-14T10:27:57Z</time>
      </trkpt>
      <trkpt lat="45.4186" lon="5.74913">
        <ele>396</ele>
        <time>2013-06-14T10:28:11Z</time>
      </trkpt>
      <trkpt lat="45.41864" lon="5.74918">
        <ele>396</ele>
        <time>2013-06-14T10:28:15Z</time>
      </trkpt>
      <trkpt lat="45.41869" lon="5.74923">
        <ele>396</ele>
        <time>2013-06-14T10:28:19Z</time>
      </trkpt>
      <trkpt lat="45.41872" lon="5.74937">
        <ele>395</ele>
        <time>2013-06-14T10:28:27Z</time>
      </trkpt>
      <trkpt lat="45.41868" lon="5.74957">
        <ele>395</ele>
        <time>2013-06-14T10:28:37Z</time>
      </trkpt>
      <trkpt lat="45.41867" lon="5.74963">
        <ele>395</ele>
        <time>2013-06-14T10:28:41Z</time>
      </trkpt>
      <trkpt lat="45.41864" lon="5.75004">
        <ele>394</ele>
        <time>2013-06-14T10:29:01Z</time>
      </trkpt>
      <trkpt lat="45.41865" lon="5.75017">
        <ele>394</ele>
        <time>2013-06-14T10:29:07Z</time>
      </trkpt>
      <trkpt lat="45.41902" lon="5.75042">
        <ele>394</ele>
        <time>2013-06-14T10:29:34Z</time>
      </trkpt>
      <trkpt lat="45.41939" lon="5.75061">
        <ele>394</ele>
        <time>2013-06-14T10:29:55Z</time>
      </trkpt>
      <trkpt lat="45.41977" lon="5.75086">
        <ele>395</ele>
        <time>2013-06-14T10:30:24Z</time>
      </trkpt>
      <trkpt lat="45.42009" lon="5.75102">
        <ele>395</ele>
        <time>2013-06-14T10:30:49Z</time>
      </trkpt>
      <trkpt lat="45.42018" lon="5.75105">
        <ele>395</ele>
        <time>2013-06-14T10:30:55Z</time>
      </trkpt>
      <trkpt lat="45.42046" lon="5.75124">
        <ele>395</ele>
        <time>2013-06-14T10:31:17Z</time>
      </trkpt>
      <trkpt lat="45.42049" lon="5.75125">
        <ele>395</ele>
        <time>2013-06-14T10:31:19Z</time>
      </trkpt>
      <trkpt lat="45.42078" lon="5.75147">
        <ele>397</ele>
        <time>2013-06-14T10:31:43Z</time>
      </trkpt>
      <trkpt lat="45.421" lon="5.75168">
        <ele>398</ele>
        <time>2013-06-14T10:32:04Z</time>
      </trkpt>
      <trkpt lat="45.42103" lon="5.7517">
        <ele>398</ele>
        <time>2013-06-14T10:32:06Z</time>
      </trkpt>
      <trkpt lat="45.42131" lon="5.75193">
        <ele>398</ele>
        <time>2013-06-14T10:32:30Z</time>
      </trkpt>
      <trkpt lat="45.42158" lon="5.75211">
        <ele>397</ele>
        <time>2013-06-14T10:32:50Z</time>
      </trkpt>
      <trkpt lat="45.42184" lon="5.75231">
        <ele>398</ele>
        <time>2013-06-14T10:33:11Z</time>
      </trkpt>
      <trkpt lat="45.42205" lon="5.75253">
        <ele>398</ele>
        <time>2013-06-14T10:33:30Z</time>
      </trkpt>
      <trkpt lat="45.42237" lon="5.75271">
        <ele>397</ele>
        <time>2013-06-14T10:33:53Z</time>
      </trkpt>
      <trkpt lat="45.42241" lon="5.75274">
        <ele>398</ele>
        <time>2013-06-14T10:33:56Z</time>
      </trkpt>
      <trkpt lat="45.42248" lon="5.75276">
        <ele>397</ele>
        <time>2013-06-14T10:34:01Z</time>
      </trkpt>
      <trkpt lat="45.42277" lon="5.75288">
        <ele>397</ele>
        <time>2013-06-14T10:34:23Z</time>
      </trkpt>
      <trkpt lat="45.42282" lon="5.75289">
        <ele>397</ele>
        <time>2013-06-14T10:34:27Z</time>
      </trkpt>
      <trkpt lat="45.42307" lon="5.75293">
        <ele>398</ele>
        <time>2013-06-14T10:34:44Z</time>
      </trkpt>
      <trkpt lat="45.42318" lon="5.75295">
        <ele>398</ele>
        <time>2013-06-14T10:34:52Z</time>
      </trkpt>
      <trkpt lat="45.42344" lon="5.75297">
        <ele>399</ele>
        <time>2013-06-14T10:35:11Z</time>
      </trkpt>
      <trkpt lat="45.42348" lon="5.75298">
        <ele>398</ele>
        <time>2013-06-14T10:35:15Z</time>
      </trkpt>
      <trkpt lat="45.42352" lon="5.75299">
        <ele>398</ele>
        <time>2013-06-14T10:35:18Z</time>
      </trkpt>
      <trkpt lat="45.42366" lon="5.75302">
        <ele>399</ele>
        <time>2013-06-14T10:35:28Z</time>
      </trkpt>
      <trkpt lat="45.42381" lon="5.75308">
        <ele>398</ele>
        <time>2013-06-14T10:35:39Z</time>
      </trkpt>
      <trkpt lat="45.42423" lon="5.75344">
        <ele>398</ele>
        <time>2013-06-14T10:36:13Z</time>
      </trkpt>
      <trkpt lat="45.42448" lon="5.75361">
        <ele>399</ele>
        <time>2013-06-14T10:36:31Z</time>
      </trkpt>
      <trkpt lat="45.42492" lon="5.7539">
        <ele>399</ele>
        <time>2013-06-14T10:37:03Z</time>
      </trkpt>
      <trkpt lat="45.42529" lon="5.75416">
        <ele>399</ele>
        <time>2013-06-14T10:37:33Z</time>
      </trkpt>
      <trkpt lat="45.42534" lon="5.7542">
        <ele>399</ele>
        <time>2013-06-14T10:37:59Z</time>
      </trkpt>
      <trkpt lat="45.4254" lon="5.75427">
        <ele>399</ele>
        <time>2013-06-14T10:38:37Z</time>
      </trkpt>
      <trkpt lat="45.4255" lon="5.75431">
        <ele>399</ele>
        <time>2013-06-14T10:38:54Z</time>
      </trkpt>
      <trkpt lat="45.42557" lon="5.75444">
        <ele>399</ele>
        <time>2013-06-14T10:39:03Z</time>
      </trkpt>
      <trkpt lat="45.42573" lon="5.75456">
        <ele>399</ele>
        <time>2013-06-14T10:39:19Z</time>
      </trkpt>
      <trkpt lat="45.42586" lon="5.75461">
        <ele>399</ele>
        <time>2013-06-14T10:39:30Z</time>
      </trkpt>
      <trkpt lat="45.42591" lon="5.7546">
        <ele>399</ele>
        <time>2013-06-14T10:39:51Z</time>
      </trkpt>
      <trkpt lat="45.42591" lon="5.7546">
        <ele>399</ele>
        <time>2013-06-14T10:39:57Z</time>
      </trkpt>
      <trkpt lat="45.42635" lon="5.75471">
        <ele>399</ele>
        <time>2013-06-14T10:40:30Z</time>
      </trkpt>
      <trkpt lat="45.42659" lon="5.75476">
        <ele>400</ele>
        <time>2013-06-14T10:40:53Z</time>
      </trkpt>
      <trkpt lat="45.42711" lon="5.75487">
        <ele>400</ele>
        <time>2013-06-14T10:41:29Z</time>
      </trkpt>
      <trkpt lat="45.42748" lon="5.75493">
        <ele>400</ele>
        <time>2013-06-14T10:41:53Z</time>
      </trkpt>
      <trkpt lat="45.42753" lon="5.75492">
        <ele>400</ele>
        <time>2013-06-14T10:42:13Z</time>
      </trkpt>
      <trkpt lat="45.42761" lon="5.75497">
        <ele>400</ele>
        <time>2013-06-14T10:42:59Z</time>
      </trkpt>
      <trkpt lat="45.42764" lon="5.7556">
        <ele>401</ele>
        <time>2013-06-14T10:43:32Z</time>
      </trkpt>
      <trkpt lat="45.42764" lon="5.75583">
        <ele>401</ele>
        <time>2013-06-14T10:43:59Z</time>
      </trkpt>
      <trkpt lat="45.42764" lon="5.75584">
        <ele>401</ele>
        <time>2013-06-14T10:44:05Z</time>
      </trkpt>
      <trkpt lat="45.42765" lon="5.75604">
        <ele>401</ele>
        <time>2013-06-14T10:44:27Z</time>
      </trkpt>
      <trkpt lat="45.42764" lon="5.75614">
        <ele>401</ele>
        <time>2013-06-14T10:44:42Z</time>
      </trkpt>
      <trkpt lat="45.42792" lon="5.75629">
        <ele>401</ele>
        <time>2013-06-14T10:45:03Z</time>
      </trkpt>
      <trkpt lat="45.4282" lon="5.75643">
        <ele>401</ele>
        <time>2013-06-14T10:45:24Z</time>
      </trkpt>
      <trkpt lat="45.42824" lon="5.75646">
        <ele>401</ele>
        <time>2013-06-14T10:45:32Z</time>
      </trkpt>
      <trkpt lat="45.42848" lon="5.75654">
        <ele>401</ele>
        <time>2013-06-14T10:45:49Z</time>
      </trkpt>
      <trkpt lat="45.42857" lon="5.7566">
        <ele>402</ele>
        <time>2013-06-14T10:45:56Z</time>
      </trkpt>
      <trkpt lat="45.42863" lon="5.75665">
        <ele>402</ele>
        <time>2013-06-14T10:46:01Z</time>
      </trkpt>
      <trkpt lat="45.42884" lon="5.75676">
        <ele>402</ele>
        <time>2013-06-14T10:46:19Z</time>
      </trkpt>
      <trkpt lat="45.4291" lon="5.75687">
        <ele>403</ele>
        <time>2013-06-14T10:46:36Z</time>
      </trkpt>
      <trkpt lat="45.42917" lon="5.7569">
        <ele>403</ele>
        <time>2013-06-14T10:46:41Z</time>
      </trkpt>
      <trkpt lat="45.42921" lon="5.75692">
        <ele>403</ele>
        <time>2013-06-14T10:46:44Z</time>
      </trkpt>
      <trkpt lat="45.42927" lon="5.75707">
        <ele>403</ele>
        <time>2013-06-14T10:46:52Z</time>
      </trkpt>
      <trkpt lat="45.42927" lon="5.75729">
        <ele>404</ele>
        <time>2013-06-14T10:47:03Z</time>
      </trkpt>
      <trkpt lat="45.42922" lon="5.75751">
        <ele>404</ele>
        <time>2013-06-14T10:47:12Z</time>
      </trkpt>
      <trkpt lat="45.42917" lon="5.75773">
        <ele>404</ele>
        <time>2013-06-14T10:47:23Z</time>
      </trkpt>
      <trkpt lat="45.42917" lon="5.75782">
        <ele>404</ele>
        <time>2013-06-14T10:47:27Z</time>
      </trkpt>
      <trkpt lat="45.42916" lon="5.75793">
        <ele>404</ele>
        <time>2013-06-14T10:47:33Z</time>
      </trkpt>
      <trkpt lat="45.42907" lon="5.75803">
        <ele>403</ele>
        <time>2013-06-14T10:47:41Z</time>
      </trkpt>
      <trkpt lat="45.42903" lon="5.75837">
        <ele>403</ele>
        <time>2013-06-14T10:47:59Z</time>
      </trkpt>
      <trkpt lat="45.42903" lon="5.75849">
        <ele>402</ele>
        <time>2013-06-14T10:48:20Z</time>
      </trkpt>
      <trkpt lat="45.42902" lon="5.75857">
        <ele>403</ele>
        <time>2013-06-14T10:48:25Z</time>
      </trkpt>
      <trkpt lat="45.42898" lon="5.75884">
        <ele>403</ele>
        <time>2013-06-14T10:48:38Z</time>
      </trkpt>
      <trkpt lat="45.42896" lon="5.75911">
        <ele>402</ele>
        <time>2013-06-14T10:48:51Z</time>
      </trkpt>
      <trkpt lat="45.42894" lon="5.75917">
        <ele>402</ele>
        <time>2013-06-14T10:48:54Z</time>
      </trkpt>
      <trkpt lat="45.42891" lon="5.75937">
        <ele>403</ele>
        <time>2013-06-14T10:49:02Z</time>
      </trkpt>
      <trkpt lat="45.42885" lon="5.75976">
        <ele>402</ele>
        <time>2013-06-14T10:49:21Z</time>
      </trkpt>
      <trkpt lat="45.42888" lon="5.75985">
        <ele>402</ele>
        <time>2013-06-14T10:49:29Z</time>
      </trkpt>
      <trkpt lat="45.42886" lon="5.75997">
        <ele>402</ele>
        <time>2013-06-14T10:49:34Z</time>
      </trkpt>
      <trkpt lat="45.42878" lon="5.76049">
        <ele>402</ele>
        <time>2013-06-14T10:49:57Z</time>
      </trkpt>
      <trkpt lat="45.42879" lon="5.76049">
        <ele>402</ele>
        <time>2013-06-14T10:50:18Z</time>
      </trkpt>
      <trkpt lat="45.4288" lon="5.7605">
        <ele>402</ele>
        <time>2013-06-14T10:50:35Z</time>
      </trkpt>
      <trkpt lat="45.42873" lon="5.7609">
        <ele>401</ele>
        <time>2013-06-14T10:50:54Z</time>
      </trkpt>
      <trkpt lat="45.42868" lon="5.76128">
        <ele>401</ele>
        <time>2013-06-14T10:51:12Z</time>
      </trkpt>
      <trkpt lat="45.42866" lon="5.76137">
        <ele>401</ele>
        <time>2013-06-14T10:51:17Z</time>
      </trkpt>
      <trkpt lat="45.42867" lon="5.76144">
        <ele>401</ele>
        <time>2013-06-14T10:51:21Z</time>
      </trkpt>
      <trkpt lat="45.42859" lon="5.76178">
        <ele>401</ele>
        <time>2013-06-14T10:51:37Z</time>
      </trkpt>
      <trkpt lat="45.42858" lon="5.76185">
        <ele>401</ele>
        <time>2013-06-14T10:51:47Z</time>
      </trkpt>
      <trkpt lat="45.42857" lon="5.76182">
        <ele>401</ele>
        <time>2013-06-14T10:52:15Z</time>
      </trkpt>
      <trkpt lat="45.42857" lon="5.76182">
        <ele>401</ele>
        <time>2013-06-14T10:52:44Z</time>
      </trkpt>
      <trkpt lat="45.42852" lon="5.76218">
        <ele>402</ele>
        <time>2013-06-14T10:53:10Z</time>
      </trkpt>
      <trkpt lat="45.4285" lon="5.76233">
        <ele>402</ele>
        <time>2013-06-14T10:53:48Z</time>
      </trkpt>
      <trkpt lat="45.42848" lon="5.76231">
        <ele>402</ele>
        <time>2013-06-14T10:54:02Z</time>
      </trkpt>
      <trkpt lat="45.42847" lon="5.76232">
        <ele>402</ele>
        <time>2013-06-14T10:54:03Z</time>
      </trkpt>
      <trkpt lat="45.42875" lon="5.76262">
        <ele>403</ele>
        <time>2013-06-14T10:54:31Z</time>
      </trkpt>
      <trkpt lat="45.42931" lon="5.76304">
        <ele>404</ele>
        <time>2013-06-14T10:55:14Z</time>
      </trkpt>
      <trkpt lat="45.42975" lon="5.76337">
        <ele>404</ele>
        <time>2013-06-14T10:55:47Z</time>
      </trkpt>
      <trkpt lat="45.4299" lon="5.76349">
        <ele>404</ele>
        <time>2013-06-14T10:56:15Z</time>
      </trkpt>
      <trkpt lat="45.43023" lon="5.76373">
        <ele>405</ele>
        <time>2013-06-14T10:56:39Z</time>
      </trkpt>
      <trkpt lat="45.43071" lon="5.76407">
        <ele>406</ele>
        <time>2013-06-14T10:57:15Z</time>
      </trkpt>
      <trkpt lat="45.43106" lon="5.7643">
        <ele>406</ele>
        <time>2013-06-14T10:57:43Z</time>
      </trkpt>
      <trkpt lat="45.4315" lon="5.76454">
        <ele>406</ele>
        <time>2013-06-14T10:58:14Z</time>
      </trkpt>
      <trkpt lat="45.432" lon="5.76482">
        <ele>408</ele>
        <time>2013-06-14T10:58:49Z</time>
      </trkpt>
      <trkpt lat="45.43237" lon="5.76493">
        <ele>407</ele>
        <time>2013-06-14T10:59:15Z</time>
      </trkpt>
      <trkpt lat="45.43239" lon="5.76499">
        <ele>407</ele>
        <time>2013-06-14T10:59:18Z</time>
      </trkpt>
      <trkpt lat="45.43237" lon="5.76512">
        <ele>408</ele>
        <time>2013-06-14T10:59:24Z</time>
      </trkpt>
      <trkpt lat="45.43236" lon="5.76523">
        <ele>408</ele>
        <time>2013-06-14T11:00:02Z</time>
      </trkpt>
      <trkpt lat="45.43232" lon="5.76527">
        <ele>408</ele>
        <time>2013-06-14T11:00:42Z</time>
      </trkpt>
      <trkpt lat="45.43234" lon="5.76533">
        <ele>408</ele>
        <time>2013-06-14T11:01:15Z</time>
      </trkpt>
      <trkpt lat="45.43233" lon="5.76533">
        <ele>409</ele>
        <time>2013-06-14T11:01:39Z</time>
      </trkpt>
      <trkpt lat="45.43226" lon="5.76606">
        <ele>409</ele>
        <time>2013-06-14T11:02:16Z</time>
      </trkpt>
      <trkpt lat="45.43226" lon="5.76612">
        <ele>409</ele>
        <time>2013-06-14T11:02:43Z</time>
      </trkpt>
      <trkpt lat="45.43222" lon="5.76636">
        <ele>409</ele>
        <time>2013-06-14T11:03:04Z</time>
      </trkpt>
      <trkpt lat="45.43219" lon="5.76701">
        <ele>410</ele>
        <time>2013-06-14T11:03:35Z</time>
      </trkpt>
      <trkpt lat="45.4322" lon="5.76703">
        <ele>410</ele>
        <time>2013-06-14T11:03:37Z</time>
      </trkpt>
      <trkpt lat="45.43249" lon="5.76722">
        <ele>410</ele>
        <time>2013-06-14T11:04:02Z</time>
      </trkpt>
      <trkpt lat="45.43277" lon="5.7675">
        <ele>411</ele>
        <time>2013-06-14T11:04:27Z</time>
      </trkpt>
      <trkpt lat="45.4331" lon="5.76783">
        <ele>412</ele>
        <time>2013-06-14T11:04:56Z</time>
      </trkpt>
      <trkpt lat="45.43347" lon="5.76815">
        <ele>412</ele>
        <time>2013-06-14T11:05:24Z</time>
      </trkpt>
      <trkpt lat="45.43351" lon="5.76824">
        <ele>412</ele>
        <time>2013-06-14T11:05:30Z</time>
      </trkpt>
      <trkpt lat="45.43377" lon="5.76863">
        <ele>412</ele>
        <time>2013-06-14T11:05:56Z</time>
      </trkpt>
      <trkpt lat="45.43399" lon="5.76898">
        <ele>412</ele>
        <time>2013-06-14T11:06:18Z</time>
      </trkpt>
      <trkpt lat="45.43412" lon="5.76917">
        <ele>413</ele>
        <time>2013-06-14T11:06:33Z</time>
      </trkpt>
      <trkpt lat="45.43413" lon="5.76921">
        <ele>413</ele>
        <time>2013-06-14T11:06:36Z</time>
      </trkpt>
      <trkpt lat="45.43441" lon="5.76953">
        <ele>413</ele>
        <time>2013-06-14T11:06:59Z</time>
      </trkpt>
      <trkpt lat="45.43482" lon="5.77015">
        <ele>414</ele>
        <time>2013-06-14T11:07:41Z</time>
      </trkpt>
      <trkpt lat="45.43514" lon="5.77055">
        <ele>414</ele>
        <time>2013-06-14T11:08:11Z</time>
      </trkpt>
      <trkpt lat="45.43557" lon="5.77102">
        <ele>415</ele>
        <time>2013-06-14T11:08:48Z</time>
      </trkpt>
      <trkpt lat="45.43595" lon="5.77152">
        <ele>415</ele>
        <time>2013-06-14T11:09:23Z</time>
      </trkpt>
      <trkpt lat="45.43617" lon="5.77189">
        <ele>416</ele>
        <time>2013-06-14T11:09:46Z</time>
      </trkpt>
      <trkpt lat="45.43618" lon="5.77194">
        <ele>416</ele>
        <time>2013-06-14T11:09:49Z</time>
      </trkpt>
      <trkpt lat="45.43648" lon="5.77242">
        <ele>416</ele>
        <time>2013-06-14T11:10:19Z</time>
      </trkpt>
      <trkpt lat="45.4366" lon="5.7726">
        <ele>417</ele>
        <time>2013-06-14T11:10:32Z</time>
      </trkpt>
      <trkpt lat="45.4367" lon="5.77269">
        <ele>416</ele>
        <time>2013-06-14T11:10:39Z</time>
      </trkpt>
      <trkpt lat="45.43675" lon="5.77271">
        <ele>416</ele>
        <time>2013-06-14T11:10:43Z</time>
      </trkpt>
      <trkpt lat="45.43696" lon="5.77282">
        <ele>416</ele>
        <time>2013-06-14T11:10:58Z</time>
      </trkpt>
      <trkpt lat="45.43697" lon="5.77281">
        <ele>416</ele>
        <time>2013-06-14T11:10:59Z</time>
      </trkpt>
      <trkpt lat="45.43714" lon="5.77279">
        <ele>416</ele>
        <time>2013-06-14T11:11:10Z</time>
      </trkpt>
      <trkpt lat="45.43718" lon="5.77281">
        <ele>416</ele>
        <time>2013-06-14T11:11:13Z</time>
      </trkpt>
      <trkpt lat="45.43745" lon="5.77279">
        <ele>416</ele>
        <time>2013-06-14T11:11:27Z</time>
      </trkpt>
      <trkpt lat="45.43767" lon="5.77278">
        <ele>415</ele>
        <time>2013-06-14T11:11:44Z</time>
      </trkpt>
      <trkpt lat="45.43787" lon="5.77276">
        <ele>415</ele>
        <time>2013-06-14T11:11:59Z</time>
      </trkpt>
      <trkpt lat="45.43792" lon="5.77275">
        <ele>415</ele>
        <time>2013-06-14T11:12:03Z</time>
      </trkpt>
      <trkpt lat="45.43796" lon="5.77278">
        <ele>416</ele>
        <time>2013-06-14T11:12:05Z</time>
      </trkpt>
      <trkpt lat="45.43817" lon="5.77282">
        <ele>416</ele>
        <time>2013-06-14T11:12:20Z</time>
      </trkpt>
      <trkpt lat="45.43821" lon="5.77285">
        <ele>416</ele>
        <time>2013-06-14T11:12:24Z</time>
      </trkpt>
      <trkpt lat="45.43837" lon="5.77292">
        <ele>416</ele>
        <time>2013-06-14T11:12:40Z</time>
      </trkpt>
      <trkpt lat="45.43859" lon="5.77302">
        <ele>416</ele>
        <time>2013-06-14T11:12:58Z</time>
      </trkpt>
      <trkpt lat="45.43882" lon="5.77326">
        <ele>415</ele>
        <time>2013-06-14T11:13:17Z</time>
      </trkpt>
      <trkpt lat="45.43881" lon="5.7735">
        <ele>415</ele>
        <time>2013-06-14T11:13:28Z</time>
      </trkpt>
      <trkpt lat="45.43881" lon="5.77361">
        <ele>416</ele>
        <time>2013-06-14T11:13:43Z</time>
      </trkpt>
      <trkpt lat="45.43879" lon="5.77364">
        <ele>416</ele>
        <time>2013-06-14T11:13:46Z</time>
      </trkpt>
      <trkpt lat="45.43879" lon="5.77369">
        <ele>416</ele>
        <time>2013-06-14T11:13:49Z</time>
      </trkpt>
      <trkpt lat="45.43883" lon="5.7738">
        <ele>416</ele>
        <time>2013-06-14T11:13:56Z</time>
      </trkpt>
      <trkpt lat="45.43885" lon="5.77383">
        <ele>416</ele>
        <time>2013-06-14T11:13:58Z</time>
      </trkpt>
      <trkpt lat="45.43885" lon="5.77387">
        <ele>416</ele>
        <time>2013-06-14T11:14:02Z</time>
      </trkpt>
      <trkpt lat="45.43886" lon="5.77391">
        <ele>416</ele>
        <time>2013-06-14T11:14:04Z</time>
      </trkpt>
      <trkpt lat="45.43891" lon="5.77407">
        <ele>416</ele>
        <time>2013-06-14T11:14:12Z</time>
      </trkpt>
      <trkpt lat="45.43901" lon="5.77444">
        <ele>416</ele>
        <time>2013-06-14T11:14:32Z</time>
      </trkpt>
      <trkpt lat="45.43907" lon="5.77467">
        <ele>416</ele>
        <time>2013-06-14T11:14:43Z</time>
      </trkpt>
      <trkpt lat="45.43908" lon="5.77481">
        <ele>415</ele>
        <time>2013-06-14T11:14:52Z</time>
      </trkpt>
      <trkpt lat="45.4391" lon="5.77484">
        <ele>415</ele>
        <time>2013-06-14T11:14:54Z</time>
      </trkpt>
      <trkpt lat="45.43916" lon="5.77491">
        <ele>415</ele>
        <time>2013-06-14T11:14:58Z</time>
      </trkpt>
      <trkpt lat="45.43922" lon="5.77504">
        <ele>415</ele>
        <time>2013-06-14T11:15:04Z</time>
      </trkpt>
      <trkpt lat="45.43935" lon="5.77527">
        <ele>415</ele>
        <time>2013-06-14T11:15:16Z</time>
      </trkpt>
      <trkpt lat="45.43935" lon="5.77532">
        <ele>415</ele>
        <time>2013-06-14T11:15:18Z</time>
      </trkpt>
      <trkpt lat="45.43936" lon="5.77539">
        <ele>415</ele>
        <time>2013-06-14T11:15:22Z</time>
      </trkpt>
      <trkpt lat="45.43937" lon="5.77542">
        <ele>416</ele>
        <time>2013-06-14T11:15:24Z</time>
      </trkpt>
      <trkpt lat="45.43945" lon="5.77557">
        <ele>416</ele>
        <time>2013-06-14T11:15:32Z</time>
      </trkpt>
      <trkpt lat="45.43955" lon="5.77582">
        <ele>417</ele>
        <time>2013-06-14T11:15:47Z</time>
      </trkpt>
      <trkpt lat="45.43956" lon="5.77589">
        <ele>418</ele>
        <time>2013-06-14T11:15:52Z</time>
      </trkpt>
      <trkpt lat="45.43956" lon="5.77595">
        <ele>419</ele>
        <time>2013-06-14T11:15:56Z</time>
      </trkpt>
      <trkpt lat="45.43958" lon="5.77602">
        <ele>419</ele>
        <time>2013-06-14T11:16:01Z</time>
      </trkpt>
      <trkpt lat="45.43959" lon="5.77606">
        <ele>419</ele>
        <time>2013-06-14T11:16:04Z</time>
      </trkpt>
      <trkpt lat="45.4397" lon="5.77625">
        <ele>419</ele>
        <time>2013-06-14T11:16:17Z</time>
      </trkpt>
      <trkpt lat="45.43985" lon="5.77648">
        <ele>419</ele>
        <time>2013-06-14T11:16:33Z</time>
      </trkpt>
      <trkpt lat="45.43986" lon="5.77651">
        <ele>419</ele>
        <time>2013-06-14T11:16:37Z</time>
      </trkpt>
      <trkpt lat="45.44004" lon="5.77681">
        <ele>419</ele>
        <time>2013-06-14T11:16:54Z</time>
      </trkpt>
      <trkpt lat="45.44009" lon="5.77694">
        <ele>419</ele>
        <time>2013-06-14T11:17:01Z</time>
      </trkpt>
      <trkpt lat="45.44014" lon="5.77695">
        <ele>419</ele>
        <time>2013-06-14T11:17:04Z</time>
      </trkpt>
      <trkpt lat="45.44022" lon="5.77709">
        <ele>419</ele>
        <time>2013-06-14T11:17:12Z</time>
      </trkpt>
      <trkpt lat="45.44036" lon="5.77755">
        <ele>420</ele>
        <time>2013-06-14T11:17:36Z</time>
      </trkpt>
      <trkpt lat="45.44049" lon="5.77798">
        <ele>420</ele>
        <time>2013-06-14T11:17:59Z</time>
      </trkpt>
      <trkpt lat="45.44051" lon="5.77803">
        <ele>420</ele>
        <time>2013-06-14T11:18:03Z</time>
      </trkpt>
      <trkpt lat="45.44055" lon="5.77817">
        <ele>420</ele>
        <time>2013-06-14T11:18:10Z</time>
      </trkpt>
      <trkpt lat="45.44056" lon="5.77819">
        <ele>421</ele>
        <time>2013-06-14T11:18:12Z</time>
      </trkpt>
      <trkpt lat="45.44059" lon="5.77824">
        <ele>421</ele>
        <time>2013-06-14T11:18:16Z</time>
      </trkpt>
      <trkpt lat="45.44065" lon="5.77846">
        <ele>421</ele>
        <time>2013-06-14T11:18:27Z</time>
      </trkpt>
      <trkpt lat="45.44069" lon="5.77859">
        <ele>421</ele>
        <time>2013-06-14T11:18:33Z</time>
      </trkpt>
      <trkpt lat="45.44072" lon="5.77866">
        <ele>421</ele>
        <time>2013-06-14T11:18:37Z</time>
      </trkpt>
      <trkpt lat="45.44073" lon="5.77868">
        <ele>421</ele>
        <time>2013-06-14T11:18:39Z</time>
      </trkpt>
      <trkpt lat="45.44077" lon="5.77886">
        <ele>422</ele>
        <time>2013-06-14T11:18:51Z</time>
      </trkpt>
      <trkpt lat="45.4408" lon="5.77892">
        <ele>421</ele>
        <time>2013-06-14T11:18:54Z</time>
      </trkpt>
      <trkpt lat="45.44087" lon="5.77933">
        <ele>423</ele>
        <time>2013-06-14T11:19:14Z</time>
      </trkpt>
      <trkpt lat="45.44093" lon="5.77945">
        <ele>422</ele>
        <time>2013-06-14T11:19:23Z</time>
      </trkpt>
      <trkpt lat="45.44096" lon="5.7795">
        <ele>422</ele>
        <time>2013-06-14T11:19:26Z</time>
      </trkpt>
      <trkpt lat="45.44097" lon="5.7796">
        <ele>423</ele>
        <time>2013-06-14T11:19:31Z</time>
      </trkpt>
      <trkpt lat="45.44107" lon="5.77989">
        <ele>423</ele>
        <time>2013-06-14T11:19:46Z</time>
      </trkpt>
      <trkpt lat="45.44108" lon="5.77998">
        <ele>422</ele>
        <time>2013-06-14T11:19:52Z</time>
      </trkpt>
      <trkpt lat="45.44111" lon="5.78018">
        <ele>423</ele>
        <time>2013-06-14T11:20:00Z</time>
      </trkpt>
      <trkpt lat="45.44117" lon="5.78038">
        <ele>423</ele>
        <time>2013-06-14T11:20:11Z</time>
      </trkpt>
      <trkpt lat="45.4412" lon="5.7805">
        <ele>423</ele>
        <time>2013-06-14T11:20:18Z</time>
      </trkpt>
      <trkpt lat="45.44123" lon="5.78065">
        <ele>424</ele>
        <time>2013-06-14T11:20:24Z</time>
      </trkpt>
      <trkpt lat="45.44123" lon="5.78068">
        <ele>423</ele>
        <time>2013-06-14T11:20:26Z</time>
      </trkpt>
      <trkpt lat="45.44126" lon="5.78074">
        <ele>424</ele>
        <time>2013-06-14T11:20:30Z</time>
      </trkpt>
      <trkpt lat="45.44129" lon="5.7808">
        <ele>423</ele>
        <time>2013-06-14T11:20:34Z</time>
      </trkpt>
      <trkpt lat="45.4413" lon="5.78086">
        <ele>424</ele>
        <time>2013-06-14T11:20:37Z</time>
      </trkpt>
      <trkpt lat="45.44134" lon="5.781">
        <ele>424</ele>
        <time>2013-06-14T11:20:43Z</time>
      </trkpt>
      <trkpt lat="45.44136" lon="5.78128">
        <ele>424</ele>
        <time>2013-06-14T11:20:59Z</time>
      </trkpt>
      <trkpt lat="45.44138" lon="5.78138">
        <ele>424</ele>
        <time>2013-06-14T11:21:03Z</time>
      </trkpt>
      <trkpt lat="45.4414" lon="5.78141">
        <ele>424</ele>
        <time>2013-06-14T11:21:05Z</time>
      </trkpt>
      <trkpt lat="45.44142" lon="5.78144">
        <ele>424</ele>
        <time>2013-06-14T11:21:07Z</time>
      </trkpt>
      <trkpt lat="45.44143" lon="5.78149">
        <ele>425</ele>
        <time>2013-06-14T11:21:10Z</time>
      </trkpt>
      <trkpt lat="45.44146" lon="5.78165">
        <ele>425</ele>
        <time>2013-06-14T11:21:21Z</time>
      </trkpt>
      <trkpt lat="45.4415" lon="5.78175">
        <ele>425</ele>
        <time>2013-06-14T11:21:27Z</time>
      </trkpt>
      <trkpt lat="45.44157" lon="5.78175">
        <ele>424</ele>
        <time>2013-06-14T11:21:47Z</time>
      </trkpt>
      <trkpt lat="45.4416" lon="5.78177">
        <ele>424</ele>
        <time>2013-06-14T11:22:23Z</time>
      </trkpt>
      <trkpt lat="45.44164" lon="5.78192">
        <ele>424</ele>
        <time>2013-06-14T11:22:34Z</time>
      </trkpt>
      <trkpt lat="45.44177" lon="5.78224">
        <ele>423</ele>
        <time>2013-06-14T11:22:54Z</time>
      </trkpt>
      <trkpt lat="45.44184" lon="5.78238">
        <ele>423</ele>
        <time>2013-06-14T11:23:03Z</time>
      </trkpt>
      <trkpt lat="45.44186" lon="5.78243">
        <ele>423</ele>
        <time>2013-06-14T11:23:09Z</time>
      </trkpt>
      <trkpt lat="45.44185" lon="5.78243">
        <ele>423</ele>
        <time>2013-06-14T11:23:12Z</time>
      </trkpt>
      <trkpt lat="45.44197" lon="5.78249">
        <ele>423</ele>
        <time>2013-06-14T11:23:30Z</time>
      </trkpt>
      <trkpt lat="45.44201" lon="5.78247">
        <ele>423</ele>
        <time>2013-06-14T11:23:37Z</time>
      </trkpt>
      <trkpt lat="45.44225" lon="5.78262">
        <ele>424</ele>
        <time>2013-06-14T11:24:01Z</time>
      </trkpt>
      <trkpt lat="45.44264" lon="5.78275">
        <ele>425</ele>
        <time>2013-06-14T11:24:22Z</time>
      </trkpt>
      <trkpt lat="45.44294" lon="5.7826">
        <ele>426</ele>
        <time>2013-06-14T11:24:42Z</time>
      </trkpt>
      <trkpt lat="45.44299" lon="5.78258">
        <ele>426</ele>
        <time>2013-06-14T11:24:46Z</time>
      </trkpt>
      <trkpt lat="45.44308" lon="5.78246">
        <ele>426</ele>
        <time>2013-06-14T11:24:59Z</time>
      </trkpt>
      <trkpt lat="45.44323" lon="5.78257">
        <ele>426</ele>
        <time>2013-06-14T11:25:02Z</time>
      </trkpt>
      <trkpt lat="45.44346" lon="5.78246">
        <ele>426</ele>
        <time>2013-06-14T11:25:23Z</time>
      </trkpt>
      <trkpt lat="45.44352" lon="5.78241">
        <ele>426</ele>
        <time>2013-06-14T11:25:29Z</time>
      </trkpt>
      <trkpt lat="45.4436" lon="5.78242">
        <ele>426</ele>
        <time>2013-06-14T11:25:36Z</time>
      </trkpt>
      <trkpt lat="45.44387" lon="5.78255">
        <ele>426</ele>
        <time>2013-06-14T11:25:57Z</time>
      </trkpt>
      <trkpt lat="45.44415" lon="5.78265">
        <ele>426</ele>
        <time>2013-06-14T11:26:10Z</time>
      </trkpt>
      <trkpt lat="45.44423" lon="5.78258">
        <ele>426</ele>
        <time>2013-06-14T11:26:14Z</time>
      </trkpt>
      <trkpt lat="45.44434" lon="5.78263">
        <ele>426</ele>
        <time>2013-06-14T11:26:22Z</time>
      </trkpt>
      <trkpt lat="45.44465" lon="5.78288">
        <ele>428</ele>
        <time>2013-06-14T11:26:49Z</time>
      </trkpt>
      <trkpt lat="45.44486" lon="5.78301">
        <ele>428</ele>
        <time>2013-06-14T11:27:02Z</time>
      </trkpt>
      <trkpt lat="45.44488" lon="5.783">
        <ele>428</ele>
        <time>2013-06-14T11:27:04Z</time>
      </trkpt>
      <trkpt lat="45.44514" lon="5.78314">
        <ele>429</ele>
        <time>2013-06-14T11:27:26Z</time>
      </trkpt>
      <trkpt lat="45.44538" lon="5.78336">
        <ele>430</ele>
        <time>2013-06-14T11:27:42Z</time>
      </trkpt>
      <trkpt lat="45.44555" lon="5.78341">
        <ele>432</ele>
        <time>2013-06-14T11:28:01Z</time>
      </trkpt>
      <trkpt lat="45.44586" lon="5.78365">
        <ele>433</ele>
        <time>2013-06-14T11:28:19Z</time>
      </trkpt>
      <trkpt lat="45.44605" lon="5.78381">
        <ele>435</ele>
        <time>2013-06-14T11:28:37Z</time>
      </trkpt>
      <trkpt lat="45.44617" lon="5.78398">
        <ele>436</ele>
        <time>2013-06-14T11:28:47Z</time>
      </trkpt>
      <trkpt lat="45.4463" lon="5.78414">
        <ele>436</ele>
        <time>2013-06-14T11:28:59Z</time>
      </trkpt>
      <trkpt lat="45.44684" lon="5.78514">
        <ele>433</ele>
        <time>2013-06-14T11:39:09Z</time>
      </trkpt>
      <trkpt lat="45.4469" lon="5.78537">
        <ele>433</ele>
        <time>2013-06-14T11:39:21Z</time>
      </trkpt>
      <trkpt lat="45.44709" lon="5.78564">
        <ele>434</ele>
        <time>2013-06-14T11:39:40Z</time>
      </trkpt>
      <trkpt lat="45.4472" lon="5.78572">
        <ele>435</ele>
        <time>2013-06-14T11:39:49Z</time>
      </trkpt>
      <trkpt lat="45.44737" lon="5.7858">
        <ele>436</ele>
        <time>2013-06-14T11:40:06Z</time>
      </trkpt>
      <trkpt lat="45.44743" lon="5.78582">
        <ele>437</ele>
        <time>2013-06-14T11:40:11Z</time>
      </trkpt>
      <trkpt lat="45.44777" lon="5.78589">
        <ele>440</ele>
        <time>2013-06-14T11:40:30Z</time>
      </trkpt>
      <trkpt lat="45.44804" lon="5.78606">
        <ele>444</ele>
        <time>2013-06-14T11:40:50Z</time>
      </trkpt>
      <trkpt lat="45.44811" lon="5.78621">
        <ele>445</ele>
        <time>2013-06-14T11:40:59Z</time>
      </trkpt>
      <trkpt lat="45.4482" lon="5.78625">
        <ele>446</ele>
        <time>2013-06-14T11:41:05Z</time>
      </trkpt>
      <trkpt lat="45.44836" lon="5.78637">
        <ele>448</ele>
        <time>2013-06-14T11:41:34Z</time>
      </trkpt>
      <trkpt lat="45.4483" lon="5.78645">
        <ele>448</ele>
        <time>2013-06-14T11:42:35Z</time>
      </trkpt>
      <trkpt lat="45.44841" lon="5.78644">
        <ele>449</ele>
        <time>2013-06-14T11:43:12Z</time>
      </trkpt>
      <trkpt lat="45.44866" lon="5.78655">
        <ele>449</ele>
        <time>2013-06-14T11:43:55Z</time>
      </trkpt>
      <trkpt lat="45.44875" lon="5.78676">
        <ele>452</ele>
        <time>2013-06-14T11:44:13Z</time>
      </trkpt>
      <trkpt lat="45.44875" lon="5.78683">
        <ele>452</ele>
        <time>2013-06-14T11:44:14Z</time>
      </trkpt>
      <trkpt lat="45.44876" lon="5.78693">
        <ele>454</ele>
        <time>2013-06-14T11:44:17Z</time>
      </trkpt>
      <trkpt lat="45.44895" lon="5.78698">
        <ele>457</ele>
        <time>2013-06-14T11:44:46Z</time>
      </trkpt>
      <trkpt lat="45.44904" lon="5.78729">
        <ele>460</ele>
        <time>2013-06-14T11:45:07Z</time>
      </trkpt>
      <trkpt lat="45.4495" lon="5.78844">
        <ele>500</ele>
        <time>2013-06-14T11:52:29Z</time>
      </trkpt>
      <trkpt lat="45.44981" lon="5.78912">
        <ele>502</ele>
        <time>2013-06-14T11:53:04Z</time>
      </trkpt>
      <trkpt lat="45.44991" lon="5.7893">
        <ele>506</ele>
        <time>2013-06-14T11:53:23Z</time>
      </trkpt>
      <trkpt lat="45.45022" lon="5.78965">
        <ele>507</ele>
        <time>2013-06-14T11:53:48Z</time>
      </trkpt>
      <trkpt lat="45.45036" lon="5.79009">
        <ele>511</ele>
        <time>2013-06-14T11:54:16Z</time>
      </trkpt>
      <trkpt lat="45.45046" lon="5.79041">
        <ele>513</ele>
        <time>2013-06-14T11:54:38Z</time>
      </trkpt>
      <trkpt lat="45.45064" lon="5.79082">
        <ele>516</ele>
        <time>2013-06-14T11:54:59Z</time>
      </trkpt>
      <trkpt lat="45.45054" lon="5.79089">
        <ele>520</ele>
        <time>2013-06-14T11:55:28Z</time>
      </trkpt>
      <trkpt lat="45.45066" lon="5.79097">
        <ele>521</ele>
        <time>2013-06-14T11:55:43Z</time>
      </trkpt>
      <trkpt lat="45.451" lon="5.79092">
        <ele>524</ele>
        <time>2013-06-14T11:56:14Z</time>
      </trkpt>
      <trkpt lat="45.45171" lon="5.79123">
        <ele>526</ele>
        <time>2013-06-14T11:56:47Z</time>
      </trkpt>
      <trkpt lat="45.45204" lon="5.79129">
        <ele>529</ele>
        <time>2013-06-14T11:57:16Z</time>
      </trkpt>
      <trkpt lat="45.45223" lon="5.79128">
        <ele>530</ele>
        <time>2013-06-14T11:57:57Z</time>
      </trkpt>
      <trkpt lat="45.45244" lon="5.79112">
        <ele>532</ele>
        <time>2013-06-14T11:58:25Z</time>
      </trkpt>
      <trkpt lat="45.4528" lon="5.7912">
        <ele>535</ele>
        <time>2013-06-14T11:58:54Z</time>
      </trkpt>
      <trkpt lat="45.45287" lon="5.79124">
        <ele>536</ele>
        <time>2013-06-14T11:59:02Z</time>
      </trkpt>
      <trkpt lat="45.45291" lon="5.79125">
        <ele>537</ele>
        <time>2013-06-14T11:59:06Z</time>
      </trkpt>
      <trkpt lat="45.4532" lon="5.7916">
        <ele>539</ele>
        <time>2013-06-14T11:59:26Z</time>
      </trkpt>
      <trkpt lat="45.45347" lon="5.79226">
        <ele>539</ele>
        <time>2013-06-14T11:59:36Z</time>
      </trkpt>
      <trkpt lat="45.45344" lon="5.79269">
        <ele>541</ele>
        <time>2013-06-14T11:59:56Z</time>
      </trkpt>
      <trkpt lat="45.45343" lon="5.79275">
        <ele>541</ele>
        <time>2013-06-14T12:00:00Z</time>
      </trkpt>
      <trkpt lat="45.45342" lon="5.79277">
        <ele>542</ele>
        <time>2013-06-14T12:00:02Z</time>
      </trkpt>
      <trkpt lat="45.45343" lon="5.79292">
        <ele>542</ele>
        <time>2013-06-14T12:00:10Z</time>
      </trkpt>
      <trkpt lat="45.45358" lon="5.79338">
        <ele>544</ele>
        <time>2013-06-14T12:00:32Z</time>
      </trkpt>
      <trkpt lat="45.45365" lon="5.79351">
        <ele>544</ele>
        <time>2013-06-14T12:00:36Z</time>
      </trkpt>
      <trkpt lat="45.45373" lon="5.79383">
        <ele>546</ele>
        <time>2013-06-14T12:00:58Z</time>
      </trkpt>
      <trkpt lat="45.45372" lon="5.79392">
        <ele>546</ele>
        <time>2013-06-14T12:01:02Z</time>
      </trkpt>
      <trkpt lat="45.45372" lon="5.79396">
        <ele>546</ele>
        <time>2013-06-14T12:01:04Z</time>
      </trkpt>
      <trkpt lat="45.45388" lon="5.79427">
        <ele>547</ele>
        <time>2013-06-14T12:01:24Z</time>
      </trkpt>
      <trkpt lat="45.45395" lon="5.79448">
        <ele>548</ele>
        <time>2013-06-14T12:01:35Z</time>
      </trkpt>
      <trkpt lat="45.454" lon="5.7946">
        <ele>548</ele>
        <time>2013-06-14T12:01:42Z</time>
      </trkpt>
      <trkpt lat="45.45424" lon="5.79521">
        <ele>550</ele>
        <time>2013-06-14T12:02:07Z</time>
      </trkpt>
      <trkpt lat="45.45426" lon="5.79534">
        <ele>550</ele>
        <time>2013-06-14T12:02:14Z</time>
      </trkpt>
      <trkpt lat="45.45428" lon="5.7954">
        <ele>550</ele>
        <time>2013-06-14T12:02:17Z</time>
      </trkpt>
      <trkpt lat="45.45429" lon="5.79602">
        <ele>551</ele>
        <time>2013-06-14T12:02:51Z</time>
      </trkpt>
      <trkpt lat="45.45417" lon="5.79656">
        <ele>553</ele>
        <time>2013-06-14T12:03:19Z</time>
      </trkpt>
      <trkpt lat="45.45414" lon="5.79664">
        <ele>553</ele>
        <time>2013-06-14T12:03:23Z</time>
      </trkpt>
      <trkpt lat="45.45412" lon="5.79673">
        <ele>553</ele>
        <time>2013-06-14T12:03:28Z</time>
      </trkpt>
      <trkpt lat="45.45412" lon="5.79681">
        <ele>553</ele>
        <time>2013-06-14T12:03:32Z</time>
      </trkpt>
      <trkpt lat="45.45391" lon="5.7972">
        <ele>554</ele>
        <time>2013-06-14T12:03:55Z</time>
      </trkpt>
      <trkpt lat="45.45375" lon="5.79743">
        <ele>555</ele>
        <time>2013-06-14T12:04:11Z</time>
      </trkpt>
      <trkpt lat="45.4537" lon="5.79747">
        <ele>555</ele>
        <time>2013-06-14T12:04:15Z</time>
      </trkpt>
      <trkpt lat="45.45335" lon="5.79805">
        <ele>557</ele>
        <time>2013-06-14T12:04:51Z</time>
      </trkpt>
      <trkpt lat="45.45308" lon="5.79861">
        <ele>560</ele>
        <time>2013-06-14T12:05:26Z</time>
      </trkpt>
      <trkpt lat="45.45291" lon="5.79935">
        <ele>561</ele>
        <time>2013-06-14T12:06:06Z</time>
      </trkpt>
      <trkpt lat="45.4529" lon="5.79965">
        <ele>562</ele>
        <time>2013-06-14T12:06:21Z</time>
      </trkpt>
      <trkpt lat="45.45289" lon="5.79991">
        <ele>562</ele>
        <time>2013-06-14T12:06:33Z</time>
      </trkpt>
      <trkpt lat="45.45303" lon="5.80063">
        <ele>563</ele>
        <time>2013-06-14T12:07:10Z</time>
      </trkpt>
      <trkpt lat="45.45318" lon="5.80109">
        <ele>564</ele>
        <time>2013-06-14T12:07:36Z</time>
      </trkpt>
      <trkpt lat="45.45351" lon="5.80159">
        <ele>566</ele>
        <time>2013-06-14T12:08:09Z</time>
      </trkpt>
      <trkpt lat="45.45358" lon="5.80166">
        <ele>566</ele>
        <time>2013-06-14T12:08:16Z</time>
      </trkpt>
      <trkpt lat="45.45398" lon="5.8021">
        <ele>568</ele>
        <time>2013-06-14T12:08:50Z</time>
      </trkpt>
      <trkpt lat="45.45398" lon="5.80211">
        <ele>567</ele>
        <time>2013-06-14T12:08:51Z</time>
      </trkpt>
      <trkpt lat="45.45405" lon="5.8023">
        <ele>566</ele>
        <time>2013-06-14T12:09:15Z</time>
      </trkpt>
      <trkpt lat="45.45406" lon="5.80245">
        <ele>566</ele>
        <time>2013-06-14T12:09:54Z</time>
      </trkpt>
      <trkpt lat="45.45418" lon="5.80285">
        <ele>570</ele>
        <time>2013-06-14T12:10:24Z</time>
      </trkpt>
      <trkpt lat="45.45436" lon="5.80314">
        <ele>572</ele>
        <time>2013-06-14T12:10:36Z</time>
      </trkpt>
      <trkpt lat="45.45448" lon="5.80329">
        <ele>573</ele>
        <time>2013-06-14T12:10:42Z</time>
      </trkpt>
      <trkpt lat="45.45469" lon="5.8035">
        <ele>575</ele>
        <time>2013-06-14T12:11:13Z</time>
      </trkpt>
      <trkpt lat="45.45456" lon="5.80356">
        <ele>575</ele>
        <time>2013-06-14T12:12:11Z</time>
      </trkpt>
      <trkpt lat="45.45456" lon="5.80352">
        <ele>576</ele>
        <time>2013-06-14T12:13:05Z</time>
      </trkpt>
      <trkpt lat="45.45454" lon="5.80347">
        <ele>576</ele>
        <time>2013-06-14T12:14:12Z</time>
      </trkpt>
      <trkpt lat="45.45454" lon="5.80347">
        <ele>576</ele>
        <time>2013-06-14T12:14:13Z</time>
      </trkpt>
      <trkpt lat="45.45454" lon="5.80347">
        <ele>588</ele>
        <time>2013-06-14T12:54:04Z</time>
      </trkpt>
      <trkpt lat="45.45454" lon="5.80347">
        <ele>575</ele>
        <time>2013-06-14T12:54:05Z</time>
      </trkpt>
      <trkpt lat="45.45456" lon="5.80369">
        <ele>575</ele>
        <time>2013-06-14T12:54:12Z</time>
      </trkpt>
      <trkpt lat="45.4547" lon="5.80361">
        <ele>576</ele>
        <time>2013-06-14T12:54:42Z</time>
      </trkpt>
      <trkpt lat="45.45481" lon="5.8037">
        <ele>580</ele>
        <time>2013-06-14T12:54:55Z</time>
      </trkpt>
      <trkpt lat="45.45485" lon="5.80374">
        <ele>580</ele>
        <time>2013-06-14T12:54:58Z</time>
      </trkpt>
      <trkpt lat="45.45499" lon="5.8038">
        <ele>584</ele>
        <time>2013-06-14T12:55:11Z</time>
      </trkpt>
      <trkpt lat="45.45507" lon="5.80385">
        <ele>586</ele>
        <time>2013-06-14T12:55:21Z</time>
      </trkpt>
      <trkpt lat="45.45521" lon="5.804">
        <ele>588</ele>
        <time>2013-06-14T12:55:36Z</time>
      </trkpt>
      <trkpt lat="45.4553" lon="5.80409">
        <ele>588</ele>
        <time>2013-06-14T12:55:44Z</time>
      </trkpt>
      <trkpt lat="45.45534" lon="5.80417">
        <ele>588</ele>
        <time>2013-06-14T12:55:48Z</time>
      </trkpt>
      <trkpt lat="45.45538" lon="5.80419">
        <ele>588</ele>
        <time>2013-06-14T12:55:51Z</time>
      </trkpt>
      <trkpt lat="45.45561" lon="5.80438">
        <ele>589</ele>
        <time>2013-06-14T12:56:10Z</time>
      </trkpt>
      <trkpt lat="45.45562" lon="5.8044">
        <ele>589</ele>
        <time>2013-06-14T12:56:12Z</time>
      </trkpt>
      <trkpt lat="45.45586" lon="5.80466">
        <ele>591</ele>
        <time>2013-06-14T12:56:37Z</time>
      </trkpt>
      <trkpt lat="45.45606" lon="5.80485">
        <ele>594</ele>
        <time>2013-06-14T12:56:53Z</time>
      </trkpt>
      <trkpt lat="45.45616" lon="5.80496">
        <ele>596</ele>
        <time>2013-06-14T12:57:05Z</time>
      </trkpt>
      <trkpt lat="45.45635" lon="5.80511">
        <ele>600</ele>
        <time>2013-06-14T12:57:20Z</time>
      </trkpt>
      <trkpt lat="45.45652" lon="5.80524">
        <ele>603</ele>
        <time>2013-06-14T12:57:37Z</time>
      </trkpt>
      <trkpt lat="45.45661" lon="5.80535">
        <ele>604</ele>
        <time>2013-06-14T12:57:47Z</time>
      </trkpt>
      <trkpt lat="45.45691" lon="5.80567">
        <ele>608</ele>
        <time>2013-06-14T12:58:18Z</time>
      </trkpt>
      <trkpt lat="45.45712" lon="5.80593">
        <ele>611</ele>
        <time>2013-06-14T12:58:39Z</time>
      </trkpt>
      <trkpt lat="45.45718" lon="5.80617">
        <ele>611</ele>
        <time>2013-06-14T12:59:00Z</time>
      </trkpt>
      <trkpt lat="45.45721" lon="5.80644">
        <ele>611</ele>
        <time>2013-06-14T12:59:19Z</time>
      </trkpt>
      <trkpt lat="45.45727" lon="5.80696">
        <ele>609</ele>
        <time>2013-06-14T12:59:47Z</time>
      </trkpt>
      <trkpt lat="45.4573" lon="5.80714">
        <ele>608</ele>
        <time>2013-06-14T12:59:57Z</time>
      </trkpt>
      <trkpt lat="45.45735" lon="5.80729">
        <ele>607</ele>
        <time>2013-06-14T13:00:04Z</time>
      </trkpt>
      <trkpt lat="45.45739" lon="5.80732">
        <ele>606</ele>
        <time>2013-06-14T13:00:07Z</time>
      </trkpt>
      <trkpt lat="45.45743" lon="5.8074">
        <ele>605</ele>
        <time>2013-06-14T13:00:14Z</time>
      </trkpt>
      <trkpt lat="45.45749" lon="5.80748">
        <ele>604</ele>
        <time>2013-06-14T13:00:21Z</time>
      </trkpt>
      <trkpt lat="45.45768" lon="5.80782">
        <ele>604</ele>
        <time>2013-06-14T13:00:40Z</time>
      </trkpt>
      <trkpt lat="45.45787" lon="5.80796">
        <ele>604</ele>
        <time>2013-06-14T13:00:54Z</time>
      </trkpt>
      <trkpt lat="45.45788" lon="5.80798">
        <ele>605</ele>
        <time>2013-06-14T13:00:56Z</time>
      </trkpt>
      <trkpt lat="45.45791" lon="5.80811">
        <ele>605</ele>
        <time>2013-06-14T13:01:03Z</time>
      </trkpt>
      <trkpt lat="45.45816" lon="5.80859">
        <ele>606</ele>
        <time>2013-06-14T13:01:32Z</time>
      </trkpt>
      <trkpt lat="45.45852" lon="5.80864">
        <ele>608</ele>
        <time>2013-06-14T13:01:53Z</time>
      </trkpt>
      <trkpt lat="45.4587" lon="5.80874">
        <ele>607</ele>
        <time>2013-06-14T13:02:07Z</time>
      </trkpt>
      <trkpt lat="45.45888" lon="5.80897">
        <ele>605</ele>
        <time>2013-06-14T13:02:28Z</time>
      </trkpt>
      <trkpt lat="45.45906" lon="5.80913">
        <ele>604</ele>
        <time>2013-06-14T13:02:42Z</time>
      </trkpt>
      <trkpt lat="45.45906" lon="5.80915">
        <ele>604</ele>
        <time>2013-06-14T13:02:43Z</time>
      </trkpt>
      <trkpt lat="45.45914" lon="5.80926">
        <ele>604</ele>
        <time>2013-06-14T13:02:49Z</time>
      </trkpt>
      <trkpt lat="45.45917" lon="5.80929">
        <ele>604</ele>
        <time>2013-06-14T13:02:52Z</time>
      </trkpt>
      <trkpt lat="45.4592" lon="5.80934">
        <ele>604</ele>
        <time>2013-06-14T13:02:55Z</time>
      </trkpt>
      <trkpt lat="45.45922" lon="5.80937">
        <ele>604</ele>
        <time>2013-06-14T13:02:58Z</time>
      </trkpt>
      <trkpt lat="45.45947" lon="5.80963">
        <ele>603</ele>
        <time>2013-06-14T13:03:24Z</time>
      </trkpt>
      <trkpt lat="45.45974" lon="5.80998">
        <ele>601</ele>
        <time>2013-06-14T13:03:47Z</time>
      </trkpt>
      <trkpt lat="45.45978" lon="5.81017">
        <ele>600</ele>
        <time>2013-06-14T13:03:57Z</time>
      </trkpt>
      <trkpt lat="45.45978" lon="5.8102">
        <ele>600</ele>
        <time>2013-06-14T13:03:59Z</time>
      </trkpt>
      <trkpt lat="45.45981" lon="5.81026">
        <ele>599</ele>
        <time>2013-06-14T13:04:03Z</time>
      </trkpt>
      <trkpt lat="45.45984" lon="5.81041">
        <ele>598</ele>
        <time>2013-06-14T13:04:13Z</time>
      </trkpt>
      <trkpt lat="45.45984" lon="5.81059">
        <ele>597</ele>
        <time>2013-06-14T13:04:28Z</time>
      </trkpt>
      <trkpt lat="45.45979" lon="5.81108">
        <ele>596</ele>
        <time>2013-06-14T13:04:50Z</time>
      </trkpt>
      <trkpt lat="45.45974" lon="5.81157">
        <ele>595</ele>
        <time>2013-06-14T13:05:14Z</time>
      </trkpt>
      <trkpt lat="45.45968" lon="5.81221">
        <ele>595</ele>
        <time>2013-06-14T13:05:44Z</time>
      </trkpt>
      <trkpt lat="45.45959" lon="5.81237">
        <ele>596</ele>
        <time>2013-06-14T13:05:55Z</time>
      </trkpt>
      <trkpt lat="45.45948" lon="5.81241">
        <ele>596</ele>
        <time>2013-06-14T13:06:04Z</time>
      </trkpt>
      <trkpt lat="45.45946" lon="5.81243">
        <ele>597</ele>
        <time>2013-06-14T13:06:06Z</time>
      </trkpt>
      <trkpt lat="45.45934" lon="5.8126">
        <ele>598</ele>
        <time>2013-06-14T13:06:21Z</time>
      </trkpt>
      <trkpt lat="45.45895" lon="5.81281">
        <ele>600</ele>
        <time>2013-06-14T13:06:51Z</time>
      </trkpt>
      <trkpt lat="45.45844" lon="5.81294">
        <ele>602</ele>
        <time>2013-06-14T13:07:30Z</time>
      </trkpt>
      <trkpt lat="45.45817" lon="5.81304">
        <ele>605</ele>
        <time>2013-06-14T13:07:50Z</time>
      </trkpt>
      <trkpt lat="45.45803" lon="5.81339">
        <ele>605</ele>
        <time>2013-06-14T13:08:04Z</time>
      </trkpt>
      <trkpt lat="45.45797" lon="5.81342">
        <ele>605</ele>
        <time>2013-06-14T13:08:10Z</time>
      </trkpt>
      <trkpt lat="45.45795" lon="5.81343">
        <ele>605</ele>
        <time>2013-06-14T13:08:12Z</time>
      </trkpt>
      <trkpt lat="45.45766" lon="5.81341">
        <ele>602</ele>
        <time>2013-06-14T13:08:38Z</time>
      </trkpt>
      <trkpt lat="45.45758" lon="5.81342">
        <ele>602</ele>
        <time>2013-06-14T13:08:45Z</time>
      </trkpt>
      <trkpt lat="45.45731" lon="5.8135">
        <ele>602</ele>
        <time>2013-06-14T13:09:07Z</time>
      </trkpt>
      <trkpt lat="45.45703" lon="5.8134">
        <ele>602</ele>
        <time>2013-06-14T13:09:31Z</time>
      </trkpt>
      <trkpt lat="45.45696" lon="5.81335">
        <ele>603</ele>
        <time>2013-06-14T13:09:37Z</time>
      </trkpt>
      <trkpt lat="45.45691" lon="5.81334">
        <ele>603</ele>
        <time>2013-06-14T13:09:41Z</time>
      </trkpt>
      <trkpt lat="45.45688" lon="5.81338">
        <ele>602</ele>
        <time>2013-06-14T13:09:47Z</time>
      </trkpt>
      <trkpt lat="45.45687" lon="5.8136">
        <ele>603</ele>
        <time>2013-06-14T13:10:02Z</time>
      </trkpt>
      <trkpt lat="45.45687" lon="5.81404">
        <ele>605</ele>
        <time>2013-06-14T13:10:29Z</time>
      </trkpt>
      <trkpt lat="45.45686" lon="5.8142">
        <ele>606</ele>
        <time>2013-06-14T13:10:38Z</time>
      </trkpt>
      <trkpt lat="45.45666" lon="5.81456">
        <ele>608</ele>
        <time>2013-06-14T13:10:55Z</time>
      </trkpt>
      <trkpt lat="45.45661" lon="5.81462">
        <ele>608</ele>
        <time>2013-06-14T13:11:01Z</time>
      </trkpt>
      <trkpt lat="45.45652" lon="5.8148">
        <ele>610</ele>
        <time>2013-06-14T13:11:15Z</time>
      </trkpt>
      <trkpt lat="45.45649" lon="5.81513">
        <ele>613</ele>
        <time>2013-06-14T13:11:31Z</time>
      </trkpt>
      <trkpt lat="45.45644" lon="5.81528">
        <ele>617</ele>
        <time>2013-06-14T13:11:41Z</time>
      </trkpt>
      <trkpt lat="45.4564" lon="5.81545">
        <ele>620</ele>
        <time>2013-06-14T13:11:49Z</time>
      </trkpt>
      <trkpt lat="45.4564" lon="5.81551">
        <ele>620</ele>
        <time>2013-06-14T13:12:45Z</time>
      </trkpt>
      <trkpt lat="45.45643" lon="5.81549">
        <ele>621</ele>
        <time>2013-06-14T13:14:14Z</time>
      </trkpt>
      <trkpt lat="45.45645" lon="5.81554">
        <ele>623</ele>
        <time>2013-06-14T13:14:18Z</time>
      </trkpt>
      <trkpt lat="45.45643" lon="5.81559">
        <ele>625</ele>
        <time>2013-06-14T13:14:22Z</time>
      </trkpt>
      <trkpt lat="45.45646" lon="5.81568">
        <ele>627</ele>
        <time>2013-06-14T13:14:32Z</time>
      </trkpt>
      <trkpt lat="45.45649" lon="5.81572">
        <ele>629</ele>
        <time>2013-06-14T13:14:40Z</time>
      </trkpt>
      <trkpt lat="45.45662" lon="5.81586">
        <ele>633</ele>
        <time>2013-06-14T13:14:53Z</time>
      </trkpt>
      <trkpt lat="45.45668" lon="5.81592">
        <ele>635</ele>
        <time>2013-06-14T13:15:14Z</time>
      </trkpt>
      <trkpt lat="45.45668" lon="5.81592">
        <ele>635</ele>
        <time>2013-06-14T13:15:22Z</time>
      </trkpt>
      <trkpt lat="45.45674" lon="5.81599">
        <ele>638</ele>
        <time>2013-06-14T13:15:34Z</time>
      </trkpt>
      <trkpt lat="45.45676" lon="5.81601">
        <ele>638</ele>
        <time>2013-06-14T13:15:37Z</time>
      </trkpt>
      <trkpt lat="45.45682" lon="5.81603">
        <ele>640</ele>
        <time>2013-06-14T13:16:05Z</time>
      </trkpt>
      <trkpt lat="45.4569" lon="5.81607">
        <ele>644</ele>
        <time>2013-06-14T13:16:22Z</time>
      </trkpt>
      <trkpt lat="45.45691" lon="5.81608">
        <ele>644</ele>
        <time>2013-06-14T13:16:23Z</time>
      </trkpt>
      <trkpt lat="45.45697" lon="5.81618">
        <ele>647</ele>
        <time>2013-06-14T13:16:34Z</time>
      </trkpt>
      <trkpt lat="45.45706" lon="5.81624">
        <ele>650</ele>
        <time>2013-06-14T13:16:56Z</time>
      </trkpt>
      <trkpt lat="45.45713" lon="5.81639">
        <ele>653</ele>
        <time>2013-06-14T13:17:23Z</time>
      </trkpt>
      <trkpt lat="45.45717" lon="5.8165">
        <ele>656</ele>
        <time>2013-06-14T13:18:09Z</time>
      </trkpt>
      <trkpt lat="45.45732" lon="5.81657">
        <ele>659</ele>
        <time>2013-06-14T13:18:21Z</time>
      </trkpt>
      <trkpt lat="45.45749" lon="5.8167">
        <ele>662</ele>
        <time>2013-06-14T13:18:34Z</time>
      </trkpt>
      <trkpt lat="45.45757" lon="5.81679">
        <ele>665</ele>
        <time>2013-06-14T13:18:49Z</time>
      </trkpt>
      <trkpt lat="45.45764" lon="5.81695">
        <ele>668</ele>
        <time>2013-06-14T13:18:58Z</time>
      </trkpt>
      <trkpt lat="45.45782" lon="5.8172">
        <ele>672</ele>
        <time>2013-06-14T13:19:17Z</time>
      </trkpt>
      <trkpt lat="45.45782" lon="5.81733">
        <ele>675</ele>
        <time>2013-06-14T13:19:27Z</time>
      </trkpt>
      <trkpt lat="45.45781" lon="5.81738">
        <ele>675</ele>
        <time>2013-06-14T13:19:29Z</time>
      </trkpt>
      <trkpt lat="45.4578" lon="5.81749">
        <ele>678</ele>
        <time>2013-06-14T13:19:36Z</time>
      </trkpt>
      <trkpt lat="45.45789" lon="5.81766">
        <ele>681</ele>
        <time>2013-06-14T13:19:48Z</time>
      </trkpt>
      <trkpt lat="45.45792" lon="5.81772">
        <ele>683</ele>
        <time>2013-06-14T13:19:52Z</time>
      </trkpt>
      <trkpt lat="45.45794" lon="5.81775">
        <ele>683</ele>
        <time>2013-06-14T13:19:54Z</time>
      </trkpt>
      <trkpt lat="45.45802" lon="5.81794">
        <ele>687</ele>
        <time>2013-06-14T13:20:08Z</time>
      </trkpt>
      <trkpt lat="45.45804" lon="5.81798">
        <ele>687</ele>
        <time>2013-06-14T13:20:12Z</time>
      </trkpt>
      <trkpt lat="45.45821" lon="5.81821">
        <ele>691</ele>
        <time>2013-06-14T13:20:29Z</time>
      </trkpt>
      <trkpt lat="45.45827" lon="5.81831">
        <ele>693</ele>
        <time>2013-06-14T13:20:39Z</time>
      </trkpt>
      <trkpt lat="45.45844" lon="5.81858">
        <ele>694</ele>
        <time>2013-06-14T13:21:01Z</time>
      </trkpt>
      <trkpt lat="45.45867" lon="5.81878">
        <ele>697</ele>
        <time>2013-06-14T13:21:20Z</time>
      </trkpt>
      <trkpt lat="45.45888" lon="5.81886">
        <ele>698</ele>
        <time>2013-06-14T13:21:34Z</time>
      </trkpt>
      <trkpt lat="45.45895" lon="5.81886">
        <ele>698</ele>
        <time>2013-06-14T13:21:38Z</time>
      </trkpt>
      <trkpt lat="45.45901" lon="5.81888">
        <ele>699</ele>
        <time>2013-06-14T13:21:43Z</time>
      </trkpt>
      <trkpt lat="45.45903" lon="5.81892">
        <ele>700</ele>
        <time>2013-06-14T13:21:47Z</time>
      </trkpt>
      <trkpt lat="45.45911" lon="5.81914">
        <ele>701</ele>
        <time>2013-06-14T13:22:01Z</time>
      </trkpt>
      <trkpt lat="45.45913" lon="5.81917">
        <ele>701</ele>
        <time>2013-06-14T13:22:03Z</time>
      </trkpt>
      <trkpt lat="45.45924" lon="5.81927">
        <ele>702</ele>
        <time>2013-06-14T13:22:11Z</time>
      </trkpt>
      <trkpt lat="45.4593" lon="5.81933">
        <ele>702</ele>
        <time>2013-06-14T13:22:17Z</time>
      </trkpt>
      <trkpt lat="45.4595" lon="5.81947">
        <ele>704</ele>
        <time>2013-06-14T13:22:33Z</time>
      </trkpt>
      <trkpt lat="45.45978" lon="5.81971">
        <ele>708</ele>
        <time>2013-06-14T13:22:57Z</time>
      </trkpt>
      <trkpt lat="45.46002" lon="5.81994">
        <ele>710</ele>
        <time>2013-06-14T13:23:18Z</time>
      </trkpt>
      <trkpt lat="45.46015" lon="5.82012">
        <ele>712</ele>
        <time>2013-06-14T13:23:33Z</time>
      </trkpt>
      <trkpt lat="45.46022" lon="5.82014">
        <ele>712</ele>
        <time>2013-06-14T13:23:37Z</time>
      </trkpt>
      <trkpt lat="45.46028" lon="5.8202">
        <ele>713</ele>
        <time>2013-06-14T13:23:43Z</time>
      </trkpt>
      <trkpt lat="45.4603" lon="5.82023">
        <ele>713</ele>
        <time>2013-06-14T13:23:47Z</time>
      </trkpt>
      <trkpt lat="45.46057" lon="5.82042">
        <ele>716</ele>
        <time>2013-06-14T13:24:09Z</time>
      </trkpt>
      <trkpt lat="45.46079" lon="5.8206">
        <ele>720</ele>
        <time>2013-06-14T13:24:32Z</time>
      </trkpt>
      <trkpt lat="45.46083" lon="5.82061">
        <ele>720</ele>
        <time>2013-06-14T13:24:35Z</time>
      </trkpt>
      <trkpt lat="45.46108" lon="5.8207">
        <ele>723</ele>
        <time>2013-06-14T13:24:52Z</time>
      </trkpt>
      <trkpt lat="45.46135" lon="5.82085">
        <ele>725</ele>
        <time>2013-06-14T13:25:14Z</time>
      </trkpt>
      <trkpt lat="45.4614" lon="5.82086">
        <ele>725</ele>
        <time>2013-06-14T13:25:17Z</time>
      </trkpt>
      <trkpt lat="45.46143" lon="5.8209">
        <ele>726</ele>
        <time>2013-06-14T13:25:20Z</time>
      </trkpt>
      <trkpt lat="45.4617" lon="5.82109">
        <ele>730</ele>
        <time>2013-06-14T13:25:45Z</time>
      </trkpt>
      <trkpt lat="45.46179" lon="5.82118">
        <ele>731</ele>
        <time>2013-06-14T13:25:54Z</time>
      </trkpt>
      <trkpt lat="45.46194" lon="5.8213">
        <ele>732</ele>
        <time>2013-06-14T13:26:08Z</time>
      </trkpt>
      <trkpt lat="45.462" lon="5.82133">
        <ele>732</ele>
        <time>2013-06-14T13:26:12Z</time>
      </trkpt>
      <trkpt lat="45.46203" lon="5.82135">
        <ele>733</ele>
        <time>2013-06-14T13:26:14Z</time>
      </trkpt>
      <trkpt lat="45.46222" lon="5.82154">
        <ele>735</ele>
        <time>2013-06-14T13:26:31Z</time>
      </trkpt>
      <trkpt lat="45.46228" lon="5.82159">
        <ele>735</ele>
        <time>2013-06-14T13:26:36Z</time>
      </trkpt>
      <trkpt lat="45.46232" lon="5.82165">
        <ele>736</ele>
        <time>2013-06-14T13:26:41Z</time>
      </trkpt>
      <trkpt lat="45.46257" lon="5.82189">
        <ele>739</ele>
        <time>2013-06-14T13:27:03Z</time>
      </trkpt>
      <trkpt lat="45.46264" lon="5.82194">
        <ele>739</ele>
        <time>2013-06-14T13:27:08Z</time>
      </trkpt>
      <trkpt lat="45.46271" lon="5.82201">
        <ele>740</ele>
        <time>2013-06-14T13:27:15Z</time>
      </trkpt>
      <trkpt lat="45.46273" lon="5.82206">
        <ele>740</ele>
        <time>2013-06-14T13:27:19Z</time>
      </trkpt>
      <trkpt lat="45.46275" lon="5.82212">
        <ele>741</ele>
        <time>2013-06-14T13:27:23Z</time>
      </trkpt>
      <trkpt lat="45.46298" lon="5.8224">
        <ele>744</ele>
        <time>2013-06-14T13:27:47Z</time>
      </trkpt>
      <trkpt lat="45.4632" lon="5.82262">
        <ele>746</ele>
        <time>2013-06-14T13:28:06Z</time>
      </trkpt>
      <trkpt lat="45.46321" lon="5.82267">
        <ele>747</ele>
        <time>2013-06-14T13:28:11Z</time>
      </trkpt>
      <trkpt lat="45.46325" lon="5.82269">
        <ele>747</ele>
        <time>2013-06-14T13:28:14Z</time>
      </trkpt>
      <trkpt lat="45.46333" lon="5.82277">
        <ele>748</ele>
        <time>2013-06-14T13:28:20Z</time>
      </trkpt>
      <trkpt lat="45.4634" lon="5.82293">
        <ele>749</ele>
        <time>2013-06-14T13:28:30Z</time>
      </trkpt>
      <trkpt lat="45.46345" lon="5.82296">
        <ele>749</ele>
        <time>2013-06-14T13:28:35Z</time>
      </trkpt>
      <trkpt lat="45.46365" lon="5.82322">
        <ele>753</ele>
        <time>2013-06-14T13:28:55Z</time>
      </trkpt>
      <trkpt lat="45.46371" lon="5.82336">
        <ele>753</ele>
        <time>2013-06-14T13:29:04Z</time>
      </trkpt>
      <trkpt lat="45.46374" lon="5.82343">
        <ele>754</ele>
        <time>2013-06-14T13:29:08Z</time>
      </trkpt>
      <trkpt lat="45.46391" lon="5.82374">
        <ele>757</ele>
        <time>2013-06-14T13:29:28Z</time>
      </trkpt>
      <trkpt lat="45.46395" lon="5.82378">
        <ele>758</ele>
        <time>2013-06-14T13:29:31Z</time>
      </trkpt>
      <trkpt lat="45.46405" lon="5.82395">
        <ele>759</ele>
        <time>2013-06-14T13:29:43Z</time>
      </trkpt>
      <trkpt lat="45.46406" lon="5.82401">
        <ele>760</ele>
        <time>2013-06-14T13:29:47Z</time>
      </trkpt>
      <trkpt lat="45.46407" lon="5.82413">
        <ele>762</ele>
        <time>2013-06-14T13:29:58Z</time>
      </trkpt>
      <trkpt lat="45.46387" lon="5.82407">
        <ele>765</ele>
        <time>2013-06-14T13:30:14Z</time>
      </trkpt>
      <trkpt lat="45.46383" lon="5.82404">
        <ele>765</ele>
        <time>2013-06-14T13:30:17Z</time>
      </trkpt>
      <trkpt lat="45.46374" lon="5.82402">
        <ele>765</ele>
        <time>2013-06-14T13:30:59Z</time>
      </trkpt>
      <trkpt lat="45.46396" lon="5.82412">
        <ele>762</ele>
        <time>2013-06-14T13:31:32Z</time>
      </trkpt>
      <trkpt lat="45.46407" lon="5.82424">
        <ele>763</ele>
        <time>2013-06-14T13:31:44Z</time>
      </trkpt>
      <trkpt lat="45.46411" lon="5.82442">
        <ele>764</ele>
        <time>2013-06-14T13:31:52Z</time>
      </trkpt>
      <trkpt lat="45.46412" lon="5.82477">
        <ele>767</ele>
        <time>2013-06-14T13:32:11Z</time>
      </trkpt>
      <trkpt lat="45.46394" lon="5.82497">
        <ele>769</ele>
        <time>2013-06-14T13:32:25Z</time>
      </trkpt>
      <trkpt lat="45.46373" lon="5.82507">
        <ele>773</ele>
        <time>2013-06-14T13:32:45Z</time>
      </trkpt>
      <trkpt lat="45.46358" lon="5.82505">
        <ele>774</ele>
        <time>2013-06-14T13:33:01Z</time>
      </trkpt>
      <trkpt lat="45.46336" lon="5.82495">
        <ele>777</ele>
        <time>2013-06-14T13:33:19Z</time>
      </trkpt>
      <trkpt lat="45.46324" lon="5.8248">
        <ele>780</ele>
        <time>2013-06-14T13:33:33Z</time>
      </trkpt>
      <trkpt lat="45.46307" lon="5.82479">
        <ele>783</ele>
        <time>2013-06-14T13:33:46Z</time>
      </trkpt>
      <trkpt lat="45.46282" lon="5.82458">
        <ele>786</ele>
        <time>2013-06-14T13:34:00Z</time>
      </trkpt>
      <trkpt lat="45.46274" lon="5.82447">
        <ele>789</ele>
        <time>2013-06-14T13:34:14Z</time>
      </trkpt>
      <trkpt lat="45.46272" lon="5.82443">
        <ele>790</ele>
        <time>2013-06-14T13:34:17Z</time>
      </trkpt>
      <trkpt lat="45.46259" lon="5.82424">
        <ele>794</ele>
        <time>2013-06-14T13:34:35Z</time>
      </trkpt>
      <trkpt lat="45.46239" lon="5.82416">
        <ele>797</ele>
        <time>2013-06-14T13:34:52Z</time>
      </trkpt>
      <trkpt lat="45.4622" lon="5.82414">
        <ele>800</ele>
        <time>2013-06-14T13:35:07Z</time>
      </trkpt>
      <trkpt lat="45.46205" lon="5.82408">
        <ele>802</ele>
        <time>2013-06-14T13:35:19Z</time>
      </trkpt>
      <trkpt lat="45.46198" lon="5.82406">
        <ele>803</ele>
        <time>2013-06-14T13:35:24Z</time>
      </trkpt>
      <trkpt lat="45.46193" lon="5.824">
        <ele>802</ele>
        <time>2013-06-14T13:35:30Z</time>
      </trkpt>
      <trkpt lat="45.46173" lon="5.82396">
        <ele>802</ele>
        <time>2013-06-14T13:35:42Z</time>
      </trkpt>
      <trkpt lat="45.46147" lon="5.82372">
        <ele>803</ele>
        <time>2013-06-14T13:36:07Z</time>
      </trkpt>
      <trkpt lat="45.46112" lon="5.82361">
        <ele>805</ele>
        <time>2013-06-14T13:36:39Z</time>
      </trkpt>
      <trkpt lat="45.46067" lon="5.8236">
        <ele>807</ele>
        <time>2013-06-14T13:37:12Z</time>
      </trkpt>
      <trkpt lat="45.46048" lon="5.82361">
        <ele>810</ele>
        <time>2013-06-14T13:37:33Z</time>
      </trkpt>
      <trkpt lat="45.46023" lon="5.82333">
        <ele>810</ele>
        <time>2013-06-14T13:37:59Z</time>
      </trkpt>
      <trkpt lat="45.45981" lon="5.82296">
        <ele>812</ele>
        <time>2013-06-14T13:38:33Z</time>
      </trkpt>
      <trkpt lat="45.45959" lon="5.82293">
        <ele>815</ele>
        <time>2013-06-14T13:38:52Z</time>
      </trkpt>
      <trkpt lat="45.45944" lon="5.82292">
        <ele>819</ele>
        <time>2013-06-14T13:39:04Z</time>
      </trkpt>
      <trkpt lat="45.45928" lon="5.82281">
        <ele>822</ele>
        <time>2013-06-14T13:39:16Z</time>
      </trkpt>
      <trkpt lat="45.45911" lon="5.82265">
        <ele>824</ele>
        <time>2013-06-14T13:39:33Z</time>
      </trkpt>
      <trkpt lat="45.45913" lon="5.82248">
        <ele>826</ele>
        <time>2013-06-14T13:40:50Z</time>
      </trkpt>
      <trkpt lat="45.45907" lon="5.82247">
        <ele>829</ele>
        <time>2013-06-14T13:41:11Z</time>
      </trkpt>
      <trkpt lat="45.45888" lon="5.8224">
        <ele>833</ele>
        <time>2013-06-14T13:41:27Z</time>
      </trkpt>
      <trkpt lat="45.45877" lon="5.82236">
        <ele>836</ele>
        <time>2013-06-14T13:41:41Z</time>
      </trkpt>
      <trkpt lat="45.45853" lon="5.82216">
        <ele>837</ele>
        <time>2013-06-14T13:42:03Z</time>
      </trkpt>
      <trkpt lat="45.45827" lon="5.82201">
        <ele>839</ele>
        <time>2013-06-14T13:42:27Z</time>
      </trkpt>
      <trkpt lat="45.45823" lon="5.822">
        <ele>840</ele>
        <time>2013-06-14T13:42:29Z</time>
      </trkpt>
      <trkpt lat="45.4581" lon="5.82194">
        <ele>842</ele>
        <time>2013-06-14T13:42:42Z</time>
      </trkpt>
      <trkpt lat="45.45807" lon="5.82186">
        <ele>842</ele>
        <time>2013-06-14T13:42:47Z</time>
      </trkpt>
      <trkpt lat="45.45803" lon="5.82183">
        <ele>843</ele>
        <time>2013-06-14T13:42:50Z</time>
      </trkpt>
      <trkpt lat="45.45791" lon="5.82171">
        <ele>845</ele>
        <time>2013-06-14T13:43:03Z</time>
      </trkpt>
      <trkpt lat="45.45786" lon="5.82166">
        <ele>847</ele>
        <time>2013-06-14T13:43:10Z</time>
      </trkpt>
      <trkpt lat="45.45778" lon="5.82161">
        <ele>847</ele>
        <time>2013-06-14T13:43:35Z</time>
      </trkpt>
      <trkpt lat="45.45775" lon="5.82156">
        <ele>847</ele>
        <time>2013-06-14T13:45:00Z</time>
      </trkpt>
      <trkpt lat="45.45771" lon="5.82159">
        <ele>848</ele>
        <time>2013-06-14T13:45:53Z</time>
      </trkpt>
      <trkpt lat="45.45743" lon="5.82144">
        <ele>851</ele>
        <time>2013-06-14T13:46:24Z</time>
      </trkpt>
      <trkpt lat="45.45731" lon="5.82141">
        <ele>855</ele>
        <time>2013-06-14T13:46:41Z</time>
      </trkpt>
      <trkpt lat="45.45713" lon="5.82135">
        <ele>858</ele>
        <time>2013-06-14T13:46:56Z</time>
      </trkpt>
      <trkpt lat="45.45696" lon="5.82125">
        <ele>861</ele>
        <time>2013-06-14T13:47:09Z</time>
      </trkpt>
      <trkpt lat="45.45654" lon="5.82091">
        <ele>862</ele>
        <time>2013-06-14T13:47:48Z</time>
      </trkpt>
      <trkpt lat="45.45621" lon="5.82062">
        <ele>864</ele>
        <time>2013-06-14T13:48:16Z</time>
      </trkpt>
      <trkpt lat="45.45604" lon="5.82051">
        <ele>867</ele>
        <time>2013-06-14T13:48:34Z</time>
      </trkpt>
      <trkpt lat="45.45569" lon="5.82042">
        <ele>870</ele>
        <time>2013-06-14T13:49:02Z</time>
      </trkpt>
      <trkpt lat="45.45546" lon="5.82025">
        <ele>871</ele>
        <time>2013-06-14T13:49:25Z</time>
      </trkpt>
      <trkpt lat="45.45529" lon="5.81999">
        <ele>873</ele>
        <time>2013-06-14T13:49:50Z</time>
      </trkpt>
      <trkpt lat="45.45509" lon="5.81979">
        <ele>876</ele>
        <time>2013-06-14T13:50:09Z</time>
      </trkpt>
      <trkpt lat="45.45486" lon="5.81967">
        <ele>879</ele>
        <time>2013-06-14T13:50:25Z</time>
      </trkpt>
      <trkpt lat="45.45468" lon="5.81961">
        <ele>882</ele>
        <time>2013-06-14T13:50:39Z</time>
      </trkpt>
      <trkpt lat="45.45456" lon="5.81947">
        <ele>885</ele>
        <time>2013-06-14T13:50:56Z</time>
      </trkpt>
      <trkpt lat="45.4544" lon="5.81938">
        <ele>888</ele>
        <time>2013-06-14T13:51:10Z</time>
      </trkpt>
      <trkpt lat="45.45433" lon="5.81927">
        <ele>891</ele>
        <time>2013-06-14T13:51:20Z</time>
      </trkpt>
      <trkpt lat="45.45424" lon="5.81912">
        <ele>895</ele>
        <time>2013-06-14T13:51:30Z</time>
      </trkpt>
      <trkpt lat="45.45397" lon="5.81888">
        <ele>898</ele>
        <time>2013-06-14T13:52:05Z</time>
      </trkpt>
      <trkpt lat="45.45369" lon="5.81868">
        <ele>899</ele>
        <time>2013-06-14T13:52:27Z</time>
      </trkpt>
      <trkpt lat="45.45359" lon="5.81854">
        <ele>898</ele>
        <time>2013-06-14T13:52:39Z</time>
      </trkpt>
      <trkpt lat="45.4533" lon="5.8183">
        <ele>900</ele>
        <time>2013-06-14T13:53:02Z</time>
      </trkpt>
      <trkpt lat="45.45317" lon="5.81817">
        <ele>903</ele>
        <time>2013-06-14T13:53:21Z</time>
      </trkpt>
      <trkpt lat="45.45311" lon="5.8181">
        <ele>904</ele>
        <time>2013-06-14T13:53:28Z</time>
      </trkpt>
      <trkpt lat="45.45289" lon="5.81791">
        <ele>908</ele>
        <time>2013-06-14T13:53:48Z</time>
      </trkpt>
      <trkpt lat="45.45279" lon="5.81779">
        <ele>911</ele>
        <time>2013-06-14T13:54:01Z</time>
      </trkpt>
      <trkpt lat="45.45276" lon="5.81777">
        <ele>911</ele>
        <time>2013-06-14T13:54:03Z</time>
      </trkpt>
      <trkpt lat="45.45251" lon="5.81761">
        <ele>913</ele>
        <time>2013-06-14T13:54:22Z</time>
      </trkpt>
      <trkpt lat="45.45232" lon="5.81768">
        <ele>914</ele>
        <time>2013-06-14T13:54:30Z</time>
      </trkpt>
      <trkpt lat="45.45222" lon="5.81775">
        <ele>918</ele>
        <time>2013-06-14T13:54:42Z</time>
      </trkpt>
      <trkpt lat="45.45222" lon="5.81776">
        <ele>918</ele>
        <time>2013-06-14T13:54:43Z</time>
      </trkpt>
      <trkpt lat="45.45211" lon="5.81791">
        <ele>918</ele>
        <time>2013-06-14T13:55:00Z</time>
      </trkpt>
      <trkpt lat="45.45209" lon="5.81818">
        <ele>918</ele>
        <time>2013-06-14T13:55:22Z</time>
      </trkpt>
      <trkpt lat="45.45205" lon="5.81818">
        <ele>919</ele>
        <time>2013-06-14T13:55:28Z</time>
      </trkpt>
      <trkpt lat="45.45205" lon="5.81807">
        <ele>919</ele>
        <time>2013-06-14T13:55:31Z</time>
      </trkpt>
      <trkpt lat="45.45177" lon="5.81776">
        <ele>921</ele>
        <time>2013-06-14T13:56:00Z</time>
      </trkpt>
      <trkpt lat="45.45156" lon="5.81751">
        <ele>923</ele>
        <time>2013-06-14T13:56:22Z</time>
      </trkpt>
      <trkpt lat="45.45153" lon="5.8175">
        <ele>923</ele>
        <time>2013-06-14T13:56:24Z</time>
      </trkpt>
      <trkpt lat="45.4513" lon="5.8173">
        <ele>925</ele>
        <time>2013-06-14T13:56:46Z</time>
      </trkpt>
      <trkpt lat="45.45098" lon="5.8169">
        <ele>928</ele>
        <time>2013-06-14T13:57:13Z</time>
      </trkpt>
      <trkpt lat="45.45066" lon="5.81668">
        <ele>932</ele>
        <time>2013-06-14T13:57:40Z</time>
      </trkpt>
      <trkpt lat="45.45031" lon="5.81652">
        <ele>935</ele>
        <time>2013-06-14T13:58:09Z</time>
      </trkpt>
      <trkpt lat="45.44999" lon="5.81638">
        <ele>938</ele>
        <time>2013-06-14T13:58:34Z</time>
      </trkpt>
      <trkpt lat="45.44976" lon="5.81624">
        <ele>939</ele>
        <time>2013-06-14T13:58:57Z</time>
      </trkpt>
      <trkpt lat="45.44976" lon="5.81628">
        <ele>939</ele>
        <time>2013-06-14T13:59:10Z</time>
      </trkpt>
      <trkpt lat="45.44966" lon="5.8162">
        <ele>940</ele>
        <time>2013-06-14T13:59:21Z</time>
      </trkpt>
      <trkpt lat="45.44937" lon="5.81603">
        <ele>944</ele>
        <time>2013-06-14T13:59:45Z</time>
      </trkpt>
      <trkpt lat="45.44903" lon="5.81579">
        <ele>947</ele>
        <time>2013-06-14T14:00:16Z</time>
      </trkpt>
      <trkpt lat="45.44899" lon="5.81576">
        <ele>948</ele>
        <time>2013-06-14T14:00:20Z</time>
      </trkpt>
      <trkpt lat="45.44895" lon="5.81573">
        <ele>948</ele>
        <time>2013-06-14T14:00:24Z</time>
      </trkpt>
      <trkpt lat="45.44868" lon="5.81567">
        <ele>948</ele>
        <time>2013-06-14T14:00:44Z</time>
      </trkpt>
      <trkpt lat="45.44822" lon="5.81551">
        <ele>950</ele>
        <time>2013-06-14T14:01:18Z</time>
      </trkpt>
      <trkpt lat="45.4481" lon="5.81546">
        <ele>950</ele>
        <time>2013-06-14T14:01:28Z</time>
      </trkpt>
      <trkpt lat="45.44778" lon="5.81522">
        <ele>952</ele>
        <time>2013-06-14T14:01:55Z</time>
      </trkpt>
      <trkpt lat="45.44734" lon="5.81474">
        <ele>953</ele>
        <time>2013-06-14T14:02:36Z</time>
      </trkpt>
      <trkpt lat="45.44695" lon="5.81425">
        <ele>954</ele>
        <time>2013-06-14T14:03:14Z</time>
      </trkpt>
      <trkpt lat="45.44657" lon="5.81378">
        <ele>955</ele>
        <time>2013-06-14T14:03:52Z</time>
      </trkpt>
      <trkpt lat="45.44625" lon="5.81339">
        <ele>956</ele>
        <time>2013-06-14T14:04:23Z</time>
      </trkpt>
      <trkpt lat="45.44576" lon="5.81296">
        <ele>957</ele>
        <time>2013-06-14T14:05:04Z</time>
      </trkpt>
      <trkpt lat="45.44515" lon="5.8125">
        <ele>958</ele>
        <time>2013-06-14T14:05:55Z</time>
      </trkpt>
      <trkpt lat="45.4445" lon="5.81207">
        <ele>959</ele>
        <time>2013-06-14T14:06:46Z</time>
      </trkpt>
      <trkpt lat="45.44399" lon="5.81163">
        <ele>959</ele>
        <time>2013-06-14T14:07:32Z</time>
      </trkpt>
      <trkpt lat="45.44371" lon="5.81137">
        <ele>959</ele>
        <time>2013-06-14T14:08:05Z</time>
      </trkpt>
      <trkpt lat="45.44343" lon="5.81114">
        <ele>958</ele>
        <time>2013-06-14T14:08:30Z</time>
      </trkpt>
      <trkpt lat="45.44305" lon="5.81093">
        <ele>956</ele>
        <time>2013-06-14T14:09:00Z</time>
      </trkpt>
      <trkpt lat="45.44273" lon="5.81079">
        <ele>954</ele>
        <time>2013-06-14T14:09:27Z</time>
      </trkpt>
      <trkpt lat="45.44254" lon="5.81064">
        <ele>952</ele>
        <time>2013-06-14T14:09:42Z</time>
      </trkpt>
      <trkpt lat="45.44232" lon="5.81065">
        <ele>949</ele>
        <time>2013-06-14T14:09:57Z</time>
      </trkpt>
      <trkpt lat="45.44219" lon="5.81071">
        <ele>949</ele>
        <time>2013-06-14T14:10:07Z</time>
      </trkpt>
      <trkpt lat="45.44211" lon="5.811">
        <ele>951</ele>
        <time>2013-06-14T14:10:24Z</time>
      </trkpt>
      <trkpt lat="45.44207" lon="5.81128">
        <ele>953</ele>
        <time>2013-06-14T14:10:38Z</time>
      </trkpt>
      <trkpt lat="45.44201" lon="5.81137">
        <ele>953</ele>
        <time>2013-06-14T14:10:45Z</time>
      </trkpt>
      <trkpt lat="45.44199" lon="5.8114">
        <ele>953</ele>
        <time>2013-06-14T14:10:47Z</time>
      </trkpt>
      <trkpt lat="45.44192" lon="5.81148">
        <ele>954</ele>
        <time>2013-06-14T14:10:53Z</time>
      </trkpt>
      <trkpt lat="45.4419" lon="5.81153">
        <ele>954</ele>
        <time>2013-06-14T14:10:57Z</time>
      </trkpt>
      <trkpt lat="45.44183" lon="5.81161">
        <ele>954</ele>
        <time>2013-06-14T14:11:01Z</time>
      </trkpt>
      <trkpt lat="45.44155" lon="5.81174">
        <ele>954</ele>
        <time>2013-06-14T14:11:24Z</time>
      </trkpt>
      <trkpt lat="45.44119" lon="5.81185">
        <ele>953</ele>
        <time>2013-06-14T14:11:54Z</time>
      </trkpt>
      <trkpt lat="45.44118" lon="5.81186">
        <ele>952</ele>
        <time>2013-06-14T14:11:55Z</time>
      </trkpt>
      <trkpt lat="45.44079" lon="5.81192">
        <ele>952</ele>
        <time>2013-06-14T14:12:27Z</time>
      </trkpt>
      <trkpt lat="45.4404" lon="5.81192">
        <ele>951</ele>
        <time>2013-06-14T14:13:00Z</time>
      </trkpt>
      <trkpt lat="45.43991" lon="5.81217">
        <ele>952</ele>
        <time>2013-06-14T14:13:42Z</time>
      </trkpt>
      <trkpt lat="45.43984" lon="5.81227">
        <ele>953</ele>
        <time>2013-06-14T14:13:50Z</time>
      </trkpt>
      <trkpt lat="45.43948" lon="5.81251">
        <ele>957</ele>
        <time>2013-06-14T14:14:18Z</time>
      </trkpt>
      <trkpt lat="45.43932" lon="5.81267">
        <ele>959</ele>
        <time>2013-06-14T14:14:33Z</time>
      </trkpt>
      <trkpt lat="45.43928" lon="5.81272">
        <ele>958</ele>
        <time>2013-06-14T14:14:37Z</time>
      </trkpt>
      <trkpt lat="45.4391" lon="5.81284">
        <ele>959</ele>
        <time>2013-06-14T14:14:50Z</time>
      </trkpt>
      <trkpt lat="45.43904" lon="5.81288">
        <ele>960</ele>
        <time>2013-06-14T14:14:55Z</time>
      </trkpt>
      <trkpt lat="45.439" lon="5.81295">
        <ele>960</ele>
        <time>2013-06-14T14:14:58Z</time>
      </trkpt>
      <trkpt lat="45.43883" lon="5.81296">
        <ele>960</ele>
        <time>2013-06-14T14:15:12Z</time>
      </trkpt>
      <trkpt lat="45.4387" lon="5.81307">
        <ele>960</ele>
        <time>2013-06-14T14:15:38Z</time>
      </trkpt>
      <trkpt lat="45.43862" lon="5.81303">
        <ele>960</ele>
        <time>2013-06-14T14:17:07Z</time>
      </trkpt>
      <trkpt lat="45.4388" lon="5.81329">
        <ele>959</ele>
        <time>2013-06-14T14:17:41Z</time>
      </trkpt>
      <trkpt lat="45.43873" lon="5.81325">
        <ele>959</ele>
        <time>2013-06-14T14:18:22Z</time>
      </trkpt>
      <trkpt lat="45.43818" lon="5.81303">
        <ele>961</ele>
        <time>2013-06-14T14:19:34Z</time>
      </trkpt>
      <trkpt lat="45.43803" lon="5.81294">
        <ele>963</ele>
        <time>2013-06-14T14:19:46Z</time>
      </trkpt>
      <trkpt lat="45.438" lon="5.81295">
        <ele>964</ele>
        <time>2013-06-14T14:19:49Z</time>
      </trkpt>
      <trkpt lat="45.43786" lon="5.81312">
        <ele>967</ele>
        <time>2013-06-14T14:20:10Z</time>
      </trkpt>
      <trkpt lat="45.43772" lon="5.81327">
        <ele>971</ele>
        <time>2013-06-14T14:20:28Z</time>
      </trkpt>
      <trkpt lat="45.43761" lon="5.8135">
        <ele>973</ele>
        <time>2013-06-14T14:20:44Z</time>
      </trkpt>
      <trkpt lat="45.4376" lon="5.81352">
        <ele>974</ele>
        <time>2013-06-14T14:20:45Z</time>
      </trkpt>
      <trkpt lat="45.43757" lon="5.81361">
        <ele>974</ele>
        <time>2013-06-14T14:20:48Z</time>
      </trkpt>
      <trkpt lat="45.43757" lon="5.81383">
        <ele>978</ele>
        <time>2013-06-14T14:21:04Z</time>
      </trkpt>
      <trkpt lat="45.43757" lon="5.81393">
        <ele>979</ele>
        <time>2013-06-14T14:21:09Z</time>
      </trkpt>
      <trkpt lat="45.43755" lon="5.81397">
        <ele>979</ele>
        <time>2013-06-14T14:21:12Z</time>
      </trkpt>
      <trkpt lat="45.43752" lon="5.81418">
        <ele>982</ele>
        <time>2013-06-14T14:21:29Z</time>
      </trkpt>
      <trkpt lat="45.43735" lon="5.81446">
        <ele>985</ele>
        <time>2013-06-14T14:21:57Z</time>
      </trkpt>
      <trkpt lat="45.43712" lon="5.81463">
        <ele>988</ele>
        <time>2013-06-14T14:22:16Z</time>
      </trkpt>
      <trkpt lat="45.43699" lon="5.81475">
        <ele>992</ele>
        <time>2013-06-14T14:22:28Z</time>
      </trkpt>
      <trkpt lat="45.43696" lon="5.81496">
        <ele>995</ele>
        <time>2013-06-14T14:22:41Z</time>
      </trkpt>
      <trkpt lat="45.43702" lon="5.81518">
        <ele>997</ele>
        <time>2013-06-14T14:22:53Z</time>
      </trkpt>
      <trkpt lat="45.43698" lon="5.81528">
        <ele>998</ele>
        <time>2013-06-14T14:22:55Z</time>
      </trkpt>
      <trkpt lat="45.43698" lon="5.8153">
        <ele>998</ele>
        <time>2013-06-14T14:22:56Z</time>
      </trkpt>
      <trkpt lat="45.43684" lon="5.81544">
        <ele>1002</ele>
        <time>2013-06-14T14:23:15Z</time>
      </trkpt>
      <trkpt lat="45.43667" lon="5.81547">
        <ele>999</ele>
        <time>2013-06-14T14:23:54Z</time>
      </trkpt>
      <trkpt lat="45.43654" lon="5.81546">
        <ele>996</ele>
        <time>2013-06-14T14:24:06Z</time>
      </trkpt>
      <trkpt lat="45.43646" lon="5.81564">
        <ele>993</ele>
        <time>2013-06-14T14:24:31Z</time>
      </trkpt>
      <trkpt lat="45.43646" lon="5.81576">
        <ele>989</ele>
        <time>2013-06-14T14:24:45Z</time>
      </trkpt>
      <trkpt lat="45.43647" lon="5.81584">
        <ele>986</ele>
        <time>2013-06-14T14:24:57Z</time>
      </trkpt>
      <trkpt lat="45.43651" lon="5.81598">
        <ele>983</ele>
        <time>2013-06-14T14:25:09Z</time>
      </trkpt>
      <trkpt lat="45.43652" lon="5.81615">
        <ele>979</ele>
        <time>2013-06-14T14:25:24Z</time>
      </trkpt>
      <trkpt lat="45.43657" lon="5.81634">
        <ele>976</ele>
        <time>2013-06-14T14:25:38Z</time>
      </trkpt>
      <trkpt lat="45.43657" lon="5.81652">
        <ele>973</ele>
        <time>2013-06-14T14:25:54Z</time>
      </trkpt>
      <trkpt lat="45.43662" lon="5.81669">
        <ele>970</ele>
        <time>2013-06-14T14:26:06Z</time>
      </trkpt>
      <trkpt lat="45.43681" lon="5.8174">
        <ele>970</ele>
        <time>2013-06-14T14:26:40Z</time>
      </trkpt>
      <trkpt lat="45.43696" lon="5.81766">
        <ele>971</ele>
        <time>2013-06-14T14:27:06Z</time>
      </trkpt>
      <trkpt lat="45.43679" lon="5.81778">
        <ele>968</ele>
        <time>2013-06-14T14:27:34Z</time>
      </trkpt>
      <trkpt lat="45.43667" lon="5.81768">
        <ele>967</ele>
        <time>2013-06-14T14:28:17Z</time>
      </trkpt>
      <trkpt lat="45.43633" lon="5.81772">
        <ele>964</ele>
        <time>2013-06-14T14:28:49Z</time>
      </trkpt>
      <trkpt lat="45.43618" lon="5.81773">
        <ele>963</ele>
        <time>2013-06-14T14:28:55Z</time>
      </trkpt>
      <trkpt lat="45.43609" lon="5.81769">
        <ele>960</ele>
        <time>2013-06-14T14:29:10Z</time>
      </trkpt>
      <trkpt lat="45.436" lon="5.81764">
        <ele>957</ele>
        <time>2013-06-14T14:29:20Z</time>
      </trkpt>
      <trkpt lat="45.43586" lon="5.8176">
        <ele>954</ele>
        <time>2013-06-14T14:29:29Z</time>
      </trkpt>
      <trkpt lat="45.4358" lon="5.81759">
        <ele>953</ele>
        <time>2013-06-14T14:29:34Z</time>
      </trkpt>
      <trkpt lat="45.43573" lon="5.81764">
        <ele>950</ele>
        <time>2013-06-14T14:30:18Z</time>
      </trkpt>
      <trkpt lat="45.43568" lon="5.81765">
        <ele>950</ele>
        <time>2013-06-14T14:30:23Z</time>
      </trkpt>
      <trkpt lat="45.43557" lon="5.8177">
        <ele>947</ele>
        <time>2013-06-14T14:30:35Z</time>
      </trkpt>
      <trkpt lat="45.43551" lon="5.81771">
        <ele>945</ele>
        <time>2013-06-14T14:30:42Z</time>
      </trkpt>
      <trkpt lat="45.43543" lon="5.81777">
        <ele>942</ele>
        <time>2013-06-14T14:31:04Z</time>
      </trkpt>
      <trkpt lat="45.43526" lon="5.81777">
        <ele>938</ele>
        <time>2013-06-14T14:31:30Z</time>
      </trkpt>
      <trkpt lat="45.43496" lon="5.81768">
        <ele>935</ele>
        <time>2013-06-14T14:31:50Z</time>
      </trkpt>
      <trkpt lat="45.43448" lon="5.81765">
        <ele>932</ele>
        <time>2013-06-14T14:32:20Z</time>
      </trkpt>
      <trkpt lat="45.43429" lon="5.81753">
        <ele>929</ele>
        <time>2013-06-14T14:32:40Z</time>
      </trkpt>
      <trkpt lat="45.43424" lon="5.81753">
        <ele>929</ele>
        <time>2013-06-14T14:32:53Z</time>
      </trkpt>
      <trkpt lat="45.43392" lon="5.81749">
        <ele>927</ele>
        <time>2013-06-14T14:33:22Z</time>
      </trkpt>
      <trkpt lat="45.43365" lon="5.81747">
        <ele>930</ele>
        <time>2013-06-14T14:33:41Z</time>
      </trkpt>
      <trkpt lat="45.43333" lon="5.8175">
        <ele>933</ele>
        <time>2013-06-14T14:33:54Z</time>
      </trkpt>
      <trkpt lat="45.43307" lon="5.81786">
        <ele>933</ele>
        <time>2013-06-14T14:34:32Z</time>
      </trkpt>
      <trkpt lat="45.43275" lon="5.81798">
        <ele>930</ele>
        <time>2013-06-14T14:34:56Z</time>
      </trkpt>
      <trkpt lat="45.43272" lon="5.81799">
        <ele>929</ele>
        <time>2013-06-14T14:35:00Z</time>
      </trkpt>
      <trkpt lat="45.43254" lon="5.818">
        <ele>925</ele>
        <time>2013-06-14T14:35:17Z</time>
      </trkpt>
      <trkpt lat="45.43248" lon="5.81796">
        <ele>926</ele>
        <time>2013-06-14T14:35:22Z</time>
      </trkpt>
      <trkpt lat="45.43221" lon="5.81802">
        <ele>925</ele>
        <time>2013-06-14T14:35:42Z</time>
      </trkpt>
      <trkpt lat="45.43213" lon="5.81816">
        <ele>924</ele>
        <time>2013-06-14T14:35:50Z</time>
      </trkpt>
      <trkpt lat="45.43205" lon="5.81834">
        <ele>922</ele>
        <time>2013-06-14T14:36:02Z</time>
      </trkpt>
      <trkpt lat="45.43199" lon="5.81848">
        <ele>921</ele>
        <time>2013-06-14T14:36:30Z</time>
      </trkpt>
      <trkpt lat="45.43204" lon="5.81848">
        <ele>920</ele>
        <time>2013-06-14T14:37:34Z</time>
      </trkpt>
      <trkpt lat="45.43211" lon="5.81859">
        <ele>922</ele>
        <time>2013-06-14T14:45:28Z</time>
      </trkpt>
      <trkpt lat="45.4321" lon="5.81861">
        <ele>922</ele>
        <time>2013-06-14T14:46:08Z</time>
      </trkpt>
      <trkpt lat="45.43206" lon="5.81859">
        <ele>921</ele>
        <time>2013-06-14T14:47:46Z</time>
      </trkpt>
      <trkpt lat="45.43212" lon="5.81875">
        <ele>921</ele>
        <time>2013-06-14T14:48:55Z</time>
      </trkpt>
      <trkpt lat="45.43212" lon="5.81857">
        <ele>920</ele>
        <time>2013-06-14T14:49:52Z</time>
      </trkpt>
      <trkpt lat="45.43217" lon="5.8188">
        <ele>916</ele>
        <time>2013-06-14T14:52:10Z</time>
      </trkpt>
      <trkpt lat="45.43211" lon="5.81887">
        <ele>914</ele>
        <time>2013-06-14T14:52:33Z</time>
      </trkpt>
      <trkpt lat="45.43207" lon="5.819">
        <ele>911</ele>
        <time>2013-06-14T14:53:01Z</time>
      </trkpt>
      <trkpt lat="45.43205" lon="5.81912">
        <ele>911</ele>
        <time>2013-06-14T14:53:53Z</time>
      </trkpt>
      <trkpt lat="45.43205" lon="5.81907">
        <ele>908</ele>
        <time>2013-06-14T14:55:16Z</time>
      </trkpt>
      <trkpt lat="45.43201" lon="5.81922">
        <ele>907</ele>
        <time>2013-06-14T14:56:03Z</time>
      </trkpt>
      <trkpt lat="45.43203" lon="5.81915">
        <ele>906</ele>
        <time>2013-06-14T14:56:39Z</time>
      </trkpt>
      <trkpt lat="45.43204" lon="5.81917">
        <ele>904</ele>
        <time>2013-06-14T14:57:24Z</time>
      </trkpt>
      <trkpt lat="45.43206" lon="5.81917">
        <ele>903</ele>
        <time>2013-06-14T14:58:02Z</time>
      </trkpt>
      <trkpt lat="45.43208" lon="5.81917">
        <ele>901</ele>
        <time>2013-06-14T14:59:15Z</time>
      </trkpt>
      <trkpt lat="45.43207" lon="5.81913">
        <ele>899</ele>
        <time>2013-06-14T14:59:58Z</time>
      </trkpt>
      <trkpt lat="45.43209" lon="5.81916">
        <ele>899</ele>
        <time>2013-06-14T15:00:11Z</time>
      </trkpt>
      <trkpt lat="45.43208" lon="5.8191">
        <ele>898</ele>
        <time>2013-06-14T15:00:49Z</time>
      </trkpt>
      <trkpt lat="45.43208" lon="5.8191">
        <ele>898</ele>
        <time>2013-06-14T15:01:07Z</time>
      </trkpt>
      <trkpt lat="45.43206" lon="5.81907">
        <ele>898</ele>
        <time>2013-06-14T15:01:33Z</time>
      </trkpt>
      <trkpt lat="45.43203" lon="5.81907">
        <ele>897</ele>
        <time>2013-06-14T15:02:11Z</time>
      </trkpt>
      <trkpt lat="45.43199" lon="5.81908">
        <ele>896</ele>
        <time>2013-06-14T15:02:23Z</time>
      </trkpt>
      <trkpt lat="45.43197" lon="5.81912">
        <ele>896</ele>
        <time>2013-06-14T15:02:47Z</time>
      </trkpt>
      <trkpt lat="45.43194" lon="5.81909">
        <ele>894</ele>
        <time>2013-06-14T15:04:44Z</time>
      </trkpt>
      <trkpt lat="45.43193" lon="5.81908">
        <ele>893</ele>
        <time>2013-06-14T15:06:33Z</time>
      </trkpt>
      <trkpt lat="45.43194" lon="5.8191">
        <ele>892</ele>
        <time>2013-06-14T15:07:48Z</time>
      </trkpt>
      <trkpt lat="45.43196" lon="5.81906">
        <ele>892</ele>
        <time>2013-06-14T15:08:20Z</time>
      </trkpt>
      <trkpt lat="45.43193" lon="5.81904">
        <ele>891</ele>
        <time>2013-06-14T15:08:55Z</time>
      </trkpt>
      <trkpt lat="45.43191" lon="5.81903">
        <ele>891</ele>
        <time>2013-06-14T15:09:57Z</time>
      </trkpt>
      <trkpt lat="45.4319" lon="5.81898">
        <ele>892</ele>
        <time>2013-06-14T15:10:38Z</time>
      </trkpt>
      <trkpt lat="45.43191" lon="5.81893">
        <ele>892</ele>
        <time>2013-06-14T15:11:39Z</time>
      </trkpt>
      <trkpt lat="45.43186" lon="5.81895">
        <ele>893</ele>
        <time>2013-06-14T15:13:23Z</time>
      </trkpt>
      <trkpt lat="45.43192" lon="5.81896">
        <ele>894</ele>
        <time>2013-06-14T15:14:33Z</time>
      </trkpt>
      <trkpt lat="45.43183" lon="5.819">
        <ele>893</ele>
        <time>2013-06-14T15:15:06Z</time>
      </trkpt>
      <trkpt lat="45.43168" lon="5.81908">
        <ele>890</ele>
        <time>2013-06-14T15:15:24Z</time>
      </trkpt>
      <trkpt lat="45.43135" lon="5.81936">
        <ele>889</ele>
        <time>2013-06-14T15:15:51Z</time>
      </trkpt>
      <trkpt lat="45.43117" lon="5.8195">
        <ele>887</ele>
        <time>2013-06-14T15:16:11Z</time>
      </trkpt>
      <trkpt lat="45.4311" lon="5.81955">
        <ele>886</ele>
        <time>2013-06-14T15:16:18Z</time>
      </trkpt>
      <trkpt lat="45.431" lon="5.81967">
        <ele>885</ele>
        <time>2013-06-14T15:16:28Z</time>
      </trkpt>
      <trkpt lat="45.43078" lon="5.8199">
        <ele>886</ele>
        <time>2013-06-14T15:16:48Z</time>
      </trkpt>
      <trkpt lat="45.43071" lon="5.82">
        <ele>886</ele>
        <time>2013-06-14T15:16:57Z</time>
      </trkpt>
      <trkpt lat="45.43058" lon="5.82025">
        <ele>886</ele>
        <time>2013-06-14T15:17:08Z</time>
      </trkpt>
      <trkpt lat="45.4305" lon="5.82036">
        <ele>886</ele>
        <time>2013-06-14T15:17:18Z</time>
      </trkpt>
      <trkpt lat="45.43031" lon="5.82059">
        <ele>887</ele>
        <time>2013-06-14T15:17:41Z</time>
      </trkpt>
      <trkpt lat="45.43021" lon="5.82072">
        <ele>884</ele>
        <time>2013-06-14T15:17:58Z</time>
      </trkpt>
      <trkpt lat="45.43015" lon="5.82082">
        <ele>880</ele>
        <time>2013-06-14T15:18:08Z</time>
      </trkpt>
      <trkpt lat="45.43007" lon="5.82088">
        <ele>879</ele>
        <time>2013-06-14T15:18:15Z</time>
      </trkpt>
      <trkpt lat="45.4299" lon="5.82086">
        <ele>878</ele>
        <time>2013-06-14T15:18:27Z</time>
      </trkpt>
      <trkpt lat="45.42973" lon="5.82093">
        <ele>875</ele>
        <time>2013-06-14T15:18:49Z</time>
      </trkpt>
      <trkpt lat="45.4296" lon="5.82092">
        <ele>872</ele>
        <time>2013-06-14T15:19:11Z</time>
      </trkpt>
      <trkpt lat="45.42955" lon="5.82106">
        <ele>869</ele>
        <time>2013-06-14T15:19:21Z</time>
      </trkpt>
      <trkpt lat="45.42942" lon="5.82124">
        <ele>866</ele>
        <time>2013-06-14T15:19:35Z</time>
      </trkpt>
      <trkpt lat="45.42927" lon="5.82147">
        <ele>866</ele>
        <time>2013-06-14T15:19:48Z</time>
      </trkpt>
      <trkpt lat="45.42918" lon="5.82162">
        <ele>863</ele>
        <time>2013-06-14T15:20:02Z</time>
      </trkpt>
      <trkpt lat="45.42916" lon="5.82171">
        <ele>863</ele>
        <time>2013-06-14T15:20:06Z</time>
      </trkpt>
      <trkpt lat="45.42915" lon="5.82193">
        <ele>861</ele>
        <time>2013-06-14T15:20:17Z</time>
      </trkpt>
      <trkpt lat="45.42915" lon="5.82197">
        <ele>861</ele>
        <time>2013-06-14T15:20:20Z</time>
      </trkpt>
      <trkpt lat="45.42917" lon="5.82209">
        <ele>859</ele>
        <time>2013-06-14T15:20:27Z</time>
      </trkpt>
      <trkpt lat="45.42921" lon="5.8223">
        <ele>855</ele>
        <time>2013-06-14T15:20:38Z</time>
      </trkpt>
      <trkpt lat="45.42923" lon="5.82239">
        <ele>854</ele>
        <time>2013-06-14T15:20:45Z</time>
      </trkpt>
      <trkpt lat="45.42926" lon="5.82263">
        <ele>851</ele>
        <time>2013-06-14T15:21:01Z</time>
      </trkpt>
      <trkpt lat="45.42926" lon="5.82265">
        <ele>850</ele>
        <time>2013-06-14T15:21:03Z</time>
      </trkpt>
      <trkpt lat="45.42924" lon="5.82272">
        <ele>850</ele>
        <time>2013-06-14T15:21:07Z</time>
      </trkpt>
      <trkpt lat="45.42922" lon="5.82276">
        <ele>849</ele>
        <time>2013-06-14T15:21:10Z</time>
      </trkpt>
      <trkpt lat="45.42921" lon="5.82285">
        <ele>848</ele>
        <time>2013-06-14T15:21:16Z</time>
      </trkpt>
      <trkpt lat="45.42912" lon="5.82306">
        <ele>845</ele>
        <time>2013-06-14T15:21:31Z</time>
      </trkpt>
      <trkpt lat="45.4291" lon="5.82315">
        <ele>844</ele>
        <time>2013-06-14T15:21:36Z</time>
      </trkpt>
      <trkpt lat="45.4291" lon="5.82319">
        <ele>844</ele>
        <time>2013-06-14T15:21:39Z</time>
      </trkpt>
      <trkpt lat="45.42905" lon="5.82344">
        <ele>841</ele>
        <time>2013-06-14T15:22:00Z</time>
      </trkpt>
      <trkpt lat="45.42916" lon="5.82369">
        <ele>837</ele>
        <time>2013-06-14T15:22:13Z</time>
      </trkpt>
      <trkpt lat="45.42916" lon="5.82367">
        <ele>837</ele>
        <time>2013-06-14T15:22:24Z</time>
      </trkpt>
      <trkpt lat="45.42918" lon="5.82427">
        <ele>848.312866</ele>
        <time>2013-06-14T15:35:15Z</time>
      </trkpt>
      <trkpt lat="45.42903" lon="5.82413">
        <ele>843.38916</ele>
        <time>2013-06-14T15:35:22Z</time>
      </trkpt>
      <trkpt lat="45.42903" lon="5.82394">
        <ele>826</ele>
        <time>2013-06-14T15:35:27Z</time>
      </trkpt>
      <trkpt lat="45.42903" lon="5.82379">
        <ele>826</ele>
        <time>2013-06-14T15:35:35Z</time>
      </trkpt>
      <trkpt lat="45.429" lon="5.82352">
        <ele>825</ele>
        <time>2013-06-14T15:35:46Z</time>
      </trkpt>
      <trkpt lat="45.42897" lon="5.82345">
        <ele>824</ele>
        <time>2013-06-14T15:35:50Z</time>
      </trkpt>
      <trkpt lat="45.42892" lon="5.82334">
        <ele>822</ele>
        <time>2013-06-14T15:35:58Z</time>
      </trkpt>
      <trkpt lat="45.42892" lon="5.82328">
        <ele>822</ele>
        <time>2013-06-14T15:36:02Z</time>
      </trkpt>
      <trkpt lat="45.4289" lon="5.82332">
        <ele>821</ele>
        <time>2013-06-14T15:36:05Z</time>
      </trkpt>
      <trkpt lat="45.42889" lon="5.82338">
        <ele>820</ele>
        <time>2013-06-14T15:36:08Z</time>
      </trkpt>
      <trkpt lat="45.4289" lon="5.82355">
        <ele>819</ele>
        <time>2013-06-14T15:36:17Z</time>
      </trkpt>
      <trkpt lat="45.42887" lon="5.82377">
        <ele>816</ele>
        <time>2013-06-14T15:36:30Z</time>
      </trkpt>
      <trkpt lat="45.42887" lon="5.82383">
        <ele>815</ele>
        <time>2013-06-14T15:36:36Z</time>
      </trkpt>
      <trkpt lat="45.42886" lon="5.82386">
        <ele>814</ele>
        <time>2013-06-14T15:36:38Z</time>
      </trkpt>
      <trkpt lat="45.42883" lon="5.82391">
        <ele>814</ele>
        <time>2013-06-14T15:36:41Z</time>
      </trkpt>
      <trkpt lat="45.4287" lon="5.8241">
        <ele>811</ele>
        <time>2013-06-14T15:36:51Z</time>
      </trkpt>
      <trkpt lat="45.42869" lon="5.82413">
        <ele>811</ele>
        <time>2013-06-14T15:36:54Z</time>
      </trkpt>
      <trkpt lat="45.42858" lon="5.82421">
        <ele>809</ele>
        <time>2013-06-14T15:37:05Z</time>
      </trkpt>
      <trkpt lat="45.42854" lon="5.82422">
        <ele>809</ele>
        <time>2013-06-14T15:37:07Z</time>
      </trkpt>
      <trkpt lat="45.42844" lon="5.8244">
        <ele>807</ele>
        <time>2013-06-14T15:37:15Z</time>
      </trkpt>
      <trkpt lat="45.42842" lon="5.82444">
        <ele>806</ele>
        <time>2013-06-14T15:37:18Z</time>
      </trkpt>
      <trkpt lat="45.42842" lon="5.82457">
        <ele>805</ele>
        <time>2013-06-14T15:37:26Z</time>
      </trkpt>
      <trkpt lat="45.4285" lon="5.82484">
        <ele>804</ele>
        <time>2013-06-14T15:37:38Z</time>
      </trkpt>
      <trkpt lat="45.4283" lon="5.82485">
        <ele>801</ele>
        <time>2013-06-14T15:37:51Z</time>
      </trkpt>
      <trkpt lat="45.4283" lon="5.82485">
        <ele>801</ele>
        <time>2013-06-14T15:37:52Z</time>
      </trkpt>
      <trkpt lat="45.42824" lon="5.8248">
        <ele>800</ele>
        <time>2013-06-14T15:37:57Z</time>
      </trkpt>
      <trkpt lat="45.42811" lon="5.82451">
        <ele>798</ele>
        <time>2013-06-14T15:38:13Z</time>
      </trkpt>
      <trkpt lat="45.42805" lon="5.82429">
        <ele>796</ele>
        <time>2013-06-14T15:38:28Z</time>
      </trkpt>
      <trkpt lat="45.428" lon="5.82417">
        <ele>793</ele>
        <time>2013-06-14T15:38:37Z</time>
      </trkpt>
      <trkpt lat="45.42801" lon="5.82413">
        <ele>792</ele>
        <time>2013-06-14T15:38:40Z</time>
      </trkpt>
      <trkpt lat="45.42797" lon="5.82404">
        <ele>789</ele>
        <time>2013-06-14T15:38:47Z</time>
      </trkpt>
      <trkpt lat="45.42788" lon="5.82401">
        <ele>786</ele>
        <time>2013-06-14T15:38:58Z</time>
      </trkpt>
      <trkpt lat="45.42784" lon="5.82399">
        <ele>784</ele>
        <time>2013-06-14T15:39:01Z</time>
      </trkpt>
      <trkpt lat="45.4277" lon="5.82406">
        <ele>781</ele>
        <time>2013-06-14T15:39:13Z</time>
      </trkpt>
      <trkpt lat="45.42761" lon="5.82414">
        <ele>778</ele>
        <time>2013-06-14T15:39:23Z</time>
      </trkpt>
      <trkpt lat="45.42749" lon="5.82425">
        <ele>774</ele>
        <time>2013-06-14T15:39:35Z</time>
      </trkpt>
      <trkpt lat="45.42737" lon="5.82442">
        <ele>772</ele>
        <time>2013-06-14T15:39:47Z</time>
      </trkpt>
      <trkpt lat="45.42724" lon="5.82456">
        <ele>768</ele>
        <time>2013-06-14T15:39:59Z</time>
      </trkpt>
      <trkpt lat="45.42717" lon="5.82464">
        <ele>765</ele>
        <time>2013-06-14T15:40:07Z</time>
      </trkpt>
      <trkpt lat="45.42706" lon="5.82468">
        <ele>762</ele>
        <time>2013-06-14T15:40:17Z</time>
      </trkpt>
      <trkpt lat="45.42702" lon="5.82465">
        <ele>761</ele>
        <time>2013-06-14T15:40:21Z</time>
      </trkpt>
      <trkpt lat="45.42693" lon="5.82449">
        <ele>758</ele>
        <time>2013-06-14T15:40:32Z</time>
      </trkpt>
      <trkpt lat="45.42686" lon="5.82432">
        <ele>755</ele>
        <time>2013-06-14T15:40:43Z</time>
      </trkpt>
      <trkpt lat="45.4268" lon="5.82414">
        <ele>751</ele>
        <time>2013-06-14T15:41:00Z</time>
      </trkpt>
      <trkpt lat="45.4267" lon="5.82404">
        <ele>750</ele>
        <time>2013-06-14T15:41:56Z</time>
      </trkpt>
      <trkpt lat="45.42667" lon="5.82399">
        <ele>748</ele>
        <time>2013-06-14T15:42:02Z</time>
      </trkpt>
      <trkpt lat="45.42658" lon="5.82396">
        <ele>744</ele>
        <time>2013-06-14T15:42:12Z</time>
      </trkpt>
      <trkpt lat="45.42649" lon="5.82404">
        <ele>741</ele>
        <time>2013-06-14T15:42:23Z</time>
      </trkpt>
      <trkpt lat="45.4264" lon="5.82414">
        <ele>738</ele>
        <time>2013-06-14T15:42:33Z</time>
      </trkpt>
      <trkpt lat="45.42635" lon="5.82417">
        <ele>737</ele>
        <time>2013-06-14T15:42:37Z</time>
      </trkpt>
      <trkpt lat="45.42627" lon="5.82432">
        <ele>734</ele>
        <time>2013-06-14T15:42:47Z</time>
      </trkpt>
      <trkpt lat="45.42626" lon="5.82442">
        <ele>732</ele>
        <time>2013-06-14T15:42:54Z</time>
      </trkpt>
      <trkpt lat="45.42626" lon="5.82445">
        <ele>732</ele>
        <time>2013-06-14T15:42:56Z</time>
      </trkpt>
      <trkpt lat="45.42625" lon="5.8246">
        <ele>729</ele>
        <time>2013-06-14T15:43:05Z</time>
      </trkpt>
      <trkpt lat="45.42627" lon="5.82479">
        <ele>725</ele>
        <time>2013-06-14T15:43:17Z</time>
      </trkpt>
      <trkpt lat="45.42631" lon="5.82496">
        <ele>722</ele>
        <time>2013-06-14T15:43:28Z</time>
      </trkpt>
      <trkpt lat="45.4263" lon="5.82507">
        <ele>720</ele>
        <time>2013-06-14T15:43:41Z</time>
      </trkpt>
      <trkpt lat="45.42632" lon="5.82537">
        <ele>716</ele>
        <time>2013-06-14T15:43:56Z</time>
      </trkpt>
      <trkpt lat="45.42638" lon="5.82571">
        <ele>713</ele>
        <time>2013-06-14T15:44:13Z</time>
      </trkpt>
      <trkpt lat="45.42641" lon="5.82588">
        <ele>711</ele>
        <time>2013-06-14T15:44:24Z</time>
      </trkpt>
      <trkpt lat="45.42642" lon="5.82607">
        <ele>707</ele>
        <time>2013-06-14T15:44:37Z</time>
      </trkpt>
      <trkpt lat="45.42643" lon="5.82623">
        <ele>704</ele>
        <time>2013-06-14T15:44:50Z</time>
      </trkpt>
      <trkpt lat="45.42648" lon="5.82641">
        <ele>700</ele>
        <time>2013-06-14T15:45:01Z</time>
      </trkpt>
      <trkpt lat="45.42645" lon="5.82654">
        <ele>698</ele>
        <time>2013-06-14T15:45:11Z</time>
      </trkpt>
      <trkpt lat="45.42637" lon="5.82684">
        <ele>695</ele>
        <time>2013-06-14T15:45:26Z</time>
      </trkpt>
      <trkpt lat="45.42637" lon="5.8272">
        <ele>691</ele>
        <time>2013-06-14T15:45:44Z</time>
      </trkpt>
      <trkpt lat="45.42638" lon="5.8275">
        <ele>688</ele>
        <time>2013-06-14T15:46:02Z</time>
      </trkpt>
      <trkpt lat="45.42638" lon="5.82753">
        <ele>688</ele>
        <time>2013-06-14T15:46:46Z</time>
      </trkpt>
      <trkpt lat="45.42638" lon="5.8275">
        <ele>689</ele>
        <time>2013-06-14T15:47:20Z</time>
      </trkpt>
      <trkpt lat="45.42636" lon="5.82754">
        <ele>689</ele>
        <time>2013-06-14T15:47:24Z</time>
      </trkpt>
      <trkpt lat="45.42611" lon="5.82768">
        <ele>686</ele>
        <time>2013-06-14T15:47:45Z</time>
      </trkpt>
      <trkpt lat="45.42607" lon="5.82774">
        <ele>684</ele>
        <time>2013-06-14T15:47:50Z</time>
      </trkpt>
      <trkpt lat="45.42609" lon="5.82782">
        <ele>683</ele>
        <time>2013-06-14T15:47:56Z</time>
      </trkpt>
      <trkpt lat="45.42628" lon="5.82775">
        <ele>680</ele>
        <time>2013-06-14T15:48:13Z</time>
      </trkpt>
      <trkpt lat="45.42641" lon="5.82771">
        <ele>677</ele>
        <time>2013-06-14T15:48:26Z</time>
      </trkpt>
      <trkpt lat="45.42657" lon="5.82783">
        <ele>674</ele>
        <time>2013-06-14T15:48:41Z</time>
      </trkpt>
      <trkpt lat="45.42667" lon="5.82809">
        <ele>671</ele>
        <time>2013-06-14T15:48:59Z</time>
      </trkpt>
      <trkpt lat="45.42674" lon="5.82838">
        <ele>668</ele>
        <time>2013-06-14T15:49:18Z</time>
      </trkpt>
      <trkpt lat="45.42669" lon="5.82895">
        <ele>667</ele>
        <time>2013-06-14T15:49:51Z</time>
      </trkpt>
      <trkpt lat="45.4268" lon="5.82924">
        <ele>666</ele>
        <time>2013-06-14T15:50:12Z</time>
      </trkpt>
      <trkpt lat="45.42686" lon="5.82932">
        <ele>665</ele>
        <time>2013-06-14T15:50:18Z</time>
      </trkpt>
      <trkpt lat="45.42691" lon="5.82939">
        <ele>664</ele>
        <time>2013-06-14T15:50:23Z</time>
      </trkpt>
      <trkpt lat="45.42698" lon="5.82951">
        <ele>664</ele>
        <time>2013-06-14T15:50:32Z</time>
      </trkpt>
      <trkpt lat="45.427" lon="5.82962">
        <ele>662</ele>
        <time>2013-06-14T15:50:39Z</time>
      </trkpt>
      <trkpt lat="45.42701" lon="5.82965">
        <ele>662</ele>
        <time>2013-06-14T15:50:41Z</time>
      </trkpt>
      <trkpt lat="45.42713" lon="5.82968">
        <ele>660</ele>
        <time>2013-06-14T15:50:58Z</time>
      </trkpt>
      <trkpt lat="45.42734" lon="5.82987">
        <ele>657</ele>
        <time>2013-06-14T15:51:17Z</time>
      </trkpt>
      <trkpt lat="45.42735" lon="5.82987">
        <ele>657</ele>
        <time>2013-06-14T15:51:18Z</time>
      </trkpt>
      <trkpt lat="45.42738" lon="5.83002">
        <ele>655</ele>
        <time>2013-06-14T15:51:28Z</time>
      </trkpt>
      <trkpt lat="45.42742" lon="5.8301">
        <ele>655</ele>
        <time>2013-06-14T15:51:32Z</time>
      </trkpt>
      <trkpt lat="45.42759" lon="5.83016">
        <ele>654</ele>
        <time>2013-06-14T15:51:50Z</time>
      </trkpt>
      <trkpt lat="45.4276" lon="5.83012">
        <ele>655</ele>
        <time>2013-06-14T15:52:00Z</time>
      </trkpt>
      <trkpt lat="45.42756" lon="5.83002">
        <ele>654</ele>
        <time>2013-06-14T15:52:19Z</time>
      </trkpt>
      <trkpt lat="45.42718" lon="5.83014">
        <ele>653</ele>
        <time>2013-06-14T15:52:37Z</time>
      </trkpt>
      <trkpt lat="45.4268" lon="5.83061">
        <ele>656</ele>
        <time>2013-06-14T15:53:00Z</time>
      </trkpt>
      <trkpt lat="45.42671" lon="5.83064">
        <ele>657</ele>
        <time>2013-06-14T15:53:07Z</time>
      </trkpt>
      <trkpt lat="45.42668" lon="5.8307">
        <ele>658</ele>
        <time>2013-06-14T15:53:12Z</time>
      </trkpt>
      <trkpt lat="45.42671" lon="5.83088">
        <ele>660</ele>
        <time>2013-06-14T15:53:31Z</time>
      </trkpt>
      <trkpt lat="45.42671" lon="5.83099">
        <ele>661</ele>
        <time>2013-06-14T15:53:35Z</time>
      </trkpt>
      <trkpt lat="45.4267" lon="5.83101">
        <ele>661</ele>
        <time>2013-06-14T15:53:37Z</time>
      </trkpt>
      <trkpt lat="45.42669" lon="5.83105">
        <ele>661</ele>
        <time>2013-06-14T15:53:39Z</time>
      </trkpt>
      <trkpt lat="45.42667" lon="5.83111">
        <ele>662</ele>
        <time>2013-06-14T15:53:42Z</time>
      </trkpt>
      <trkpt lat="45.42662" lon="5.83121">
        <ele>663</ele>
        <time>2013-06-14T15:53:48Z</time>
      </trkpt>
      <trkpt lat="45.42652" lon="5.83138">
        <ele>664</ele>
        <time>2013-06-14T15:53:59Z</time>
      </trkpt>
      <trkpt lat="45.42635" lon="5.83145">
        <ele>666</ele>
        <time>2013-06-14T15:54:12Z</time>
      </trkpt>
      <trkpt lat="45.42627" lon="5.8314">
        <ele>667</ele>
        <time>2013-06-14T15:54:18Z</time>
      </trkpt>
      <trkpt lat="45.42619" lon="5.83115">
        <ele>670</ele>
        <time>2013-06-14T15:54:32Z</time>
      </trkpt>
      <trkpt lat="45.42616" lon="5.83079">
        <ele>673</ele>
        <time>2013-06-14T15:54:54Z</time>
      </trkpt>
      <trkpt lat="45.42612" lon="5.83072">
        <ele>674</ele>
        <time>2013-06-14T15:55:01Z</time>
      </trkpt>
      <trkpt lat="45.42591" lon="5.83077">
        <ele>677</ele>
        <time>2013-06-14T15:55:22Z</time>
      </trkpt>
      <trkpt lat="45.42582" lon="5.83086">
        <ele>679</ele>
        <time>2013-06-14T15:55:35Z</time>
      </trkpt>
      <trkpt lat="45.4257" lon="5.83099">
        <ele>681</ele>
        <time>2013-06-14T15:55:59Z</time>
      </trkpt>
      <trkpt lat="45.42563" lon="5.83097">
        <ele>682</ele>
        <time>2013-06-14T15:56:48Z</time>
      </trkpt>
      <trkpt lat="45.42562" lon="5.83093">
        <ele>682</ele>
        <time>2013-06-14T15:56:53Z</time>
      </trkpt>
      <trkpt lat="45.42557" lon="5.831">
        <ele>681</ele>
        <time>2013-06-14T15:56:58Z</time>
      </trkpt>
      <trkpt lat="45.42529" lon="5.831">
        <ele>678</ele>
        <time>2013-06-14T15:57:20Z</time>
      </trkpt>
      <trkpt lat="45.42523" lon="5.83096">
        <ele>677</ele>
        <time>2013-06-14T15:57:24Z</time>
      </trkpt>
      <trkpt lat="45.42506" lon="5.83126">
        <ele>677</ele>
        <time>2013-06-14T15:57:47Z</time>
      </trkpt>
      <trkpt lat="45.42503" lon="5.83173">
        <ele>674</ele>
        <time>2013-06-14T15:58:13Z</time>
      </trkpt>
      <trkpt lat="45.425" lon="5.8319">
        <ele>672</ele>
        <time>2013-06-14T15:58:22Z</time>
      </trkpt>
      <trkpt lat="45.42493" lon="5.83203">
        <ele>670</ele>
        <time>2013-06-14T15:58:33Z</time>
      </trkpt>
      <trkpt lat="45.42489" lon="5.83207">
        <ele>669</ele>
        <time>2013-06-14T15:58:37Z</time>
      </trkpt>
      <trkpt lat="45.42464" lon="5.83219">
        <ele>667</ele>
        <time>2013-06-14T15:58:58Z</time>
      </trkpt>
      <trkpt lat="45.4245" lon="5.83228">
        <ele>666</ele>
        <time>2013-06-14T15:59:08Z</time>
      </trkpt>
      <trkpt lat="45.42433" lon="5.83252">
        <ele>663</ele>
        <time>2013-06-14T15:59:27Z</time>
      </trkpt>
      <trkpt lat="45.42432" lon="5.8327">
        <ele>663</ele>
        <time>2013-06-14T15:59:35Z</time>
      </trkpt>
      <trkpt lat="45.42428" lon="5.83292">
        <ele>662</ele>
        <time>2013-06-14T15:59:51Z</time>
      </trkpt>
      <trkpt lat="45.42428" lon="5.83293">
        <ele>662</ele>
        <time>2013-06-14T15:59:52Z</time>
      </trkpt>
      <trkpt lat="45.4242" lon="5.83318">
        <ele>660</ele>
        <time>2013-06-14T16:00:11Z</time>
      </trkpt>
      <trkpt lat="45.42399" lon="5.83326">
        <ele>660</ele>
        <time>2013-06-14T16:00:37Z</time>
      </trkpt>
      <trkpt lat="45.42358" lon="5.83365">
        <ele>659</ele>
        <time>2013-06-14T16:01:09Z</time>
      </trkpt>
      <trkpt lat="45.4233" lon="5.83403">
        <ele>657</ele>
        <time>2013-06-14T16:01:35Z</time>
      </trkpt>
      <trkpt lat="45.42297" lon="5.83434">
        <ele>655</ele>
        <time>2013-06-14T16:01:59Z</time>
      </trkpt>
      <trkpt lat="45.42285" lon="5.83468">
        <ele>652</ele>
        <time>2013-06-14T16:02:17Z</time>
      </trkpt>
      <trkpt lat="45.42263" lon="5.83496">
        <ele>651</ele>
        <time>2013-06-14T16:02:48Z</time>
      </trkpt>
      <trkpt lat="45.42241" lon="5.83507">
        <ele>649</ele>
        <time>2013-06-14T16:03:02Z</time>
      </trkpt>
      <trkpt lat="45.42233" lon="5.83516">
        <ele>649</ele>
        <time>2013-06-14T16:03:09Z</time>
      </trkpt>
      <trkpt lat="45.42224" lon="5.83525">
        <ele>648</ele>
        <time>2013-06-14T16:03:17Z</time>
      </trkpt>
      <trkpt lat="45.42213" lon="5.83553">
        <ele>648</ele>
        <time>2013-06-14T16:03:33Z</time>
      </trkpt>
      <trkpt lat="45.42207" lon="5.83564">
        <ele>648</ele>
        <time>2013-06-14T16:03:45Z</time>
      </trkpt>
      <trkpt lat="45.42189" lon="5.83581">
        <ele>649</ele>
        <time>2013-06-14T16:04:00Z</time>
      </trkpt>
      <trkpt lat="45.42178" lon="5.83588">
        <ele>649</ele>
        <time>2013-06-14T16:04:11Z</time>
      </trkpt>
      <trkpt lat="45.42151" lon="5.83598">
        <ele>650</ele>
        <time>2013-06-14T16:04:30Z</time>
      </trkpt>
      <trkpt lat="45.42147" lon="5.83602">
        <ele>650</ele>
        <time>2013-06-14T16:04:33Z</time>
      </trkpt>
      <trkpt lat="45.42122" lon="5.83646">
        <ele>652</ele>
        <time>2013-06-14T16:05:04Z</time>
      </trkpt>
      <trkpt lat="45.4212" lon="5.83653">
        <ele>652</ele>
        <time>2013-06-14T16:05:08Z</time>
      </trkpt>
      <trkpt lat="45.42115" lon="5.83658">
        <ele>651</ele>
        <time>2013-06-14T16:05:10Z</time>
      </trkpt>
      <trkpt lat="45.42096" lon="5.83678">
        <ele>652</ele>
        <time>2013-06-14T16:05:19Z</time>
      </trkpt>
      <trkpt lat="45.42096" lon="5.8368">
        <ele>652</ele>
        <time>2013-06-14T16:05:21Z</time>
      </trkpt>
      <trkpt lat="45.42085" lon="5.837">
        <ele>649</ele>
        <time>2013-06-14T16:05:39Z</time>
      </trkpt>
      <trkpt lat="45.42082" lon="5.83708">
        <ele>648</ele>
        <time>2013-06-14T16:05:44Z</time>
      </trkpt>
      <trkpt lat="45.42071" lon="5.83723">
        <ele>644</ele>
        <time>2013-06-14T16:05:57Z</time>
      </trkpt>
      <trkpt lat="45.42066" lon="5.83737">
        <ele>641</ele>
        <time>2013-06-14T16:06:06Z</time>
      </trkpt>
      <trkpt lat="45.42062" lon="5.83747">
        <ele>641</ele>
        <time>2013-06-14T16:06:14Z</time>
      </trkpt>
      <trkpt lat="45.42049" lon="5.83765">
        <ele>638</ele>
        <time>2013-06-14T16:06:38Z</time>
      </trkpt>
      <trkpt lat="45.42032" lon="5.83778">
        <ele>636</ele>
        <time>2013-06-14T16:06:51Z</time>
      </trkpt>
      <trkpt lat="45.42017" lon="5.83782">
        <ele>633</ele>
        <time>2013-06-14T16:07:03Z</time>
      </trkpt>
      <trkpt lat="45.42005" lon="5.83796">
        <ele>630</ele>
        <time>2013-06-14T16:07:22Z</time>
      </trkpt>
      <trkpt lat="45.42002" lon="5.83802">
        <ele>629</ele>
        <time>2013-06-14T16:07:26Z</time>
      </trkpt>
      <trkpt lat="45.41988" lon="5.83811">
        <ele>625</ele>
        <time>2013-06-14T16:07:40Z</time>
      </trkpt>
      <trkpt lat="45.41983" lon="5.83815">
        <ele>623</ele>
        <time>2013-06-14T16:07:47Z</time>
      </trkpt>
      <trkpt lat="45.41975" lon="5.83821">
        <ele>619</ele>
        <time>2013-06-14T16:07:59Z</time>
      </trkpt>
      <trkpt lat="45.41969" lon="5.83828">
        <ele>618</ele>
        <time>2013-06-14T16:08:06Z</time>
      </trkpt>
      <trkpt lat="45.41949" lon="5.8384">
        <ele>615</ele>
        <time>2013-06-14T16:08:20Z</time>
      </trkpt>
      <trkpt lat="45.41929" lon="5.83844">
        <ele>612</ele>
        <time>2013-06-14T16:08:38Z</time>
      </trkpt>
      <trkpt lat="45.41905" lon="5.83837">
        <ele>612</ele>
        <time>2013-06-14T16:08:59Z</time>
      </trkpt>
      <trkpt lat="45.41909" lon="5.83838">
        <ele>612</ele>
        <time>2013-06-14T16:09:34Z</time>
      </trkpt>
      <trkpt lat="45.41906" lon="5.83862">
        <ele>615</ele>
        <time>2013-06-14T16:10:25Z</time>
      </trkpt>
      <trkpt lat="45.41887" lon="5.83886">
        <ele>618</ele>
        <time>2013-06-14T16:10:40Z</time>
      </trkpt>
      <trkpt lat="45.41889" lon="5.83897">
        <ele>620</ele>
        <time>2013-06-14T16:10:48Z</time>
      </trkpt>
      <trkpt lat="45.41904" lon="5.83906">
        <ele>623</ele>
        <time>2013-06-14T16:10:59Z</time>
      </trkpt>
      <trkpt lat="45.4192" lon="5.83916">
        <ele>625</ele>
        <time>2013-06-14T16:11:14Z</time>
      </trkpt>
      <trkpt lat="45.41923" lon="5.8392">
        <ele>626</ele>
        <time>2013-06-14T16:11:18Z</time>
      </trkpt>
      <trkpt lat="45.41928" lon="5.83991">
        <ele>628</ele>
        <time>2013-06-14T16:11:31Z</time>
      </trkpt>
      <trkpt lat="45.41928" lon="5.84044">
        <ele>630</ele>
        <time>2013-06-14T16:11:56Z</time>
      </trkpt>
      <trkpt lat="45.41925" lon="5.84073">
        <ele>633</ele>
        <time>2013-06-14T16:12:17Z</time>
      </trkpt>
      <trkpt lat="45.41917" lon="5.84085">
        <ele>634</ele>
        <time>2013-06-14T16:12:23Z</time>
      </trkpt>
      <trkpt lat="45.41925" lon="5.84102">
        <ele>636</ele>
        <time>2013-06-14T16:12:31Z</time>
      </trkpt>
      <trkpt lat="45.41938" lon="5.84126">
        <ele>637</ele>
        <time>2013-06-14T16:12:48Z</time>
      </trkpt>
      <trkpt lat="45.41936" lon="5.84151">
        <ele>635</ele>
        <time>2013-06-14T16:13:09Z</time>
      </trkpt>
      <trkpt lat="45.41938" lon="5.84152">
        <ele>635</ele>
        <time>2013-06-14T16:13:10Z</time>
      </trkpt>
      <trkpt lat="45.41942" lon="5.84166">
        <ele>633</ele>
        <time>2013-06-14T16:13:21Z</time>
      </trkpt>
      <trkpt lat="45.41949" lon="5.84188">
        <ele>631</ele>
        <time>2013-06-14T16:13:45Z</time>
      </trkpt>
      <trkpt lat="45.41935" lon="5.84209">
        <ele>630</ele>
        <time>2013-06-14T16:13:58Z</time>
      </trkpt>
      <trkpt lat="45.4192" lon="5.84227">
        <ele>630</ele>
        <time>2013-06-14T16:14:15Z</time>
      </trkpt>
      <trkpt lat="45.4192" lon="5.84232">
        <ele>630</ele>
        <time>2013-06-14T16:14:17Z</time>
      </trkpt>
      <trkpt lat="45.41901" lon="5.84245">
        <ele>633</ele>
        <time>2013-06-14T16:14:31Z</time>
      </trkpt>
      <trkpt lat="45.4188" lon="5.84282">
        <ele>637</ele>
        <time>2013-06-14T16:14:49Z</time>
      </trkpt>
      <trkpt lat="45.41875" lon="5.84294">
        <ele>638</ele>
        <time>2013-06-14T16:15:01Z</time>
      </trkpt>
      <trkpt lat="45.41872" lon="5.84299">
        <ele>638</ele>
        <time>2013-06-14T16:15:05Z</time>
      </trkpt>
      <trkpt lat="45.41871" lon="5.84299">
        <ele>638</ele>
        <time>2013-06-14T16:15:07Z</time>
      </trkpt>
      <trkpt lat="45.41848" lon="5.84312">
        <ele>640</ele>
        <time>2013-06-14T16:15:40Z</time>
      </trkpt>
      <trkpt lat="45.41833" lon="5.84335">
        <ele>643</ele>
        <time>2013-06-14T16:16:01Z</time>
      </trkpt>
      <trkpt lat="45.41811" lon="5.84352">
        <ele>647</ele>
        <time>2013-06-14T16:16:24Z</time>
      </trkpt>
      <trkpt lat="45.41806" lon="5.84357">
        <ele>647</ele>
        <time>2013-06-14T16:16:29Z</time>
      </trkpt>
      <trkpt lat="45.41802" lon="5.8437">
        <ele>648</ele>
        <time>2013-06-14T16:16:37Z</time>
      </trkpt>
      <trkpt lat="45.41804" lon="5.8439">
        <ele>650</ele>
        <time>2013-06-14T16:16:49Z</time>
      </trkpt>
      <trkpt lat="45.41806" lon="5.84404">
        <ele>650</ele>
        <time>2013-06-14T16:16:57Z</time>
      </trkpt>
      <trkpt lat="45.41806" lon="5.84411">
        <ele>650</ele>
        <time>2013-06-14T16:17:01Z</time>
      </trkpt>
      <trkpt lat="45.41794" lon="5.84464">
        <ele>650</ele>
        <time>2013-06-14T16:17:30Z</time>
      </trkpt>
      <trkpt lat="45.41784" lon="5.84521">
        <ele>649</ele>
        <time>2013-06-14T16:18:01Z</time>
      </trkpt>
      <trkpt lat="45.41783" lon="5.84524">
        <ele>649</ele>
        <time>2013-06-14T16:18:03Z</time>
      </trkpt>
      <trkpt lat="45.41768" lon="5.84566">
        <ele>646</ele>
        <time>2013-06-14T16:18:28Z</time>
      </trkpt>
      <trkpt lat="45.41768" lon="5.84576">
        <ele>645</ele>
        <time>2013-06-14T16:18:36Z</time>
      </trkpt>
      <trkpt lat="45.41766" lon="5.84645">
        <ele>643</ele>
        <time>2013-06-14T16:19:08Z</time>
      </trkpt>
      <trkpt lat="45.41752" lon="5.84695">
        <ele>642</ele>
        <time>2013-06-14T16:19:36Z</time>
      </trkpt>
      <trkpt lat="45.41753" lon="5.84698">
        <ele>642</ele>
        <time>2013-06-14T16:19:37Z</time>
      </trkpt>
      <trkpt lat="45.41731" lon="5.84728">
        <ele>642</ele>
        <time>2013-06-14T16:20:00Z</time>
      </trkpt>
      <trkpt lat="45.41726" lon="5.84739">
        <ele>642</ele>
        <time>2013-06-14T16:20:07Z</time>
      </trkpt>
      <trkpt lat="45.41723" lon="5.84791">
        <ele>642</ele>
        <time>2013-06-14T16:20:32Z</time>
      </trkpt>
      <trkpt lat="45.41717" lon="5.84849">
        <ele>643</ele>
        <time>2013-06-14T16:21:00Z</time>
      </trkpt>
      <trkpt lat="45.41727" lon="5.84888">
        <ele>643</ele>
        <time>2013-06-14T16:21:23Z</time>
      </trkpt>
      <trkpt lat="45.41725" lon="5.84942">
        <ele>643</ele>
        <time>2013-06-14T16:21:51Z</time>
      </trkpt>
      <trkpt lat="45.41723" lon="5.84985">
        <ele>643</ele>
        <time>2013-06-14T16:22:18Z</time>
      </trkpt>
      <trkpt lat="45.41716" lon="5.85027">
        <ele>642</ele>
        <time>2013-06-14T16:22:53Z</time>
      </trkpt>
      <trkpt lat="45.4171" lon="5.85104">
        <ele>642</ele>
        <time>2013-06-14T16:23:32Z</time>
      </trkpt>
      <trkpt lat="45.41709" lon="5.85164">
        <ele>642</ele>
        <time>2013-06-14T16:24:04Z</time>
      </trkpt>
      <trkpt lat="45.41709" lon="5.85237">
        <ele>643</ele>
        <time>2013-06-14T16:24:44Z</time>
      </trkpt>
      <trkpt lat="45.41735" lon="5.85306">
        <ele>643</ele>
        <time>2013-06-14T16:25:25Z</time>
      </trkpt>
      <trkpt lat="45.41754" lon="5.85346">
        <ele>643</ele>
        <time>2013-06-14T16:25:51Z</time>
      </trkpt>
      <trkpt lat="45.41785" lon="5.85411">
        <ele>644</ele>
        <time>2013-06-14T16:26:33Z</time>
      </trkpt>
      <trkpt lat="45.41811" lon="5.85455">
        <ele>645</ele>
        <time>2013-06-14T16:27:02Z</time>
      </trkpt>
      <trkpt lat="45.41822" lon="5.85492">
        <ele>645</ele>
        <time>2013-06-14T16:27:24Z</time>
      </trkpt>
      <trkpt lat="45.4182" lon="5.85499">
        <ele>645</ele>
        <time>2013-06-14T16:27:28Z</time>
      </trkpt>
      <trkpt lat="45.4181" lon="5.85505">
        <ele>645</ele>
        <time>2013-06-14T16:27:36Z</time>
      </trkpt>
      <trkpt lat="45.41803" lon="5.855">
        <ele>644</ele>
        <time>2013-06-14T16:27:45Z</time>
      </trkpt>
      <trkpt lat="45.41795" lon="5.85502">
        <ele>644</ele>
        <time>2013-06-14T16:28:06Z</time>
      </trkpt>
      <trkpt lat="45.41803" lon="5.85499">
        <ele>644</ele>
        <time>2013-06-14T16:28:27Z</time>
      </trkpt>
      <trkpt lat="45.418" lon="5.85501">
        <ele>643</ele>
        <time>2013-06-14T16:29:29Z</time>
      </trkpt>
      <trkpt lat="45.41793" lon="5.85493">
        <ele>644</ele>
        <time>2013-06-14T16:29:43Z</time>
      </trkpt>
      <trkpt lat="45.41774" lon="5.8549">
        <ele>644</ele>
        <time>2013-06-14T16:30:12Z</time>
      </trkpt>
      <trkpt lat="45.41766" lon="5.85496">
        <ele>643</ele>
        <time>2013-06-14T16:31:34Z</time>
      </trkpt>
      <trkpt lat="45.41762" lon="5.85486">
        <ele>643</ele>
        <time>2013-06-14T16:33:04Z</time>
      </trkpt>
      <trkpt lat="45.41766" lon="5.8548">
        <ele>643</ele>
        <time>2013-06-14T16:33:54Z</time>
      </trkpt>
      <trkpt lat="45.41768" lon="5.85484">
        <ele>642</ele>
        <time>2013-06-14T16:36:23Z</time>
      </trkpt>
      <trkpt lat="45.41763" lon="5.85483">
        <ele>643</ele>
        <time>2013-06-14T16:36:27Z</time>
      </trkpt>
      <trkpt lat="45.41737" lon="5.85472">
        <ele>642</ele>
        <time>2013-06-14T16:36:47Z</time>
      </trkpt>
      <trkpt lat="45.41712" lon="5.85469">
        <ele>642</ele>
        <time>2013-06-14T16:37:03Z</time>
      </trkpt>
      <trkpt lat="45.41685" lon="5.85451">
        <ele>643</ele>
        <time>2013-06-14T16:37:24Z</time>
      </trkpt>
      <trkpt lat="45.41683" lon="5.85449">
        <ele>643</ele>
        <time>2013-06-14T16:37:25Z</time>
      </trkpt>
      <trkpt lat="45.41657" lon="5.85427">
        <ele>644</ele>
        <time>2013-06-14T16:37:46Z</time>
      </trkpt>
      <trkpt lat="45.41631" lon="5.8543">
        <ele>643</ele>
        <time>2013-06-14T16:38:05Z</time>
      </trkpt>
      <trkpt lat="45.41625" lon="5.85437">
        <ele>643</ele>
        <time>2013-06-14T16:38:13Z</time>
      </trkpt>
      <trkpt lat="45.41592" lon="5.85453">
        <ele>643</ele>
        <time>2013-06-14T16:38:34Z</time>
      </trkpt>
      <trkpt lat="45.41569" lon="5.85453">
        <ele>644</ele>
        <time>2013-06-14T16:38:51Z</time>
      </trkpt>
      <trkpt lat="45.41552" lon="5.85462">
        <ele>645</ele>
        <time>2013-06-14T16:39:09Z</time>
      </trkpt>
      <trkpt lat="45.41518" lon="5.85461">
        <ele>645</ele>
        <time>2013-06-14T16:39:34Z</time>
      </trkpt>
      <trkpt lat="45.4149" lon="5.85459">
        <ele>647</ele>
        <time>2013-06-14T16:39:55Z</time>
      </trkpt>
      <trkpt lat="45.41477" lon="5.85462">
        <ele>647</ele>
        <time>2013-06-14T16:40:03Z</time>
      </trkpt>
      <trkpt lat="45.41464" lon="5.85465">
        <ele>647</ele>
        <time>2013-06-14T16:40:12Z</time>
      </trkpt>
      <trkpt lat="45.41453" lon="5.85469">
        <ele>647</ele>
        <time>2013-06-14T16:40:22Z</time>
      </trkpt>
      <trkpt lat="45.41444" lon="5.85471">
        <ele>647</ele>
        <time>2013-06-14T16:40:29Z</time>
      </trkpt>
      <trkpt lat="45.41438" lon="5.85471">
        <ele>647</ele>
        <time>2013-06-14T16:40:32Z</time>
      </trkpt>
      <trkpt lat="45.41423" lon="5.85462">
        <ele>648</ele>
        <time>2013-06-14T16:40:45Z</time>
      </trkpt>
      <trkpt lat="45.41401" lon="5.85454">
        <ele>649</ele>
        <time>2013-06-14T16:41:04Z</time>
      </trkpt>
      <trkpt lat="45.41377" lon="5.85444">
        <ele>650</ele>
        <time>2013-06-14T16:41:21Z</time>
      </trkpt>
      <trkpt lat="45.41358" lon="5.85415">
        <ele>650</ele>
        <time>2013-06-14T16:41:43Z</time>
      </trkpt>
      <trkpt lat="45.41337" lon="5.85397">
        <ele>652</ele>
        <time>2013-06-14T16:41:59Z</time>
      </trkpt>
      <trkpt lat="45.4131" lon="5.85377">
        <ele>653</ele>
        <time>2013-06-14T16:42:20Z</time>
      </trkpt>
      <trkpt lat="45.41303" lon="5.85373">
        <ele>653</ele>
        <time>2013-06-14T16:42:25Z</time>
      </trkpt>
      <trkpt lat="45.41277" lon="5.85369">
        <ele>655</ele>
        <time>2013-06-14T16:42:42Z</time>
      </trkpt>
      <trkpt lat="45.41243" lon="5.85346">
        <ele>658</ele>
        <time>2013-06-14T16:43:13Z</time>
      </trkpt>
      <trkpt lat="45.41215" lon="5.8533">
        <ele>659</ele>
        <time>2013-06-14T16:43:37Z</time>
      </trkpt>
      <trkpt lat="45.41197" lon="5.85309">
        <ele>662</ele>
        <time>2013-06-14T16:43:55Z</time>
      </trkpt>
      <trkpt lat="45.41178" lon="5.85297">
        <ele>665</ele>
        <time>2013-06-14T16:44:13Z</time>
      </trkpt>
      <trkpt lat="45.41151" lon="5.85295">
        <ele>667</ele>
        <time>2013-06-14T16:44:31Z</time>
      </trkpt>
      <trkpt lat="45.41135" lon="5.85309">
        <ele>669</ele>
        <time>2013-06-14T16:44:42Z</time>
      </trkpt>
      <trkpt lat="45.41128" lon="5.85296">
        <ele>670</ele>
        <time>2013-06-14T16:44:50Z</time>
      </trkpt>
      <trkpt lat="45.41117" lon="5.85273">
        <ele>672</ele>
        <time>2013-06-14T16:45:05Z</time>
      </trkpt>
      <trkpt lat="45.41112" lon="5.85261">
        <ele>673</ele>
        <time>2013-06-14T16:45:11Z</time>
      </trkpt>
      <trkpt lat="45.41111" lon="5.85256">
        <ele>674</ele>
        <time>2013-06-14T16:45:13Z</time>
      </trkpt>
      <trkpt lat="45.41107" lon="5.85245">
        <ele>674</ele>
        <time>2013-06-14T16:45:19Z</time>
      </trkpt>
      <trkpt lat="45.41098" lon="5.85241">
        <ele>675</ele>
        <time>2013-06-14T16:45:27Z</time>
      </trkpt>
      <trkpt lat="45.41096" lon="5.85238">
        <ele>674</ele>
        <time>2013-06-14T16:45:30Z</time>
      </trkpt>
      <trkpt lat="45.41092" lon="5.85233">
        <ele>675</ele>
        <time>2013-06-14T16:45:33Z</time>
      </trkpt>
      <trkpt lat="45.41083" lon="5.85222">
        <ele>675</ele>
        <time>2013-06-14T16:45:44Z</time>
      </trkpt>
      <trkpt lat="45.41068" lon="5.85213">
        <ele>674</ele>
        <time>2013-06-14T16:45:57Z</time>
      </trkpt>
      <trkpt lat="45.41055" lon="5.85205">
        <ele>674</ele>
        <time>2013-06-14T16:46:08Z</time>
      </trkpt>
      <trkpt lat="45.41042" lon="5.85192">
        <ele>674</ele>
        <time>2013-06-14T16:46:24Z</time>
      </trkpt>
      <trkpt lat="45.41038" lon="5.85187">
        <ele>673</ele>
        <time>2013-06-14T16:46:45Z</time>
      </trkpt>
      <trkpt lat="45.41033" lon="5.85185">
        <ele>674</ele>
        <time>2013-06-14T16:47:47Z</time>
      </trkpt>
      <trkpt lat="45.41012" lon="5.85169">
        <ele>675</ele>
        <time>2013-06-14T16:48:30Z</time>
      </trkpt>
      <trkpt lat="45.41006" lon="5.85165">
        <ele>675</ele>
        <time>2013-06-14T16:48:35Z</time>
      </trkpt>
      <trkpt lat="45.41002" lon="5.85163">
        <ele>676</ele>
        <time>2013-06-14T16:48:37Z</time>
      </trkpt>
      <trkpt lat="45.40996" lon="5.85157">
        <ele>677</ele>
        <time>2013-06-14T16:48:43Z</time>
      </trkpt>
      <trkpt lat="45.4099" lon="5.85155">
        <ele>678</ele>
        <time>2013-06-14T16:48:48Z</time>
      </trkpt>
      <trkpt lat="45.40986" lon="5.85156">
        <ele>678</ele>
        <time>2013-06-14T16:48:52Z</time>
      </trkpt>
      <trkpt lat="45.4098" lon="5.85161">
        <ele>679</ele>
        <time>2013-06-14T16:48:56Z</time>
      </trkpt>
      <trkpt lat="45.40977" lon="5.85163">
        <ele>680</ele>
        <time>2013-06-14T16:48:58Z</time>
      </trkpt>
      <trkpt lat="45.40958" lon="5.85176">
        <ele>683</ele>
        <time>2013-06-14T16:49:18Z</time>
      </trkpt>
      <trkpt lat="45.40932" lon="5.85179">
        <ele>686</ele>
        <time>2013-06-14T16:49:39Z</time>
      </trkpt>
      <trkpt lat="45.40926" lon="5.85181">
        <ele>687</ele>
        <time>2013-06-14T16:49:44Z</time>
      </trkpt>
      <trkpt lat="45.40897" lon="5.8516">
        <ele>690</ele>
        <time>2013-06-14T16:50:08Z</time>
      </trkpt>
      <trkpt lat="45.40886" lon="5.85155">
        <ele>691</ele>
        <time>2013-06-14T16:50:19Z</time>
      </trkpt>
      <trkpt lat="45.40888" lon="5.85152">
        <ele>692</ele>
        <time>2013-06-14T16:50:23Z</time>
      </trkpt>
      <trkpt lat="45.40911" lon="5.85143">
        <ele>695</ele>
        <time>2013-06-14T16:50:48Z</time>
      </trkpt>
      <trkpt lat="45.40944" lon="5.85124">
        <ele>696</ele>
        <time>2013-06-14T16:51:14Z</time>
      </trkpt>
      <trkpt lat="45.40949" lon="5.85114">
        <ele>699</ele>
        <time>2013-06-14T16:51:26Z</time>
      </trkpt>
      <trkpt lat="45.40946" lon="5.85114">
        <ele>700</ele>
        <time>2013-06-14T16:51:30Z</time>
      </trkpt>
      <trkpt lat="45.40928" lon="5.85104">
        <ele>703</ele>
        <time>2013-06-14T16:51:47Z</time>
      </trkpt>
      <trkpt lat="45.40903" lon="5.85098">
        <ele>705</ele>
        <time>2013-06-14T16:52:06Z</time>
      </trkpt>
      <trkpt lat="45.40886" lon="5.85096">
        <ele>709</ele>
        <time>2013-06-14T16:52:21Z</time>
      </trkpt>
      <trkpt lat="45.40874" lon="5.8509">
        <ele>712</ele>
        <time>2013-06-14T16:52:36Z</time>
      </trkpt>
      <trkpt lat="45.40857" lon="5.85076">
        <ele>715</ele>
        <time>2013-06-14T16:52:53Z</time>
      </trkpt>
      <trkpt lat="45.40842" lon="5.85059">
        <ele>716</ele>
        <time>2013-06-14T16:53:07Z</time>
      </trkpt>
      <trkpt lat="45.4083" lon="5.85052">
        <ele>718</ele>
        <time>2013-06-14T16:53:17Z</time>
      </trkpt>
      <trkpt lat="45.40801" lon="5.85059">
        <ele>721</ele>
        <time>2013-06-14T16:53:37Z</time>
      </trkpt>
      <trkpt lat="45.408" lon="5.8506">
        <ele>721</ele>
        <time>2013-06-14T16:53:38Z</time>
      </trkpt>
      <trkpt lat="45.40798" lon="5.85055">
        <ele>722</ele>
        <time>2013-06-14T16:53:41Z</time>
      </trkpt>
      <trkpt lat="45.40784" lon="5.85046">
        <ele>725</ele>
        <time>2013-06-14T16:53:55Z</time>
      </trkpt>
      <trkpt lat="45.40783" lon="5.85038">
        <ele>726</ele>
        <time>2013-06-14T16:54:02Z</time>
      </trkpt>
      <trkpt lat="45.40774" lon="5.85025">
        <ele>730</ele>
        <time>2013-06-14T16:54:18Z</time>
      </trkpt>
      <trkpt lat="45.40767" lon="5.85016">
        <ele>731</ele>
        <time>2013-06-14T16:54:26Z</time>
      </trkpt>
      <trkpt lat="45.40761" lon="5.85001">
        <ele>733</ele>
        <time>2013-06-14T16:54:37Z</time>
      </trkpt>
      <trkpt lat="45.40731" lon="5.84962">
        <ele>736</ele>
        <time>2013-06-14T16:55:07Z</time>
      </trkpt>
      <trkpt lat="45.40703" lon="5.84933">
        <ele>737</ele>
        <time>2013-06-14T16:55:33Z</time>
      </trkpt>
      <trkpt lat="45.40685" lon="5.84911">
        <ele>739</ele>
        <time>2013-06-14T16:55:51Z</time>
      </trkpt>
      <trkpt lat="45.40683" lon="5.84896">
        <ele>741</ele>
        <time>2013-06-14T16:56:03Z</time>
      </trkpt>
      <trkpt lat="45.40677" lon="5.84889">
        <ele>742</ele>
        <time>2013-06-14T16:56:08Z</time>
      </trkpt>
      <trkpt lat="45.40664" lon="5.84867">
        <ele>745</ele>
        <time>2013-06-14T16:56:23Z</time>
      </trkpt>
      <trkpt lat="45.40636" lon="5.84838">
        <ele>748</ele>
        <time>2013-06-14T16:56:52Z</time>
      </trkpt>
      <trkpt lat="45.40602" lon="5.8482">
        <ele>749</ele>
        <time>2013-06-14T16:57:18Z</time>
      </trkpt>
      <trkpt lat="45.40592" lon="5.84816">
        <ele>751</ele>
        <time>2013-06-14T16:57:26Z</time>
      </trkpt>
      <trkpt lat="45.40585" lon="5.84813">
        <ele>753</ele>
        <time>2013-06-14T16:57:46Z</time>
      </trkpt>
      <trkpt lat="45.40583" lon="5.84811">
        <ele>753</ele>
        <time>2013-06-14T16:58:00Z</time>
      </trkpt>
      <trkpt lat="45.40582" lon="5.84801">
        <ele>754</ele>
        <time>2013-06-14T16:58:03Z</time>
      </trkpt>
      <trkpt lat="45.40581" lon="5.84798">
        <ele>756</ele>
        <time>2013-06-14T16:58:05Z</time>
      </trkpt>
      <trkpt lat="45.40572" lon="5.8479">
        <ele>758</ele>
        <time>2013-06-14T16:58:10Z</time>
      </trkpt>
      <trkpt lat="45.40574" lon="5.84781">
        <ele>760</ele>
        <time>2013-06-14T16:58:17Z</time>
      </trkpt>
      <trkpt lat="45.40586" lon="5.84769">
        <ele>763</ele>
        <time>2013-06-14T16:58:35Z</time>
      </trkpt>
      <trkpt lat="45.40591" lon="5.84753">
        <ele>766</ele>
        <time>2013-06-14T16:58:58Z</time>
      </trkpt>
      <trkpt lat="45.40597" lon="5.84722">
        <ele>769</ele>
        <time>2013-06-14T16:59:25Z</time>
      </trkpt>
      <trkpt lat="45.40588" lon="5.84674">
        <ele>772</ele>
        <time>2013-06-14T17:00:21Z</time>
      </trkpt>
      <trkpt lat="45.40593" lon="5.84662">
        <ele>775</ele>
        <time>2013-06-14T17:00:32Z</time>
      </trkpt>
      <trkpt lat="45.40592" lon="5.84652">
        <ele>778</ele>
        <time>2013-06-14T17:00:47Z</time>
      </trkpt>
      <trkpt lat="45.40591" lon="5.84642">
        <ele>782</ele>
        <time>2013-06-14T17:00:58Z</time>
      </trkpt>
      <trkpt lat="45.40575" lon="5.8462">
        <ele>785</ele>
        <time>2013-06-14T17:01:15Z</time>
      </trkpt>
      <trkpt lat="45.40554" lon="5.84599">
        <ele>788</ele>
        <time>2013-06-14T17:01:35Z</time>
      </trkpt>
      <trkpt lat="45.40545" lon="5.84591">
        <ele>791</ele>
        <time>2013-06-14T17:01:50Z</time>
      </trkpt>
      <trkpt lat="45.40523" lon="5.84537">
        <ele>793</ele>
        <time>2013-06-14T17:02:12Z</time>
      </trkpt>
      <trkpt lat="45.40515" lon="5.84538">
        <ele>793</ele>
        <time>2013-06-14T17:02:18Z</time>
      </trkpt>
      <trkpt lat="45.40489" lon="5.84552">
        <ele>794</ele>
        <time>2013-06-14T17:02:41Z</time>
      </trkpt>
      <trkpt lat="45.40461" lon="5.84556">
        <ele>794</ele>
        <time>2013-06-14T17:03:02Z</time>
      </trkpt>
      <trkpt lat="45.40435" lon="5.84551">
        <ele>794</ele>
        <time>2013-06-14T17:03:27Z</time>
      </trkpt>
      <trkpt lat="45.40406" lon="5.84555">
        <ele>795</ele>
        <time>2013-06-14T17:03:58Z</time>
      </trkpt>
      <trkpt lat="45.40394" lon="5.84578">
        <ele>798</ele>
        <time>2013-06-14T17:04:27Z</time>
      </trkpt>
      <trkpt lat="45.40378" lon="5.84577">
        <ele>801</ele>
        <time>2013-06-14T17:04:44Z</time>
      </trkpt>
      <trkpt lat="45.40366" lon="5.84581">
        <ele>804</ele>
        <time>2013-06-14T17:05:04Z</time>
      </trkpt>
      <trkpt lat="45.40348" lon="5.84596">
        <ele>806</ele>
        <time>2013-06-14T17:05:29Z</time>
      </trkpt>
      <trkpt lat="45.40344" lon="5.84606">
        <ele>806</ele>
        <time>2013-06-14T17:05:35Z</time>
      </trkpt>
      <trkpt lat="45.40316" lon="5.84611">
        <ele>810</ele>
        <time>2013-06-14T17:06:05Z</time>
      </trkpt>
      <trkpt lat="45.40298" lon="5.84634">
        <ele>817</ele>
        <time>2013-06-14T17:06:27Z</time>
      </trkpt>
      <trkpt lat="45.40266" lon="5.84663">
        <ele>818</ele>
        <time>2013-06-14T17:06:52Z</time>
      </trkpt>
      <trkpt lat="45.40232" lon="5.84668">
        <ele>821</ele>
        <time>2013-06-14T17:07:12Z</time>
      </trkpt>
      <trkpt lat="45.40208" lon="5.84669">
        <ele>824</ele>
        <time>2013-06-14T17:07:41Z</time>
      </trkpt>
      <trkpt lat="45.40165" lon="5.84637">
        <ele>834</ele>
        <time>2013-06-14T17:07:57Z</time>
      </trkpt>
      <trkpt lat="45.40121" lon="5.84624">
        <ele>840</ele>
        <time>2013-06-14T17:08:09Z</time>
      </trkpt>
      <trkpt lat="45.40097" lon="5.84607">
        <ele>844</ele>
        <time>2013-06-14T17:08:21Z</time>
      </trkpt>
      <trkpt lat="45.40077" lon="5.84584">
        <ele>847</ele>
        <time>2013-06-14T17:08:37Z</time>
      </trkpt>
      <trkpt lat="45.40053" lon="5.84556">
        <ele>851</ele>
        <time>2013-06-14T17:08:55Z</time>
      </trkpt>
      <trkpt lat="45.39993" lon="5.84549">
        <ele>855</ele>
        <time>2013-06-14T17:09:21Z</time>
      </trkpt>
      <trkpt lat="45.39952" lon="5.84535">
        <ele>858</ele>
        <time>2013-06-14T17:09:44Z</time>
      </trkpt>
      <trkpt lat="45.39922" lon="5.84526">
        <ele>859</ele>
        <time>2013-06-14T17:10:06Z</time>
      </trkpt>
      <trkpt lat="45.39888" lon="5.84516">
        <ele>861</ele>
        <time>2013-06-14T17:10:38Z</time>
      </trkpt>
      <trkpt lat="45.39857" lon="5.84506">
        <ele>863</ele>
        <time>2013-06-14T17:11:06Z</time>
      </trkpt>
      <trkpt lat="45.3983" lon="5.84489">
        <ele>865</ele>
        <time>2013-06-14T17:11:24Z</time>
      </trkpt>
      <trkpt lat="45.39793" lon="5.84478">
        <ele>867</ele>
        <time>2013-06-14T17:11:41Z</time>
      </trkpt>
      <trkpt lat="45.39762" lon="5.8447">
        <ele>869</ele>
        <time>2013-06-14T17:11:45Z</time>
      </trkpt>
      <trkpt lat="45.39734" lon="5.8446">
        <ele>871</ele>
        <time>2013-06-14T17:12:14Z</time>
      </trkpt>
      <trkpt lat="45.39701" lon="5.84473">
        <ele>870</ele>
        <time>2013-06-14T17:12:46Z</time>
      </trkpt>
      <trkpt lat="45.39674" lon="5.84484">
        <ele>870</ele>
        <time>2013-06-14T17:13:02Z</time>
      </trkpt>
      <trkpt lat="45.39646" lon="5.84486">
        <ele>870</ele>
        <time>2013-06-14T17:13:22Z</time>
      </trkpt>
      <trkpt lat="45.39601" lon="5.84499">
        <ele>868</ele>
        <time>2013-06-14T17:13:53Z</time>
      </trkpt>
      <trkpt lat="45.39565" lon="5.84502">
        <ele>868</ele>
        <time>2013-06-14T17:13:56Z</time>
      </trkpt>
      <trkpt lat="45.39522" lon="5.84505">
        <ele>870</ele>
        <time>2013-06-14T17:14:30Z</time>
      </trkpt>
      <trkpt lat="45.39495" lon="5.84508">
        <ele>872</ele>
        <time>2013-06-14T17:14:38Z</time>
      </trkpt>
      <trkpt lat="45.39473" lon="5.84517">
        <ele>873</ele>
        <time>2013-06-14T17:14:42Z</time>
      </trkpt>
      <trkpt lat="45.39465" lon="5.84515">
        <ele>844</ele>
        <time>2013-06-14T17:17:00Z</time>
      </trkpt>
      <trkpt lat="45.39444" lon="5.84524">
        <ele>846</ele>
        <time>2013-06-14T17:17:26Z</time>
      </trkpt>
      <trkpt lat="45.39415" lon="5.84534">
        <ele>847</ele>
        <time>2013-06-14T17:17:52Z</time>
      </trkpt>
      <trkpt lat="45.39403" lon="5.84525">
        <ele>848</ele>
        <time>2013-06-14T17:18:05Z</time>
      </trkpt>
      <trkpt lat="45.39373" lon="5.84484">
        <ele>847</ele>
        <time>2013-06-14T17:18:39Z</time>
      </trkpt>
      <trkpt lat="45.39352" lon="5.84499">
        <ele>847</ele>
        <time>2013-06-14T17:19:03Z</time>
      </trkpt>
      <trkpt lat="45.39344" lon="5.84538">
        <ele>850</ele>
        <time>2013-06-14T17:19:26Z</time>
      </trkpt>
      <trkpt lat="45.39344" lon="5.8454">
        <ele>850</ele>
        <time>2013-06-14T17:19:27Z</time>
      </trkpt>
      <trkpt lat="45.39319" lon="5.84572">
        <ele>852</ele>
        <time>2013-06-14T17:20:05Z</time>
      </trkpt>
      <trkpt lat="45.39293" lon="5.8457">
        <ele>852</ele>
        <time>2013-06-14T17:20:37Z</time>
      </trkpt>
      <trkpt lat="45.39255" lon="5.84565">
        <ele>853</ele>
        <time>2013-06-14T17:21:09Z</time>
      </trkpt>
      <trkpt lat="45.39234" lon="5.8457">
        <ele>855</ele>
        <time>2013-06-14T17:21:25Z</time>
      </trkpt>
      <trkpt lat="45.39233" lon="5.84569">
        <ele>855</ele>
        <time>2013-06-14T17:21:26Z</time>
      </trkpt>
      <trkpt lat="45.39214" lon="5.84571">
        <ele>854</ele>
        <time>2013-06-14T17:21:43Z</time>
      </trkpt>
      <trkpt lat="45.39204" lon="5.84572">
        <ele>852</ele>
        <time>2013-06-14T17:21:56Z</time>
      </trkpt>
      <trkpt lat="45.39198" lon="5.84578">
        <ele>851</ele>
        <time>2013-06-14T17:22:00Z</time>
      </trkpt>
      <trkpt lat="45.39192" lon="5.8458">
        <ele>851</ele>
        <time>2013-06-14T17:22:04Z</time>
      </trkpt>
      <trkpt lat="45.39189" lon="5.84576">
        <ele>851</ele>
        <time>2013-06-14T17:22:08Z</time>
      </trkpt>
      <trkpt lat="45.39186" lon="5.84578">
        <ele>850</ele>
        <time>2013-06-14T17:22:11Z</time>
      </trkpt>
      <trkpt lat="45.39181" lon="5.84579">
        <ele>851</ele>
        <time>2013-06-14T17:22:17Z</time>
      </trkpt>
      <trkpt lat="45.39174" lon="5.84572">
        <ele>851</ele>
        <time>2013-06-14T17:22:23Z</time>
      </trkpt>
      <trkpt lat="45.3916" lon="5.84574">
        <ele>852</ele>
        <time>2013-06-14T17:22:40Z</time>
      </trkpt>
      <trkpt lat="45.39145" lon="5.84577">
        <ele>854</ele>
        <time>2013-06-14T17:22:57Z</time>
      </trkpt>
      <trkpt lat="45.39124" lon="5.84581">
        <ele>855</ele>
        <time>2013-06-14T17:23:13Z</time>
      </trkpt>
      <trkpt lat="45.3911" lon="5.84585">
        <ele>857</ele>
        <time>2013-06-14T17:23:32Z</time>
      </trkpt>
      <trkpt lat="45.39105" lon="5.84587">
        <ele>857</ele>
        <time>2013-06-14T17:23:38Z</time>
      </trkpt>
      <trkpt lat="45.39089" lon="5.8457">
        <ele>859</ele>
        <time>2013-06-14T17:23:51Z</time>
      </trkpt>
      <trkpt lat="45.39066" lon="5.84547">
        <ele>881</ele>
        <time>2013-06-14T17:24:20Z</time>
      </trkpt>
      <trkpt lat="45.39062" lon="5.8453">
        <ele>881</ele>
        <time>2013-06-14T17:24:28Z</time>
      </trkpt>
      <trkpt lat="45.39059" lon="5.84527">
        <ele>881</ele>
        <time>2013-06-14T17:24:31Z</time>
      </trkpt>
      <trkpt lat="45.39056" lon="5.84519">
        <ele>883</ele>
        <time>2013-06-14T17:24:36Z</time>
      </trkpt>
      <trkpt lat="45.39045" lon="5.84501">
        <ele>885</ele>
        <time>2013-06-14T17:24:54Z</time>
      </trkpt>
      <trkpt lat="45.39034" lon="5.845">
        <ele>885</ele>
        <time>2013-06-14T17:25:01Z</time>
      </trkpt>
      <trkpt lat="45.39006" lon="5.84492">
        <ele>886</ele>
        <time>2013-06-14T17:25:23Z</time>
      </trkpt>
      <trkpt lat="45.38991" lon="5.8448">
        <ele>888</ele>
        <time>2013-06-14T17:25:37Z</time>
      </trkpt>
      <trkpt lat="45.38988" lon="5.84476">
        <ele>888</ele>
        <time>2013-06-14T17:25:40Z</time>
      </trkpt>
      <trkpt lat="45.38962" lon="5.84456">
        <ele>891</ele>
        <time>2013-06-14T17:26:06Z</time>
      </trkpt>
      <trkpt lat="45.38938" lon="5.84442">
        <ele>893</ele>
        <time>2013-06-14T17:26:37Z</time>
      </trkpt>
      <trkpt lat="45.38911" lon="5.84451">
        <ele>896</ele>
        <time>2013-06-14T17:27:01Z</time>
      </trkpt>
      <trkpt lat="45.38895" lon="5.84428">
        <ele>899</ele>
        <time>2013-06-14T17:27:16Z</time>
      </trkpt>
      <trkpt lat="45.38886" lon="5.84415">
        <ele>903</ele>
        <time>2013-06-14T17:27:28Z</time>
      </trkpt>
      <trkpt lat="45.38872" lon="5.84385">
        <ele>906</ele>
        <time>2013-06-14T17:27:55Z</time>
      </trkpt>
      <trkpt lat="45.38861" lon="5.84377">
        <ele>907</ele>
        <time>2013-06-14T17:28:05Z</time>
      </trkpt>
      <trkpt lat="45.38846" lon="5.84369">
        <ele>909</ele>
        <time>2013-06-14T17:28:16Z</time>
      </trkpt>
      <trkpt lat="45.38841" lon="5.84366">
        <ele>910</ele>
        <time>2013-06-14T17:28:20Z</time>
      </trkpt>
      <trkpt lat="45.38835" lon="5.84363">
        <ele>911</ele>
        <time>2013-06-14T17:28:24Z</time>
      </trkpt>
      <trkpt lat="45.38834" lon="5.84362">
        <ele>912</ele>
        <time>2013-06-14T17:28:26Z</time>
      </trkpt>
      <trkpt lat="45.38814" lon="5.84359">
        <ele>913</ele>
        <time>2013-06-14T17:28:45Z</time>
      </trkpt>
      <trkpt lat="45.38806" lon="5.84342">
        <ele>914</ele>
        <time>2013-06-14T17:29:03Z</time>
      </trkpt>
      <trkpt lat="45.38804" lon="5.84332">
        <ele>914</ele>
        <time>2013-06-14T17:29:08Z</time>
      </trkpt>
      <trkpt lat="45.38796" lon="5.84311">
        <ele>915</ele>
        <time>2013-06-14T17:29:22Z</time>
      </trkpt>
      <trkpt lat="45.38794" lon="5.84292">
        <ele>914</ele>
        <time>2013-06-14T17:29:33Z</time>
      </trkpt>
      <trkpt lat="45.38788" lon="5.84281">
        <ele>915</ele>
        <time>2013-06-14T17:29:43Z</time>
      </trkpt>
      <trkpt lat="45.38778" lon="5.84261">
        <ele>915</ele>
        <time>2013-06-14T17:30:03Z</time>
      </trkpt>
      <trkpt lat="45.38772" lon="5.84272">
        <ele>915</ele>
        <time>2013-06-14T17:30:19Z</time>
      </trkpt>
      <trkpt lat="45.38772" lon="5.84269">
        <ele>916</ele>
        <time>2013-06-14T17:30:21Z</time>
      </trkpt>
      <trkpt lat="45.38771" lon="5.84224">
        <ele>917</ele>
        <time>2013-06-14T17:30:47Z</time>
      </trkpt>
      <trkpt lat="45.38771" lon="5.84223">
        <ele>916</ele>
        <time>2013-06-14T17:30:49Z</time>
      </trkpt>
      <trkpt lat="45.38766" lon="5.84217">
        <ele>916</ele>
        <time>2013-06-14T17:31:07Z</time>
      </trkpt>
      <trkpt lat="45.38767" lon="5.84225">
        <ele>916</ele>
        <time>2013-06-14T17:31:13Z</time>
      </trkpt>
      <trkpt lat="45.38764" lon="5.84238">
        <ele>917</ele>
        <time>2013-06-14T17:31:18Z</time>
      </trkpt>
      <trkpt lat="45.38761" lon="5.84252">
        <ele>918</ele>
        <time>2013-06-14T17:31:23Z</time>
      </trkpt>
      <trkpt lat="45.3876" lon="5.84254">
        <ele>917</ele>
        <time>2013-06-14T17:31:25Z</time>
      </trkpt>
      <trkpt lat="45.3876" lon="5.84259">
        <ele>918</ele>
        <time>2013-06-14T17:31:29Z</time>
      </trkpt>
      <trkpt lat="45.38757" lon="5.84266">
        <ele>918</ele>
        <time>2013-06-14T17:31:33Z</time>
      </trkpt>
      <trkpt lat="45.38754" lon="5.84277">
        <ele>918</ele>
        <time>2013-06-14T17:31:39Z</time>
      </trkpt>
      <trkpt lat="45.38753" lon="5.84281">
        <ele>919</ele>
        <time>2013-06-14T17:31:41Z</time>
      </trkpt>
      <trkpt lat="45.38746" lon="5.84298">
        <ele>920</ele>
        <time>2013-06-14T17:31:52Z</time>
      </trkpt>
      <trkpt lat="45.38736" lon="5.84322">
        <ele>921</ele>
        <time>2013-06-14T17:32:06Z</time>
      </trkpt>
      <trkpt lat="45.38731" lon="5.84329">
        <ele>922</ele>
        <time>2013-06-14T17:32:10Z</time>
      </trkpt>
      <trkpt lat="45.3873" lon="5.84334">
        <ele>922</ele>
        <time>2013-06-14T17:32:13Z</time>
      </trkpt>
      <trkpt lat="45.38728" lon="5.84345">
        <ele>922</ele>
        <time>2013-06-14T17:32:18Z</time>
      </trkpt>
      <trkpt lat="45.38725" lon="5.84352">
        <ele>923</ele>
        <time>2013-06-14T17:32:22Z</time>
      </trkpt>
      <trkpt lat="45.38719" lon="5.84365">
        <ele>923</ele>
        <time>2013-06-14T17:32:33Z</time>
      </trkpt>
      <trkpt lat="45.38718" lon="5.8437">
        <ele>923</ele>
        <time>2013-06-14T17:32:36Z</time>
      </trkpt>
      <trkpt lat="45.38716" lon="5.84374">
        <ele>924</ele>
        <time>2013-06-14T17:32:41Z</time>
      </trkpt>
      <trkpt lat="45.38714" lon="5.84379">
        <ele>924</ele>
        <time>2013-06-14T17:32:45Z</time>
      </trkpt>
      <trkpt lat="45.38715" lon="5.84378">
        <ele>925</ele>
        <time>2013-06-14T17:32:51Z</time>
      </trkpt>
      <trkpt lat="45.38712" lon="5.84384">
        <ele>925</ele>
        <time>2013-06-14T17:32:57Z</time>
      </trkpt>
      <trkpt lat="45.38707" lon="5.84385">
        <ele>926</ele>
        <time>2013-06-14T17:33:02Z</time>
      </trkpt>
      <trkpt lat="45.38677" lon="5.84397">
        <ele>928</ele>
        <time>2013-06-14T17:33:22Z</time>
      </trkpt>
      <trkpt lat="45.3864" lon="5.84399">
        <ele>930</ele>
        <time>2013-06-14T17:33:46Z</time>
      </trkpt>
      <trkpt lat="45.38623" lon="5.84393">
        <ele>931</ele>
        <time>2013-06-14T17:33:58Z</time>
      </trkpt>
      <trkpt lat="45.38619" lon="5.84394">
        <ele>931</ele>
        <time>2013-06-14T17:34:01Z</time>
      </trkpt>
      <trkpt lat="45.3861" lon="5.84392">
        <ele>932</ele>
        <time>2013-06-14T17:34:08Z</time>
      </trkpt>
      <trkpt lat="45.38589" lon="5.84388">
        <ele>934</ele>
        <time>2013-06-14T17:34:24Z</time>
      </trkpt>
      <trkpt lat="45.38585" lon="5.84387">
        <ele>934</ele>
        <time>2013-06-14T17:34:27Z</time>
      </trkpt>
      <trkpt lat="45.38549" lon="5.84385">
        <ele>936</ele>
        <time>2013-06-14T17:34:52Z</time>
      </trkpt>
      <trkpt lat="45.38545" lon="5.84385">
        <ele>937</ele>
        <time>2013-06-14T17:34:54Z</time>
      </trkpt>
      <trkpt lat="45.38519" lon="5.84376">
        <ele>938</ele>
        <time>2013-06-14T17:35:13Z</time>
      </trkpt>
      <trkpt lat="45.38486" lon="5.84355">
        <ele>940</ele>
        <time>2013-06-14T17:35:37Z</time>
      </trkpt>
      <trkpt lat="45.38483" lon="5.84353">
        <ele>940</ele>
        <time>2013-06-14T17:35:39Z</time>
      </trkpt>
      <trkpt lat="45.38423" lon="5.84317">
        <ele>942</ele>
        <time>2013-06-14T17:35:57Z</time>
      </trkpt>
      <trkpt lat="45.38416" lon="5.84319">
        <ele>943</ele>
        <time>2013-06-14T17:36:01Z</time>
      </trkpt>
      <trkpt lat="45.38408" lon="5.84313">
        <ele>943</ele>
        <time>2013-06-14T17:36:07Z</time>
      </trkpt>
      <trkpt lat="45.38401" lon="5.8431">
        <ele>944</ele>
        <time>2013-06-14T17:36:13Z</time>
      </trkpt>
      <trkpt lat="45.38392" lon="5.84308">
        <ele>944</ele>
        <time>2013-06-14T17:36:20Z</time>
      </trkpt>
      <trkpt lat="45.38372" lon="5.84308">
        <ele>945</ele>
        <time>2013-06-14T17:36:43Z</time>
      </trkpt>
      <trkpt lat="45.38344" lon="5.84319">
        <ele>947</ele>
        <time>2013-06-14T17:37:05Z</time>
      </trkpt>
      <trkpt lat="45.38297" lon="5.84325">
        <ele>948</ele>
        <time>2013-06-14T17:37:37Z</time>
      </trkpt>
      <trkpt lat="45.38277" lon="5.84343">
        <ele>949</ele>
        <time>2013-06-14T17:37:52Z</time>
      </trkpt>
      <trkpt lat="45.38263" lon="5.84355">
        <ele>950</ele>
        <time>2013-06-14T17:37:59Z</time>
      </trkpt>
      <trkpt lat="45.38258" lon="5.84352">
        <ele>950</ele>
        <time>2013-06-14T17:38:03Z</time>
      </trkpt>
      <trkpt lat="45.38233" lon="5.84365">
        <ele>952</ele>
        <time>2013-06-14T17:38:27Z</time>
      </trkpt>
      <trkpt lat="45.38173" lon="5.84359">
        <ele>953</ele>
        <time>2013-06-14T17:39:03Z</time>
      </trkpt>
      <trkpt lat="45.38128" lon="5.84365">
        <ele>954</ele>
        <time>2013-06-14T17:39:35Z</time>
      </trkpt>
      <trkpt lat="45.38122" lon="5.84359">
        <ele>954</ele>
        <time>2013-06-14T17:40:06Z</time>
      </trkpt>
      <trkpt lat="45.38096" lon="5.84349">
        <ele>953</ele>
        <time>2013-06-14T17:40:27Z</time>
      </trkpt>
      <trkpt lat="45.38074" lon="5.84338">
        <ele>951</ele>
        <time>2013-06-14T17:40:44Z</time>
      </trkpt>
      <trkpt lat="45.38026" lon="5.84301">
        <ele>951</ele>
        <time>2013-06-14T17:41:19Z</time>
      </trkpt>
      <trkpt lat="45.37998" lon="5.84276">
        <ele>949</ele>
        <time>2013-06-14T17:41:52Z</time>
      </trkpt>
      <trkpt lat="45.37986" lon="5.84285">
        <ele>949</ele>
        <time>2013-06-14T17:42:00Z</time>
      </trkpt>
      <trkpt lat="45.37965" lon="5.84286">
        <ele>949</ele>
        <time>2013-06-14T17:42:37Z</time>
      </trkpt>
      <trkpt lat="45.37928" lon="5.84266">
        <ele>949</ele>
        <time>2013-06-14T17:43:23Z</time>
      </trkpt>
      <trkpt lat="45.37908" lon="5.84277">
        <ele>950</ele>
        <time>2013-06-14T17:47:11Z</time>
      </trkpt>
      <trkpt lat="45.3788" lon="5.84275">
        <ele>950</ele>
        <time>2013-06-14T17:47:35Z</time>
      </trkpt>
      <trkpt lat="45.37853" lon="5.84253">
        <ele>951</ele>
        <time>2013-06-14T17:47:43Z</time>
      </trkpt>
      <trkpt lat="45.37849" lon="5.84254">
        <ele>951</ele>
        <time>2013-06-14T17:47:46Z</time>
      </trkpt>
      <trkpt lat="45.37818" lon="5.8424">
        <ele>950</ele>
        <time>2013-06-14T17:48:10Z</time>
      </trkpt>
      <trkpt lat="45.37818" lon="5.8424">
        <ele>949</ele>
        <time>2013-06-14T17:48:13Z</time>
      </trkpt>
      <trkpt lat="45.3784" lon="5.84247">
        <ele>951</ele>
        <time>2013-06-14T17:48:29Z</time>
      </trkpt>
      <trkpt lat="45.37837" lon="5.84236">
        <ele>951</ele>
        <time>2013-06-14T17:49:45Z</time>
      </trkpt>
      <trkpt lat="45.37819" lon="5.84239">
        <ele>950</ele>
        <time>2013-06-14T17:49:57Z</time>
      </trkpt>
      <trkpt lat="45.37802" lon="5.84234">
        <ele>950</ele>
        <time>2013-06-14T17:50:08Z</time>
      </trkpt>
      <trkpt lat="45.3779" lon="5.84236">
        <ele>950</ele>
        <time>2013-06-14T17:50:12Z</time>
      </trkpt>
      <trkpt lat="45.37787" lon="5.84237">
        <ele>950</ele>
        <time>2013-06-14T17:50:14Z</time>
      </trkpt>
      <trkpt lat="45.37782" lon="5.84237">
        <ele>950</ele>
        <time>2013-06-14T17:50:19Z</time>
      </trkpt>
      <trkpt lat="45.37755" lon="5.84224">
        <ele>952</ele>
        <time>2013-06-14T17:50:42Z</time>
      </trkpt>
      <trkpt lat="45.37719" lon="5.84215">
        <ele>951</ele>
        <time>2013-06-14T17:51:03Z</time>
      </trkpt>
      <trkpt lat="45.37713" lon="5.84212">
        <ele>950</ele>
        <time>2013-06-14T17:51:08Z</time>
      </trkpt>
      <trkpt lat="45.37678" lon="5.84197">
        <ele>951</ele>
        <time>2013-06-14T17:51:30Z</time>
      </trkpt>
      <trkpt lat="45.37643" lon="5.84189">
        <ele>951</ele>
        <time>2013-06-14T17:51:52Z</time>
      </trkpt>
      <trkpt lat="45.3761" lon="5.84187">
        <ele>952</ele>
        <time>2013-06-14T17:52:12Z</time>
      </trkpt>
      <trkpt lat="45.37578" lon="5.84174">
        <ele>954</ele>
        <time>2013-06-14T17:52:36Z</time>
      </trkpt>
      <trkpt lat="45.37557" lon="5.8416">
        <ele>954</ele>
        <time>2013-06-14T17:52:49Z</time>
      </trkpt>
      <trkpt lat="45.37526" lon="5.84148">
        <ele>955</ele>
        <time>2013-06-14T17:53:11Z</time>
      </trkpt>
      <trkpt lat="45.37523" lon="5.84144">
        <ele>955</ele>
        <time>2013-06-14T17:53:15Z</time>
      </trkpt>
      <trkpt lat="45.37515" lon="5.84136">
        <ele>956</ele>
        <time>2013-06-14T17:53:22Z</time>
      </trkpt>
      <trkpt lat="45.3751" lon="5.84138">
        <ele>956</ele>
        <time>2013-06-14T17:53:27Z</time>
      </trkpt>
      <trkpt lat="45.37492" lon="5.84141">
        <ele>956</ele>
        <time>2013-06-14T17:53:37Z</time>
      </trkpt>
      <trkpt lat="45.37488" lon="5.8414">
        <ele>955</ele>
        <time>2013-06-14T17:53:40Z</time>
      </trkpt>
      <trkpt lat="45.37464" lon="5.84151">
        <ele>954</ele>
        <time>2013-06-14T17:53:52Z</time>
      </trkpt>
      <trkpt lat="45.3743" lon="5.84165">
        <ele>952</ele>
        <time>2013-06-14T17:54:14Z</time>
      </trkpt>
      <trkpt lat="45.37402" lon="5.84178">
        <ele>952</ele>
        <time>2013-06-14T17:54:35Z</time>
      </trkpt>
      <trkpt lat="45.374" lon="5.84177">
        <ele>952</ele>
        <time>2013-06-14T17:55:40Z</time>
      </trkpt>
      <trkpt lat="45.37371" lon="5.84179">
        <ele>954</ele>
        <time>2013-06-14T17:57:26Z</time>
      </trkpt>
      <trkpt lat="45.37345" lon="5.84176">
        <ele>957</ele>
        <time>2013-06-14T17:57:47Z</time>
      </trkpt>
      <trkpt lat="45.37334" lon="5.84166">
        <ele>960</ele>
        <time>2013-06-14T17:58:09Z</time>
      </trkpt>
      <trkpt lat="45.3733" lon="5.84157">
        <ele>960</ele>
        <time>2013-06-14T17:58:12Z</time>
      </trkpt>
      <trkpt lat="45.37309" lon="5.84147">
        <ele>963</ele>
        <time>2013-06-14T17:58:26Z</time>
      </trkpt>
      <trkpt lat="45.37287" lon="5.8413">
        <ele>967</ele>
        <time>2013-06-14T17:58:41Z</time>
      </trkpt>
      <trkpt lat="45.37283" lon="5.84126">
        <ele>968</ele>
        <time>2013-06-14T17:58:47Z</time>
      </trkpt>
      <trkpt lat="45.37278" lon="5.84121">
        <ele>968</ele>
        <time>2013-06-14T17:58:50Z</time>
      </trkpt>
      <trkpt lat="45.37252" lon="5.84118">
        <ele>971</ele>
        <time>2013-06-14T17:59:07Z</time>
      </trkpt>
      <trkpt lat="45.37237" lon="5.84114">
        <ele>974</ele>
        <time>2013-06-14T17:59:24Z</time>
      </trkpt>
      <trkpt lat="45.37223" lon="5.84095">
        <ele>978</ele>
        <time>2013-06-14T17:59:41Z</time>
      </trkpt>
      <trkpt lat="45.37205" lon="5.84101">
        <ele>981</ele>
        <time>2013-06-14T17:59:56Z</time>
      </trkpt>
      <trkpt lat="45.37189" lon="5.84098">
        <ele>985</ele>
        <time>2013-06-14T18:00:12Z</time>
      </trkpt>
      <trkpt lat="45.37184" lon="5.84088">
        <ele>985</ele>
        <time>2013-06-14T18:00:16Z</time>
      </trkpt>
      <trkpt lat="45.37167" lon="5.84059">
        <ele>987</ele>
        <time>2013-06-14T18:00:42Z</time>
      </trkpt>
      <trkpt lat="45.37155" lon="5.84034">
        <ele>989</ele>
        <time>2013-06-14T18:01:05Z</time>
      </trkpt>
      <trkpt lat="45.37143" lon="5.84004">
        <ele>992</ele>
        <time>2013-06-14T18:01:25Z</time>
      </trkpt>
      <trkpt lat="45.37141" lon="5.83999">
        <ele>993</ele>
        <time>2013-06-14T18:01:28Z</time>
      </trkpt>
      <trkpt lat="45.37138" lon="5.83975">
        <ele>995</ele>
        <time>2013-06-14T18:01:40Z</time>
      </trkpt>
      <trkpt lat="45.37139" lon="5.83953">
        <ele>998</ele>
        <time>2013-06-14T18:01:57Z</time>
      </trkpt>
      <trkpt lat="45.37131" lon="5.83944">
        <ele>1000</ele>
        <time>2013-06-14T18:02:04Z</time>
      </trkpt>
      <trkpt lat="45.37101" lon="5.8392">
        <ele>1004</ele>
        <time>2013-06-14T18:02:18Z</time>
      </trkpt>
      <trkpt lat="45.37069" lon="5.83913">
        <ele>1007</ele>
        <time>2013-06-14T18:02:39Z</time>
      </trkpt>
      <trkpt lat="45.37057" lon="5.83896">
        <ele>1010</ele>
        <time>2013-06-14T18:02:54Z</time>
      </trkpt>
      <trkpt lat="45.37054" lon="5.83876">
        <ele>1011</ele>
        <time>2013-06-14T18:03:06Z</time>
      </trkpt>
      <trkpt lat="45.37048" lon="5.83858">
        <ele>1014</ele>
        <time>2013-06-14T18:03:16Z</time>
      </trkpt>
      <trkpt lat="45.37048" lon="5.83857">
        <ele>1014</ele>
        <time>2013-06-14T18:03:17Z</time>
      </trkpt>
      <trkpt lat="45.37036" lon="5.8384">
        <ele>1018</ele>
        <time>2013-06-14T18:03:33Z</time>
      </trkpt>
      <trkpt lat="45.37021" lon="5.8381">
        <ele>1021</ele>
        <time>2013-06-14T18:03:54Z</time>
      </trkpt>
      <trkpt lat="45.37001" lon="5.83804">
        <ele>1024</ele>
        <time>2013-06-14T18:04:07Z</time>
      </trkpt>
      <trkpt lat="45.36992" lon="5.83794">
        <ele>1026</ele>
        <time>2013-06-14T18:04:15Z</time>
      </trkpt>
      <trkpt lat="45.36991" lon="5.83788">
        <ele>1027</ele>
        <time>2013-06-14T18:04:18Z</time>
      </trkpt>
      <trkpt lat="45.36993" lon="5.83779">
        <ele>1028</ele>
        <time>2013-06-14T18:04:23Z</time>
      </trkpt>
      <trkpt lat="45.36993" lon="5.83763">
        <ele>1031</ele>
        <time>2013-06-14T18:04:33Z</time>
      </trkpt>
      <trkpt lat="45.36992" lon="5.8376">
        <ele>1032</ele>
        <time>2013-06-14T18:04:35Z</time>
      </trkpt>
      <trkpt lat="45.36986" lon="5.83754">
        <ele>1033</ele>
        <time>2013-06-14T18:04:40Z</time>
      </trkpt>
      <trkpt lat="45.36958" lon="5.83754">
        <ele>1073</ele>
        <time>2013-06-14T18:04:42Z</time>
      </trkpt>
      <trkpt lat="45.36931" lon="5.83762">
        <ele>1073</ele>
        <time>2013-06-14T18:05:00Z</time>
      </trkpt>
      <trkpt lat="45.36878" lon="5.83773">
        <ele>1077</ele>
        <time>2013-06-14T18:05:06Z</time>
      </trkpt>
    </trkseg>
  </trk>
  <trk>
    <name><![CDATA[2013-06-15 577767]]></name>
    <trkseg>
      <trkpt lat="45.36877" lon="5.83773">
        <ele>1071</ele>
        <time>2013-06-15T08:19:53Z</time>
      </trkpt>
      <trkpt lat="45.36877" lon="5.83773">
        <ele>1074</ele>
        <time>2013-06-15T08:19:58Z</time>
      </trkpt>
      <trkpt lat="45.36877" lon="5.83773">
        <ele>1074</ele>
        <time>2013-06-15T08:19:59Z</time>
      </trkpt>
      <trkpt lat="45.36877" lon="5.83773">
        <ele>1078</ele>
        <time>2013-06-15T08:20:04Z</time>
      </trkpt>
      <trkpt lat="45.36877" lon="5.83773">
        <ele>1079</ele>
        <time>2013-06-15T08:20:08Z</time>
      </trkpt>
      <trkpt lat="45.36877" lon="5.83773">
        <ele>1081</ele>
        <time>2013-06-15T08:20:11Z</time>
      </trkpt>
      <trkpt lat="45.36877" lon="5.83773">
        <ele>1082</ele>
        <time>2013-06-15T08:20:14Z</time>
      </trkpt>
      <trkpt lat="45.36877" lon="5.83773">
        <ele>1085</ele>
        <time>2013-06-15T08:20:24Z</time>
      </trkpt>
      <trkpt lat="45.36877" lon="5.83773">
        <ele>1088</ele>
        <time>2013-06-15T08:20:39Z</time>
      </trkpt>
      <trkpt lat="45.36877" lon="5.83773">
        <ele>1091</ele>
        <time>2013-06-15T08:21:12Z</time>
      </trkpt>
      <trkpt lat="45.36881" lon="5.83771">
        <ele>1091</ele>
        <time>2013-06-15T08:29:22Z</time>
      </trkpt>
      <trkpt lat="45.36915" lon="5.83767">
        <ele>1089</ele>
        <time>2013-06-15T08:29:52Z</time>
      </trkpt>
      <trkpt lat="45.36951" lon="5.83752">
        <ele>1088</ele>
        <time>2013-06-15T08:30:21Z</time>
      </trkpt>
      <trkpt lat="45.36959" lon="5.83745">
        <ele>1088</ele>
        <time>2013-06-15T08:30:31Z</time>
      </trkpt>
      <trkpt lat="45.36955" lon="5.83743">
        <ele>1090</ele>
        <time>2013-06-15T08:30:37Z</time>
      </trkpt>
      <trkpt lat="45.36948" lon="5.83742">
        <ele>1091</ele>
        <time>2013-06-15T08:30:44Z</time>
      </trkpt>
      <trkpt lat="45.36931" lon="5.8373">
        <ele>1094</ele>
        <time>2013-06-15T08:31:04Z</time>
      </trkpt>
      <trkpt lat="45.36919" lon="5.83719">
        <ele>1097</ele>
        <time>2013-06-15T08:31:17Z</time>
      </trkpt>
      <trkpt lat="45.36899" lon="5.83708">
        <ele>1100</ele>
        <time>2013-06-15T08:31:35Z</time>
      </trkpt>
      <trkpt lat="45.36882" lon="5.83694">
        <ele>1103</ele>
        <time>2013-06-15T08:31:52Z</time>
      </trkpt>
      <trkpt lat="45.36876" lon="5.83686">
        <ele>1104</ele>
        <time>2013-06-15T08:32:03Z</time>
      </trkpt>
      <trkpt lat="45.36852" lon="5.83661">
        <ele>1107</ele>
        <time>2013-06-15T08:32:28Z</time>
      </trkpt>
      <trkpt lat="45.36835" lon="5.83645">
        <ele>1110</ele>
        <time>2013-06-15T08:32:49Z</time>
      </trkpt>
      <trkpt lat="45.36803" lon="5.83613">
        <ele>1114</ele>
        <time>2013-06-15T08:33:50Z</time>
      </trkpt>
      <trkpt lat="45.36791" lon="5.83587">
        <ele>1115</ele>
        <time>2013-06-15T08:34:10Z</time>
      </trkpt>
      <trkpt lat="45.3679" lon="5.83582">
        <ele>1116</ele>
        <time>2013-06-15T08:34:13Z</time>
      </trkpt>
      <trkpt lat="45.36785" lon="5.83565">
        <ele>1116</ele>
        <time>2013-06-15T08:34:24Z</time>
      </trkpt>
      <trkpt lat="45.36777" lon="5.83541">
        <ele>1118</ele>
        <time>2013-06-15T08:34:41Z</time>
      </trkpt>
      <trkpt lat="45.36775" lon="5.83531">
        <ele>1119</ele>
        <time>2013-06-15T08:34:48Z</time>
      </trkpt>
      <trkpt lat="45.36772" lon="5.83526">
        <ele>1120</ele>
        <time>2013-06-15T08:34:52Z</time>
      </trkpt>
      <trkpt lat="45.3677" lon="5.83516">
        <ele>1122</ele>
        <time>2013-06-15T08:35:00Z</time>
      </trkpt>
      <trkpt lat="45.36767" lon="5.8351">
        <ele>1124</ele>
        <time>2013-06-15T08:35:07Z</time>
      </trkpt>
      <trkpt lat="45.3676" lon="5.83502">
        <ele>1126</ele>
        <time>2013-06-15T08:35:33Z</time>
      </trkpt>
      <trkpt lat="45.3676" lon="5.83502">
        <ele>1126</ele>
        <time>2013-06-15T08:35:42Z</time>
      </trkpt>
      <trkpt lat="45.36748" lon="5.8348">
        <ele>1128</ele>
        <time>2013-06-15T08:35:59Z</time>
      </trkpt>
      <trkpt lat="45.3674" lon="5.83474">
        <ele>1129</ele>
        <time>2013-06-15T08:36:05Z</time>
      </trkpt>
      <trkpt lat="45.36719" lon="5.83462">
        <ele>1132</ele>
        <time>2013-06-15T08:36:23Z</time>
      </trkpt>
      <trkpt lat="45.36678" lon="5.83453">
        <ele>1135</ele>
        <time>2013-06-15T08:36:53Z</time>
      </trkpt>
      <trkpt lat="45.36654" lon="5.83448">
        <ele>1138</ele>
        <time>2013-06-15T08:37:10Z</time>
      </trkpt>
      <trkpt lat="45.36613" lon="5.83439">
        <ele>1141</ele>
        <time>2013-06-15T08:37:40Z</time>
      </trkpt>
      <trkpt lat="45.3658" lon="5.83429">
        <ele>1144</ele>
        <time>2013-06-15T08:38:07Z</time>
      </trkpt>
      <trkpt lat="45.36561" lon="5.83419">
        <ele>1146</ele>
        <time>2013-06-15T08:38:21Z</time>
      </trkpt>
      <trkpt lat="45.36556" lon="5.83415">
        <ele>1147</ele>
        <time>2013-06-15T08:38:25Z</time>
      </trkpt>
      <trkpt lat="45.36552" lon="5.8341">
        <ele>1147</ele>
        <time>2013-06-15T08:38:29Z</time>
      </trkpt>
      <trkpt lat="45.36528" lon="5.83387">
        <ele>1145</ele>
        <time>2013-06-15T08:38:52Z</time>
      </trkpt>
      <trkpt lat="45.36493" lon="5.83358">
        <ele>1142</ele>
        <time>2013-06-15T08:39:23Z</time>
      </trkpt>
      <trkpt lat="45.36477" lon="5.83346">
        <ele>1141</ele>
        <time>2013-06-15T08:39:36Z</time>
      </trkpt>
      <trkpt lat="45.3647" lon="5.8334">
        <ele>1140</ele>
        <time>2013-06-15T08:39:42Z</time>
      </trkpt>
      <trkpt lat="45.36465" lon="5.83334">
        <ele>1139</ele>
        <time>2013-06-15T08:39:47Z</time>
      </trkpt>
      <trkpt lat="45.36438" lon="5.83307">
        <ele>1136</ele>
        <time>2013-06-15T08:40:13Z</time>
      </trkpt>
      <trkpt lat="45.36437" lon="5.83306">
        <ele>1136</ele>
        <time>2013-06-15T08:40:14Z</time>
      </trkpt>
      <trkpt lat="45.3641" lon="5.83275">
        <ele>1133</ele>
        <time>2013-06-15T08:40:42Z</time>
      </trkpt>
      <trkpt lat="45.36389" lon="5.83239">
        <ele>1130</ele>
        <time>2013-06-15T08:41:09Z</time>
      </trkpt>
      <trkpt lat="45.36371" lon="5.83191">
        <ele>1126</ele>
        <time>2013-06-15T08:41:39Z</time>
      </trkpt>
      <trkpt lat="45.36344" lon="5.83162">
        <ele>1123</ele>
        <time>2013-06-15T08:42:06Z</time>
      </trkpt>
      <trkpt lat="45.36313" lon="5.83132">
        <ele>1121</ele>
        <time>2013-06-15T08:42:35Z</time>
      </trkpt>
      <trkpt lat="45.36274" lon="5.83089">
        <ele>1117</ele>
        <time>2013-06-15T08:43:14Z</time>
      </trkpt>
      <trkpt lat="45.36248" lon="5.83058">
        <ele>1114</ele>
        <time>2013-06-15T08:43:41Z</time>
      </trkpt>
      <trkpt lat="45.36221" lon="5.83029">
        <ele>1111</ele>
        <time>2013-06-15T08:44:05Z</time>
      </trkpt>
      <trkpt lat="45.36191" lon="5.83003">
        <ele>1108</ele>
        <time>2013-06-15T08:44:33Z</time>
      </trkpt>
      <trkpt lat="45.36156" lon="5.83013">
        <ele>1106</ele>
        <time>2013-06-15T08:45:02Z</time>
      </trkpt>
      <trkpt lat="45.36154" lon="5.83013">
        <ele>1106</ele>
        <time>2013-06-15T08:45:04Z</time>
      </trkpt>
      <trkpt lat="45.36146" lon="5.83013">
        <ele>1106</ele>
        <time>2013-06-15T08:45:24Z</time>
      </trkpt>
      <trkpt lat="45.36141" lon="5.83016">
        <ele>1106</ele>
        <time>2013-06-15T08:46:06Z</time>
      </trkpt>
      <trkpt lat="45.36143" lon="5.83008">
        <ele>1106</ele>
        <time>2013-06-15T08:46:51Z</time>
      </trkpt>
      <trkpt lat="45.36118" lon="5.83027">
        <ele>1108</ele>
        <time>2013-06-15T08:47:23Z</time>
      </trkpt>
      <trkpt lat="45.36112" lon="5.83031">
        <ele>1108</ele>
        <time>2013-06-15T08:47:27Z</time>
      </trkpt>
      <trkpt lat="45.36107" lon="5.83041">
        <ele>1109</ele>
        <time>2013-06-15T08:47:33Z</time>
      </trkpt>
      <trkpt lat="45.36083" lon="5.83043">
        <ele>1110</ele>
        <time>2013-06-15T08:47:52Z</time>
      </trkpt>
      <trkpt lat="45.36074" lon="5.83048">
        <ele>1110</ele>
        <time>2013-06-15T08:47:59Z</time>
      </trkpt>
      <trkpt lat="45.36061" lon="5.83058">
        <ele>1111</ele>
        <time>2013-06-15T08:48:09Z</time>
      </trkpt>
      <trkpt lat="45.36034" lon="5.83069">
        <ele>1112</ele>
        <time>2013-06-15T08:48:31Z</time>
      </trkpt>
      <trkpt lat="45.36031" lon="5.83071">
        <ele>1113</ele>
        <time>2013-06-15T08:48:33Z</time>
      </trkpt>
      <trkpt lat="45.36002" lon="5.83098">
        <ele>1113</ele>
        <time>2013-06-15T08:48:57Z</time>
      </trkpt>
      <trkpt lat="45.35983" lon="5.83115">
        <ele>1115</ele>
        <time>2013-06-15T08:49:13Z</time>
      </trkpt>
      <trkpt lat="45.35957" lon="5.83138">
        <ele>1115</ele>
        <time>2013-06-15T08:49:36Z</time>
      </trkpt>
      <trkpt lat="45.35943" lon="5.83154">
        <ele>1116</ele>
        <time>2013-06-15T08:49:47Z</time>
      </trkpt>
      <trkpt lat="45.3594" lon="5.83158">
        <ele>1116</ele>
        <time>2013-06-15T08:49:50Z</time>
      </trkpt>
      <trkpt lat="45.35919" lon="5.83173">
        <ele>1117</ele>
        <time>2013-06-15T08:50:10Z</time>
      </trkpt>
      <trkpt lat="45.35896" lon="5.83205">
        <ele>1118</ele>
        <time>2013-06-15T08:50:32Z</time>
      </trkpt>
      <trkpt lat="45.35886" lon="5.83225">
        <ele>1119</ele>
        <time>2013-06-15T08:50:46Z</time>
      </trkpt>
      <trkpt lat="45.35862" lon="5.83251">
        <ele>1120</ele>
        <time>2013-06-15T08:51:10Z</time>
      </trkpt>
      <trkpt lat="45.3583" lon="5.83277">
        <ele>1122</ele>
        <time>2013-06-15T08:51:36Z</time>
      </trkpt>
      <trkpt lat="45.358" lon="5.83256">
        <ele>1124</ele>
        <time>2013-06-15T08:52:01Z</time>
      </trkpt>
      <trkpt lat="45.35795" lon="5.83205">
        <ele>1127</ele>
        <time>2013-06-15T08:52:25Z</time>
      </trkpt>
      <trkpt lat="45.35785" lon="5.8316">
        <ele>1128</ele>
        <time>2013-06-15T08:52:47Z</time>
      </trkpt>
      <trkpt lat="45.35781" lon="5.83155">
        <ele>1128</ele>
        <time>2013-06-15T08:52:52Z</time>
      </trkpt>
      <trkpt lat="45.3575" lon="5.83131">
        <ele>1132</ele>
        <time>2013-06-15T08:53:18Z</time>
      </trkpt>
      <trkpt lat="45.35742" lon="5.83132">
        <ele>1132</ele>
        <time>2013-06-15T08:53:25Z</time>
      </trkpt>
      <trkpt lat="45.35739" lon="5.83133">
        <ele>1132</ele>
        <time>2013-06-15T08:53:27Z</time>
      </trkpt>
      <trkpt lat="45.35732" lon="5.8313">
        <ele>1134</ele>
        <time>2013-06-15T08:53:33Z</time>
      </trkpt>
      <trkpt lat="45.35718" lon="5.8313">
        <ele>1136</ele>
        <time>2013-06-15T08:53:43Z</time>
      </trkpt>
      <trkpt lat="45.357" lon="5.83134">
        <ele>1138</ele>
        <time>2013-06-15T08:54:01Z</time>
      </trkpt>
      <trkpt lat="45.35697" lon="5.83139">
        <ele>1139</ele>
        <time>2013-06-15T08:54:07Z</time>
      </trkpt>
      <trkpt lat="45.35682" lon="5.83128">
        <ele>1141</ele>
        <time>2013-06-15T08:54:21Z</time>
      </trkpt>
      <trkpt lat="45.35676" lon="5.83126">
        <ele>1142</ele>
        <time>2013-06-15T08:54:25Z</time>
      </trkpt>
      <trkpt lat="45.35646" lon="5.83093">
        <ele>1144</ele>
        <time>2013-06-15T08:54:50Z</time>
      </trkpt>
      <trkpt lat="45.35644" lon="5.83082">
        <ele>1145</ele>
        <time>2013-06-15T08:54:58Z</time>
      </trkpt>
      <trkpt lat="45.35642" lon="5.83081">
        <ele>1145</ele>
        <time>2013-06-15T08:55:01Z</time>
      </trkpt>
      <trkpt lat="45.35638" lon="5.83062">
        <ele>1147</ele>
        <time>2013-06-15T08:55:12Z</time>
      </trkpt>
      <trkpt lat="45.35635" lon="5.83055">
        <ele>1147</ele>
        <time>2013-06-15T08:55:17Z</time>
      </trkpt>
      <trkpt lat="45.35629" lon="5.83046">
        <ele>1148</ele>
        <time>2013-06-15T08:55:24Z</time>
      </trkpt>
      <trkpt lat="45.35626" lon="5.83048">
        <ele>1149</ele>
        <time>2013-06-15T08:55:29Z</time>
      </trkpt>
      <trkpt lat="45.35623" lon="5.83048">
        <ele>1150</ele>
        <time>2013-06-15T08:55:33Z</time>
      </trkpt>
      <trkpt lat="45.35617" lon="5.83049">
        <ele>1150</ele>
        <time>2013-06-15T08:55:39Z</time>
      </trkpt>
      <trkpt lat="45.35615" lon="5.8305">
        <ele>1150</ele>
        <time>2013-06-15T08:55:41Z</time>
      </trkpt>
      <trkpt lat="45.35597" lon="5.83065">
        <ele>1153</ele>
        <time>2013-06-15T08:55:56Z</time>
      </trkpt>
      <trkpt lat="45.35571" lon="5.83077">
        <ele>1155</ele>
        <time>2013-06-15T08:56:19Z</time>
      </trkpt>
      <trkpt lat="45.35558" lon="5.83063">
        <ele>1156</ele>
        <time>2013-06-15T08:56:29Z</time>
      </trkpt>
      <trkpt lat="45.35534" lon="5.83023">
        <ele>1158</ele>
        <time>2013-06-15T08:56:59Z</time>
      </trkpt>
      <trkpt lat="45.35505" lon="5.82992">
        <ele>1158</ele>
        <time>2013-06-15T08:57:24Z</time>
      </trkpt>
      <trkpt lat="45.35493" lon="5.82971">
        <ele>1159</ele>
        <time>2013-06-15T08:57:43Z</time>
      </trkpt>
      <trkpt lat="45.35489" lon="5.82961">
        <ele>1156</ele>
        <time>2013-06-15T08:57:58Z</time>
      </trkpt>
      <trkpt lat="45.35477" lon="5.82964">
        <ele>1153</ele>
        <time>2013-06-15T08:58:10Z</time>
      </trkpt>
      <trkpt lat="45.35452" lon="5.82979">
        <ele>1156</ele>
        <time>2013-06-15T08:58:35Z</time>
      </trkpt>
      <trkpt lat="45.35431" lon="5.83">
        <ele>1159</ele>
        <time>2013-06-15T08:58:55Z</time>
      </trkpt>
      <trkpt lat="45.3542" lon="5.83011">
        <ele>1162</ele>
        <time>2013-06-15T08:59:06Z</time>
      </trkpt>
      <trkpt lat="45.35409" lon="5.83017">
        <ele>1166</ele>
        <time>2013-06-15T08:59:18Z</time>
      </trkpt>
      <trkpt lat="45.35401" lon="5.83018">
        <ele>1169</ele>
        <time>2013-06-15T08:59:29Z</time>
      </trkpt>
      <trkpt lat="45.35393" lon="5.83026">
        <ele>1172</ele>
        <time>2013-06-15T08:59:41Z</time>
      </trkpt>
      <trkpt lat="45.3538" lon="5.83029">
        <ele>1172</ele>
        <time>2013-06-15T08:59:57Z</time>
      </trkpt>
      <trkpt lat="45.35372" lon="5.83029">
        <ele>1170</ele>
        <time>2013-06-15T09:00:05Z</time>
      </trkpt>
      <trkpt lat="45.35359" lon="5.83018">
        <ele>1167</ele>
        <time>2013-06-15T09:00:18Z</time>
      </trkpt>
      <trkpt lat="45.35339" lon="5.83013">
        <ele>1163</ele>
        <time>2013-06-15T09:00:31Z</time>
      </trkpt>
      <trkpt lat="45.35327" lon="5.83007">
        <ele>1161</ele>
        <time>2013-06-15T09:01:03Z</time>
      </trkpt>
      <trkpt lat="45.35317" lon="5.82994">
        <ele>1158</ele>
        <time>2013-06-15T09:01:17Z</time>
      </trkpt>
      <trkpt lat="45.35304" lon="5.82976">
        <ele>1155</ele>
        <time>2013-06-15T09:01:31Z</time>
      </trkpt>
      <trkpt lat="45.35293" lon="5.82966">
        <ele>1151</ele>
        <time>2013-06-15T09:01:48Z</time>
      </trkpt>
      <trkpt lat="45.35284" lon="5.82948">
        <ele>1148</ele>
        <time>2013-06-15T09:02:02Z</time>
      </trkpt>
      <trkpt lat="45.3528" lon="5.82943">
        <ele>1148</ele>
        <time>2013-06-15T09:02:04Z</time>
      </trkpt>
      <trkpt lat="45.35265" lon="5.8293">
        <ele>1146</ele>
        <time>2013-06-15T09:02:45Z</time>
      </trkpt>
      <trkpt lat="45.35261" lon="5.82924">
        <ele>1143</ele>
        <time>2013-06-15T09:02:59Z</time>
      </trkpt>
      <trkpt lat="45.35255" lon="5.82916">
        <ele>1139</ele>
        <time>2013-06-15T09:03:13Z</time>
      </trkpt>
      <trkpt lat="45.35241" lon="5.829">
        <ele>1136</ele>
        <time>2013-06-15T09:03:28Z</time>
      </trkpt>
      <trkpt lat="45.3524" lon="5.82891">
        <ele>1134</ele>
        <time>2013-06-15T09:03:38Z</time>
      </trkpt>
      <trkpt lat="45.35234" lon="5.82876">
        <ele>1132</ele>
        <time>2013-06-15T09:03:46Z</time>
      </trkpt>
      <trkpt lat="45.35222" lon="5.82851">
        <ele>1128</ele>
        <time>2013-06-15T09:04:02Z</time>
      </trkpt>
      <trkpt lat="45.3521" lon="5.82826">
        <ele>1126</ele>
        <time>2013-06-15T09:04:20Z</time>
      </trkpt>
      <trkpt lat="45.352" lon="5.82805">
        <ele>1124</ele>
        <time>2013-06-15T09:04:35Z</time>
      </trkpt>
      <trkpt lat="45.35181" lon="5.82789">
        <ele>1122</ele>
        <time>2013-06-15T09:04:54Z</time>
      </trkpt>
      <trkpt lat="45.35176" lon="5.82783">
        <ele>1122</ele>
        <time>2013-06-15T09:05:15Z</time>
      </trkpt>
      <trkpt lat="45.35151" lon="5.82759">
        <ele>1121</ele>
        <time>2013-06-15T09:05:36Z</time>
      </trkpt>
      <trkpt lat="45.35136" lon="5.82743">
        <ele>1120</ele>
        <time>2013-06-15T09:05:51Z</time>
      </trkpt>
      <trkpt lat="45.35125" lon="5.82727">
        <ele>1120</ele>
        <time>2013-06-15T09:06:19Z</time>
      </trkpt>
      <trkpt lat="45.35121" lon="5.82726">
        <ele>1120</ele>
        <time>2013-06-15T09:07:15Z</time>
      </trkpt>
      <trkpt lat="45.35094" lon="5.82715">
        <ele>1122</ele>
        <time>2013-06-15T09:07:49Z</time>
      </trkpt>
      <trkpt lat="45.35069" lon="5.82696">
        <ele>1123</ele>
        <time>2013-06-15T09:08:11Z</time>
      </trkpt>
      <trkpt lat="45.35048" lon="5.82667">
        <ele>1125</ele>
        <time>2013-06-15T09:08:27Z</time>
      </trkpt>
      <trkpt lat="45.35034" lon="5.82645">
        <ele>1126</ele>
        <time>2013-06-15T09:08:40Z</time>
      </trkpt>
      <trkpt lat="45.3502" lon="5.82616">
        <ele>1126</ele>
        <time>2013-06-15T09:09:00Z</time>
      </trkpt>
      <trkpt lat="45.35015" lon="5.82611">
        <ele>1126</ele>
        <time>2013-06-15T09:09:06Z</time>
      </trkpt>
      <trkpt lat="45.34985" lon="5.82593">
        <ele>1123</ele>
        <time>2013-06-15T09:09:31Z</time>
      </trkpt>
      <trkpt lat="45.34977" lon="5.82579">
        <ele>1122</ele>
        <time>2013-06-15T09:09:41Z</time>
      </trkpt>
      <trkpt lat="45.3496" lon="5.8254">
        <ele>1121</ele>
        <time>2013-06-15T09:10:05Z</time>
      </trkpt>
      <trkpt lat="45.3495" lon="5.8251">
        <ele>1119</ele>
        <time>2013-06-15T09:10:24Z</time>
      </trkpt>
      <trkpt lat="45.34946" lon="5.82499">
        <ele>1118</ele>
        <time>2013-06-15T09:10:32Z</time>
      </trkpt>
      <trkpt lat="45.34941" lon="5.82486">
        <ele>1117</ele>
        <time>2013-06-15T09:10:39Z</time>
      </trkpt>
      <trkpt lat="45.34926" lon="5.82466">
        <ele>1115</ele>
        <time>2013-06-15T09:10:57Z</time>
      </trkpt>
      <trkpt lat="45.34924" lon="5.82465">
        <ele>1114</ele>
        <time>2013-06-15T09:10:59Z</time>
      </trkpt>
      <trkpt lat="45.34907" lon="5.82449">
        <ele>1112</ele>
        <time>2013-06-15T09:11:19Z</time>
      </trkpt>
      <trkpt lat="45.34876" lon="5.82418">
        <ele>1110</ele>
        <time>2013-06-15T09:11:44Z</time>
      </trkpt>
      <trkpt lat="45.34875" lon="5.82418">
        <ele>1110</ele>
        <time>2013-06-15T09:11:45Z</time>
      </trkpt>
      <trkpt lat="45.34868" lon="5.82407">
        <ele>1110</ele>
        <time>2013-06-15T09:12:08Z</time>
      </trkpt>
      <trkpt lat="45.3485" lon="5.82393">
        <ele>1108</ele>
        <time>2013-06-15T09:13:17Z</time>
      </trkpt>
      <trkpt lat="45.34812" lon="5.8237">
        <ele>1105</ele>
        <time>2013-06-15T09:13:52Z</time>
      </trkpt>
      <trkpt lat="45.34788" lon="5.82354">
        <ele>1102</ele>
        <time>2013-06-15T09:14:17Z</time>
      </trkpt>
      <trkpt lat="45.34762" lon="5.82355">
        <ele>1098</ele>
        <time>2013-06-15T09:14:43Z</time>
      </trkpt>
      <trkpt lat="45.34748" lon="5.82362">
        <ele>1098</ele>
        <time>2013-06-15T09:15:34Z</time>
      </trkpt>
      <trkpt lat="45.34741" lon="5.82381">
        <ele>1098</ele>
        <time>2013-06-15T09:17:00Z</time>
      </trkpt>
      <trkpt lat="45.34723" lon="5.82385">
        <ele>1096</ele>
        <time>2013-06-15T09:17:36Z</time>
      </trkpt>
      <trkpt lat="45.34719" lon="5.82386">
        <ele>1096</ele>
        <time>2013-06-15T09:17:40Z</time>
      </trkpt>
      <trkpt lat="45.34694" lon="5.82393">
        <ele>1093</ele>
        <time>2013-06-15T09:18:04Z</time>
      </trkpt>
      <trkpt lat="45.34674" lon="5.8239">
        <ele>1091</ele>
        <time>2013-06-15T09:18:19Z</time>
      </trkpt>
      <trkpt lat="45.34639" lon="5.82369">
        <ele>1089</ele>
        <time>2013-06-15T09:18:47Z</time>
      </trkpt>
      <trkpt lat="45.34613" lon="5.82362">
        <ele>1086</ele>
        <time>2013-06-15T09:19:10Z</time>
      </trkpt>
      <trkpt lat="45.34576" lon="5.82348">
        <ele>1084</ele>
        <time>2013-06-15T09:19:37Z</time>
      </trkpt>
      <trkpt lat="45.34544" lon="5.82336">
        <ele>1084</ele>
        <time>2013-06-15T09:20:03Z</time>
      </trkpt>
      <trkpt lat="45.34513" lon="5.82335">
        <ele>1084</ele>
        <time>2013-06-15T09:20:24Z</time>
      </trkpt>
      <trkpt lat="45.34497" lon="5.82322">
        <ele>1084</ele>
        <time>2013-06-15T09:20:49Z</time>
      </trkpt>
      <trkpt lat="45.345" lon="5.82323">
        <ele>1084</ele>
        <time>2013-06-15T09:21:37Z</time>
      </trkpt>
      <trkpt lat="45.34497" lon="5.82313">
        <ele>1081</ele>
        <time>2013-06-15T09:22:30Z</time>
      </trkpt>
      <trkpt lat="45.34497" lon="5.82309">
        <ele>1081</ele>
        <time>2013-06-15T09:22:34Z</time>
      </trkpt>
      <trkpt lat="45.34494" lon="5.82294">
        <ele>1077</ele>
        <time>2013-06-15T09:22:46Z</time>
      </trkpt>
      <trkpt lat="45.34493" lon="5.82286">
        <ele>1075</ele>
        <time>2013-06-15T09:22:52Z</time>
      </trkpt>
      <trkpt lat="45.34494" lon="5.8228">
        <ele>1074</ele>
        <time>2013-06-15T09:22:56Z</time>
      </trkpt>
      <trkpt lat="45.34495" lon="5.82259">
        <ele>1072</ele>
        <time>2013-06-15T09:23:09Z</time>
      </trkpt>
      <trkpt lat="45.34496" lon="5.82239">
        <ele>1068</ele>
        <time>2013-06-15T09:23:23Z</time>
      </trkpt>
      <trkpt lat="45.34497" lon="5.82232">
        <ele>1067</ele>
        <time>2013-06-15T09:23:28Z</time>
      </trkpt>
      <trkpt lat="45.34496" lon="5.82229">
        <ele>1066</ele>
        <time>2013-06-15T09:23:31Z</time>
      </trkpt>
      <trkpt lat="45.34492" lon="5.82215">
        <ele>1064</ele>
        <time>2013-06-15T09:23:41Z</time>
      </trkpt>
      <trkpt lat="45.34483" lon="5.82196">
        <ele>1060</ele>
        <time>2013-06-15T09:23:56Z</time>
      </trkpt>
      <trkpt lat="45.34482" lon="5.8219">
        <ele>1060</ele>
        <time>2013-06-15T09:24:01Z</time>
      </trkpt>
      <trkpt lat="45.34479" lon="5.82187">
        <ele>1058</ele>
        <time>2013-06-15T09:24:05Z</time>
      </trkpt>
      <trkpt lat="45.34471" lon="5.8217">
        <ele>1055</ele>
        <time>2013-06-15T09:24:20Z</time>
      </trkpt>
      <trkpt lat="45.34466" lon="5.82169">
        <ele>1054</ele>
        <time>2013-06-15T09:24:26Z</time>
      </trkpt>
      <trkpt lat="45.34453" lon="5.82161">
        <ele>1050</ele>
        <time>2013-06-15T09:24:41Z</time>
      </trkpt>
      <trkpt lat="45.34445" lon="5.82149">
        <ele>1047</ele>
        <time>2013-06-15T09:24:54Z</time>
      </trkpt>
      <trkpt lat="45.34439" lon="5.82136">
        <ele>1043</ele>
        <time>2013-06-15T09:25:09Z</time>
      </trkpt>
      <trkpt lat="45.34438" lon="5.82136">
        <ele>1043</ele>
        <time>2013-06-15T09:25:10Z</time>
      </trkpt>
      <trkpt lat="45.34429" lon="5.82126">
        <ele>1041</ele>
        <time>2013-06-15T09:25:22Z</time>
      </trkpt>
      <trkpt lat="45.34428" lon="5.82123">
        <ele>1039</ele>
        <time>2013-06-15T09:25:25Z</time>
      </trkpt>
      <trkpt lat="45.34418" lon="5.82107">
        <ele>1036</ele>
        <time>2013-06-15T09:25:38Z</time>
      </trkpt>
      <trkpt lat="45.34414" lon="5.82096">
        <ele>1035</ele>
        <time>2013-06-15T09:25:46Z</time>
      </trkpt>
      <trkpt lat="45.34408" lon="5.8209">
        <ele>1033</ele>
        <time>2013-06-15T09:26:13Z</time>
      </trkpt>
      <trkpt lat="45.34386" lon="5.82077">
        <ele>1032</ele>
        <time>2013-06-15T09:26:33Z</time>
      </trkpt>
      <trkpt lat="45.34382" lon="5.82075">
        <ele>1030</ele>
        <time>2013-06-15T09:26:37Z</time>
      </trkpt>
      <trkpt lat="45.34366" lon="5.82066">
        <ele>1027</ele>
        <time>2013-06-15T09:26:54Z</time>
      </trkpt>
      <trkpt lat="45.34358" lon="5.82062">
        <ele>1025</ele>
        <time>2013-06-15T09:27:03Z</time>
      </trkpt>
      <trkpt lat="45.34354" lon="5.82057">
        <ele>1024</ele>
        <time>2013-06-15T09:27:06Z</time>
      </trkpt>
      <trkpt lat="45.34347" lon="5.82051">
        <ele>1023</ele>
        <time>2013-06-15T09:27:27Z</time>
      </trkpt>
      <trkpt lat="45.34343" lon="5.82052">
        <ele>1023</ele>
        <time>2013-06-15T09:27:49Z</time>
      </trkpt>
      <trkpt lat="45.34347" lon="5.8205">
        <ele>1023</ele>
        <time>2013-06-15T09:28:15Z</time>
      </trkpt>
      <trkpt lat="45.34344" lon="5.82049">
        <ele>1022</ele>
        <time>2013-06-15T09:28:35Z</time>
      </trkpt>
      <trkpt lat="45.34338" lon="5.82053">
        <ele>1022</ele>
        <time>2013-06-15T09:28:43Z</time>
      </trkpt>
      <trkpt lat="45.34322" lon="5.82041">
        <ele>1019</ele>
        <time>2013-06-15T09:29:00Z</time>
      </trkpt>
      <trkpt lat="45.34309" lon="5.82041">
        <ele>1016</ele>
        <time>2013-06-15T09:29:14Z</time>
      </trkpt>
      <trkpt lat="45.34298" lon="5.82041">
        <ele>1013</ele>
        <time>2013-06-15T09:29:54Z</time>
      </trkpt>
      <trkpt lat="45.3429" lon="5.82039">
        <ele>1010</ele>
        <time>2013-06-15T09:30:13Z</time>
      </trkpt>
      <trkpt lat="45.34278" lon="5.82034">
        <ele>1007</ele>
        <time>2013-06-15T09:30:26Z</time>
      </trkpt>
      <trkpt lat="45.34267" lon="5.82035">
        <ele>1003</ele>
        <time>2013-06-15T09:30:41Z</time>
      </trkpt>
      <trkpt lat="45.34261" lon="5.8203">
        <ele>1002</ele>
        <time>2013-06-15T09:30:47Z</time>
      </trkpt>
      <trkpt lat="45.34261" lon="5.82019">
        <ele>1000</ele>
        <time>2013-06-15T09:30:55Z</time>
      </trkpt>
      <trkpt lat="45.34261" lon="5.81998">
        <ele>998</ele>
        <time>2013-06-15T09:31:08Z</time>
      </trkpt>
      <trkpt lat="45.34265" lon="5.81988">
        <ele>998</ele>
        <time>2013-06-15T09:31:11Z</time>
      </trkpt>
      <trkpt lat="45.34277" lon="5.81951">
        <ele>995</ele>
        <time>2013-06-15T09:31:31Z</time>
      </trkpt>
      <trkpt lat="45.34295" lon="5.81932">
        <ele>994</ele>
        <time>2013-06-15T09:31:49Z</time>
      </trkpt>
      <trkpt lat="45.34309" lon="5.81927">
        <ele>993</ele>
        <time>2013-06-15T09:32:05Z</time>
      </trkpt>
      <trkpt lat="45.34322" lon="5.8193">
        <ele>992</ele>
        <time>2013-06-15T09:33:10Z</time>
      </trkpt>
      <trkpt lat="45.34325" lon="5.81929">
        <ele>991</ele>
        <time>2013-06-15T09:33:15Z</time>
      </trkpt>
      <trkpt lat="45.34348" lon="5.81934">
        <ele>988</ele>
        <time>2013-06-15T09:33:32Z</time>
      </trkpt>
      <trkpt lat="45.34361" lon="5.81931">
        <ele>985</ele>
        <time>2013-06-15T09:33:47Z</time>
      </trkpt>
      <trkpt lat="45.34361" lon="5.81932">
        <ele>984</ele>
        <time>2013-06-15T09:33:52Z</time>
      </trkpt>
      <trkpt lat="45.34373" lon="5.81925">
        <ele>980</ele>
        <time>2013-06-15T09:34:02Z</time>
      </trkpt>
      <trkpt lat="45.34386" lon="5.81926">
        <ele>976</ele>
        <time>2013-06-15T09:34:16Z</time>
      </trkpt>
      <trkpt lat="45.3439" lon="5.81924">
        <ele>973</ele>
        <time>2013-06-15T09:34:29Z</time>
      </trkpt>
      <trkpt lat="45.34398" lon="5.81914">
        <ele>971</ele>
        <time>2013-06-15T09:34:39Z</time>
      </trkpt>
      <trkpt lat="45.34401" lon="5.81909">
        <ele>970</ele>
        <time>2013-06-15T09:34:41Z</time>
      </trkpt>
      <trkpt lat="45.34405" lon="5.81898">
        <ele>969</ele>
        <time>2013-06-15T09:34:47Z</time>
      </trkpt>
      <trkpt lat="45.34401" lon="5.81891">
        <ele>967</ele>
        <time>2013-06-15T09:34:54Z</time>
      </trkpt>
      <trkpt lat="45.34401" lon="5.81886">
        <ele>966</ele>
        <time>2013-06-15T09:34:58Z</time>
      </trkpt>
      <trkpt lat="45.34403" lon="5.81869">
        <ele>962</ele>
        <time>2013-06-15T09:35:10Z</time>
      </trkpt>
      <trkpt lat="45.34403" lon="5.81868">
        <ele>962</ele>
        <time>2013-06-15T09:35:11Z</time>
      </trkpt>
      <trkpt lat="45.34404" lon="5.8186">
        <ele>960</ele>
        <time>2013-06-15T09:35:18Z</time>
      </trkpt>
      <trkpt lat="45.34407" lon="5.8185">
        <ele>959</ele>
        <time>2013-06-15T09:35:23Z</time>
      </trkpt>
      <trkpt lat="45.34409" lon="5.81829">
        <ele>955</ele>
        <time>2013-06-15T09:35:35Z</time>
      </trkpt>
      <trkpt lat="45.34403" lon="5.81812">
        <ele>952</ele>
        <time>2013-06-15T09:35:48Z</time>
      </trkpt>
      <trkpt lat="45.34403" lon="5.81811">
        <ele>952</ele>
        <time>2013-06-15T09:35:49Z</time>
      </trkpt>
      <trkpt lat="45.34405" lon="5.81795">
        <ele>950</ele>
        <time>2013-06-15T09:35:59Z</time>
      </trkpt>
      <trkpt lat="45.34406" lon="5.81791">
        <ele>949</ele>
        <time>2013-06-15T09:36:02Z</time>
      </trkpt>
      <trkpt lat="45.34403" lon="5.81789">
        <ele>949</ele>
        <time>2013-06-15T09:36:04Z</time>
      </trkpt>
      <trkpt lat="45.34402" lon="5.81784">
        <ele>948</ele>
        <time>2013-06-15T09:36:08Z</time>
      </trkpt>
      <trkpt lat="45.34401" lon="5.81782">
        <ele>948</ele>
        <time>2013-06-15T09:36:10Z</time>
      </trkpt>
      <trkpt lat="45.34394" lon="5.81766">
        <ele>944</ele>
        <time>2013-06-15T09:36:24Z</time>
      </trkpt>
      <trkpt lat="45.34391" lon="5.81747">
        <ele>941</ele>
        <time>2013-06-15T09:36:39Z</time>
      </trkpt>
      <trkpt lat="45.34387" lon="5.81735">
        <ele>938</ele>
        <time>2013-06-15T09:36:49Z</time>
      </trkpt>
      <trkpt lat="45.34388" lon="5.81722">
        <ele>936</ele>
        <time>2013-06-15T09:37:05Z</time>
      </trkpt>
      <trkpt lat="45.34392" lon="5.81712">
        <ele>933</ele>
        <time>2013-06-15T09:37:20Z</time>
      </trkpt>
      <trkpt lat="45.34394" lon="5.81699">
        <ele>930</ele>
        <time>2013-06-15T09:37:42Z</time>
      </trkpt>
      <trkpt lat="45.34393" lon="5.81692">
        <ele>928</ele>
        <time>2013-06-15T09:37:57Z</time>
      </trkpt>
      <trkpt lat="45.34391" lon="5.8168">
        <ele>925</ele>
        <time>2013-06-15T09:38:13Z</time>
      </trkpt>
      <trkpt lat="45.34383" lon="5.81668">
        <ele>922</ele>
        <time>2013-06-15T09:38:26Z</time>
      </trkpt>
      <trkpt lat="45.34379" lon="5.81653">
        <ele>919</ele>
        <time>2013-06-15T09:38:38Z</time>
      </trkpt>
      <trkpt lat="45.34378" lon="5.81636">
        <ele>915</ele>
        <time>2013-06-15T09:38:49Z</time>
      </trkpt>
      <trkpt lat="45.34377" lon="5.81634">
        <ele>915</ele>
        <time>2013-06-15T09:39:28Z</time>
      </trkpt>
      <trkpt lat="45.34377" lon="5.81635">
        <ele>915</ele>
        <time>2013-06-15T09:39:40Z</time>
      </trkpt>
      <trkpt lat="45.34374" lon="5.8163">
        <ele>914</ele>
        <time>2013-06-15T09:39:44Z</time>
      </trkpt>
      <trkpt lat="45.34371" lon="5.81625">
        <ele>914</ele>
        <time>2013-06-15T09:39:51Z</time>
      </trkpt>
      <trkpt lat="45.3434" lon="5.81611">
        <ele>915</ele>
        <time>2013-06-15T09:40:15Z</time>
      </trkpt>
      <trkpt lat="45.34322" lon="5.81606">
        <ele>915</ele>
        <time>2013-06-15T09:40:28Z</time>
      </trkpt>
      <trkpt lat="45.34299" lon="5.81615">
        <ele>918</ele>
        <time>2013-06-15T09:40:50Z</time>
      </trkpt>
      <trkpt lat="45.34293" lon="5.8162">
        <ele>919</ele>
        <time>2013-06-15T09:40:54Z</time>
      </trkpt>
      <trkpt lat="45.34286" lon="5.8163">
        <ele>919</ele>
        <time>2013-06-15T09:41:15Z</time>
      </trkpt>
      <trkpt lat="45.34283" lon="5.81636">
        <ele>920</ele>
        <time>2013-06-15T09:41:20Z</time>
      </trkpt>
      <trkpt lat="45.34269" lon="5.81643">
        <ele>918</ele>
        <time>2013-06-15T09:41:33Z</time>
      </trkpt>
      <trkpt lat="45.34242" lon="5.81652">
        <ele>915</ele>
        <time>2013-06-15T09:41:54Z</time>
      </trkpt>
      <trkpt lat="45.34225" lon="5.81686">
        <ele>912</ele>
        <time>2013-06-15T09:42:19Z</time>
      </trkpt>
      <trkpt lat="45.34222" lon="5.81695">
        <ele>912</ele>
        <time>2013-06-15T09:42:25Z</time>
      </trkpt>
      <trkpt lat="45.34213" lon="5.81713">
        <ele>910</ele>
        <time>2013-06-15T09:42:38Z</time>
      </trkpt>
      <trkpt lat="45.34211" lon="5.81717">
        <ele>910</ele>
        <time>2013-06-15T09:42:41Z</time>
      </trkpt>
      <trkpt lat="45.34209" lon="5.8172">
        <ele>909</ele>
        <time>2013-06-15T09:42:43Z</time>
      </trkpt>
      <trkpt lat="45.342" lon="5.81733">
        <ele>907</ele>
        <time>2013-06-15T09:42:54Z</time>
      </trkpt>
      <trkpt lat="45.34196" lon="5.81737">
        <ele>907</ele>
        <time>2013-06-15T09:42:58Z</time>
      </trkpt>
      <trkpt lat="45.34185" lon="5.81736">
        <ele>905</ele>
        <time>2013-06-15T09:43:06Z</time>
      </trkpt>
      <trkpt lat="45.34162" lon="5.81723">
        <ele>902</ele>
        <time>2013-06-15T09:43:26Z</time>
      </trkpt>
      <trkpt lat="45.34155" lon="5.8172">
        <ele>901</ele>
        <time>2013-06-15T09:43:32Z</time>
      </trkpt>
      <trkpt lat="45.34144" lon="5.81716">
        <ele>899</ele>
        <time>2013-06-15T09:43:41Z</time>
      </trkpt>
      <trkpt lat="45.34135" lon="5.81704">
        <ele>898</ele>
        <time>2013-06-15T09:43:54Z</time>
      </trkpt>
      <trkpt lat="45.34145" lon="5.81677">
        <ele>898</ele>
        <time>2013-06-15T09:44:08Z</time>
      </trkpt>
      <trkpt lat="45.34147" lon="5.8167">
        <ele>898</ele>
        <time>2013-06-15T09:44:12Z</time>
      </trkpt>
      <trkpt lat="45.34155" lon="5.81645">
        <ele>898</ele>
        <time>2013-06-15T09:44:25Z</time>
      </trkpt>
      <trkpt lat="45.3417" lon="5.81606">
        <ele>898</ele>
        <time>2013-06-15T09:44:57Z</time>
      </trkpt>
      <trkpt lat="45.34174" lon="5.81592">
        <ele>898</ele>
        <time>2013-06-15T09:45:19Z</time>
      </trkpt>
      <trkpt lat="45.34174" lon="5.81588">
        <ele>898</ele>
        <time>2013-06-15T09:45:22Z</time>
      </trkpt>
      <trkpt lat="45.34175" lon="5.81584">
        <ele>898</ele>
        <time>2013-06-15T09:45:24Z</time>
      </trkpt>
      <trkpt lat="45.34161" lon="5.81553">
        <ele>896</ele>
        <time>2013-06-15T09:45:48Z</time>
      </trkpt>
      <trkpt lat="45.34157" lon="5.81545">
        <ele>895</ele>
        <time>2013-06-15T09:46:21Z</time>
      </trkpt>
      <trkpt lat="45.34155" lon="5.81538">
        <ele>895</ele>
        <time>2013-06-15T09:46:26Z</time>
      </trkpt>
      <trkpt lat="45.34152" lon="5.81533">
        <ele>895</ele>
        <time>2013-06-15T09:46:30Z</time>
      </trkpt>
      <trkpt lat="45.34144" lon="5.81506">
        <ele>894</ele>
        <time>2013-06-15T09:46:47Z</time>
      </trkpt>
      <trkpt lat="45.34137" lon="5.81502">
        <ele>894</ele>
        <time>2013-06-15T09:47:07Z</time>
      </trkpt>
      <trkpt lat="45.34138" lon="5.81501">
        <ele>893</ele>
        <time>2013-06-15T09:47:12Z</time>
      </trkpt>
      <trkpt lat="45.34144" lon="5.81503">
        <ele>893</ele>
        <time>2013-06-15T09:47:16Z</time>
      </trkpt>
      <trkpt lat="45.34165" lon="5.81488">
        <ele>893</ele>
        <time>2013-06-15T09:47:32Z</time>
      </trkpt>
      <trkpt lat="45.34164" lon="5.81486">
        <ele>893</ele>
        <time>2013-06-15T09:47:33Z</time>
      </trkpt>
      <trkpt lat="45.34161" lon="5.81481">
        <ele>893</ele>
        <time>2013-06-15T09:47:36Z</time>
      </trkpt>
      <trkpt lat="45.34158" lon="5.81471">
        <ele>892</ele>
        <time>2013-06-15T09:47:41Z</time>
      </trkpt>
      <trkpt lat="45.34166" lon="5.81467">
        <ele>891</ele>
        <time>2013-06-15T09:47:46Z</time>
      </trkpt>
      <trkpt lat="45.3417" lon="5.81457">
        <ele>890</ele>
        <time>2013-06-15T09:47:51Z</time>
      </trkpt>
      <trkpt lat="45.34172" lon="5.81451">
        <ele>890</ele>
        <time>2013-06-15T09:47:55Z</time>
      </trkpt>
      <trkpt lat="45.34174" lon="5.81445">
        <ele>890</ele>
        <time>2013-06-15T09:47:58Z</time>
      </trkpt>
      <trkpt lat="45.34177" lon="5.81425">
        <ele>886</ele>
        <time>2013-06-15T09:48:11Z</time>
      </trkpt>
      <trkpt lat="45.34178" lon="5.81422">
        <ele>886</ele>
        <time>2013-06-15T09:48:13Z</time>
      </trkpt>
      <trkpt lat="45.34179" lon="5.81412">
        <ele>884</ele>
        <time>2013-06-15T09:48:21Z</time>
      </trkpt>
      <trkpt lat="45.34176" lon="5.814">
        <ele>882</ele>
        <time>2013-06-15T09:48:27Z</time>
      </trkpt>
      <trkpt lat="45.34172" lon="5.81394">
        <ele>881</ele>
        <time>2013-06-15T09:48:31Z</time>
      </trkpt>
      <trkpt lat="45.3417" lon="5.81392">
        <ele>880</ele>
        <time>2013-06-15T09:48:33Z</time>
      </trkpt>
      <trkpt lat="45.34169" lon="5.81389">
        <ele>880</ele>
        <time>2013-06-15T09:48:42Z</time>
      </trkpt>
      <trkpt lat="45.34167" lon="5.81386">
        <ele>879</ele>
        <time>2013-06-15T09:48:46Z</time>
      </trkpt>
      <trkpt lat="45.34165" lon="5.81383">
        <ele>879</ele>
        <time>2013-06-15T09:48:48Z</time>
      </trkpt>
      <trkpt lat="45.34149" lon="5.81368">
        <ele>875</ele>
        <time>2013-06-15T09:49:05Z</time>
      </trkpt>
      <trkpt lat="45.34148" lon="5.81367">
        <ele>875</ele>
        <time>2013-06-15T09:49:06Z</time>
      </trkpt>
      <trkpt lat="45.34133" lon="5.81352">
        <ele>872</ele>
        <time>2013-06-15T09:49:21Z</time>
      </trkpt>
      <trkpt lat="45.34127" lon="5.81347">
        <ele>872</ele>
        <time>2013-06-15T09:49:28Z</time>
      </trkpt>
      <trkpt lat="45.34117" lon="5.81333">
        <ele>869</ele>
        <time>2013-06-15T09:49:41Z</time>
      </trkpt>
      <trkpt lat="45.34105" lon="5.81325">
        <ele>866</ele>
        <time>2013-06-15T09:49:51Z</time>
      </trkpt>
      <trkpt lat="45.34095" lon="5.81317">
        <ele>864</ele>
        <time>2013-06-15T09:50:01Z</time>
      </trkpt>
      <trkpt lat="45.34093" lon="5.81314">
        <ele>864</ele>
        <time>2013-06-15T09:50:04Z</time>
      </trkpt>
      <trkpt lat="45.34089" lon="5.81302">
        <ele>863</ele>
        <time>2013-06-15T09:50:11Z</time>
      </trkpt>
      <trkpt lat="45.34087" lon="5.81294">
        <ele>862</ele>
        <time>2013-06-15T09:50:16Z</time>
      </trkpt>
      <trkpt lat="45.34078" lon="5.81296">
        <ele>862</ele>
        <time>2013-06-15T09:50:42Z</time>
      </trkpt>
      <trkpt lat="45.34071" lon="5.81282">
        <ele>859</ele>
        <time>2013-06-15T09:51:07Z</time>
      </trkpt>
      <trkpt lat="45.34058" lon="5.81268">
        <ele>855</ele>
        <time>2013-06-15T09:51:22Z</time>
      </trkpt>
      <trkpt lat="45.34051" lon="5.81241">
        <ele>852</ele>
        <time>2013-06-15T09:51:42Z</time>
      </trkpt>
      <trkpt lat="45.34045" lon="5.81218">
        <ele>849</ele>
        <time>2013-06-15T09:52:00Z</time>
      </trkpt>
      <trkpt lat="45.34048" lon="5.81164">
        <ele>846</ele>
        <time>2013-06-15T09:52:19Z</time>
      </trkpt>
      <trkpt lat="45.34047" lon="5.81159">
        <ele>846</ele>
        <time>2013-06-15T09:52:20Z</time>
      </trkpt>
      <trkpt lat="45.34046" lon="5.8115">
        <ele>844</ele>
        <time>2013-06-15T09:52:24Z</time>
      </trkpt>
      <trkpt lat="45.34046" lon="5.81142">
        <ele>844</ele>
        <time>2013-06-15T09:52:29Z</time>
      </trkpt>
      <trkpt lat="45.34045" lon="5.81137">
        <ele>844</ele>
        <time>2013-06-15T09:52:33Z</time>
      </trkpt>
      <trkpt lat="45.34047" lon="5.81123">
        <ele>842</ele>
        <time>2013-06-15T09:52:40Z</time>
      </trkpt>
      <trkpt lat="45.34048" lon="5.8112">
        <ele>841</ele>
        <time>2013-06-15T09:52:42Z</time>
      </trkpt>
      <trkpt lat="45.34047" lon="5.81116">
        <ele>841</ele>
        <time>2013-06-15T09:52:45Z</time>
      </trkpt>
      <trkpt lat="45.34045" lon="5.81102">
        <ele>837</ele>
        <time>2013-06-15T09:53:03Z</time>
      </trkpt>
      <trkpt lat="45.34031" lon="5.81076">
        <ele>835</ele>
        <time>2013-06-15T09:53:26Z</time>
      </trkpt>
      <trkpt lat="45.34028" lon="5.81076">
        <ele>834</ele>
        <time>2013-06-15T09:53:47Z</time>
      </trkpt>
      <trkpt lat="45.34027" lon="5.81074">
        <ele>834</ele>
        <time>2013-06-15T09:53:53Z</time>
      </trkpt>
      <trkpt lat="45.34026" lon="5.8107">
        <ele>833</ele>
        <time>2013-06-15T09:53:57Z</time>
      </trkpt>
      <trkpt lat="45.34016" lon="5.81055">
        <ele>830</ele>
        <time>2013-06-15T09:54:13Z</time>
      </trkpt>
      <trkpt lat="45.34009" lon="5.8105">
        <ele>828</ele>
        <time>2013-06-15T09:54:22Z</time>
      </trkpt>
      <trkpt lat="45.33997" lon="5.81028">
        <ele>825</ele>
        <time>2013-06-15T09:54:40Z</time>
      </trkpt>
      <trkpt lat="45.33998" lon="5.81018">
        <ele>825</ele>
        <time>2013-06-15T09:54:45Z</time>
      </trkpt>
      <trkpt lat="45.34002" lon="5.80998">
        <ele>824</ele>
        <time>2013-06-15T09:54:55Z</time>
      </trkpt>
      <trkpt lat="45.34007" lon="5.80988">
        <ele>823</ele>
        <time>2013-06-15T09:55:02Z</time>
      </trkpt>
      <trkpt lat="45.34012" lon="5.80982">
        <ele>822</ele>
        <time>2013-06-15T09:55:07Z</time>
      </trkpt>
      <trkpt lat="45.34034" lon="5.80961">
        <ele>819</ele>
        <time>2013-06-15T09:55:28Z</time>
      </trkpt>
      <trkpt lat="45.34042" lon="5.8095">
        <ele>819</ele>
        <time>2013-06-15T09:55:48Z</time>
      </trkpt>
      <trkpt lat="45.34041" lon="5.80951">
        <ele>818</ele>
        <time>2013-06-15T09:56:21Z</time>
      </trkpt>
      <trkpt lat="45.34047" lon="5.80947">
        <ele>818</ele>
        <time>2013-06-15T09:57:01Z</time>
      </trkpt>
      <trkpt lat="45.34049" lon="5.80954">
        <ele>817</ele>
        <time>2013-06-15T09:59:01Z</time>
      </trkpt>
      <trkpt lat="45.34048" lon="5.80954">
        <ele>817</ele>
        <time>2013-06-15T09:59:06Z</time>
      </trkpt>
      <trkpt lat="45.34032" lon="5.80949">
        <ele>816</ele>
        <time>2013-06-15T09:59:25Z</time>
      </trkpt>
      <trkpt lat="45.34022" lon="5.80938">
        <ele>814</ele>
        <time>2013-06-15T09:59:36Z</time>
      </trkpt>
      <trkpt lat="45.34015" lon="5.80916">
        <ele>810</ele>
        <time>2013-06-15T09:59:54Z</time>
      </trkpt>
      <trkpt lat="45.3401" lon="5.80883">
        <ele>809</ele>
        <time>2013-06-15T10:00:15Z</time>
      </trkpt>
      <trkpt lat="45.34013" lon="5.80889">
        <ele>809</ele>
        <time>2013-06-15T10:00:27Z</time>
      </trkpt>
      <trkpt lat="45.34012" lon="5.8089">
        <ele>809</ele>
        <time>2013-06-15T10:00:46Z</time>
      </trkpt>
      <trkpt lat="45.3401" lon="5.80888">
        <ele>809</ele>
        <time>2013-06-15T10:00:48Z</time>
      </trkpt>
      <trkpt lat="45.34008" lon="5.80881">
        <ele>808</ele>
        <time>2013-06-15T10:00:53Z</time>
      </trkpt>
      <trkpt lat="45.34007" lon="5.80876">
        <ele>809</ele>
        <time>2013-06-15T10:00:56Z</time>
      </trkpt>
      <trkpt lat="45.34002" lon="5.80862">
        <ele>808</ele>
        <time>2013-06-15T10:01:05Z</time>
      </trkpt>
      <trkpt lat="45.33996" lon="5.80851">
        <ele>808</ele>
        <time>2013-06-15T10:01:13Z</time>
      </trkpt>
      <trkpt lat="45.33989" lon="5.80849">
        <ele>808</ele>
        <time>2013-06-15T10:01:18Z</time>
      </trkpt>
      <trkpt lat="45.33984" lon="5.80837">
        <ele>808</ele>
        <time>2013-06-15T10:01:26Z</time>
      </trkpt>
      <trkpt lat="45.33983" lon="5.80833">
        <ele>808</ele>
        <time>2013-06-15T10:01:28Z</time>
      </trkpt>
      <trkpt lat="45.33979" lon="5.80828">
        <ele>808</ele>
        <time>2013-06-15T10:01:32Z</time>
      </trkpt>
      <trkpt lat="45.33983" lon="5.8079">
        <ele>808</ele>
        <time>2013-06-15T10:01:52Z</time>
      </trkpt>
      <trkpt lat="45.33983" lon="5.8079">
        <ele>808</ele>
        <time>2013-06-15T10:02:17Z</time>
      </trkpt>
      <trkpt lat="45.33984" lon="5.80788">
        <ele>809</ele>
        <time>2013-06-15T10:02:34Z</time>
      </trkpt>
      <trkpt lat="45.33985" lon="5.80743">
        <ele>806</ele>
        <time>2013-06-15T10:02:59Z</time>
      </trkpt>
      <trkpt lat="45.33979" lon="5.80682">
        <ele>804</ele>
        <time>2013-06-15T10:03:30Z</time>
      </trkpt>
      <trkpt lat="45.33971" lon="5.80637">
        <ele>803</ele>
        <time>2013-06-15T10:03:53Z</time>
      </trkpt>
      <trkpt lat="45.3396" lon="5.80589">
        <ele>803</ele>
        <time>2013-06-15T10:04:20Z</time>
      </trkpt>
      <trkpt lat="45.33957" lon="5.80583">
        <ele>803</ele>
        <time>2013-06-15T10:04:49Z</time>
      </trkpt>
      <trkpt lat="45.3396" lon="5.80584">
        <ele>803</ele>
        <time>2013-06-15T10:05:45Z</time>
      </trkpt>
      <trkpt lat="45.33959" lon="5.80584">
        <ele>802</ele>
        <time>2013-06-15T10:06:29Z</time>
      </trkpt>
      <trkpt lat="45.33955" lon="5.80586">
        <ele>802</ele>
        <time>2013-06-15T10:06:33Z</time>
      </trkpt>
      <trkpt lat="45.33938" lon="5.80591">
        <ele>803</ele>
        <time>2013-06-15T10:06:43Z</time>
      </trkpt>
      <trkpt lat="45.33913" lon="5.80596">
        <ele>805</ele>
        <time>2013-06-15T10:07:11Z</time>
      </trkpt>
      <trkpt lat="45.33913" lon="5.80596">
        <ele>804</ele>
        <time>2013-06-15T10:07:32Z</time>
      </trkpt>
      <trkpt lat="45.33914" lon="5.80596">
        <ele>804</ele>
        <time>2013-06-15T10:07:56Z</time>
      </trkpt>
      <trkpt lat="45.33949" lon="5.80586">
        <ele>802</ele>
        <time>2013-06-15T10:08:22Z</time>
      </trkpt>
      <trkpt lat="45.33955" lon="5.80584">
        <ele>802</ele>
        <time>2013-06-15T10:08:31Z</time>
      </trkpt>
      <trkpt lat="45.33977" lon="5.80576">
        <ele>801</ele>
        <time>2013-06-15T10:08:47Z</time>
      </trkpt>
      <trkpt lat="45.33982" lon="5.80572">
        <ele>801</ele>
        <time>2013-06-15T10:08:50Z</time>
      </trkpt>
      <trkpt lat="45.34015" lon="5.80549">
        <ele>802</ele>
        <time>2013-06-15T10:09:16Z</time>
      </trkpt>
      <trkpt lat="45.34017" lon="5.80542">
        <ele>803</ele>
        <time>2013-06-15T10:09:27Z</time>
      </trkpt>
      <trkpt lat="45.34012" lon="5.80533">
        <ele>803</ele>
        <time>2013-06-15T10:09:35Z</time>
      </trkpt>
      <trkpt lat="45.34005" lon="5.80534">
        <ele>803</ele>
        <time>2013-06-15T10:09:39Z</time>
      </trkpt>
      <trkpt lat="45.34002" lon="5.80538">
        <ele>804</ele>
        <time>2013-06-15T10:09:43Z</time>
      </trkpt>
      <trkpt lat="45.33984" lon="5.80545">
        <ele>805</ele>
        <time>2013-06-15T10:09:54Z</time>
      </trkpt>
      <trkpt lat="45.33981" lon="5.80546">
        <ele>806</ele>
        <time>2013-06-15T10:10:17Z</time>
      </trkpt>
      <trkpt lat="45.33981" lon="5.80548">
        <ele>807</ele>
        <time>2013-06-15T10:10:55Z</time>
      </trkpt>
      <trkpt lat="45.33943" lon="5.80555">
        <ele>809</ele>
        <time>2013-06-15T10:11:19Z</time>
      </trkpt>
      <trkpt lat="45.33948" lon="5.8054">
        <ele>811</ele>
        <time>2013-06-15T10:11:40Z</time>
      </trkpt>
      <trkpt lat="45.33966" lon="5.80532">
        <ele>812</ele>
        <time>2013-06-15T10:12:31Z</time>
      </trkpt>
      <trkpt lat="45.33983" lon="5.80517">
        <ele>815</ele>
        <time>2013-06-15T10:12:45Z</time>
      </trkpt>
      <trkpt lat="45.33986" lon="5.80499">
        <ele>816</ele>
        <time>2013-06-15T10:12:56Z</time>
      </trkpt>
      <trkpt lat="45.33988" lon="5.80464">
        <ele>820</ele>
        <time>2013-06-15T10:13:15Z</time>
      </trkpt>
      <trkpt lat="45.33992" lon="5.80419">
        <ele>823</ele>
        <time>2013-06-15T10:13:37Z</time>
      </trkpt>
      <trkpt lat="45.33995" lon="5.80416">
        <ele>824</ele>
        <time>2013-06-15T10:13:40Z</time>
      </trkpt>
      <trkpt lat="45.34004" lon="5.80392">
        <ele>825</ele>
        <time>2013-06-15T10:13:59Z</time>
      </trkpt>
      <trkpt lat="45.34024" lon="5.80358">
        <ele>829</ele>
        <time>2013-06-15T10:14:19Z</time>
      </trkpt>
      <trkpt lat="45.34026" lon="5.80327">
        <ele>831</ele>
        <time>2013-06-15T10:14:35Z</time>
      </trkpt>
      <trkpt lat="45.34028" lon="5.80323">
        <ele>832</ele>
        <time>2013-06-15T10:14:37Z</time>
      </trkpt>
      <trkpt lat="45.34048" lon="5.80285">
        <ele>835</ele>
        <time>2013-06-15T10:15:00Z</time>
      </trkpt>
      <trkpt lat="45.34051" lon="5.80287">
        <ele>836</ele>
        <time>2013-06-15T10:15:22Z</time>
      </trkpt>
      <trkpt lat="45.34072" lon="5.80266">
        <ele>833</ele>
        <time>2013-06-15T10:16:05Z</time>
      </trkpt>
      <trkpt lat="45.34085" lon="5.80241">
        <ele>829</ele>
        <time>2013-06-15T10:16:25Z</time>
      </trkpt>
      <trkpt lat="45.34113" lon="5.80227">
        <ele>830</ele>
        <time>2013-06-15T10:16:50Z</time>
      </trkpt>
      <trkpt lat="45.34126" lon="5.80229">
        <ele>830</ele>
        <time>2013-06-15T10:17:10Z</time>
      </trkpt>
      <trkpt lat="45.34146" lon="5.80232">
        <ele>830</ele>
        <time>2013-06-15T10:17:49Z</time>
      </trkpt>
      <trkpt lat="45.3417" lon="5.80239">
        <ele>826</ele>
        <time>2013-06-15T10:18:08Z</time>
      </trkpt>
      <trkpt lat="45.34174" lon="5.80241">
        <ele>826</ele>
        <time>2013-06-15T10:18:11Z</time>
      </trkpt>
      <trkpt lat="45.34197" lon="5.80264">
        <ele>824</ele>
        <time>2013-06-15T10:18:33Z</time>
      </trkpt>
      <trkpt lat="45.34221" lon="5.80261">
        <ele>823</ele>
        <time>2013-06-15T10:18:50Z</time>
      </trkpt>
      <trkpt lat="45.34224" lon="5.80259">
        <ele>824</ele>
        <time>2013-06-15T10:18:53Z</time>
      </trkpt>
      <trkpt lat="45.34249" lon="5.80259">
        <ele>820</ele>
        <time>2013-06-15T10:19:14Z</time>
      </trkpt>
      <trkpt lat="45.34262" lon="5.80273">
        <ele>818</ele>
        <time>2013-06-15T10:19:29Z</time>
      </trkpt>
      <trkpt lat="45.34277" lon="5.80263">
        <ele>814</ele>
        <time>2013-06-15T10:19:46Z</time>
      </trkpt>
      <trkpt lat="45.34284" lon="5.80249">
        <ele>813</ele>
        <time>2013-06-15T10:20:09Z</time>
      </trkpt>
      <trkpt lat="45.34299" lon="5.80249">
        <ele>811</ele>
        <time>2013-06-15T10:20:33Z</time>
      </trkpt>
      <trkpt lat="45.34304" lon="5.80236">
        <ele>808</ele>
        <time>2013-06-15T10:20:50Z</time>
      </trkpt>
      <trkpt lat="45.34314" lon="5.80228">
        <ele>806</ele>
        <time>2013-06-15T10:21:04Z</time>
      </trkpt>
      <trkpt lat="45.34324" lon="5.80207">
        <ele>802</ele>
        <time>2013-06-15T10:21:23Z</time>
      </trkpt>
      <trkpt lat="45.34352" lon="5.80193">
        <ele>799</ele>
        <time>2013-06-15T10:21:50Z</time>
      </trkpt>
      <trkpt lat="45.34369" lon="5.80175">
        <ele>796</ele>
        <time>2013-06-15T10:22:06Z</time>
      </trkpt>
      <trkpt lat="45.34378" lon="5.80143">
        <ele>793</ele>
        <time>2013-06-15T10:22:25Z</time>
      </trkpt>
      <trkpt lat="45.34389" lon="5.80119">
        <ele>791</ele>
        <time>2013-06-15T10:22:34Z</time>
      </trkpt>
      <trkpt lat="45.34425" lon="5.80053">
        <ele>789</ele>
        <time>2013-06-15T10:23:10Z</time>
      </trkpt>
      <trkpt lat="45.34425" lon="5.80033">
        <ele>788</ele>
        <time>2013-06-15T10:23:21Z</time>
      </trkpt>
      <trkpt lat="45.3442" lon="5.80006">
        <ele>788</ele>
        <time>2013-06-15T10:24:01Z</time>
      </trkpt>
      <trkpt lat="45.34416" lon="5.8001">
        <ele>789</ele>
        <time>2013-06-15T10:25:03Z</time>
      </trkpt>
      <trkpt lat="45.34416" lon="5.80009">
        <ele>790</ele>
        <time>2013-06-15T10:25:50Z</time>
      </trkpt>
      <trkpt lat="45.34418" lon="5.80007">
        <ele>790</ele>
        <time>2013-06-15T10:26:40Z</time>
      </trkpt>
      <trkpt lat="45.34426" lon="5.79969">
        <ele>790</ele>
        <time>2013-06-15T10:27:37Z</time>
      </trkpt>
      <trkpt lat="45.34428" lon="5.79964">
        <ele>791</ele>
        <time>2013-06-15T10:27:39Z</time>
      </trkpt>
      <trkpt lat="45.34433" lon="5.79868">
        <ele>792</ele>
        <time>2013-06-15T10:28:22Z</time>
      </trkpt>
      <trkpt lat="45.34448" lon="5.79821">
        <ele>791</ele>
        <time>2013-06-15T10:28:52Z</time>
      </trkpt>
      <trkpt lat="45.34454" lon="5.79788">
        <ele>792</ele>
        <time>2013-06-15T10:29:16Z</time>
      </trkpt>
      <trkpt lat="45.34465" lon="5.79769">
        <ele>792</ele>
        <time>2013-06-15T10:29:30Z</time>
      </trkpt>
      <trkpt lat="45.34465" lon="5.79768">
        <ele>792</ele>
        <time>2013-06-15T10:29:31Z</time>
      </trkpt>
      <trkpt lat="45.34471" lon="5.79756">
        <ele>792</ele>
        <time>2013-06-15T10:29:39Z</time>
      </trkpt>
      <trkpt lat="45.34472" lon="5.79739">
        <ele>792</ele>
        <time>2013-06-15T10:29:48Z</time>
      </trkpt>
      <trkpt lat="45.3448" lon="5.79715">
        <ele>792</ele>
        <time>2013-06-15T10:30:03Z</time>
      </trkpt>
      <trkpt lat="45.3448" lon="5.79706">
        <ele>793</ele>
        <time>2013-06-15T10:30:09Z</time>
      </trkpt>
      <trkpt lat="45.34477" lon="5.79698">
        <ele>792</ele>
        <time>2013-06-15T10:30:12Z</time>
      </trkpt>
      <trkpt lat="45.345" lon="5.79688">
        <ele>792</ele>
        <time>2013-06-15T10:30:22Z</time>
      </trkpt>
      <trkpt lat="45.34503" lon="5.79684">
        <ele>793</ele>
        <time>2013-06-15T10:30:25Z</time>
      </trkpt>
      <trkpt lat="45.34511" lon="5.79671">
        <ele>793</ele>
        <time>2013-06-15T10:30:35Z</time>
      </trkpt>
      <trkpt lat="45.34517" lon="5.79669">
        <ele>793</ele>
        <time>2013-06-15T10:30:37Z</time>
      </trkpt>
      <trkpt lat="45.34526" lon="5.79668">
        <ele>793</ele>
        <time>2013-06-15T10:30:42Z</time>
      </trkpt>
      <trkpt lat="45.34561" lon="5.7965">
        <ele>793</ele>
        <time>2013-06-15T10:31:01Z</time>
      </trkpt>
      <trkpt lat="45.34561" lon="5.79631">
        <ele>793</ele>
        <time>2013-06-15T10:31:15Z</time>
      </trkpt>
      <trkpt lat="45.34565" lon="5.79621">
        <ele>793</ele>
        <time>2013-06-15T10:31:21Z</time>
      </trkpt>
      <trkpt lat="45.34581" lon="5.79581">
        <ele>793</ele>
        <time>2013-06-15T10:31:41Z</time>
      </trkpt>
      <trkpt lat="45.34583" lon="5.79568">
        <ele>793</ele>
        <time>2013-06-15T10:31:48Z</time>
      </trkpt>
      <trkpt lat="45.34586" lon="5.79563">
        <ele>793</ele>
        <time>2013-06-15T10:31:52Z</time>
      </trkpt>
      <trkpt lat="45.34589" lon="5.79553">
        <ele>793</ele>
        <time>2013-06-15T10:31:57Z</time>
      </trkpt>
      <trkpt lat="45.34594" lon="5.79534">
        <ele>793</ele>
        <time>2013-06-15T10:32:13Z</time>
      </trkpt>
      <trkpt lat="45.34613" lon="5.79497">
        <ele>793</ele>
        <time>2013-06-15T10:32:36Z</time>
      </trkpt>
      <trkpt lat="45.34614" lon="5.79495">
        <ele>792</ele>
        <time>2013-06-15T10:32:38Z</time>
      </trkpt>
      <trkpt lat="45.34619" lon="5.79493">
        <ele>793</ele>
        <time>2013-06-15T10:32:42Z</time>
      </trkpt>
      <trkpt lat="45.34635" lon="5.79474">
        <ele>793</ele>
        <time>2013-06-15T10:32:56Z</time>
      </trkpt>
      <trkpt lat="45.3465" lon="5.79452">
        <ele>792</ele>
        <time>2013-06-15T10:33:09Z</time>
      </trkpt>
      <trkpt lat="45.34665" lon="5.79431">
        <ele>792</ele>
        <time>2013-06-15T10:33:21Z</time>
      </trkpt>
      <trkpt lat="45.34666" lon="5.79413">
        <ele>792</ele>
        <time>2013-06-15T10:33:36Z</time>
      </trkpt>
      <trkpt lat="45.34677" lon="5.79388">
        <ele>792</ele>
        <time>2013-06-15T10:33:52Z</time>
      </trkpt>
      <trkpt lat="45.34679" lon="5.79382">
        <ele>792</ele>
        <time>2013-06-15T10:33:55Z</time>
      </trkpt>
      <trkpt lat="45.34684" lon="5.79375">
        <ele>793</ele>
        <time>2013-06-15T10:33:59Z</time>
      </trkpt>
      <trkpt lat="45.34684" lon="5.79372">
        <ele>793</ele>
        <time>2013-06-15T10:34:01Z</time>
      </trkpt>
      <trkpt lat="45.34687" lon="5.79365">
        <ele>794</ele>
        <time>2013-06-15T10:34:05Z</time>
      </trkpt>
      <trkpt lat="45.34706" lon="5.79347">
        <ele>796</ele>
        <time>2013-06-15T10:34:27Z</time>
      </trkpt>
      <trkpt lat="45.34713" lon="5.7935">
        <ele>796</ele>
        <time>2013-06-15T10:35:00Z</time>
      </trkpt>
      <trkpt lat="45.34713" lon="5.79338">
        <ele>799</ele>
        <time>2013-06-15T10:35:58Z</time>
      </trkpt>
      <trkpt lat="45.34719" lon="5.79308">
        <ele>803</ele>
        <time>2013-06-15T10:37:32Z</time>
      </trkpt>
      <trkpt lat="45.34718" lon="5.79278">
        <ele>806</ele>
        <time>2013-06-15T10:37:46Z</time>
      </trkpt>
      <trkpt lat="45.34724" lon="5.79254">
        <ele>809</ele>
        <time>2013-06-15T10:38:06Z</time>
      </trkpt>
      <trkpt lat="45.34737" lon="5.79235">
        <ele>812</ele>
        <time>2013-06-15T10:38:22Z</time>
      </trkpt>
      <trkpt lat="45.34756" lon="5.79225">
        <ele>815</ele>
        <time>2013-06-15T10:38:36Z</time>
      </trkpt>
      <trkpt lat="45.34767" lon="5.79217">
        <ele>817</ele>
        <time>2013-06-15T10:38:45Z</time>
      </trkpt>
      <trkpt lat="45.34787" lon="5.79203">
        <ele>820</ele>
        <time>2013-06-15T10:38:59Z</time>
      </trkpt>
      <trkpt lat="45.34792" lon="5.79199">
        <ele>821</ele>
        <time>2013-06-15T10:39:05Z</time>
      </trkpt>
      <trkpt lat="45.34811" lon="5.7919">
        <ele>824</ele>
        <time>2013-06-15T10:39:23Z</time>
      </trkpt>
      <trkpt lat="45.34832" lon="5.79184">
        <ele>827</ele>
        <time>2013-06-15T10:39:42Z</time>
      </trkpt>
      <trkpt lat="45.34853" lon="5.79177">
        <ele>830</ele>
        <time>2013-06-15T10:39:58Z</time>
      </trkpt>
      <trkpt lat="45.34867" lon="5.79177">
        <ele>831</ele>
        <time>2013-06-15T10:40:50Z</time>
      </trkpt>
      <trkpt lat="45.34837" lon="5.79169">
        <ele>831</ele>
        <time>2013-06-15T10:42:03Z</time>
      </trkpt>
      <trkpt lat="45.34883" lon="5.79152">
        <ele>831</ele>
        <time>2013-06-15T10:42:32Z</time>
      </trkpt>
      <trkpt lat="45.34888" lon="5.79154">
        <ele>833</ele>
        <time>2013-06-15T10:42:55Z</time>
      </trkpt>
      <trkpt lat="45.34895" lon="5.79153">
        <ele>836</ele>
        <time>2013-06-15T10:43:10Z</time>
      </trkpt>
      <trkpt lat="45.34912" lon="5.79149">
        <ele>838</ele>
        <time>2013-06-15T10:43:26Z</time>
      </trkpt>
      <trkpt lat="45.34928" lon="5.79125">
        <ele>842</ele>
        <time>2013-06-15T10:43:43Z</time>
      </trkpt>
      <trkpt lat="45.34945" lon="5.79095">
        <ele>845</ele>
        <time>2013-06-15T10:44:05Z</time>
      </trkpt>
      <trkpt lat="45.34947" lon="5.79052">
        <ele>848</ele>
        <time>2013-06-15T10:44:28Z</time>
      </trkpt>
      <trkpt lat="45.34955" lon="5.79016">
        <ele>851</ele>
        <time>2013-06-15T10:44:48Z</time>
      </trkpt>
      <trkpt lat="45.34967" lon="5.79011">
        <ele>853</ele>
        <time>2013-06-15T10:44:58Z</time>
      </trkpt>
      <trkpt lat="45.35008" lon="5.7901">
        <ele>855</ele>
        <time>2013-06-15T10:45:35Z</time>
      </trkpt>
      <trkpt lat="45.35011" lon="5.7901">
        <ele>856</ele>
        <time>2013-06-15T10:46:31Z</time>
      </trkpt>
      <trkpt lat="45.35033" lon="5.78987">
        <ele>856</ele>
        <time>2013-06-15T10:46:52Z</time>
      </trkpt>
      <trkpt lat="45.35035" lon="5.78986">
        <ele>856</ele>
        <time>2013-06-15T10:47:04Z</time>
      </trkpt>
      <trkpt lat="45.35057" lon="5.78974">
        <ele>857</ele>
        <time>2013-06-15T10:47:25Z</time>
      </trkpt>
      <trkpt lat="45.35059" lon="5.78966">
        <ele>857</ele>
        <time>2013-06-15T10:47:34Z</time>
      </trkpt>
      <trkpt lat="45.35056" lon="5.78959">
        <ele>857</ele>
        <time>2013-06-15T10:47:38Z</time>
      </trkpt>
      <trkpt lat="45.35056" lon="5.7895">
        <ele>856</ele>
        <time>2013-06-15T10:47:43Z</time>
      </trkpt>
      <trkpt lat="45.35055" lon="5.78945">
        <ele>856</ele>
        <time>2013-06-15T10:48:17Z</time>
      </trkpt>
      <trkpt lat="45.35048" lon="5.78943">
        <ele>855</ele>
        <time>2013-06-15T10:48:23Z</time>
      </trkpt>
      <trkpt lat="45.35043" lon="5.78922">
        <ele>855</ele>
        <time>2013-06-15T10:48:49Z</time>
      </trkpt>
      <trkpt lat="45.35047" lon="5.78923">
        <ele>855</ele>
        <time>2013-06-15T10:50:41Z</time>
      </trkpt>
      <trkpt lat="45.35027" lon="5.78904">
        <ele>853</ele>
        <time>2013-06-15T10:59:28Z</time>
      </trkpt>
      <trkpt lat="45.35048" lon="5.78922">
        <ele>852</ele>
        <time>2013-06-15T11:00:29Z</time>
      </trkpt>
      <trkpt lat="45.35039" lon="5.78917">
        <ele>852</ele>
        <time>2013-06-15T11:01:30Z</time>
      </trkpt>
      <trkpt lat="45.35046" lon="5.7892">
        <ele>852</ele>
        <time>2013-06-15T11:05:28Z</time>
      </trkpt>
      <trkpt lat="45.35033" lon="5.78912">
        <ele>852</ele>
        <time>2013-06-15T11:08:40Z</time>
      </trkpt>
      <trkpt lat="45.3504" lon="5.78916">
        <ele>852</ele>
        <time>2013-06-15T11:09:34Z</time>
      </trkpt>
      <trkpt lat="45.35045" lon="5.78918">
        <ele>852</ele>
        <time>2013-06-15T11:11:19Z</time>
      </trkpt>
      <trkpt lat="45.35035" lon="5.78916">
        <ele>851</ele>
        <time>2013-06-15T11:12:43Z</time>
      </trkpt>
      <trkpt lat="45.35044" lon="5.78924">
        <ele>851</ele>
        <time>2013-06-15T11:14:09Z</time>
      </trkpt>
      <trkpt lat="45.35039" lon="5.78907">
        <ele>851</ele>
        <time>2013-06-15T11:16:21Z</time>
      </trkpt>
      <trkpt lat="45.35043" lon="5.78918">
        <ele>851</ele>
        <time>2013-06-15T11:17:15Z</time>
      </trkpt>
      <trkpt lat="45.35047" lon="5.78932">
        <ele>852</ele>
        <time>2013-06-15T11:30:13Z</time>
      </trkpt>
      <trkpt lat="45.3506" lon="5.7896">
        <ele>853</ele>
        <time>2013-06-15T11:30:30Z</time>
      </trkpt>
      <trkpt lat="45.35064" lon="5.78964">
        <ele>853</ele>
        <time>2013-06-15T11:30:39Z</time>
      </trkpt>
      <trkpt lat="45.35084" lon="5.78955">
        <ele>854</ele>
        <time>2013-06-15T11:31:00Z</time>
      </trkpt>
      <trkpt lat="45.35112" lon="5.78946">
        <ele>855</ele>
        <time>2013-06-15T11:31:20Z</time>
      </trkpt>
      <trkpt lat="45.35139" lon="5.78934">
        <ele>859</ele>
        <time>2013-06-15T11:31:41Z</time>
      </trkpt>
      <trkpt lat="45.35151" lon="5.78931">
        <ele>860</ele>
        <time>2013-06-15T11:31:51Z</time>
      </trkpt>
      <trkpt lat="45.35153" lon="5.78931">
        <ele>860</ele>
        <time>2013-06-15T11:31:54Z</time>
      </trkpt>
      <trkpt lat="45.35177" lon="5.7892">
        <ele>860</ele>
        <time>2013-06-15T11:32:14Z</time>
      </trkpt>
      <trkpt lat="45.35187" lon="5.78918">
        <ele>860</ele>
        <time>2013-06-15T11:32:23Z</time>
      </trkpt>
      <trkpt lat="45.35222" lon="5.78912">
        <ele>860</ele>
        <time>2013-06-15T11:32:48Z</time>
      </trkpt>
      <trkpt lat="45.35227" lon="5.7891">
        <ele>860</ele>
        <time>2013-06-15T11:32:52Z</time>
      </trkpt>
      <trkpt lat="45.35257" lon="5.78921">
        <ele>861</ele>
        <time>2013-06-15T11:33:16Z</time>
      </trkpt>
      <trkpt lat="45.35263" lon="5.78921">
        <ele>861</ele>
        <time>2013-06-15T11:33:46Z</time>
      </trkpt>
      <trkpt lat="45.35264" lon="5.78921">
        <ele>861</ele>
        <time>2013-06-15T11:34:04Z</time>
      </trkpt>
      <trkpt lat="45.35277" lon="5.78918">
        <ele>861</ele>
        <time>2013-06-15T11:34:14Z</time>
      </trkpt>
      <trkpt lat="45.35307" lon="5.78917">
        <ele>862</ele>
        <time>2013-06-15T11:34:40Z</time>
      </trkpt>
      <trkpt lat="45.35341" lon="5.78938">
        <ele>865</ele>
        <time>2013-06-15T11:35:09Z</time>
      </trkpt>
      <trkpt lat="45.35359" lon="5.78954">
        <ele>867</ele>
        <time>2013-06-15T11:35:38Z</time>
      </trkpt>
      <trkpt lat="45.35397" lon="5.78981">
        <ele>870</ele>
        <time>2013-06-15T11:36:13Z</time>
      </trkpt>
      <trkpt lat="45.35422" lon="5.78998">
        <ele>873</ele>
        <time>2013-06-15T11:36:41Z</time>
      </trkpt>
      <trkpt lat="45.35446" lon="5.79018">
        <ele>876</ele>
        <time>2013-06-15T11:37:14Z</time>
      </trkpt>
      <trkpt lat="45.35477" lon="5.79027">
        <ele>878</ele>
        <time>2013-06-15T11:37:41Z</time>
      </trkpt>
      <trkpt lat="45.35494" lon="5.79039">
        <ele>880</ele>
        <time>2013-06-15T11:38:01Z</time>
      </trkpt>
      <trkpt lat="45.35529" lon="5.79053">
        <ele>882</ele>
        <time>2013-06-15T11:38:35Z</time>
      </trkpt>
      <trkpt lat="45.35565" lon="5.79063">
        <ele>885</ele>
        <time>2013-06-15T11:39:13Z</time>
      </trkpt>
      <trkpt lat="45.35588" lon="5.79058">
        <ele>887</ele>
        <time>2013-06-15T11:39:49Z</time>
      </trkpt>
      <trkpt lat="45.35604" lon="5.79022">
        <ele>889</ele>
        <time>2013-06-15T11:40:28Z</time>
      </trkpt>
      <trkpt lat="45.35688" lon="5.79034">
        <ele>892</ele>
        <time>2013-06-15T11:41:10Z</time>
      </trkpt>
      <trkpt lat="45.35694" lon="5.79035">
        <ele>895</ele>
        <time>2013-06-15T11:41:47Z</time>
      </trkpt>
      <trkpt lat="45.35718" lon="5.79049">
        <ele>897</ele>
        <time>2013-06-15T11:42:25Z</time>
      </trkpt>
      <trkpt lat="45.35737" lon="5.79055">
        <ele>898</ele>
        <time>2013-06-15T11:43:01Z</time>
      </trkpt>
      <trkpt lat="45.3576" lon="5.79064">
        <ele>900</ele>
        <time>2013-06-15T11:43:41Z</time>
      </trkpt>
      <trkpt lat="45.35788" lon="5.79074">
        <ele>903</ele>
        <time>2013-06-15T11:44:36Z</time>
      </trkpt>
      <trkpt lat="45.35814" lon="5.79085">
        <ele>906</ele>
        <time>2013-06-15T11:45:14Z</time>
      </trkpt>
      <trkpt lat="45.35864" lon="5.7908">
        <ele>908</ele>
        <time>2013-06-15T11:45:49Z</time>
      </trkpt>
      <trkpt lat="45.36215" lon="5.79146">
        <ele>911</ele>
        <time>2013-06-15T11:46:37Z</time>
      </trkpt>
      <trkpt lat="45.36243" lon="5.79143">
        <ele>914</ele>
        <time>2013-06-15T11:47:04Z</time>
      </trkpt>
      <trkpt lat="45.36262" lon="5.79145">
        <ele>917</ele>
        <time>2013-06-15T11:47:24Z</time>
      </trkpt>
      <trkpt lat="45.36287" lon="5.79127">
        <ele>920</ele>
        <time>2013-06-15T11:47:41Z</time>
      </trkpt>
      <trkpt lat="45.36302" lon="5.7913">
        <ele>923</ele>
        <time>2013-06-15T11:48:01Z</time>
      </trkpt>
      <trkpt lat="45.36322" lon="5.79146">
        <ele>924</ele>
        <time>2013-06-15T11:48:12Z</time>
      </trkpt>
      <trkpt lat="45.36329" lon="5.79147">
        <ele>925</ele>
        <time>2013-06-15T11:48:16Z</time>
      </trkpt>
      <trkpt lat="45.36333" lon="5.7915">
        <ele>926</ele>
        <time>2013-06-15T11:48:19Z</time>
      </trkpt>
      <trkpt lat="45.36342" lon="5.7915">
        <ele>929</ele>
        <time>2013-06-15T11:48:35Z</time>
      </trkpt>
      <trkpt lat="45.3636" lon="5.79168">
        <ele>933</ele>
        <time>2013-06-15T11:48:52Z</time>
      </trkpt>
      <trkpt lat="45.36375" lon="5.79191">
        <ele>936</ele>
        <time>2013-06-15T11:49:10Z</time>
      </trkpt>
      <trkpt lat="45.36379" lon="5.79193">
        <ele>936</ele>
        <time>2013-06-15T11:49:13Z</time>
      </trkpt>
      <trkpt lat="45.364" lon="5.79208">
        <ele>940</ele>
        <time>2013-06-15T11:49:33Z</time>
      </trkpt>
      <trkpt lat="45.36419" lon="5.79213">
        <ele>943</ele>
        <time>2013-06-15T11:49:50Z</time>
      </trkpt>
      <trkpt lat="45.36435" lon="5.79224">
        <ele>946</ele>
        <time>2013-06-15T11:50:07Z</time>
      </trkpt>
      <trkpt lat="45.36455" lon="5.79241">
        <ele>949</ele>
        <time>2013-06-15T11:50:24Z</time>
      </trkpt>
      <trkpt lat="45.36465" lon="5.79261">
        <ele>951</ele>
        <time>2013-06-15T11:50:40Z</time>
      </trkpt>
      <trkpt lat="45.36472" lon="5.79289">
        <ele>955</ele>
        <time>2013-06-15T11:51:01Z</time>
      </trkpt>
      <trkpt lat="45.36487" lon="5.79304">
        <ele>958</ele>
        <time>2013-06-15T11:51:20Z</time>
      </trkpt>
      <trkpt lat="45.3648" lon="5.79315">
        <ele>958</ele>
        <time>2013-06-15T11:51:30Z</time>
      </trkpt>
      <trkpt lat="45.36459" lon="5.79329">
        <ele>956</ele>
        <time>2013-06-15T11:51:58Z</time>
      </trkpt>
      <trkpt lat="45.36455" lon="5.79326">
        <ele>957</ele>
        <time>2013-06-15T11:52:46Z</time>
      </trkpt>
      <trkpt lat="45.36468" lon="5.79308">
        <ele>960</ele>
        <time>2013-06-15T11:53:25Z</time>
      </trkpt>
      <trkpt lat="45.36483" lon="5.79294">
        <ele>960</ele>
        <time>2013-06-15T11:53:56Z</time>
      </trkpt>
      <trkpt lat="45.36487" lon="5.79307">
        <ele>962</ele>
        <time>2013-06-15T11:54:03Z</time>
      </trkpt>
      <trkpt lat="45.36507" lon="5.79338">
        <ele>965</ele>
        <time>2013-06-15T11:54:22Z</time>
      </trkpt>
      <trkpt lat="45.36533" lon="5.79349">
        <ele>968</ele>
        <time>2013-06-15T11:54:42Z</time>
      </trkpt>
      <trkpt lat="45.36563" lon="5.79349">
        <ele>972</ele>
        <time>2013-06-15T11:55:07Z</time>
      </trkpt>
      <trkpt lat="45.36598" lon="5.79344">
        <ele>974</ele>
        <time>2013-06-15T11:55:35Z</time>
      </trkpt>
      <trkpt lat="45.36628" lon="5.79327">
        <ele>976</ele>
        <time>2013-06-15T11:55:57Z</time>
      </trkpt>
      <trkpt lat="45.36631" lon="5.79326">
        <ele>977</ele>
        <time>2013-06-15T11:55:59Z</time>
      </trkpt>
      <trkpt lat="45.36638" lon="5.79337">
        <ele>977</ele>
        <time>2013-06-15T11:56:04Z</time>
      </trkpt>
      <trkpt lat="45.36641" lon="5.79338">
        <ele>977</ele>
        <time>2013-06-15T11:56:08Z</time>
      </trkpt>
      <trkpt lat="45.36646" lon="5.79337">
        <ele>977</ele>
        <time>2013-06-15T11:56:13Z</time>
      </trkpt>
      <trkpt lat="45.36653" lon="5.79337">
        <ele>978</ele>
        <time>2013-06-15T11:56:15Z</time>
      </trkpt>
      <trkpt lat="45.36677" lon="5.79333">
        <ele>981</ele>
        <time>2013-06-15T11:56:34Z</time>
      </trkpt>
      <trkpt lat="45.36696" lon="5.79326">
        <ele>985</ele>
        <time>2013-06-15T11:56:52Z</time>
      </trkpt>
      <trkpt lat="45.36721" lon="5.79331">
        <ele>988</ele>
        <time>2013-06-15T11:57:09Z</time>
      </trkpt>
      <trkpt lat="45.36727" lon="5.79335">
        <ele>989</ele>
        <time>2013-06-15T11:57:15Z</time>
      </trkpt>
      <trkpt lat="45.36748" lon="5.79336">
        <ele>992</ele>
        <time>2013-06-15T11:57:31Z</time>
      </trkpt>
      <trkpt lat="45.36754" lon="5.79335">
        <ele>994</ele>
        <time>2013-06-15T11:57:39Z</time>
      </trkpt>
      <trkpt lat="45.36766" lon="5.79343">
        <ele>998</ele>
        <time>2013-06-15T11:57:54Z</time>
      </trkpt>
      <trkpt lat="45.36774" lon="5.79349">
        <ele>1000</ele>
        <time>2013-06-15T11:58:08Z</time>
      </trkpt>
      <trkpt lat="45.36786" lon="5.79351">
        <ele>1003</ele>
        <time>2013-06-15T11:58:20Z</time>
      </trkpt>
      <trkpt lat="45.368" lon="5.79364">
        <ele>1006</ele>
        <time>2013-06-15T11:58:35Z</time>
      </trkpt>
      <trkpt lat="45.36811" lon="5.79372">
        <ele>1008</ele>
        <time>2013-06-15T11:58:49Z</time>
      </trkpt>
      <trkpt lat="45.36832" lon="5.79375">
        <ele>1011</ele>
        <time>2013-06-15T11:59:06Z</time>
      </trkpt>
      <trkpt lat="45.36834" lon="5.79378">
        <ele>1012</ele>
        <time>2013-06-15T11:59:09Z</time>
      </trkpt>
      <trkpt lat="45.36853" lon="5.79382">
        <ele>1013</ele>
        <time>2013-06-15T11:59:25Z</time>
      </trkpt>
      <trkpt lat="45.36877" lon="5.79384">
        <ele>1016</ele>
        <time>2013-06-15T11:59:42Z</time>
      </trkpt>
      <trkpt lat="45.36896" lon="5.79403">
        <ele>1017</ele>
        <time>2013-06-15T12:01:31Z</time>
      </trkpt>
      <trkpt lat="45.369" lon="5.7939">
        <ele>1020</ele>
        <time>2013-06-15T12:01:50Z</time>
      </trkpt>
      <trkpt lat="45.36923" lon="5.7938">
        <ele>1023</ele>
        <time>2013-06-15T12:02:12Z</time>
      </trkpt>
      <trkpt lat="45.36942" lon="5.79377">
        <ele>1026</ele>
        <time>2013-06-15T12:02:33Z</time>
      </trkpt>
      <trkpt lat="45.36961" lon="5.79381">
        <ele>1030</ele>
        <time>2013-06-15T12:02:54Z</time>
      </trkpt>
      <trkpt lat="45.36977" lon="5.79379">
        <ele>1033</ele>
        <time>2013-06-15T12:03:12Z</time>
      </trkpt>
      <trkpt lat="45.36995" lon="5.79354">
        <ele>1036</ele>
        <time>2013-06-15T12:03:29Z</time>
      </trkpt>
      <trkpt lat="45.37013" lon="5.79343">
        <ele>1039</ele>
        <time>2013-06-15T12:03:43Z</time>
      </trkpt>
      <trkpt lat="45.37026" lon="5.79337">
        <ele>1042</ele>
        <time>2013-06-15T12:04:01Z</time>
      </trkpt>
      <trkpt lat="45.37035" lon="5.79329">
        <ele>1046</ele>
        <time>2013-06-15T12:04:37Z</time>
      </trkpt>
      <trkpt lat="45.37042" lon="5.79322">
        <ele>1048</ele>
        <time>2013-06-15T12:04:52Z</time>
      </trkpt>
      <trkpt lat="45.37051" lon="5.79321">
        <ele>1050</ele>
        <time>2013-06-15T12:04:56Z</time>
      </trkpt>
      <trkpt lat="45.37056" lon="5.79306">
        <ele>1051</ele>
        <time>2013-06-15T12:05:03Z</time>
      </trkpt>
      <trkpt lat="45.37072" lon="5.79291">
        <ele>1054</ele>
        <time>2013-06-15T12:05:17Z</time>
      </trkpt>
      <trkpt lat="45.37093" lon="5.79286">
        <ele>1057</ele>
        <time>2013-06-15T12:05:34Z</time>
      </trkpt>
      <trkpt lat="45.37107" lon="5.79295">
        <ele>1060</ele>
        <time>2013-06-15T12:05:52Z</time>
      </trkpt>
      <trkpt lat="45.37129" lon="5.79278">
        <ele>1063</ele>
        <time>2013-06-15T12:06:15Z</time>
      </trkpt>
      <trkpt lat="45.37143" lon="5.79281">
        <ele>1067</ele>
        <time>2013-06-15T12:06:32Z</time>
      </trkpt>
      <trkpt lat="45.37165" lon="5.79283">
        <ele>1070</ele>
        <time>2013-06-15T12:06:48Z</time>
      </trkpt>
      <trkpt lat="45.37177" lon="5.79287">
        <ele>1073</ele>
        <time>2013-06-15T12:07:05Z</time>
      </trkpt>
      <trkpt lat="45.37195" lon="5.79296">
        <ele>1076</ele>
        <time>2013-06-15T12:07:20Z</time>
      </trkpt>
      <trkpt lat="45.37221" lon="5.79313">
        <ele>1079</ele>
        <time>2013-06-15T12:07:39Z</time>
      </trkpt>
      <trkpt lat="45.37236" lon="5.79333">
        <ele>1082</ele>
        <time>2013-06-15T12:08:03Z</time>
      </trkpt>
      <trkpt lat="45.37258" lon="5.79354">
        <ele>1085</ele>
        <time>2013-06-15T12:08:23Z</time>
      </trkpt>
      <trkpt lat="45.3726" lon="5.79348">
        <ele>1088</ele>
        <time>2013-06-15T12:08:39Z</time>
      </trkpt>
      <trkpt lat="45.37261" lon="5.79333">
        <ele>1091</ele>
        <time>2013-06-15T12:08:55Z</time>
      </trkpt>
      <trkpt lat="45.37274" lon="5.79313">
        <ele>1094</ele>
        <time>2013-06-15T12:09:08Z</time>
      </trkpt>
      <trkpt lat="45.37294" lon="5.79309">
        <ele>1097</ele>
        <time>2013-06-15T12:09:24Z</time>
      </trkpt>
      <trkpt lat="45.37314" lon="5.79318">
        <ele>1100</ele>
        <time>2013-06-15T12:09:39Z</time>
      </trkpt>
      <trkpt lat="45.37332" lon="5.79332">
        <ele>1104</ele>
        <time>2013-06-15T12:09:58Z</time>
      </trkpt>
      <trkpt lat="45.37347" lon="5.79341">
        <ele>1107</ele>
        <time>2013-06-15T12:10:13Z</time>
      </trkpt>
      <trkpt lat="45.37366" lon="5.79343">
        <ele>1110</ele>
        <time>2013-06-15T12:10:29Z</time>
      </trkpt>
      <trkpt lat="45.37369" lon="5.79337">
        <ele>1111</ele>
        <time>2013-06-15T12:10:36Z</time>
      </trkpt>
      <trkpt lat="45.37372" lon="5.79327">
        <ele>1114</ele>
        <time>2013-06-15T12:10:48Z</time>
      </trkpt>
      <trkpt lat="45.37374" lon="5.79325">
        <ele>1116</ele>
        <time>2013-06-15T12:10:51Z</time>
      </trkpt>
      <trkpt lat="45.37373" lon="5.79297">
        <ele>1119</ele>
        <time>2013-06-15T12:11:06Z</time>
      </trkpt>
      <trkpt lat="45.3737" lon="5.79279">
        <ele>1122</ele>
        <time>2013-06-15T12:11:17Z</time>
      </trkpt>
      <trkpt lat="45.37368" lon="5.79271">
        <ele>1123</ele>
        <time>2013-06-15T12:11:24Z</time>
      </trkpt>
      <trkpt lat="45.37367" lon="5.79264">
        <ele>1124</ele>
        <time>2013-06-15T12:11:26Z</time>
      </trkpt>
      <trkpt lat="45.37354" lon="5.79241">
        <ele>1127</ele>
        <time>2013-06-15T12:11:42Z</time>
      </trkpt>
      <trkpt lat="45.3735" lon="5.79234">
        <ele>1129</ele>
        <time>2013-06-15T12:11:50Z</time>
      </trkpt>
      <trkpt lat="45.37343" lon="5.79219">
        <ele>1133</ele>
        <time>2013-06-15T12:12:02Z</time>
      </trkpt>
      <trkpt lat="45.3734" lon="5.79206">
        <ele>1134</ele>
        <time>2013-06-15T12:12:11Z</time>
      </trkpt>
      <trkpt lat="45.37332" lon="5.79193">
        <ele>1138</ele>
        <time>2013-06-15T12:12:25Z</time>
      </trkpt>
      <trkpt lat="45.37327" lon="5.79192">
        <ele>1139</ele>
        <time>2013-06-15T12:12:29Z</time>
      </trkpt>
      <trkpt lat="45.3732" lon="5.79186">
        <ele>1142</ele>
        <time>2013-06-15T12:12:39Z</time>
      </trkpt>
      <trkpt lat="45.3731" lon="5.79181">
        <ele>1145</ele>
        <time>2013-06-15T12:12:51Z</time>
      </trkpt>
      <trkpt lat="45.37301" lon="5.79177">
        <ele>1148</ele>
        <time>2013-06-15T12:13:04Z</time>
      </trkpt>
      <trkpt lat="45.3729" lon="5.79165">
        <ele>1151</ele>
        <time>2013-06-15T12:13:15Z</time>
      </trkpt>
      <trkpt lat="45.37285" lon="5.7913">
        <ele>1153</ele>
        <time>2013-06-15T12:13:46Z</time>
      </trkpt>
      <trkpt lat="45.37269" lon="5.79138">
        <ele>1154</ele>
        <time>2013-06-15T12:14:21Z</time>
      </trkpt>
      <trkpt lat="45.37259" lon="5.79159">
        <ele>1157</ele>
        <time>2013-06-15T12:16:47Z</time>
      </trkpt>
      <trkpt lat="45.37251" lon="5.79145">
        <ele>1160</ele>
        <time>2013-06-15T12:17:03Z</time>
      </trkpt>
      <trkpt lat="45.37245" lon="5.79129">
        <ele>1163</ele>
        <time>2013-06-15T12:17:17Z</time>
      </trkpt>
      <trkpt lat="45.3724" lon="5.79124">
        <ele>1166</ele>
        <time>2013-06-15T12:17:25Z</time>
      </trkpt>
      <trkpt lat="45.37234" lon="5.7912">
        <ele>1169</ele>
        <time>2013-06-15T12:17:43Z</time>
      </trkpt>
      <trkpt lat="45.37225" lon="5.79106">
        <ele>1172</ele>
        <time>2013-06-15T12:17:55Z</time>
      </trkpt>
      <trkpt lat="45.3722" lon="5.79088">
        <ele>1175</ele>
        <time>2013-06-15T12:18:14Z</time>
      </trkpt>
      <trkpt lat="45.3721" lon="5.79085">
        <ele>1178</ele>
        <time>2013-06-15T12:18:30Z</time>
      </trkpt>
      <trkpt lat="45.37209" lon="5.79086">
        <ele>1180</ele>
        <time>2013-06-15T12:18:44Z</time>
      </trkpt>
      <trkpt lat="45.372" lon="5.79066">
        <ele>1184</ele>
        <time>2013-06-15T12:18:58Z</time>
      </trkpt>
      <trkpt lat="45.37196" lon="5.7905">
        <ele>1186</ele>
        <time>2013-06-15T12:19:31Z</time>
      </trkpt>
      <trkpt lat="45.37187" lon="5.79033">
        <ele>1190</ele>
        <time>2013-06-15T12:19:47Z</time>
      </trkpt>
      <trkpt lat="45.37182" lon="5.79021">
        <ele>1194</ele>
        <time>2013-06-15T12:20:11Z</time>
      </trkpt>
      <trkpt lat="45.37178" lon="5.79007">
        <ele>1196</ele>
        <time>2013-06-15T12:20:36Z</time>
      </trkpt>
      <trkpt lat="45.3717" lon="5.78994">
        <ele>1199</ele>
        <time>2013-06-15T12:21:02Z</time>
      </trkpt>
      <trkpt lat="45.37161" lon="5.78986">
        <ele>1203</ele>
        <time>2013-06-15T12:21:16Z</time>
      </trkpt>
      <trkpt lat="45.37152" lon="5.78971">
        <ele>1206</ele>
        <time>2013-06-15T12:21:49Z</time>
      </trkpt>
      <trkpt lat="45.37146" lon="5.78959">
        <ele>1209</ele>
        <time>2013-06-15T12:22:01Z</time>
      </trkpt>
      <trkpt lat="45.37143" lon="5.78938">
        <ele>1213</ele>
        <time>2013-06-15T12:22:16Z</time>
      </trkpt>
      <trkpt lat="45.37148" lon="5.78903">
        <ele>1215</ele>
        <time>2013-06-15T12:22:45Z</time>
      </trkpt>
      <trkpt lat="45.37157" lon="5.78898">
        <ele>1215</ele>
        <time>2013-06-15T12:23:12Z</time>
      </trkpt>
      <trkpt lat="45.37146" lon="5.78894">
        <ele>1217</ele>
        <time>2013-06-15T12:25:49Z</time>
      </trkpt>
      <trkpt lat="45.37154" lon="5.78889">
        <ele>1220</ele>
        <time>2013-06-15T12:29:26Z</time>
      </trkpt>
      <trkpt lat="45.37159" lon="5.78888">
        <ele>1221</ele>
        <time>2013-06-15T12:30:53Z</time>
      </trkpt>
      <trkpt lat="45.37161" lon="5.78876">
        <ele>1222</ele>
        <time>2013-06-15T12:31:27Z</time>
      </trkpt>
      <trkpt lat="45.37158" lon="5.78876">
        <ele>1223</ele>
        <time>2013-06-15T12:31:58Z</time>
      </trkpt>
      <trkpt lat="45.37161" lon="5.78866">
        <ele>1223</ele>
        <time>2013-06-15T12:32:21Z</time>
      </trkpt>
      <trkpt lat="45.37161" lon="5.78861">
        <ele>1224</ele>
        <time>2013-06-15T12:32:39Z</time>
      </trkpt>
      <trkpt lat="45.3718" lon="5.78818">
        <ele>1225</ele>
        <time>2013-06-15T12:33:09Z</time>
      </trkpt>
      <trkpt lat="45.3721" lon="5.78777">
        <ele>1227</ele>
        <time>2013-06-15T12:33:45Z</time>
      </trkpt>
      <trkpt lat="45.37222" lon="5.78754">
        <ele>1231</ele>
        <time>2013-06-15T12:34:08Z</time>
      </trkpt>
      <trkpt lat="45.37239" lon="5.78739">
        <ele>1233</ele>
        <time>2013-06-15T12:34:28Z</time>
      </trkpt>
      <trkpt lat="45.3726" lon="5.78725">
        <ele>1236</ele>
        <time>2013-06-15T12:34:55Z</time>
      </trkpt>
      <trkpt lat="45.3726" lon="5.78714">
        <ele>1238</ele>
        <time>2013-06-15T12:35:05Z</time>
      </trkpt>
      <trkpt lat="45.37254" lon="5.78696">
        <ele>1242</ele>
        <time>2013-06-15T12:35:17Z</time>
      </trkpt>
      <trkpt lat="45.37265" lon="5.78676">
        <ele>1245</ele>
        <time>2013-06-15T12:35:33Z</time>
      </trkpt>
      <trkpt lat="45.37283" lon="5.7867">
        <ele>1248</ele>
        <time>2013-06-15T12:35:51Z</time>
      </trkpt>
      <trkpt lat="45.37299" lon="5.78657">
        <ele>1252</ele>
        <time>2013-06-15T12:36:03Z</time>
      </trkpt>
      <trkpt lat="45.37309" lon="5.78654">
        <ele>1250</ele>
        <time>2013-06-15T12:36:31Z</time>
      </trkpt>
      <trkpt lat="45.37315" lon="5.7864">
        <ele>1252</ele>
        <time>2013-06-15T12:36:51Z</time>
      </trkpt>
      <trkpt lat="45.37328" lon="5.78645">
        <ele>1254</ele>
        <time>2013-06-15T12:37:06Z</time>
      </trkpt>
      <trkpt lat="45.37339" lon="5.78648">
        <ele>1255</ele>
        <time>2013-06-15T12:37:20Z</time>
      </trkpt>
      <trkpt lat="45.37344" lon="5.78648">
        <ele>1257</ele>
        <time>2013-06-15T12:37:26Z</time>
      </trkpt>
      <trkpt lat="45.37361" lon="5.78658">
        <ele>1258</ele>
        <time>2013-06-15T12:37:39Z</time>
      </trkpt>
      <trkpt lat="45.37379" lon="5.78679">
        <ele>1262</ele>
        <time>2013-06-15T12:38:00Z</time>
      </trkpt>
      <trkpt lat="45.37386" lon="5.78684">
        <ele>1263</ele>
        <time>2013-06-15T12:38:07Z</time>
      </trkpt>
      <trkpt lat="45.37403" lon="5.78682">
        <ele>1266</ele>
        <time>2013-06-15T12:38:22Z</time>
      </trkpt>
      <trkpt lat="45.374" lon="5.78676">
        <ele>1267</ele>
        <time>2013-06-15T12:38:27Z</time>
      </trkpt>
      <trkpt lat="45.37393" lon="5.78644">
        <ele>1271</ele>
        <time>2013-06-15T12:38:43Z</time>
      </trkpt>
      <trkpt lat="45.37392" lon="5.78633">
        <ele>1271</ele>
        <time>2013-06-15T12:38:51Z</time>
      </trkpt>
      <trkpt lat="45.37389" lon="5.78619">
        <ele>1272</ele>
        <time>2013-06-15T12:38:58Z</time>
      </trkpt>
      <trkpt lat="45.37381" lon="5.78611">
        <ele>1273</ele>
        <time>2013-06-15T12:39:06Z</time>
      </trkpt>
      <trkpt lat="45.37382" lon="5.78605">
        <ele>1274</ele>
        <time>2013-06-15T12:39:11Z</time>
      </trkpt>
      <trkpt lat="45.37379" lon="5.78593">
        <ele>1276</ele>
        <time>2013-06-15T12:39:21Z</time>
      </trkpt>
      <trkpt lat="45.37379" lon="5.78581">
        <ele>1276</ele>
        <time>2013-06-15T12:39:29Z</time>
      </trkpt>
      <trkpt lat="45.37374" lon="5.78557">
        <ele>1279</ele>
        <time>2013-06-15T12:39:43Z</time>
      </trkpt>
      <trkpt lat="45.37374" lon="5.78545">
        <ele>1279</ele>
        <time>2013-06-15T12:39:49Z</time>
      </trkpt>
      <trkpt lat="45.37372" lon="5.78529">
        <ele>1279</ele>
        <time>2013-06-15T12:40:00Z</time>
      </trkpt>
      <trkpt lat="45.37363" lon="5.78498">
        <ele>1280</ele>
        <time>2013-06-15T12:40:17Z</time>
      </trkpt>
      <trkpt lat="45.37358" lon="5.78487">
        <ele>1281</ele>
        <time>2013-06-15T12:40:25Z</time>
      </trkpt>
      <trkpt lat="45.37358" lon="5.78483">
        <ele>1281</ele>
        <time>2013-06-15T12:40:27Z</time>
      </trkpt>
      <trkpt lat="45.37352" lon="5.78453">
        <ele>1284</ele>
        <time>2013-06-15T12:40:48Z</time>
      </trkpt>
      <trkpt lat="45.37343" lon="5.78427">
        <ele>1285</ele>
        <time>2013-06-15T12:41:07Z</time>
      </trkpt>
      <trkpt lat="45.37338" lon="5.78413">
        <ele>1286</ele>
        <time>2013-06-15T12:41:17Z</time>
      </trkpt>
      <trkpt lat="45.37329" lon="5.78401">
        <ele>1287</ele>
        <time>2013-06-15T12:41:27Z</time>
      </trkpt>
      <trkpt lat="45.37321" lon="5.78383">
        <ele>1288</ele>
        <time>2013-06-15T12:41:36Z</time>
      </trkpt>
      <trkpt lat="45.37318" lon="5.78363">
        <ele>1288</ele>
        <time>2013-06-15T12:41:48Z</time>
      </trkpt>
      <trkpt lat="45.37294" lon="5.78327">
        <ele>1291</ele>
        <time>2013-06-15T12:42:15Z</time>
      </trkpt>
      <trkpt lat="45.37285" lon="5.78306">
        <ele>1292</ele>
        <time>2013-06-15T12:42:42Z</time>
      </trkpt>
      <trkpt lat="45.37273" lon="5.78296">
        <ele>1295</ele>
        <time>2013-06-15T12:43:27Z</time>
      </trkpt>
      <trkpt lat="45.37266" lon="5.78276">
        <ele>1298</ele>
        <time>2013-06-15T12:43:43Z</time>
      </trkpt>
      <trkpt lat="45.3725" lon="5.7826">
        <ele>1301</ele>
        <time>2013-06-15T12:44:03Z</time>
      </trkpt>
      <trkpt lat="45.37236" lon="5.78239">
        <ele>1305</ele>
        <time>2013-06-15T12:44:23Z</time>
      </trkpt>
      <trkpt lat="45.37219" lon="5.78212">
        <ele>1308</ele>
        <time>2013-06-15T12:44:45Z</time>
      </trkpt>
      <trkpt lat="45.37204" lon="5.7819">
        <ele>1311</ele>
        <time>2013-06-15T12:45:06Z</time>
      </trkpt>
      <trkpt lat="45.37187" lon="5.78156">
        <ele>1314</ele>
        <time>2013-06-15T12:45:33Z</time>
      </trkpt>
      <trkpt lat="45.37182" lon="5.78139">
        <ele>1317</ele>
        <time>2013-06-15T12:45:47Z</time>
      </trkpt>
      <trkpt lat="45.37176" lon="5.78117">
        <ele>1321</ele>
        <time>2013-06-15T12:46:04Z</time>
      </trkpt>
      <trkpt lat="45.37169" lon="5.7809">
        <ele>1324</ele>
        <time>2013-06-15T12:46:22Z</time>
      </trkpt>
      <trkpt lat="45.37177" lon="5.78064">
        <ele>1327</ele>
        <time>2013-06-15T12:46:46Z</time>
      </trkpt>
      <trkpt lat="45.37197" lon="5.78055">
        <ele>1331</ele>
        <time>2013-06-15T12:47:07Z</time>
      </trkpt>
      <trkpt lat="45.37213" lon="5.78035">
        <ele>1334</ele>
        <time>2013-06-15T12:47:24Z</time>
      </trkpt>
      <trkpt lat="45.37225" lon="5.7802">
        <ele>1337</ele>
        <time>2013-06-15T12:47:40Z</time>
      </trkpt>
      <trkpt lat="45.37235" lon="5.7801">
        <ele>1340</ele>
        <time>2013-06-15T12:47:49Z</time>
      </trkpt>
      <trkpt lat="45.3725" lon="5.78009">
        <ele>1343</ele>
        <time>2013-06-15T12:48:04Z</time>
      </trkpt>
      <trkpt lat="45.37252" lon="5.78009">
        <ele>1343</ele>
        <time>2013-06-15T12:48:05Z</time>
      </trkpt>
      <trkpt lat="45.37277" lon="5.78014">
        <ele>1346</ele>
        <time>2013-06-15T12:48:23Z</time>
      </trkpt>
      <trkpt lat="45.37284" lon="5.78021">
        <ele>1349</ele>
        <time>2013-06-15T12:48:35Z</time>
      </trkpt>
      <trkpt lat="45.37305" lon="5.78035">
        <ele>1353</ele>
        <time>2013-06-15T12:48:49Z</time>
      </trkpt>
      <trkpt lat="45.37301" lon="5.78">
        <ele>1352</ele>
        <time>2013-06-15T12:49:29Z</time>
      </trkpt>
      <trkpt lat="45.37301" lon="5.78008">
        <ele>1352</ele>
        <time>2013-06-15T12:52:09Z</time>
      </trkpt>
      <trkpt lat="45.37292" lon="5.7802">
        <ele>1351</ele>
        <time>2013-06-15T12:56:28Z</time>
      </trkpt>
      <trkpt lat="45.37292" lon="5.78021">
        <ele>1354</ele>
        <time>2013-06-15T12:56:36Z</time>
      </trkpt>
      <trkpt lat="45.37293" lon="5.78054">
        <ele>1357</ele>
        <time>2013-06-15T12:56:48Z</time>
      </trkpt>
      <trkpt lat="45.37296" lon="5.78061">
        <ele>1360</ele>
        <time>2013-06-15T12:57:08Z</time>
      </trkpt>
      <trkpt lat="45.373" lon="5.78085">
        <ele>1363</ele>
        <time>2013-06-15T12:57:29Z</time>
      </trkpt>
      <trkpt lat="45.37301" lon="5.78086">
        <ele>1364</ele>
        <time>2013-06-15T12:57:32Z</time>
      </trkpt>
      <trkpt lat="45.37302" lon="5.78082">
        <ele>1366</ele>
        <time>2013-06-15T12:57:44Z</time>
      </trkpt>
      <trkpt lat="45.37306" lon="5.78084">
        <ele>1367</ele>
        <time>2013-06-15T12:57:48Z</time>
      </trkpt>
      <trkpt lat="45.3731" lon="5.78089">
        <ele>1368</ele>
        <time>2013-06-15T12:58:20Z</time>
      </trkpt>
      <trkpt lat="45.37304" lon="5.78098">
        <ele>1371</ele>
        <time>2013-06-15T12:58:44Z</time>
      </trkpt>
      <trkpt lat="45.37307" lon="5.78107">
        <ele>1374</ele>
        <time>2013-06-15T12:59:04Z</time>
      </trkpt>
      <trkpt lat="45.37316" lon="5.78106">
        <ele>1377</ele>
        <time>2013-06-15T12:59:24Z</time>
      </trkpt>
      <trkpt lat="45.37334" lon="5.78105">
        <ele>1380</ele>
        <time>2013-06-15T12:59:44Z</time>
      </trkpt>
      <trkpt lat="45.37349" lon="5.781">
        <ele>1383</ele>
        <time>2013-06-15T13:00:06Z</time>
      </trkpt>
      <trkpt lat="45.37373" lon="5.78098">
        <ele>1387</ele>
        <time>2013-06-15T13:00:31Z</time>
      </trkpt>
      <trkpt lat="45.3738" lon="5.78094">
        <ele>1391</ele>
        <time>2013-06-15T13:00:54Z</time>
      </trkpt>
      <trkpt lat="45.37378" lon="5.7809">
        <ele>1391</ele>
        <time>2013-06-15T13:01:43Z</time>
      </trkpt>
      <trkpt lat="45.37373" lon="5.78095">
        <ele>1394</ele>
        <time>2013-06-15T13:02:17Z</time>
      </trkpt>
      <trkpt lat="45.37369" lon="5.78106">
        <ele>1397</ele>
        <time>2013-06-15T13:02:34Z</time>
      </trkpt>
      <trkpt lat="45.37373" lon="5.78108">
        <ele>1398</ele>
        <time>2013-06-15T13:02:38Z</time>
      </trkpt>
      <trkpt lat="45.37396" lon="5.78121">
        <ele>1401</ele>
        <time>2013-06-15T13:03:00Z</time>
      </trkpt>
      <trkpt lat="45.37397" lon="5.78117">
        <ele>1405</ele>
        <time>2013-06-15T13:03:16Z</time>
      </trkpt>
      <trkpt lat="45.37388" lon="5.78135">
        <ele>1408</ele>
        <time>2013-06-15T13:03:45Z</time>
      </trkpt>
      <trkpt lat="45.37384" lon="5.78147">
        <ele>1412</ele>
        <time>2013-06-15T13:03:58Z</time>
      </trkpt>
      <trkpt lat="45.37392" lon="5.78153">
        <ele>1414</ele>
        <time>2013-06-15T13:04:31Z</time>
      </trkpt>
      <trkpt lat="45.37394" lon="5.78159">
        <ele>1417</ele>
        <time>2013-06-15T13:07:50Z</time>
      </trkpt>
      <trkpt lat="45.37405" lon="5.78166">
        <ele>1420</ele>
        <time>2013-06-15T13:08:03Z</time>
      </trkpt>
      <trkpt lat="45.37416" lon="5.78169">
        <ele>1423</ele>
        <time>2013-06-15T13:08:20Z</time>
      </trkpt>
      <trkpt lat="45.37418" lon="5.78171">
        <ele>1425</ele>
        <time>2013-06-15T13:08:27Z</time>
      </trkpt>
      <trkpt lat="45.37421" lon="5.78175">
        <ele>1426</ele>
        <time>2013-06-15T13:08:46Z</time>
      </trkpt>
      <trkpt lat="45.37428" lon="5.78183">
        <ele>1430</ele>
        <time>2013-06-15T13:09:00Z</time>
      </trkpt>
      <trkpt lat="45.3744" lon="5.78192">
        <ele>1433</ele>
        <time>2013-06-15T13:09:12Z</time>
      </trkpt>
      <trkpt lat="45.37452" lon="5.78197">
        <ele>1436</ele>
        <time>2013-06-15T13:09:27Z</time>
      </trkpt>
      <trkpt lat="45.3747" lon="5.78197">
        <ele>1439</ele>
        <time>2013-06-15T13:09:47Z</time>
      </trkpt>
      <trkpt lat="45.3749" lon="5.78201">
        <ele>1442</ele>
        <time>2013-06-15T13:10:09Z</time>
      </trkpt>
      <trkpt lat="45.37507" lon="5.78211">
        <ele>1445</ele>
        <time>2013-06-15T13:10:27Z</time>
      </trkpt>
      <trkpt lat="45.37519" lon="5.78203">
        <ele>1448</ele>
        <time>2013-06-15T13:11:10Z</time>
      </trkpt>
      <trkpt lat="45.37527" lon="5.78173">
        <ele>1450</ele>
        <time>2013-06-15T13:11:31Z</time>
      </trkpt>
      <trkpt lat="45.37531" lon="5.78152">
        <ele>1452</ele>
        <time>2013-06-15T13:11:56Z</time>
      </trkpt>
      <trkpt lat="45.37529" lon="5.78143">
        <ele>1452</ele>
        <time>2013-06-15T13:13:12Z</time>
      </trkpt>
      <trkpt lat="45.3753" lon="5.78136">
        <ele>1452</ele>
        <time>2013-06-15T13:14:21Z</time>
      </trkpt>
      <trkpt lat="45.37531" lon="5.78134">
        <ele>1452</ele>
        <time>2013-06-15T13:15:34Z</time>
      </trkpt>
      <trkpt lat="45.37535" lon="5.78134">
        <ele>1451</ele>
        <time>2013-06-15T13:16:25Z</time>
      </trkpt>
      <trkpt lat="45.3753" lon="5.78144">
        <ele>1451</ele>
        <time>2013-06-15T13:17:18Z</time>
      </trkpt>
      <trkpt lat="45.37531" lon="5.78143">
        <ele>1451</ele>
        <time>2013-06-15T13:18:05Z</time>
      </trkpt>
      <trkpt lat="45.3754" lon="5.78129">
        <ele>1452</ele>
        <time>2013-06-15T13:18:27Z</time>
      </trkpt>
      <trkpt lat="45.37541" lon="5.78121">
        <ele>1455</ele>
        <time>2013-06-15T13:18:45Z</time>
      </trkpt>
      <trkpt lat="45.37542" lon="5.78122">
        <ele>1455</ele>
        <time>2013-06-15T13:18:46Z</time>
      </trkpt>
      <trkpt lat="45.37541" lon="5.78102">
        <ele>1458</ele>
        <time>2013-06-15T13:19:21Z</time>
      </trkpt>
      <trkpt lat="45.3754" lon="5.78086">
        <ele>1462</ele>
        <time>2013-06-15T13:19:37Z</time>
      </trkpt>
      <trkpt lat="45.37538" lon="5.78075">
        <ele>1465</ele>
        <time>2013-06-15T13:19:52Z</time>
      </trkpt>
      <trkpt lat="45.37534" lon="5.78045">
        <ele>1467</ele>
        <time>2013-06-15T13:20:24Z</time>
      </trkpt>
      <trkpt lat="45.37534" lon="5.78047">
        <ele>1466</ele>
        <time>2013-06-15T13:20:25Z</time>
      </trkpt>
      <trkpt lat="45.37534" lon="5.78049">
        <ele>1470</ele>
        <time>2013-06-15T13:20:40Z</time>
      </trkpt>
      <trkpt lat="45.37534" lon="5.78043">
        <ele>1472</ele>
        <time>2013-06-15T13:20:53Z</time>
      </trkpt>
      <trkpt lat="45.3754" lon="5.7802">
        <ele>1476</ele>
        <time>2013-06-15T13:21:11Z</time>
      </trkpt>
      <trkpt lat="45.37538" lon="5.78005">
        <ele>1479</ele>
        <time>2013-06-15T13:21:58Z</time>
      </trkpt>
      <trkpt lat="45.37536" lon="5.77983">
        <ele>1482</ele>
        <time>2013-06-15T13:22:11Z</time>
      </trkpt>
      <trkpt lat="45.37522" lon="5.77971">
        <ele>1485</ele>
        <time>2013-06-15T13:22:28Z</time>
      </trkpt>
      <trkpt lat="45.37522" lon="5.77963">
        <ele>1488</ele>
        <time>2013-06-15T13:22:51Z</time>
      </trkpt>
      <trkpt lat="45.37528" lon="5.77938">
        <ele>1492</ele>
        <time>2013-06-15T13:23:11Z</time>
      </trkpt>
      <trkpt lat="45.37546" lon="5.7793">
        <ele>1494</ele>
        <time>2013-06-15T13:23:45Z</time>
      </trkpt>
      <trkpt lat="45.37541" lon="5.77923">
        <ele>1495</ele>
        <time>2013-06-15T13:25:11Z</time>
      </trkpt>
      <trkpt lat="45.37544" lon="5.77921">
        <ele>1494</ele>
        <time>2013-06-15T13:25:29Z</time>
      </trkpt>
      <trkpt lat="45.37555" lon="5.77919">
        <ele>1491</ele>
        <time>2013-06-15T13:25:58Z</time>
      </trkpt>
      <trkpt lat="45.37575" lon="5.77923">
        <ele>1488</ele>
        <time>2013-06-15T13:26:22Z</time>
      </trkpt>
      <trkpt lat="45.37589" lon="5.77924">
        <ele>1484</ele>
        <time>2013-06-15T13:26:42Z</time>
      </trkpt>
      <trkpt lat="45.37616" lon="5.77924">
        <ele>1481</ele>
        <time>2013-06-15T13:27:14Z</time>
      </trkpt>
      <trkpt lat="45.37635" lon="5.77918">
        <ele>1478</ele>
        <time>2013-06-15T13:27:35Z</time>
      </trkpt>
      <trkpt lat="45.3765" lon="5.77915">
        <ele>1475</ele>
        <time>2013-06-15T13:28:15Z</time>
      </trkpt>
      <trkpt lat="45.37665" lon="5.77915">
        <ele>1472</ele>
        <time>2013-06-15T13:28:41Z</time>
      </trkpt>
      <trkpt lat="45.37687" lon="5.77908">
        <ele>1469</ele>
        <time>2013-06-15T13:29:06Z</time>
      </trkpt>
      <trkpt lat="45.37694" lon="5.77906">
        <ele>1468</ele>
        <time>2013-06-15T13:29:13Z</time>
      </trkpt>
      <trkpt lat="45.37712" lon="5.77894">
        <ele>1465</ele>
        <time>2013-06-15T13:29:35Z</time>
      </trkpt>
      <trkpt lat="45.3773" lon="5.7788">
        <ele>1461</ele>
        <time>2013-06-15T13:29:54Z</time>
      </trkpt>
      <trkpt lat="45.37751" lon="5.77871">
        <ele>1458</ele>
        <time>2013-06-15T13:30:15Z</time>
      </trkpt>
      <trkpt lat="45.37769" lon="5.77866">
        <ele>1455</ele>
        <time>2013-06-15T13:30:33Z</time>
      </trkpt>
      <trkpt lat="45.37774" lon="5.77859">
        <ele>1454</ele>
        <time>2013-06-15T13:30:42Z</time>
      </trkpt>
      <trkpt lat="45.37775" lon="5.77856">
        <ele>1454</ele>
        <time>2013-06-15T13:30:45Z</time>
      </trkpt>
      <trkpt lat="45.37781" lon="5.7785">
        <ele>1453</ele>
        <time>2013-06-15T13:30:48Z</time>
      </trkpt>
      <trkpt lat="45.37785" lon="5.77847">
        <ele>1452</ele>
        <time>2013-06-15T13:30:54Z</time>
      </trkpt>
      <trkpt lat="45.37792" lon="5.77847">
        <ele>1451</ele>
        <time>2013-06-15T13:31:10Z</time>
      </trkpt>
      <trkpt lat="45.37799" lon="5.7784">
        <ele>1450</ele>
        <time>2013-06-15T13:31:16Z</time>
      </trkpt>
      <trkpt lat="45.37802" lon="5.77833">
        <ele>1448</ele>
        <time>2013-06-15T13:31:22Z</time>
      </trkpt>
      <trkpt lat="45.37831" lon="5.77815">
        <ele>1445</ele>
        <time>2013-06-15T13:31:44Z</time>
      </trkpt>
      <trkpt lat="45.3784" lon="5.77809">
        <ele>1443</ele>
        <time>2013-06-15T13:32:01Z</time>
      </trkpt>
      <trkpt lat="45.37837" lon="5.77808">
        <ele>1444</ele>
        <time>2013-06-15T13:32:24Z</time>
      </trkpt>
      <trkpt lat="45.37835" lon="5.77811">
        <ele>1444</ele>
        <time>2013-06-15T13:32:57Z</time>
      </trkpt>
      <trkpt lat="45.37838" lon="5.77808">
        <ele>1443</ele>
        <time>2013-06-15T13:33:01Z</time>
      </trkpt>
      <trkpt lat="45.37836" lon="5.7778">
        <ele>1440</ele>
        <time>2013-06-15T13:33:20Z</time>
      </trkpt>
      <trkpt lat="45.37827" lon="5.77759">
        <ele>1436</ele>
        <time>2013-06-15T13:33:37Z</time>
      </trkpt>
      <trkpt lat="45.37827" lon="5.77732">
        <ele>1435</ele>
        <time>2013-06-15T13:33:51Z</time>
      </trkpt>
      <trkpt lat="45.37826" lon="5.77727">
        <ele>1434</ele>
        <time>2013-06-15T13:33:55Z</time>
      </trkpt>
      <trkpt lat="45.37826" lon="5.77714">
        <ele>1433</ele>
        <time>2013-06-15T13:34:00Z</time>
      </trkpt>
      <trkpt lat="45.37823" lon="5.77686">
        <ele>1433</ele>
        <time>2013-06-15T13:34:17Z</time>
      </trkpt>
      <trkpt lat="45.37823" lon="5.77683">
        <ele>1433</ele>
        <time>2013-06-15T13:34:43Z</time>
      </trkpt>
      <trkpt lat="45.37822" lon="5.77683">
        <ele>1433</ele>
        <time>2013-06-15T13:34:47Z</time>
      </trkpt>
      <trkpt lat="45.37823" lon="5.77685">
        <ele>1433</ele>
        <time>2013-06-15T13:34:49Z</time>
      </trkpt>
      <trkpt lat="45.37835" lon="5.77692">
        <ele>1433</ele>
        <time>2013-06-15T13:35:01Z</time>
      </trkpt>
      <trkpt lat="45.3784" lon="5.7769">
        <ele>1432</ele>
        <time>2013-06-15T13:35:04Z</time>
      </trkpt>
      <trkpt lat="45.37845" lon="5.7769">
        <ele>1433</ele>
        <time>2013-06-15T13:35:08Z</time>
      </trkpt>
      <trkpt lat="45.37858" lon="5.77684">
        <ele>1432</ele>
        <time>2013-06-15T13:35:23Z</time>
      </trkpt>
      <trkpt lat="45.37864" lon="5.77675">
        <ele>1432</ele>
        <time>2013-06-15T13:35:39Z</time>
      </trkpt>
      <trkpt lat="45.37866" lon="5.77681">
        <ele>1431</ele>
        <time>2013-06-15T13:35:57Z</time>
      </trkpt>
      <trkpt lat="45.37863" lon="5.77681">
        <ele>1431</ele>
        <time>2013-06-15T13:36:15Z</time>
      </trkpt>
      <trkpt lat="45.37864" lon="5.77675">
        <ele>1431</ele>
        <time>2013-06-15T13:36:31Z</time>
      </trkpt>
      <trkpt lat="45.37864" lon="5.77673">
        <ele>1432</ele>
        <time>2013-06-15T13:36:56Z</time>
      </trkpt>
      <trkpt lat="45.37866" lon="5.77671">
        <ele>1431</ele>
        <time>2013-06-15T13:38:49Z</time>
      </trkpt>
      <trkpt lat="45.3788" lon="5.77669">
        <ele>1430</ele>
        <time>2013-06-15T13:39:03Z</time>
      </trkpt>
      <trkpt lat="45.37886" lon="5.77668">
        <ele>1430</ele>
        <time>2013-06-15T13:39:08Z</time>
      </trkpt>
      <trkpt lat="45.37909" lon="5.77662">
        <ele>1429</ele>
        <time>2013-06-15T13:39:23Z</time>
      </trkpt>
      <trkpt lat="45.37913" lon="5.7766">
        <ele>1430</ele>
        <time>2013-06-15T13:39:26Z</time>
      </trkpt>
      <trkpt lat="45.37927" lon="5.7765">
        <ele>1429</ele>
        <time>2013-06-15T13:39:37Z</time>
      </trkpt>
      <trkpt lat="45.37935" lon="5.7764">
        <ele>1429</ele>
        <time>2013-06-15T13:39:45Z</time>
      </trkpt>
      <trkpt lat="45.37955" lon="5.77634">
        <ele>1428</ele>
        <time>2013-06-15T13:40:01Z</time>
      </trkpt>
      <trkpt lat="45.37998" lon="5.77609">
        <ele>1427</ele>
        <time>2013-06-15T13:40:20Z</time>
      </trkpt>
      <trkpt lat="45.38031" lon="5.77597">
        <ele>1427</ele>
        <time>2013-06-15T13:40:32Z</time>
      </trkpt>
      <trkpt lat="45.3805" lon="5.77573">
        <ele>1426</ele>
        <time>2013-06-15T13:40:42Z</time>
      </trkpt>
      <trkpt lat="45.38054" lon="5.7757">
        <ele>1426</ele>
        <time>2013-06-15T13:40:44Z</time>
      </trkpt>
      <trkpt lat="45.38059" lon="5.77567">
        <ele>1426</ele>
        <time>2013-06-15T13:40:49Z</time>
      </trkpt>
      <trkpt lat="45.38064" lon="5.77563">
        <ele>1426</ele>
        <time>2013-06-15T13:41:07Z</time>
      </trkpt>
      <trkpt lat="45.38101" lon="5.77547">
        <ele>1425</ele>
        <time>2013-06-15T13:41:25Z</time>
      </trkpt>
      <trkpt lat="45.38116" lon="5.77534">
        <ele>1424</ele>
        <time>2013-06-15T13:41:31Z</time>
      </trkpt>
      <trkpt lat="45.38122" lon="5.77531">
        <ele>1424</ele>
        <time>2013-06-15T13:41:34Z</time>
      </trkpt>
      <trkpt lat="45.38148" lon="5.77508">
        <ele>1421</ele>
        <time>2013-06-15T13:41:52Z</time>
      </trkpt>
      <trkpt lat="45.38183" lon="5.77508">
        <ele>1421</ele>
        <time>2013-06-15T13:42:08Z</time>
      </trkpt>
      <trkpt lat="45.38189" lon="5.77502">
        <ele>1420</ele>
        <time>2013-06-15T13:42:13Z</time>
      </trkpt>
      <trkpt lat="45.38198" lon="5.77482">
        <ele>1420</ele>
        <time>2013-06-15T13:42:27Z</time>
      </trkpt>
      <trkpt lat="45.38199" lon="5.77482">
        <ele>1420</ele>
        <time>2013-06-15T13:42:30Z</time>
      </trkpt>
      <trkpt lat="45.38224" lon="5.77457">
        <ele>1417</ele>
        <time>2013-06-15T13:42:52Z</time>
      </trkpt>
      <trkpt lat="45.38229" lon="5.77442">
        <ele>1415</ele>
        <time>2013-06-15T13:43:00Z</time>
      </trkpt>
      <trkpt lat="45.38235" lon="5.77436">
        <ele>1414</ele>
        <time>2013-06-15T13:43:05Z</time>
      </trkpt>
      <trkpt lat="45.38236" lon="5.77428">
        <ele>1414</ele>
        <time>2013-06-15T13:43:07Z</time>
      </trkpt>
      <trkpt lat="45.3824" lon="5.7741">
        <ele>1414</ele>
        <time>2013-06-15T13:43:31Z</time>
      </trkpt>
      <trkpt lat="45.38238" lon="5.77407">
        <ele>1415</ele>
        <time>2013-06-15T13:43:44Z</time>
      </trkpt>
      <trkpt lat="45.3824" lon="5.77406">
        <ele>1414</ele>
        <time>2013-06-15T13:43:47Z</time>
      </trkpt>
      <trkpt lat="45.38247" lon="5.77394">
        <ele>1414</ele>
        <time>2013-06-15T13:43:59Z</time>
      </trkpt>
      <trkpt lat="45.38256" lon="5.77378">
        <ele>1413</ele>
        <time>2013-06-15T13:44:10Z</time>
      </trkpt>
      <trkpt lat="45.38261" lon="5.77372">
        <ele>1414</ele>
        <time>2013-06-15T13:44:20Z</time>
      </trkpt>
      <trkpt lat="45.38266" lon="5.77368">
        <ele>1414</ele>
        <time>2013-06-15T13:44:22Z</time>
      </trkpt>
      <trkpt lat="45.3827" lon="5.77358">
        <ele>1414</ele>
        <time>2013-06-15T13:44:34Z</time>
      </trkpt>
      <trkpt lat="45.38276" lon="5.7735">
        <ele>1414</ele>
        <time>2013-06-15T13:44:40Z</time>
      </trkpt>
      <trkpt lat="45.38282" lon="5.77339">
        <ele>1414</ele>
        <time>2013-06-15T13:45:01Z</time>
      </trkpt>
      <trkpt lat="45.38278" lon="5.77333">
        <ele>1414</ele>
        <time>2013-06-15T13:45:08Z</time>
      </trkpt>
      <trkpt lat="45.3827" lon="5.77323">
        <ele>1413</ele>
        <time>2013-06-15T13:45:19Z</time>
      </trkpt>
      <trkpt lat="45.38268" lon="5.77317">
        <ele>1412</ele>
        <time>2013-06-15T13:45:24Z</time>
      </trkpt>
      <trkpt lat="45.38267" lon="5.77306">
        <ele>1412</ele>
        <time>2013-06-15T13:45:31Z</time>
      </trkpt>
      <trkpt lat="45.38267" lon="5.77302">
        <ele>1412</ele>
        <time>2013-06-15T13:45:34Z</time>
      </trkpt>
      <trkpt lat="45.38264" lon="5.77291">
        <ele>1411</ele>
        <time>2013-06-15T13:45:49Z</time>
      </trkpt>
      <trkpt lat="45.38264" lon="5.77289">
        <ele>1410</ele>
        <time>2013-06-15T13:45:51Z</time>
      </trkpt>
      <trkpt lat="45.38264" lon="5.77284">
        <ele>1410</ele>
        <time>2013-06-15T13:45:57Z</time>
      </trkpt>
      <trkpt lat="45.38261" lon="5.77271">
        <ele>1408</ele>
        <time>2013-06-15T13:46:08Z</time>
      </trkpt>
      <trkpt lat="45.3826" lon="5.77248">
        <ele>1405</ele>
        <time>2013-06-15T13:46:26Z</time>
      </trkpt>
      <trkpt lat="45.38259" lon="5.77236">
        <ele>1404</ele>
        <time>2013-06-15T13:46:35Z</time>
      </trkpt>
      <trkpt lat="45.3826" lon="5.77224">
        <ele>1402</ele>
        <time>2013-06-15T13:46:43Z</time>
      </trkpt>
      <trkpt lat="45.38259" lon="5.77222">
        <ele>1402</ele>
        <time>2013-06-15T13:46:45Z</time>
      </trkpt>
      <trkpt lat="45.38254" lon="5.77207">
        <ele>1400</ele>
        <time>2013-06-15T13:46:54Z</time>
      </trkpt>
      <trkpt lat="45.38246" lon="5.77198">
        <ele>1399</ele>
        <time>2013-06-15T13:47:21Z</time>
      </trkpt>
      <trkpt lat="45.38259" lon="5.77191">
        <ele>1396</ele>
        <time>2013-06-15T13:48:24Z</time>
      </trkpt>
      <trkpt lat="45.38263" lon="5.77174">
        <ele>1393</ele>
        <time>2013-06-15T13:48:41Z</time>
      </trkpt>
      <trkpt lat="45.38269" lon="5.77156">
        <ele>1389</ele>
        <time>2013-06-15T13:48:55Z</time>
      </trkpt>
      <trkpt lat="45.38266" lon="5.77151">
        <ele>1388</ele>
        <time>2013-06-15T13:49:21Z</time>
      </trkpt>
      <trkpt lat="45.38276" lon="5.77158">
        <ele>1384</ele>
        <time>2013-06-15T13:50:00Z</time>
      </trkpt>
      <trkpt lat="45.38285" lon="5.77173">
        <ele>1382</ele>
        <time>2013-06-15T13:50:28Z</time>
      </trkpt>
      <trkpt lat="45.38288" lon="5.77161">
        <ele>1379</ele>
        <time>2013-06-15T13:50:42Z</time>
      </trkpt>
      <trkpt lat="45.3829" lon="5.77154">
        <ele>1377</ele>
        <time>2013-06-15T13:50:48Z</time>
      </trkpt>
      <trkpt lat="45.38292" lon="5.77148">
        <ele>1376</ele>
        <time>2013-06-15T13:50:52Z</time>
      </trkpt>
      <trkpt lat="45.38295" lon="5.77134">
        <ele>1372</ele>
        <time>2013-06-15T13:51:08Z</time>
      </trkpt>
      <trkpt lat="45.38296" lon="5.77133">
        <ele>1372</ele>
        <time>2013-06-15T13:51:09Z</time>
      </trkpt>
      <trkpt lat="45.38288" lon="5.77123">
        <ele>1370</ele>
        <time>2013-06-15T13:51:37Z</time>
      </trkpt>
      <trkpt lat="45.38294" lon="5.77119">
        <ele>1367</ele>
        <time>2013-06-15T13:51:47Z</time>
      </trkpt>
      <trkpt lat="45.38302" lon="5.77116">
        <ele>1366</ele>
        <time>2013-06-15T13:51:51Z</time>
      </trkpt>
      <trkpt lat="45.38318" lon="5.77113">
        <ele>1363</ele>
        <time>2013-06-15T13:52:06Z</time>
      </trkpt>
      <trkpt lat="45.38321" lon="5.77111">
        <ele>1363</ele>
        <time>2013-06-15T13:52:08Z</time>
      </trkpt>
      <trkpt lat="45.38327" lon="5.77096">
        <ele>1360</ele>
        <time>2013-06-15T13:52:17Z</time>
      </trkpt>
      <trkpt lat="45.3833" lon="5.77086">
        <ele>1359</ele>
        <time>2013-06-15T13:52:45Z</time>
      </trkpt>
      <trkpt lat="45.38326" lon="5.77067">
        <ele>1357</ele>
        <time>2013-06-15T13:53:24Z</time>
      </trkpt>
      <trkpt lat="45.38322" lon="5.77063">
        <ele>1356</ele>
        <time>2013-06-15T13:53:53Z</time>
      </trkpt>
      <trkpt lat="45.38332" lon="5.77058">
        <ele>1355</ele>
        <time>2013-06-15T13:54:21Z</time>
      </trkpt>
      <trkpt lat="45.38342" lon="5.77069">
        <ele>1354</ele>
        <time>2013-06-15T13:54:46Z</time>
      </trkpt>
      <trkpt lat="45.38353" lon="5.77061">
        <ele>1351</ele>
        <time>2013-06-15T13:55:00Z</time>
      </trkpt>
      <trkpt lat="45.38359" lon="5.77054">
        <ele>1348</ele>
        <time>2013-06-15T13:55:11Z</time>
      </trkpt>
      <trkpt lat="45.38367" lon="5.77047">
        <ele>1347</ele>
        <time>2013-06-15T13:55:17Z</time>
      </trkpt>
      <trkpt lat="45.38383" lon="5.77027">
        <ele>1344</ele>
        <time>2013-06-15T13:55:34Z</time>
      </trkpt>
      <trkpt lat="45.38386" lon="5.77024">
        <ele>1344</ele>
        <time>2013-06-15T13:55:37Z</time>
      </trkpt>
      <trkpt lat="45.38391" lon="5.77019">
        <ele>1343</ele>
        <time>2013-06-15T13:55:44Z</time>
      </trkpt>
      <trkpt lat="45.38395" lon="5.7702">
        <ele>1342</ele>
        <time>2013-06-15T13:55:49Z</time>
      </trkpt>
      <trkpt lat="45.38413" lon="5.77015">
        <ele>1339</ele>
        <time>2013-06-15T13:56:08Z</time>
      </trkpt>
      <trkpt lat="45.38415" lon="5.77012">
        <ele>1338</ele>
        <time>2013-06-15T13:56:47Z</time>
      </trkpt>
      <trkpt lat="45.38424" lon="5.77008">
        <ele>1335</ele>
        <time>2013-06-15T13:57:58Z</time>
      </trkpt>
      <trkpt lat="45.38444" lon="5.77015">
        <ele>1332</ele>
        <time>2013-06-15T13:58:20Z</time>
      </trkpt>
      <trkpt lat="45.3847" lon="5.77013">
        <ele>1329</ele>
        <time>2013-06-15T13:58:45Z</time>
      </trkpt>
      <trkpt lat="45.38497" lon="5.77013">
        <ele>1326</ele>
        <time>2013-06-15T13:59:10Z</time>
      </trkpt>
      <trkpt lat="45.38532" lon="5.77005">
        <ele>1323</ele>
        <time>2013-06-15T13:59:36Z</time>
      </trkpt>
      <trkpt lat="45.38566" lon="5.77011">
        <ele>1320</ele>
        <time>2013-06-15T14:00:03Z</time>
      </trkpt>
      <trkpt lat="45.38591" lon="5.77013">
        <ele>1317</ele>
        <time>2013-06-15T14:00:27Z</time>
      </trkpt>
      <trkpt lat="45.38621" lon="5.77003">
        <ele>1314</ele>
        <time>2013-06-15T14:00:53Z</time>
      </trkpt>
      <trkpt lat="45.38642" lon="5.77007">
        <ele>1311</ele>
        <time>2013-06-15T14:01:14Z</time>
      </trkpt>
      <trkpt lat="45.38674" lon="5.76998">
        <ele>1308</ele>
        <time>2013-06-15T14:01:39Z</time>
      </trkpt>
      <trkpt lat="45.38682" lon="5.76985">
        <ele>1307</ele>
        <time>2013-06-15T14:01:59Z</time>
      </trkpt>
      <trkpt lat="45.38683" lon="5.76986">
        <ele>1308</ele>
        <time>2013-06-15T14:08:29Z</time>
      </trkpt>
      <trkpt lat="45.38685" lon="5.76981">
        <ele>1308</ele>
        <time>2013-06-15T14:10:08Z</time>
      </trkpt>
      <trkpt lat="45.38693" lon="5.76961">
        <ele>1308</ele>
        <time>2013-06-15T14:12:35Z</time>
      </trkpt>
      <trkpt lat="45.38709" lon="5.76955">
        <ele>1307</ele>
        <time>2013-06-15T14:13:39Z</time>
      </trkpt>
      <trkpt lat="45.38685" lon="5.76959">
        <ele>1307</ele>
        <time>2013-06-15T14:14:25Z</time>
      </trkpt>
      <trkpt lat="45.38677" lon="5.76978">
        <ele>1307</ele>
        <time>2013-06-15T14:15:25Z</time>
      </trkpt>
      <trkpt lat="45.38708" lon="5.76978">
        <ele>1307</ele>
        <time>2013-06-15T14:16:15Z</time>
      </trkpt>
      <trkpt lat="45.38697" lon="5.76973">
        <ele>1307</ele>
        <time>2013-06-15T14:17:08Z</time>
      </trkpt>
      <trkpt lat="45.38685" lon="5.7697">
        <ele>1308</ele>
        <time>2013-06-15T14:18:38Z</time>
      </trkpt>
      <trkpt lat="45.38674" lon="5.76983">
        <ele>1308</ele>
        <time>2013-06-15T14:19:26Z</time>
      </trkpt>
      <trkpt lat="45.38685" lon="5.76968">
        <ele>1309</ele>
        <time>2013-06-15T14:20:18Z</time>
      </trkpt>
      <trkpt lat="45.38694" lon="5.76977">
        <ele>1310</ele>
        <time>2013-06-15T14:22:35Z</time>
      </trkpt>
      <trkpt lat="45.38673" lon="5.76966">
        <ele>1309</ele>
        <time>2013-06-15T14:25:22Z</time>
      </trkpt>
      <trkpt lat="45.38673" lon="5.76961">
        <ele>1308</ele>
        <time>2013-06-15T14:25:28Z</time>
      </trkpt>
      <trkpt lat="45.38672" lon="5.76943">
        <ele>1305</ele>
        <time>2013-06-15T14:25:52Z</time>
      </trkpt>
      <trkpt lat="45.3867" lon="5.76933">
        <ele>1302</ele>
        <time>2013-06-15T14:26:06Z</time>
      </trkpt>
      <trkpt lat="45.38668" lon="5.76925">
        <ele>1300</ele>
        <time>2013-06-15T14:26:12Z</time>
      </trkpt>
      <trkpt lat="45.38664" lon="5.76918">
        <ele>1298</ele>
        <time>2013-06-15T14:26:20Z</time>
      </trkpt>
      <trkpt lat="45.38662" lon="5.76913">
        <ele>1297</ele>
        <time>2013-06-15T14:26:24Z</time>
      </trkpt>
      <trkpt lat="45.38665" lon="5.76904">
        <ele>1296</ele>
        <time>2013-06-15T14:26:31Z</time>
      </trkpt>
      <trkpt lat="45.38667" lon="5.76885">
        <ele>1292</ele>
        <time>2013-06-15T14:26:53Z</time>
      </trkpt>
      <trkpt lat="45.38666" lon="5.76879">
        <ele>1290</ele>
        <time>2013-06-15T14:27:10Z</time>
      </trkpt>
      <trkpt lat="45.38658" lon="5.76877">
        <ele>1286</ele>
        <time>2013-06-15T14:27:20Z</time>
      </trkpt>
      <trkpt lat="45.38653" lon="5.76863">
        <ele>1284</ele>
        <time>2013-06-15T14:27:35Z</time>
      </trkpt>
      <trkpt lat="45.38652" lon="5.76845">
        <ele>1280</ele>
        <time>2013-06-15T14:27:47Z</time>
      </trkpt>
      <trkpt lat="45.38665" lon="5.76828">
        <ele>1277</ele>
        <time>2013-06-15T14:28:06Z</time>
      </trkpt>
      <trkpt lat="45.38671" lon="5.76823">
        <ele>1274</ele>
        <time>2013-06-15T14:28:18Z</time>
      </trkpt>
      <trkpt lat="45.38676" lon="5.76819">
        <ele>1271</ele>
        <time>2013-06-15T14:28:33Z</time>
      </trkpt>
      <trkpt lat="45.38686" lon="5.76816">
        <ele>1268</ele>
        <time>2013-06-15T14:28:57Z</time>
      </trkpt>
      <trkpt lat="45.38687" lon="5.76807">
        <ele>1266</ele>
        <time>2013-06-15T14:29:11Z</time>
      </trkpt>
      <trkpt lat="45.38693" lon="5.76789">
        <ele>1263</ele>
        <time>2013-06-15T14:29:24Z</time>
      </trkpt>
      <trkpt lat="45.38708" lon="5.76785">
        <ele>1259</ele>
        <time>2013-06-15T14:29:40Z</time>
      </trkpt>
      <trkpt lat="45.38716" lon="5.76783">
        <ele>1257</ele>
        <time>2013-06-15T14:29:51Z</time>
      </trkpt>
      <trkpt lat="45.38727" lon="5.76777">
        <ele>1253</ele>
        <time>2013-06-15T14:30:05Z</time>
      </trkpt>
      <trkpt lat="45.38738" lon="5.76771">
        <ele>1250</ele>
        <time>2013-06-15T14:30:21Z</time>
      </trkpt>
      <trkpt lat="45.38749" lon="5.76758">
        <ele>1247</ele>
        <time>2013-06-15T14:30:35Z</time>
      </trkpt>
      <trkpt lat="45.38754" lon="5.76752">
        <ele>1245</ele>
        <time>2013-06-15T14:30:41Z</time>
      </trkpt>
      <trkpt lat="45.3875" lon="5.76719">
        <ele>1242</ele>
        <time>2013-06-15T14:31:05Z</time>
      </trkpt>
      <trkpt lat="45.38752" lon="5.76707">
        <ele>1242</ele>
        <time>2013-06-15T14:31:24Z</time>
      </trkpt>
      <trkpt lat="45.38747" lon="5.76685">
        <ele>1244</ele>
        <time>2013-06-15T14:31:39Z</time>
      </trkpt>
      <trkpt lat="45.38748" lon="5.76655">
        <ele>1244</ele>
        <time>2013-06-15T14:31:59Z</time>
      </trkpt>
      <trkpt lat="45.38739" lon="5.76635">
        <ele>1246</ele>
        <time>2013-06-15T14:32:32Z</time>
      </trkpt>
      <trkpt lat="45.38738" lon="5.76623">
        <ele>1246</ele>
        <time>2013-06-15T14:32:41Z</time>
      </trkpt>
      <trkpt lat="45.38726" lon="5.76587">
        <ele>1245</ele>
        <time>2013-06-15T14:33:05Z</time>
      </trkpt>
      <trkpt lat="45.38723" lon="5.76584">
        <ele>1244</ele>
        <time>2013-06-15T14:33:45Z</time>
      </trkpt>
      <trkpt lat="45.38723" lon="5.76586">
        <ele>1244</ele>
        <time>2013-06-15T14:34:19Z</time>
      </trkpt>
      <trkpt lat="45.38724" lon="5.76588">
        <ele>1244</ele>
        <time>2013-06-15T14:35:17Z</time>
      </trkpt>
      <trkpt lat="45.38724" lon="5.76588">
        <ele>1244</ele>
        <time>2013-06-15T14:35:37Z</time>
      </trkpt>
      <trkpt lat="45.38724" lon="5.76611">
        <ele>1243</ele>
        <time>2013-06-15T14:35:50Z</time>
      </trkpt>
      <trkpt lat="45.38723" lon="5.76624">
        <ele>1243</ele>
        <time>2013-06-15T14:35:57Z</time>
      </trkpt>
      <trkpt lat="45.38735" lon="5.76662">
        <ele>1242</ele>
        <time>2013-06-15T14:36:29Z</time>
      </trkpt>
      <trkpt lat="45.38736" lon="5.76666">
        <ele>1241</ele>
        <time>2013-06-15T14:36:32Z</time>
      </trkpt>
      <trkpt lat="45.38741" lon="5.76674">
        <ele>1240</ele>
        <time>2013-06-15T14:36:47Z</time>
      </trkpt>
      <trkpt lat="45.3875" lon="5.76693">
        <ele>1240</ele>
        <time>2013-06-15T14:37:09Z</time>
      </trkpt>
      <trkpt lat="45.38765" lon="5.76681">
        <ele>1236</ele>
        <time>2013-06-15T14:37:26Z</time>
      </trkpt>
      <trkpt lat="45.38781" lon="5.76675">
        <ele>1233</ele>
        <time>2013-06-15T14:37:43Z</time>
      </trkpt>
      <trkpt lat="45.38802" lon="5.76672">
        <ele>1230</ele>
        <time>2013-06-15T14:38:02Z</time>
      </trkpt>
      <trkpt lat="45.38818" lon="5.76663">
        <ele>1226</ele>
        <time>2013-06-15T14:38:14Z</time>
      </trkpt>
      <trkpt lat="45.38835" lon="5.76648">
        <ele>1224</ele>
        <time>2013-06-15T14:38:33Z</time>
      </trkpt>
      <trkpt lat="45.38852" lon="5.76642">
        <ele>1221</ele>
        <time>2013-06-15T14:38:49Z</time>
      </trkpt>
      <trkpt lat="45.38864" lon="5.76644">
        <ele>1219</ele>
        <time>2013-06-15T14:38:57Z</time>
      </trkpt>
      <trkpt lat="45.38871" lon="5.76647">
        <ele>1218</ele>
        <time>2013-06-15T14:39:00Z</time>
      </trkpt>
      <trkpt lat="45.38876" lon="5.76647">
        <ele>1218</ele>
        <time>2013-06-15T14:39:02Z</time>
      </trkpt>
      <trkpt lat="45.38891" lon="5.76657">
        <ele>1215</ele>
        <time>2013-06-15T14:39:14Z</time>
      </trkpt>
      <trkpt lat="45.38896" lon="5.76664">
        <ele>1214</ele>
        <time>2013-06-15T14:39:19Z</time>
      </trkpt>
      <trkpt lat="45.38904" lon="5.76678">
        <ele>1212</ele>
        <time>2013-06-15T14:39:27Z</time>
      </trkpt>
      <trkpt lat="45.38915" lon="5.76702">
        <ele>1209</ele>
        <time>2013-06-15T14:39:41Z</time>
      </trkpt>
      <trkpt lat="45.38918" lon="5.76718">
        <ele>1208</ele>
        <time>2013-06-15T14:39:49Z</time>
      </trkpt>
      <trkpt lat="45.38919" lon="5.76731">
        <ele>1206</ele>
        <time>2013-06-15T14:39:56Z</time>
      </trkpt>
      <trkpt lat="45.38922" lon="5.76736">
        <ele>1206</ele>
        <time>2013-06-15T14:39:59Z</time>
      </trkpt>
      <trkpt lat="45.38921" lon="5.7674">
        <ele>1205</ele>
        <time>2013-06-15T14:40:01Z</time>
      </trkpt>
      <trkpt lat="45.38918" lon="5.76771">
        <ele>1202</ele>
        <time>2013-06-15T14:40:17Z</time>
      </trkpt>
      <trkpt lat="45.38922" lon="5.7679">
        <ele>1199</ele>
        <time>2013-06-15T14:40:29Z</time>
      </trkpt>
      <trkpt lat="45.38925" lon="5.76798">
        <ele>1198</ele>
        <time>2013-06-15T14:40:35Z</time>
      </trkpt>
      <trkpt lat="45.38929" lon="5.76805">
        <ele>1197</ele>
        <time>2013-06-15T14:40:40Z</time>
      </trkpt>
      <trkpt lat="45.38934" lon="5.76817">
        <ele>1195</ele>
        <time>2013-06-15T14:40:49Z</time>
      </trkpt>
      <trkpt lat="45.38937" lon="5.76826">
        <ele>1194</ele>
        <time>2013-06-15T14:40:56Z</time>
      </trkpt>
      <trkpt lat="45.38937" lon="5.76832">
        <ele>1193</ele>
        <time>2013-06-15T14:41:00Z</time>
      </trkpt>
      <trkpt lat="45.3894" lon="5.76841">
        <ele>1192</ele>
        <time>2013-06-15T14:41:05Z</time>
      </trkpt>
      <trkpt lat="45.38944" lon="5.7685">
        <ele>1191</ele>
        <time>2013-06-15T14:41:11Z</time>
      </trkpt>
      <trkpt lat="45.38947" lon="5.76855">
        <ele>1190</ele>
        <time>2013-06-15T14:41:14Z</time>
      </trkpt>
      <trkpt lat="45.38948" lon="5.76859">
        <ele>1190</ele>
        <time>2013-06-15T14:41:16Z</time>
      </trkpt>
      <trkpt lat="45.3895" lon="5.76876">
        <ele>1188</ele>
        <time>2013-06-15T14:41:25Z</time>
      </trkpt>
      <trkpt lat="45.38952" lon="5.76889">
        <ele>1186</ele>
        <time>2013-06-15T14:41:32Z</time>
      </trkpt>
      <trkpt lat="45.38946" lon="5.76914">
        <ele>1183</ele>
        <time>2013-06-15T14:41:47Z</time>
      </trkpt>
      <trkpt lat="45.38946" lon="5.76929">
        <ele>1181</ele>
        <time>2013-06-15T14:41:56Z</time>
      </trkpt>
      <trkpt lat="45.38943" lon="5.76957">
        <ele>1178</ele>
        <time>2013-06-15T14:42:13Z</time>
      </trkpt>
      <trkpt lat="45.38938" lon="5.76978">
        <ele>1175</ele>
        <time>2013-06-15T14:42:28Z</time>
      </trkpt>
      <trkpt lat="45.38932" lon="5.7699">
        <ele>1173</ele>
        <time>2013-06-15T14:42:37Z</time>
      </trkpt>
      <trkpt lat="45.38919" lon="5.77007">
        <ele>1170</ele>
        <time>2013-06-15T14:42:56Z</time>
      </trkpt>
      <trkpt lat="45.38918" lon="5.77025">
        <ele>1169</ele>
        <time>2013-06-15T14:43:04Z</time>
      </trkpt>
      <trkpt lat="45.38918" lon="5.77032">
        <ele>1168</ele>
        <time>2013-06-15T14:43:07Z</time>
      </trkpt>
      <trkpt lat="45.38914" lon="5.77037">
        <ele>1167</ele>
        <time>2013-06-15T14:43:10Z</time>
      </trkpt>
      <trkpt lat="45.38915" lon="5.77048">
        <ele>1166</ele>
        <time>2013-06-15T14:43:14Z</time>
      </trkpt>
      <trkpt lat="45.38915" lon="5.77056">
        <ele>1166</ele>
        <time>2013-06-15T14:43:18Z</time>
      </trkpt>
      <trkpt lat="45.38921" lon="5.77064">
        <ele>1164</ele>
        <time>2013-06-15T14:43:28Z</time>
      </trkpt>
      <trkpt lat="45.38927" lon="5.77062">
        <ele>1163</ele>
        <time>2013-06-15T14:43:32Z</time>
      </trkpt>
      <trkpt lat="45.38935" lon="5.77057">
        <ele>1162</ele>
        <time>2013-06-15T14:43:37Z</time>
      </trkpt>
      <trkpt lat="45.38943" lon="5.77028">
        <ele>1159</ele>
        <time>2013-06-15T14:43:58Z</time>
      </trkpt>
      <trkpt lat="45.38964" lon="5.77018">
        <ele>1157</ele>
        <time>2013-06-15T14:44:15Z</time>
      </trkpt>
      <trkpt lat="45.38992" lon="5.77023">
        <ele>1154</ele>
        <time>2013-06-15T14:44:40Z</time>
      </trkpt>
      <trkpt lat="45.39017" lon="5.77011">
        <ele>1150</ele>
        <time>2013-06-15T14:44:59Z</time>
      </trkpt>
      <trkpt lat="45.39033" lon="5.77006">
        <ele>1148</ele>
        <time>2013-06-15T14:45:13Z</time>
      </trkpt>
      <trkpt lat="45.39034" lon="5.77008">
        <ele>1147</ele>
        <time>2013-06-15T14:45:15Z</time>
      </trkpt>
      <trkpt lat="45.39034" lon="5.77015">
        <ele>1147</ele>
        <time>2013-06-15T14:45:19Z</time>
      </trkpt>
      <trkpt lat="45.39033" lon="5.77019">
        <ele>1147</ele>
        <time>2013-06-15T14:45:22Z</time>
      </trkpt>
      <trkpt lat="45.39034" lon="5.77024">
        <ele>1146</ele>
        <time>2013-06-15T14:45:25Z</time>
      </trkpt>
      <trkpt lat="45.39034" lon="5.77031">
        <ele>1145</ele>
        <time>2013-06-15T14:45:29Z</time>
      </trkpt>
      <trkpt lat="45.39018" lon="5.77053">
        <ele>1143</ele>
        <time>2013-06-15T14:45:46Z</time>
      </trkpt>
      <trkpt lat="45.39002" lon="5.77062">
        <ele>1141</ele>
        <time>2013-06-15T14:46:00Z</time>
      </trkpt>
      <trkpt lat="45.38989" lon="5.77068">
        <ele>1140</ele>
        <time>2013-06-15T14:46:08Z</time>
      </trkpt>
      <trkpt lat="45.38985" lon="5.77069">
        <ele>1140</ele>
        <time>2013-06-15T14:46:11Z</time>
      </trkpt>
      <trkpt lat="45.38982" lon="5.77069">
        <ele>1139</ele>
        <time>2013-06-15T14:46:15Z</time>
      </trkpt>
      <trkpt lat="45.38972" lon="5.77071">
        <ele>1138</ele>
        <time>2013-06-15T14:46:24Z</time>
      </trkpt>
      <trkpt lat="45.38967" lon="5.77075">
        <ele>1138</ele>
        <time>2013-06-15T14:46:28Z</time>
      </trkpt>
      <trkpt lat="45.38961" lon="5.77094">
        <ele>1136</ele>
        <time>2013-06-15T14:46:39Z</time>
      </trkpt>
      <trkpt lat="45.38967" lon="5.77106">
        <ele>1134</ele>
        <time>2013-06-15T14:46:47Z</time>
      </trkpt>
      <trkpt lat="45.38978" lon="5.77104">
        <ele>1133</ele>
        <time>2013-06-15T14:47:08Z</time>
      </trkpt>
      <trkpt lat="45.38994" lon="5.77092">
        <ele>1130</ele>
        <time>2013-06-15T14:47:33Z</time>
      </trkpt>
      <trkpt lat="45.39013" lon="5.77103">
        <ele>1127</ele>
        <time>2013-06-15T14:47:50Z</time>
      </trkpt>
      <trkpt lat="45.39028" lon="5.77109">
        <ele>1124</ele>
        <time>2013-06-15T14:48:10Z</time>
      </trkpt>
      <trkpt lat="45.39039" lon="5.77105">
        <ele>1122</ele>
        <time>2013-06-15T14:48:18Z</time>
      </trkpt>
      <trkpt lat="45.39059" lon="5.77079">
        <ele>1120</ele>
        <time>2013-06-15T14:48:39Z</time>
      </trkpt>
      <trkpt lat="45.39061" lon="5.77077">
        <ele>1119</ele>
        <time>2013-06-15T14:48:42Z</time>
      </trkpt>
      <trkpt lat="45.39063" lon="5.77074">
        <ele>1119</ele>
        <time>2013-06-15T14:48:46Z</time>
      </trkpt>
      <trkpt lat="45.39087" lon="5.77064">
        <ele>1115</ele>
        <time>2013-06-15T14:49:04Z</time>
      </trkpt>
      <trkpt lat="45.39099" lon="5.77045">
        <ele>1113</ele>
        <time>2013-06-15T14:49:15Z</time>
      </trkpt>
      <trkpt lat="45.39105" lon="5.77022">
        <ele>1110</ele>
        <time>2013-06-15T14:49:28Z</time>
      </trkpt>
      <trkpt lat="45.39111" lon="5.76987">
        <ele>1107</ele>
        <time>2013-06-15T14:49:49Z</time>
      </trkpt>
      <trkpt lat="45.39115" lon="5.7698">
        <ele>1106</ele>
        <time>2013-06-15T14:49:53Z</time>
      </trkpt>
      <trkpt lat="45.39129" lon="5.76954">
        <ele>1103</ele>
        <time>2013-06-15T14:50:11Z</time>
      </trkpt>
      <trkpt lat="45.39142" lon="5.76936">
        <ele>1099</ele>
        <time>2013-06-15T14:50:27Z</time>
      </trkpt>
      <trkpt lat="45.39145" lon="5.76935">
        <ele>1099</ele>
        <time>2013-06-15T14:50:29Z</time>
      </trkpt>
      <trkpt lat="45.3915" lon="5.76935">
        <ele>1099</ele>
        <time>2013-06-15T14:50:33Z</time>
      </trkpt>
      <trkpt lat="45.39176" lon="5.76914">
        <ele>1095</ele>
        <time>2013-06-15T14:50:53Z</time>
      </trkpt>
      <trkpt lat="45.39178" lon="5.76901">
        <ele>1094</ele>
        <time>2013-06-15T14:50:59Z</time>
      </trkpt>
      <trkpt lat="45.3918" lon="5.76893">
        <ele>1093</ele>
        <time>2013-06-15T14:51:04Z</time>
      </trkpt>
      <trkpt lat="45.39181" lon="5.76891">
        <ele>1093</ele>
        <time>2013-06-15T14:51:06Z</time>
      </trkpt>
      <trkpt lat="45.39191" lon="5.76879">
        <ele>1091</ele>
        <time>2013-06-15T14:51:16Z</time>
      </trkpt>
      <trkpt lat="45.39196" lon="5.76867">
        <ele>1090</ele>
        <time>2013-06-15T14:51:22Z</time>
      </trkpt>
      <trkpt lat="45.39198" lon="5.76859">
        <ele>1090</ele>
        <time>2013-06-15T14:51:27Z</time>
      </trkpt>
      <trkpt lat="45.39198" lon="5.76856">
        <ele>1089</ele>
        <time>2013-06-15T14:51:29Z</time>
      </trkpt>
      <trkpt lat="45.39198" lon="5.76851">
        <ele>1088</ele>
        <time>2013-06-15T14:51:32Z</time>
      </trkpt>
      <trkpt lat="45.39198" lon="5.76845">
        <ele>1087</ele>
        <time>2013-06-15T14:51:36Z</time>
      </trkpt>
      <trkpt lat="45.39197" lon="5.76815">
        <ele>1085</ele>
        <time>2013-06-15T14:51:53Z</time>
      </trkpt>
      <trkpt lat="45.39195" lon="5.76809">
        <ele>1084</ele>
        <time>2013-06-15T14:51:57Z</time>
      </trkpt>
      <trkpt lat="45.39194" lon="5.76791">
        <ele>1083</ele>
        <time>2013-06-15T14:52:05Z</time>
      </trkpt>
      <trkpt lat="45.39192" lon="5.76768">
        <ele>1080</ele>
        <time>2013-06-15T14:52:18Z</time>
      </trkpt>
      <trkpt lat="45.39189" lon="5.76739">
        <ele>1077</ele>
        <time>2013-06-15T14:52:35Z</time>
      </trkpt>
      <trkpt lat="45.39189" lon="5.76729">
        <ele>1077</ele>
        <time>2013-06-15T14:52:41Z</time>
      </trkpt>
      <trkpt lat="45.39173" lon="5.76701">
        <ele>1075</ele>
        <time>2013-06-15T14:53:02Z</time>
      </trkpt>
      <trkpt lat="45.3917" lon="5.76698">
        <ele>1074</ele>
        <time>2013-06-15T14:53:06Z</time>
      </trkpt>
      <trkpt lat="45.39153" lon="5.76682">
        <ele>1072</ele>
        <time>2013-06-15T14:53:25Z</time>
      </trkpt>
      <trkpt lat="45.39145" lon="5.76675">
        <ele>1072</ele>
        <time>2013-06-15T14:53:34Z</time>
      </trkpt>
      <trkpt lat="45.39137" lon="5.76666">
        <ele>1071</ele>
        <time>2013-06-15T14:53:41Z</time>
      </trkpt>
      <trkpt lat="45.39117" lon="5.76646">
        <ele>1069</ele>
        <time>2013-06-15T14:53:54Z</time>
      </trkpt>
      <trkpt lat="45.391" lon="5.76638">
        <ele>1066</ele>
        <time>2013-06-15T14:54:08Z</time>
      </trkpt>
      <trkpt lat="45.39076" lon="5.76624">
        <ele>1065</ele>
        <time>2013-06-15T14:54:30Z</time>
      </trkpt>
      <trkpt lat="45.39065" lon="5.7662">
        <ele>1062</ele>
        <time>2013-06-15T14:54:39Z</time>
      </trkpt>
      <trkpt lat="45.3906" lon="5.76618">
        <ele>1061</ele>
        <time>2013-06-15T14:54:44Z</time>
      </trkpt>
      <trkpt lat="45.39044" lon="5.76616">
        <ele>1059</ele>
        <time>2013-06-15T14:54:58Z</time>
      </trkpt>
      <trkpt lat="45.39039" lon="5.76613">
        <ele>1058</ele>
        <time>2013-06-15T14:55:04Z</time>
      </trkpt>
      <trkpt lat="45.39022" lon="5.76603">
        <ele>1055</ele>
        <time>2013-06-15T14:55:24Z</time>
      </trkpt>
      <trkpt lat="45.39013" lon="5.766">
        <ele>1052</ele>
        <time>2013-06-15T14:55:41Z</time>
      </trkpt>
      <trkpt lat="45.38982" lon="5.76589">
        <ele>1049</ele>
        <time>2013-06-15T14:55:55Z</time>
      </trkpt>
      <trkpt lat="45.38957" lon="5.76579">
        <ele>1047</ele>
        <time>2013-06-15T14:56:02Z</time>
      </trkpt>
      <trkpt lat="45.3896" lon="5.76584">
        <ele>1047</ele>
        <time>2013-06-15T14:56:05Z</time>
      </trkpt>
      <trkpt lat="45.38947" lon="5.76579">
        <ele>1047</ele>
        <time>2013-06-15T14:56:08Z</time>
      </trkpt>
      <trkpt lat="45.38973" lon="5.76557">
        <ele>1043</ele>
        <time>2013-06-15T14:56:24Z</time>
      </trkpt>
      <trkpt lat="45.38977" lon="5.76551">
        <ele>1043</ele>
        <time>2013-06-15T14:56:26Z</time>
      </trkpt>
      <trkpt lat="45.38985" lon="5.76552">
        <ele>1042</ele>
        <time>2013-06-15T14:56:29Z</time>
      </trkpt>
      <trkpt lat="45.38999" lon="5.76548">
        <ele>1040</ele>
        <time>2013-06-15T14:56:39Z</time>
      </trkpt>
      <trkpt lat="45.39013" lon="5.76542">
        <ele>1038</ele>
        <time>2013-06-15T14:56:46Z</time>
      </trkpt>
      <trkpt lat="45.39015" lon="5.76543">
        <ele>1037</ele>
        <time>2013-06-15T14:56:50Z</time>
      </trkpt>
      <trkpt lat="45.3901" lon="5.76545">
        <ele>1036</ele>
        <time>2013-06-15T14:56:55Z</time>
      </trkpt>
      <trkpt lat="45.39001" lon="5.76542">
        <ele>1035</ele>
        <time>2013-06-15T14:57:03Z</time>
      </trkpt>
      <trkpt lat="45.38994" lon="5.76532">
        <ele>1032</ele>
        <time>2013-06-15T14:57:12Z</time>
      </trkpt>
      <trkpt lat="45.38972" lon="5.76532">
        <ele>1028</ele>
        <time>2013-06-15T14:57:31Z</time>
      </trkpt>
      <trkpt lat="45.38956" lon="5.76547">
        <ele>1025</ele>
        <time>2013-06-15T14:57:52Z</time>
      </trkpt>
      <trkpt lat="45.38935" lon="5.76545">
        <ele>1022</ele>
        <time>2013-06-15T14:58:15Z</time>
      </trkpt>
      <trkpt lat="45.38938" lon="5.76533">
        <ele>1021</ele>
        <time>2013-06-15T14:58:23Z</time>
      </trkpt>
      <trkpt lat="45.38939" lon="5.76514">
        <ele>1018</ele>
        <time>2013-06-15T14:58:36Z</time>
      </trkpt>
      <trkpt lat="45.38943" lon="5.76508">
        <ele>1017</ele>
        <time>2013-06-15T14:58:40Z</time>
      </trkpt>
      <trkpt lat="45.3896" lon="5.76498">
        <ele>1013</ele>
        <time>2013-06-15T14:58:55Z</time>
      </trkpt>
      <trkpt lat="45.38961" lon="5.76496">
        <ele>1013</ele>
        <time>2013-06-15T14:58:57Z</time>
      </trkpt>
      <trkpt lat="45.38964" lon="5.76493">
        <ele>1012</ele>
        <time>2013-06-15T14:59:00Z</time>
      </trkpt>
      <trkpt lat="45.38966" lon="5.76486">
        <ele>1011</ele>
        <time>2013-06-15T14:59:05Z</time>
      </trkpt>
      <trkpt lat="45.38964" lon="5.76482">
        <ele>1011</ele>
        <time>2013-06-15T14:59:08Z</time>
      </trkpt>
      <trkpt lat="45.38952" lon="5.76482">
        <ele>1009</ele>
        <time>2013-06-15T14:59:19Z</time>
      </trkpt>
      <trkpt lat="45.38933" lon="5.76491">
        <ele>1005</ele>
        <time>2013-06-15T14:59:35Z</time>
      </trkpt>
      <trkpt lat="45.38916" lon="5.765">
        <ele>1002</ele>
        <time>2013-06-15T14:59:50Z</time>
      </trkpt>
      <trkpt lat="45.38909" lon="5.76498">
        <ele>1000</ele>
        <time>2013-06-15T14:59:57Z</time>
      </trkpt>
      <trkpt lat="45.38897" lon="5.76484">
        <ele>998</ele>
        <time>2013-06-15T15:00:26Z</time>
      </trkpt>
      <trkpt lat="45.3888" lon="5.76471">
        <ele>994</ele>
        <time>2013-06-15T15:00:51Z</time>
      </trkpt>
      <trkpt lat="45.38875" lon="5.7647">
        <ele>993</ele>
        <time>2013-06-15T15:00:55Z</time>
      </trkpt>
      <trkpt lat="45.38863" lon="5.76471">
        <ele>990</ele>
        <time>2013-06-15T15:01:19Z</time>
      </trkpt>
      <trkpt lat="45.38859" lon="5.76471">
        <ele>990</ele>
        <time>2013-06-15T15:01:22Z</time>
      </trkpt>
      <trkpt lat="45.38845" lon="5.76455">
        <ele>987</ele>
        <time>2013-06-15T15:01:33Z</time>
      </trkpt>
      <trkpt lat="45.38824" lon="5.76433">
        <ele>983</ele>
        <time>2013-06-15T15:01:50Z</time>
      </trkpt>
      <trkpt lat="45.38817" lon="5.76429">
        <ele>982</ele>
        <time>2013-06-15T15:01:57Z</time>
      </trkpt>
      <trkpt lat="45.38809" lon="5.76426">
        <ele>981</ele>
        <time>2013-06-15T15:02:01Z</time>
      </trkpt>
      <trkpt lat="45.38805" lon="5.76426">
        <ele>981</ele>
        <time>2013-06-15T15:02:04Z</time>
      </trkpt>
      <trkpt lat="45.38799" lon="5.76424">
        <ele>980</ele>
        <time>2013-06-15T15:02:08Z</time>
      </trkpt>
      <trkpt lat="45.38789" lon="5.76409">
        <ele>977</ele>
        <time>2013-06-15T15:02:19Z</time>
      </trkpt>
      <trkpt lat="45.38787" lon="5.76408">
        <ele>976</ele>
        <time>2013-06-15T15:02:21Z</time>
      </trkpt>
      <trkpt lat="45.38777" lon="5.76395">
        <ele>974</ele>
        <time>2013-06-15T15:02:30Z</time>
      </trkpt>
      <trkpt lat="45.38764" lon="5.76391">
        <ele>971</ele>
        <time>2013-06-15T15:02:46Z</time>
      </trkpt>
      <trkpt lat="45.3876" lon="5.76388">
        <ele>970</ele>
        <time>2013-06-15T15:02:51Z</time>
      </trkpt>
      <trkpt lat="45.38754" lon="5.76386">
        <ele>969</ele>
        <time>2013-06-15T15:02:57Z</time>
      </trkpt>
      <trkpt lat="45.38732" lon="5.76375">
        <ele>966</ele>
        <time>2013-06-15T15:03:14Z</time>
      </trkpt>
      <trkpt lat="45.38724" lon="5.76368">
        <ele>965</ele>
        <time>2013-06-15T15:03:22Z</time>
      </trkpt>
      <trkpt lat="45.38711" lon="5.76357">
        <ele>963</ele>
        <time>2013-06-15T15:03:33Z</time>
      </trkpt>
      <trkpt lat="45.38688" lon="5.76333">
        <ele>961</ele>
        <time>2013-06-15T15:03:52Z</time>
      </trkpt>
      <trkpt lat="45.38684" lon="5.76297">
        <ele>958</ele>
        <time>2013-06-15T15:04:12Z</time>
      </trkpt>
      <trkpt lat="45.3868" lon="5.76285">
        <ele>957</ele>
        <time>2013-06-15T15:04:18Z</time>
      </trkpt>
      <trkpt lat="45.38679" lon="5.76276">
        <ele>956</ele>
        <time>2013-06-15T15:04:23Z</time>
      </trkpt>
      <trkpt lat="45.38657" lon="5.76256">
        <ele>952</ele>
        <time>2013-06-15T15:04:42Z</time>
      </trkpt>
      <trkpt lat="45.38643" lon="5.76256">
        <ele>951</ele>
        <time>2013-06-15T15:04:52Z</time>
      </trkpt>
      <trkpt lat="45.38633" lon="5.76254">
        <ele>950</ele>
        <time>2013-06-15T15:05:00Z</time>
      </trkpt>
      <trkpt lat="45.38631" lon="5.76254">
        <ele>949</ele>
        <time>2013-06-15T15:05:02Z</time>
      </trkpt>
      <trkpt lat="45.38624" lon="5.76252">
        <ele>949</ele>
        <time>2013-06-15T15:05:09Z</time>
      </trkpt>
      <trkpt lat="45.38604" lon="5.76248">
        <ele>946</ele>
        <time>2013-06-15T15:05:27Z</time>
      </trkpt>
      <trkpt lat="45.38603" lon="5.76247">
        <ele>945</ele>
        <time>2013-06-15T15:05:28Z</time>
      </trkpt>
      <trkpt lat="45.38596" lon="5.76241">
        <ele>945</ele>
        <time>2013-06-15T15:05:34Z</time>
      </trkpt>
      <trkpt lat="45.38577" lon="5.76231">
        <ele>941</ele>
        <time>2013-06-15T15:05:47Z</time>
      </trkpt>
      <trkpt lat="45.38561" lon="5.76224">
        <ele>938</ele>
        <time>2013-06-15T15:06:01Z</time>
      </trkpt>
      <trkpt lat="45.38556" lon="5.76223">
        <ele>937</ele>
        <time>2013-06-15T15:06:06Z</time>
      </trkpt>
      <trkpt lat="45.38549" lon="5.76219">
        <ele>936</ele>
        <time>2013-06-15T15:06:11Z</time>
      </trkpt>
      <trkpt lat="45.38527" lon="5.76216">
        <ele>933</ele>
        <time>2013-06-15T15:06:26Z</time>
      </trkpt>
      <trkpt lat="45.38512" lon="5.76214">
        <ele>930</ele>
        <time>2013-06-15T15:06:39Z</time>
      </trkpt>
      <trkpt lat="45.38497" lon="5.76206">
        <ele>927</ele>
        <time>2013-06-15T15:06:52Z</time>
      </trkpt>
      <trkpt lat="45.38493" lon="5.76199">
        <ele>926</ele>
        <time>2013-06-15T15:06:57Z</time>
      </trkpt>
      <trkpt lat="45.38486" lon="5.76188">
        <ele>924</ele>
        <time>2013-06-15T15:07:06Z</time>
      </trkpt>
      <trkpt lat="45.38484" lon="5.76164">
        <ele>921</ele>
        <time>2013-06-15T15:07:22Z</time>
      </trkpt>
      <trkpt lat="45.38481" lon="5.76158">
        <ele>920</ele>
        <time>2013-06-15T15:07:27Z</time>
      </trkpt>
      <trkpt lat="45.38469" lon="5.76141">
        <ele>917</ele>
        <time>2013-06-15T15:07:40Z</time>
      </trkpt>
      <trkpt lat="45.38461" lon="5.76117">
        <ele>914</ele>
        <time>2013-06-15T15:07:56Z</time>
      </trkpt>
      <trkpt lat="45.38458" lon="5.76108">
        <ele>913</ele>
        <time>2013-06-15T15:08:02Z</time>
      </trkpt>
      <trkpt lat="45.38455" lon="5.76091">
        <ele>912</ele>
        <time>2013-06-15T15:08:11Z</time>
      </trkpt>
      <trkpt lat="45.38449" lon="5.76082">
        <ele>911</ele>
        <time>2013-06-15T15:08:16Z</time>
      </trkpt>
      <trkpt lat="45.38448" lon="5.76079">
        <ele>911</ele>
        <time>2013-06-15T15:08:18Z</time>
      </trkpt>
      <trkpt lat="45.38438" lon="5.76067">
        <ele>909</ele>
        <time>2013-06-15T15:08:28Z</time>
      </trkpt>
      <trkpt lat="45.38436" lon="5.76064">
        <ele>908</ele>
        <time>2013-06-15T15:08:30Z</time>
      </trkpt>
      <trkpt lat="45.38435" lon="5.76063">
        <ele>908</ele>
        <time>2013-06-15T15:08:31Z</time>
      </trkpt>
      <trkpt lat="45.38432" lon="5.76058">
        <ele>907</ele>
        <time>2013-06-15T15:08:35Z</time>
      </trkpt>
      <trkpt lat="45.38424" lon="5.76052">
        <ele>905</ele>
        <time>2013-06-15T15:08:44Z</time>
      </trkpt>
      <trkpt lat="45.38424" lon="5.76048">
        <ele>904</ele>
        <time>2013-06-15T15:08:47Z</time>
      </trkpt>
      <trkpt lat="45.3841" lon="5.76031">
        <ele>901</ele>
        <time>2013-06-15T15:09:03Z</time>
      </trkpt>
      <trkpt lat="45.38406" lon="5.76028">
        <ele>900</ele>
        <time>2013-06-15T15:09:06Z</time>
      </trkpt>
      <trkpt lat="45.38401" lon="5.76015">
        <ele>898</ele>
        <time>2013-06-15T15:09:18Z</time>
      </trkpt>
      <trkpt lat="45.38398" lon="5.76012">
        <ele>897</ele>
        <time>2013-06-15T15:09:21Z</time>
      </trkpt>
      <trkpt lat="45.38378" lon="5.75996">
        <ele>893</ele>
        <time>2013-06-15T15:09:38Z</time>
      </trkpt>
      <trkpt lat="45.38373" lon="5.75977">
        <ele>890</ele>
        <time>2013-06-15T15:09:52Z</time>
      </trkpt>
      <trkpt lat="45.38362" lon="5.7596">
        <ele>887</ele>
        <time>2013-06-15T15:10:06Z</time>
      </trkpt>
      <trkpt lat="45.38359" lon="5.75957">
        <ele>887</ele>
        <time>2013-06-15T15:10:08Z</time>
      </trkpt>
      <trkpt lat="45.38357" lon="5.75953">
        <ele>886</ele>
        <time>2013-06-15T15:10:11Z</time>
      </trkpt>
      <trkpt lat="45.38352" lon="5.75947">
        <ele>885</ele>
        <time>2013-06-15T15:10:16Z</time>
      </trkpt>
      <trkpt lat="45.38351" lon="5.75941">
        <ele>885</ele>
        <time>2013-06-15T15:10:18Z</time>
      </trkpt>
      <trkpt lat="45.38354" lon="5.75934">
        <ele>883</ele>
        <time>2013-06-15T15:10:21Z</time>
      </trkpt>
      <trkpt lat="45.38356" lon="5.75916">
        <ele>880</ele>
        <time>2013-06-15T15:10:36Z</time>
      </trkpt>
      <trkpt lat="45.38356" lon="5.7591">
        <ele>879</ele>
        <time>2013-06-15T15:10:38Z</time>
      </trkpt>
      <trkpt lat="45.38351" lon="5.75886">
        <ele>876</ele>
        <time>2013-06-15T15:10:51Z</time>
      </trkpt>
      <trkpt lat="45.38339" lon="5.75863">
        <ele>873</ele>
        <time>2013-06-15T15:11:05Z</time>
      </trkpt>
      <trkpt lat="45.38329" lon="5.75845">
        <ele>870</ele>
        <time>2013-06-15T15:11:19Z</time>
      </trkpt>
      <trkpt lat="45.38316" lon="5.75828">
        <ele>866</ele>
        <time>2013-06-15T15:11:33Z</time>
      </trkpt>
      <trkpt lat="45.38311" lon="5.75825">
        <ele>866</ele>
        <time>2013-06-15T15:11:37Z</time>
      </trkpt>
      <trkpt lat="45.38308" lon="5.75823">
        <ele>865</ele>
        <time>2013-06-15T15:11:40Z</time>
      </trkpt>
      <trkpt lat="45.38292" lon="5.75815">
        <ele>862</ele>
        <time>2013-06-15T15:11:54Z</time>
      </trkpt>
      <trkpt lat="45.38282" lon="5.75812">
        <ele>861</ele>
        <time>2013-06-15T15:12:00Z</time>
      </trkpt>
      <trkpt lat="45.38276" lon="5.75812">
        <ele>860</ele>
        <time>2013-06-15T15:12:06Z</time>
      </trkpt>
      <trkpt lat="45.38263" lon="5.75795">
        <ele>857</ele>
        <time>2013-06-15T15:12:21Z</time>
      </trkpt>
      <trkpt lat="45.38262" lon="5.7579">
        <ele>856</ele>
        <time>2013-06-15T15:12:26Z</time>
      </trkpt>
      <trkpt lat="45.38259" lon="5.75785">
        <ele>855</ele>
        <time>2013-06-15T15:12:30Z</time>
      </trkpt>
      <trkpt lat="45.38249" lon="5.75777">
        <ele>851</ele>
        <time>2013-06-15T15:12:42Z</time>
      </trkpt>
      <trkpt lat="45.3824" lon="5.7577">
        <ele>849</ele>
        <time>2013-06-15T15:12:52Z</time>
      </trkpt>
      <trkpt lat="45.38233" lon="5.75769">
        <ele>848</ele>
        <time>2013-06-15T15:12:58Z</time>
      </trkpt>
      <trkpt lat="45.38226" lon="5.75774">
        <ele>846</ele>
        <time>2013-06-15T15:13:04Z</time>
      </trkpt>
      <trkpt lat="45.38221" lon="5.75778">
        <ele>845</ele>
        <time>2013-06-15T15:13:08Z</time>
      </trkpt>
      <trkpt lat="45.38214" lon="5.75777">
        <ele>844</ele>
        <time>2013-06-15T15:13:13Z</time>
      </trkpt>
      <trkpt lat="45.38209" lon="5.75781">
        <ele>843</ele>
        <time>2013-06-15T15:13:17Z</time>
      </trkpt>
      <trkpt lat="45.38201" lon="5.75783">
        <ele>842</ele>
        <time>2013-06-15T15:13:23Z</time>
      </trkpt>
      <trkpt lat="45.38196" lon="5.75784">
        <ele>841</ele>
        <time>2013-06-15T15:13:27Z</time>
      </trkpt>
      <trkpt lat="45.38194" lon="5.75785">
        <ele>841</ele>
        <time>2013-06-15T15:13:29Z</time>
      </trkpt>
      <trkpt lat="45.38193" lon="5.75783">
        <ele>840</ele>
        <time>2013-06-15T15:13:31Z</time>
      </trkpt>
      <trkpt lat="45.38192" lon="5.75783">
        <ele>840</ele>
        <time>2013-06-15T15:13:32Z</time>
      </trkpt>
      <trkpt lat="45.38176" lon="5.75776">
        <ele>837</ele>
        <time>2013-06-15T15:13:45Z</time>
      </trkpt>
      <trkpt lat="45.38174" lon="5.75775">
        <ele>836</ele>
        <time>2013-06-15T15:13:53Z</time>
      </trkpt>
      <trkpt lat="45.38195" lon="5.75766">
        <ele>833</ele>
        <time>2013-06-15T15:14:13Z</time>
      </trkpt>
      <trkpt lat="45.38208" lon="5.75757">
        <ele>832</ele>
        <time>2013-06-15T15:14:23Z</time>
      </trkpt>
      <trkpt lat="45.38214" lon="5.75749">
        <ele>832</ele>
        <time>2013-06-15T15:14:29Z</time>
      </trkpt>
      <trkpt lat="45.38234" lon="5.75727">
        <ele>830</ele>
        <time>2013-06-15T15:14:49Z</time>
      </trkpt>
      <trkpt lat="45.38235" lon="5.75723">
        <ele>829</ele>
        <time>2013-06-15T15:14:51Z</time>
      </trkpt>
      <trkpt lat="45.3824" lon="5.75717">
        <ele>828</ele>
        <time>2013-06-15T15:14:55Z</time>
      </trkpt>
      <trkpt lat="45.38264" lon="5.7572">
        <ele>825</ele>
        <time>2013-06-15T15:15:13Z</time>
      </trkpt>
      <trkpt lat="45.38283" lon="5.75718">
        <ele>822</ele>
        <time>2013-06-15T15:15:30Z</time>
      </trkpt>
      <trkpt lat="45.38291" lon="5.75716">
        <ele>820</ele>
        <time>2013-06-15T15:15:37Z</time>
      </trkpt>
      <trkpt lat="45.38308" lon="5.75707">
        <ele>817</ele>
        <time>2013-06-15T15:15:51Z</time>
      </trkpt>
      <trkpt lat="45.38319" lon="5.75706">
        <ele>815</ele>
        <time>2013-06-15T15:16:01Z</time>
      </trkpt>
      <trkpt lat="45.38325" lon="5.75707">
        <ele>813</ele>
        <time>2013-06-15T15:16:05Z</time>
      </trkpt>
      <trkpt lat="45.38341" lon="5.75719">
        <ele>811</ele>
        <time>2013-06-15T15:16:20Z</time>
      </trkpt>
      <trkpt lat="45.38364" lon="5.75731">
        <ele>807</ele>
        <time>2013-06-15T15:16:41Z</time>
      </trkpt>
      <trkpt lat="45.38369" lon="5.75733">
        <ele>806</ele>
        <time>2013-06-15T15:16:45Z</time>
      </trkpt>
      <trkpt lat="45.38384" lon="5.75739">
        <ele>805</ele>
        <time>2013-06-15T15:16:56Z</time>
      </trkpt>
      <trkpt lat="45.38394" lon="5.75743">
        <ele>804</ele>
        <time>2013-06-15T15:17:04Z</time>
      </trkpt>
      <trkpt lat="45.38403" lon="5.7575">
        <ele>802</ele>
        <time>2013-06-15T15:17:11Z</time>
      </trkpt>
      <trkpt lat="45.38411" lon="5.7576">
        <ele>801</ele>
        <time>2013-06-15T15:17:18Z</time>
      </trkpt>
      <trkpt lat="45.38421" lon="5.75771">
        <ele>800</ele>
        <time>2013-06-15T15:17:26Z</time>
      </trkpt>
      <trkpt lat="45.38422" lon="5.75776">
        <ele>800</ele>
        <time>2013-06-15T15:17:29Z</time>
      </trkpt>
      <trkpt lat="45.38423" lon="5.75777">
        <ele>799</ele>
        <time>2013-06-15T15:17:31Z</time>
      </trkpt>
      <trkpt lat="45.38435" lon="5.75786">
        <ele>797</ele>
        <time>2013-06-15T15:17:45Z</time>
      </trkpt>
      <trkpt lat="45.38439" lon="5.75792">
        <ele>797</ele>
        <time>2013-06-15T15:17:47Z</time>
      </trkpt>
      <trkpt lat="45.38451" lon="5.75792">
        <ele>795</ele>
        <time>2013-06-15T15:17:57Z</time>
      </trkpt>
      <trkpt lat="45.38458" lon="5.75793">
        <ele>794</ele>
        <time>2013-06-15T15:18:02Z</time>
      </trkpt>
      <trkpt lat="45.38463" lon="5.75796">
        <ele>793</ele>
        <time>2013-06-15T15:18:09Z</time>
      </trkpt>
      <trkpt lat="45.38478" lon="5.75812">
        <ele>790</ele>
        <time>2013-06-15T15:18:26Z</time>
      </trkpt>
      <trkpt lat="45.38496" lon="5.75846">
        <ele>786</ele>
        <time>2013-06-15T15:18:44Z</time>
      </trkpt>
      <trkpt lat="45.385" lon="5.7585">
        <ele>786</ele>
        <time>2013-06-15T15:18:46Z</time>
      </trkpt>
      <trkpt lat="45.38508" lon="5.75856">
        <ele>786</ele>
        <time>2013-06-15T15:18:54Z</time>
      </trkpt>
      <trkpt lat="45.38508" lon="5.75859">
        <ele>785</ele>
        <time>2013-06-15T15:18:56Z</time>
      </trkpt>
      <trkpt lat="45.38515" lon="5.75863">
        <ele>784</ele>
        <time>2013-06-15T15:19:01Z</time>
      </trkpt>
      <trkpt lat="45.38522" lon="5.75872">
        <ele>782</ele>
        <time>2013-06-15T15:19:10Z</time>
      </trkpt>
      <trkpt lat="45.38536" lon="5.75885">
        <ele>780</ele>
        <time>2013-06-15T15:19:23Z</time>
      </trkpt>
      <trkpt lat="45.38544" lon="5.7589">
        <ele>779</ele>
        <time>2013-06-15T15:19:29Z</time>
      </trkpt>
      <trkpt lat="45.38554" lon="5.75896">
        <ele>777</ele>
        <time>2013-06-15T15:19:38Z</time>
      </trkpt>
      <trkpt lat="45.38565" lon="5.75889">
        <ele>776</ele>
        <time>2013-06-15T15:19:47Z</time>
      </trkpt>
      <trkpt lat="45.3857" lon="5.75887">
        <ele>776</ele>
        <time>2013-06-15T15:19:51Z</time>
      </trkpt>
      <trkpt lat="45.38578" lon="5.75864">
        <ele>774</ele>
        <time>2013-06-15T15:20:07Z</time>
      </trkpt>
      <trkpt lat="45.38579" lon="5.7586">
        <ele>774</ele>
        <time>2013-06-15T15:20:10Z</time>
      </trkpt>
      <trkpt lat="45.38584" lon="5.75839">
        <ele>772</ele>
        <time>2013-06-15T15:20:20Z</time>
      </trkpt>
      <trkpt lat="45.38581" lon="5.75814">
        <ele>770</ele>
        <time>2013-06-15T15:20:31Z</time>
      </trkpt>
      <trkpt lat="45.38582" lon="5.75785">
        <ele>768</ele>
        <time>2013-06-15T15:20:43Z</time>
      </trkpt>
      <trkpt lat="45.38583" lon="5.75772">
        <ele>766</ele>
        <time>2013-06-15T15:20:50Z</time>
      </trkpt>
      <trkpt lat="45.38587" lon="5.7577">
        <ele>765</ele>
        <time>2013-06-15T15:20:55Z</time>
      </trkpt>
      <trkpt lat="45.38588" lon="5.75743">
        <ele>762</ele>
        <time>2013-06-15T15:21:11Z</time>
      </trkpt>
      <trkpt lat="45.38595" lon="5.75718">
        <ele>759</ele>
        <time>2013-06-15T15:21:25Z</time>
      </trkpt>
      <trkpt lat="45.38598" lon="5.7571">
        <ele>759</ele>
        <time>2013-06-15T15:21:30Z</time>
      </trkpt>
      <trkpt lat="45.38599" lon="5.75701">
        <ele>757</ele>
        <time>2013-06-15T15:21:33Z</time>
      </trkpt>
      <trkpt lat="45.38612" lon="5.75687">
        <ele>755</ele>
        <time>2013-06-15T15:22:02Z</time>
      </trkpt>
      <trkpt lat="45.38625" lon="5.75681">
        <ele>753</ele>
        <time>2013-06-15T15:22:33Z</time>
      </trkpt>
      <trkpt lat="45.38629" lon="5.75676">
        <ele>752</ele>
        <time>2013-06-15T15:22:36Z</time>
      </trkpt>
      <trkpt lat="45.38636" lon="5.75674">
        <ele>751</ele>
        <time>2013-06-15T15:22:41Z</time>
      </trkpt>
      <trkpt lat="45.38645" lon="5.75668">
        <ele>750</ele>
        <time>2013-06-15T15:22:46Z</time>
      </trkpt>
      <trkpt lat="45.38655" lon="5.75664">
        <ele>749</ele>
        <time>2013-06-15T15:22:54Z</time>
      </trkpt>
      <trkpt lat="45.38657" lon="5.75661">
        <ele>748</ele>
        <time>2013-06-15T15:22:58Z</time>
      </trkpt>
      <trkpt lat="45.3866" lon="5.75663">
        <ele>748</ele>
        <time>2013-06-15T15:23:00Z</time>
      </trkpt>
      <trkpt lat="45.38665" lon="5.75662">
        <ele>747</ele>
        <time>2013-06-15T15:23:03Z</time>
      </trkpt>
      <trkpt lat="45.38671" lon="5.75658">
        <ele>746</ele>
        <time>2013-06-15T15:23:08Z</time>
      </trkpt>
      <trkpt lat="45.38682" lon="5.75657">
        <ele>744</ele>
        <time>2013-06-15T15:23:18Z</time>
      </trkpt>
      <trkpt lat="45.38685" lon="5.7566">
        <ele>744</ele>
        <time>2013-06-15T15:23:20Z</time>
      </trkpt>
      <trkpt lat="45.38692" lon="5.75658">
        <ele>742</ele>
        <time>2013-06-15T15:23:27Z</time>
      </trkpt>
      <trkpt lat="45.38699" lon="5.75661">
        <ele>741</ele>
        <time>2013-06-15T15:23:33Z</time>
      </trkpt>
      <trkpt lat="45.38709" lon="5.75669">
        <ele>739</ele>
        <time>2013-06-15T15:23:42Z</time>
      </trkpt>
      <trkpt lat="45.38711" lon="5.75673">
        <ele>738</ele>
        <time>2013-06-15T15:23:45Z</time>
      </trkpt>
      <trkpt lat="45.38712" lon="5.75675">
        <ele>738</ele>
        <time>2013-06-15T15:23:47Z</time>
      </trkpt>
      <trkpt lat="45.38713" lon="5.75679">
        <ele>737</ele>
        <time>2013-06-15T15:23:50Z</time>
      </trkpt>
      <trkpt lat="45.38723" lon="5.75694">
        <ele>735</ele>
        <time>2013-06-15T15:24:04Z</time>
      </trkpt>
      <trkpt lat="45.38736" lon="5.75707">
        <ele>732</ele>
        <time>2013-06-15T15:24:20Z</time>
      </trkpt>
      <trkpt lat="45.38739" lon="5.7571">
        <ele>731</ele>
        <time>2013-06-15T15:24:24Z</time>
      </trkpt>
      <trkpt lat="45.3875" lon="5.75721">
        <ele>729</ele>
        <time>2013-06-15T15:24:34Z</time>
      </trkpt>
      <trkpt lat="45.38752" lon="5.75721">
        <ele>729</ele>
        <time>2013-06-15T15:24:36Z</time>
      </trkpt>
      <trkpt lat="45.38757" lon="5.75722">
        <ele>728</ele>
        <time>2013-06-15T15:24:41Z</time>
      </trkpt>
      <trkpt lat="45.38759" lon="5.75722">
        <ele>727</ele>
        <time>2013-06-15T15:24:43Z</time>
      </trkpt>
      <trkpt lat="45.38768" lon="5.75713">
        <ele>726</ele>
        <time>2013-06-15T15:24:51Z</time>
      </trkpt>
      <trkpt lat="45.38772" lon="5.7571">
        <ele>725</ele>
        <time>2013-06-15T15:24:55Z</time>
      </trkpt>
      <trkpt lat="45.38775" lon="5.757">
        <ele>723</ele>
        <time>2013-06-15T15:25:04Z</time>
      </trkpt>
      <trkpt lat="45.3878" lon="5.75695">
        <ele>723</ele>
        <time>2013-06-15T15:25:09Z</time>
      </trkpt>
      <trkpt lat="45.38789" lon="5.7569">
        <ele>721</ele>
        <time>2013-06-15T15:25:15Z</time>
      </trkpt>
      <trkpt lat="45.38791" lon="5.75687">
        <ele>721</ele>
        <time>2013-06-15T15:25:17Z</time>
      </trkpt>
      <trkpt lat="45.38807" lon="5.75688">
        <ele>718</ele>
        <time>2013-06-15T15:25:29Z</time>
      </trkpt>
      <trkpt lat="45.38814" lon="5.75694">
        <ele>717</ele>
        <time>2013-06-15T15:25:35Z</time>
      </trkpt>
      <trkpt lat="45.38825" lon="5.75712">
        <ele>713</ele>
        <time>2013-06-15T15:25:52Z</time>
      </trkpt>
      <trkpt lat="45.3883" lon="5.75722">
        <ele>712</ele>
        <time>2013-06-15T15:25:59Z</time>
      </trkpt>
      <trkpt lat="45.38833" lon="5.75731">
        <ele>712</ele>
        <time>2013-06-15T15:26:04Z</time>
      </trkpt>
      <trkpt lat="45.38836" lon="5.75742">
        <ele>710</ele>
        <time>2013-06-15T15:26:39Z</time>
      </trkpt>
      <trkpt lat="45.38837" lon="5.75743">
        <ele>710</ele>
        <time>2013-06-15T15:27:45Z</time>
      </trkpt>
      <trkpt lat="45.38838" lon="5.75757">
        <ele>708</ele>
        <time>2013-06-15T15:28:37Z</time>
      </trkpt>
      <trkpt lat="45.38846" lon="5.75772">
        <ele>705</ele>
        <time>2013-06-15T15:28:53Z</time>
      </trkpt>
      <trkpt lat="45.38859" lon="5.75785">
        <ele>701</ele>
        <time>2013-06-15T15:29:12Z</time>
      </trkpt>
      <trkpt lat="45.38865" lon="5.7579">
        <ele>700</ele>
        <time>2013-06-15T15:29:18Z</time>
      </trkpt>
      <trkpt lat="45.38871" lon="5.75791">
        <ele>700</ele>
        <time>2013-06-15T15:29:22Z</time>
      </trkpt>
      <trkpt lat="45.38892" lon="5.75794">
        <ele>696</ele>
        <time>2013-06-15T15:29:40Z</time>
      </trkpt>
      <trkpt lat="45.38895" lon="5.75793">
        <ele>696</ele>
        <time>2013-06-15T15:29:43Z</time>
      </trkpt>
      <trkpt lat="45.38901" lon="5.75795">
        <ele>695</ele>
        <time>2013-06-15T15:29:47Z</time>
      </trkpt>
      <trkpt lat="45.38913" lon="5.75784">
        <ele>692</ele>
        <time>2013-06-15T15:30:06Z</time>
      </trkpt>
      <trkpt lat="45.38901" lon="5.75775">
        <ele>688</ele>
        <time>2013-06-15T15:30:22Z</time>
      </trkpt>
      <trkpt lat="45.38891" lon="5.75769">
        <ele>687</ele>
        <time>2013-06-15T15:30:29Z</time>
      </trkpt>
      <trkpt lat="45.38887" lon="5.75766">
        <ele>686</ele>
        <time>2013-06-15T15:30:33Z</time>
      </trkpt>
      <trkpt lat="45.38874" lon="5.75751">
        <ele>683</ele>
        <time>2013-06-15T15:30:49Z</time>
      </trkpt>
      <trkpt lat="45.38871" lon="5.75746">
        <ele>683</ele>
        <time>2013-06-15T15:30:52Z</time>
      </trkpt>
      <trkpt lat="45.38868" lon="5.75736">
        <ele>681</ele>
        <time>2013-06-15T15:30:58Z</time>
      </trkpt>
      <trkpt lat="45.38868" lon="5.75726">
        <ele>680</ele>
        <time>2013-06-15T15:31:04Z</time>
      </trkpt>
      <trkpt lat="45.38875" lon="5.75722">
        <ele>679</ele>
        <time>2013-06-15T15:31:12Z</time>
      </trkpt>
      <trkpt lat="45.38881" lon="5.75723">
        <ele>677</ele>
        <time>2013-06-15T15:31:18Z</time>
      </trkpt>
      <trkpt lat="45.38894" lon="5.75729">
        <ele>674</ele>
        <time>2013-06-15T15:31:30Z</time>
      </trkpt>
      <trkpt lat="45.38896" lon="5.75729">
        <ele>674</ele>
        <time>2013-06-15T15:31:31Z</time>
      </trkpt>
      <trkpt lat="45.38912" lon="5.75725">
        <ele>670</ele>
        <time>2013-06-15T15:31:47Z</time>
      </trkpt>
      <trkpt lat="45.38926" lon="5.75709">
        <ele>667</ele>
        <time>2013-06-15T15:32:02Z</time>
      </trkpt>
      <trkpt lat="45.3894" lon="5.75707">
        <ele>664</ele>
        <time>2013-06-15T15:32:16Z</time>
      </trkpt>
      <trkpt lat="45.38962" lon="5.75703">
        <ele>662</ele>
        <time>2013-06-15T15:32:33Z</time>
      </trkpt>
      <trkpt lat="45.38963" lon="5.75703">
        <ele>661</ele>
        <time>2013-06-15T15:32:34Z</time>
      </trkpt>
      <trkpt lat="45.38971" lon="5.757">
        <ele>660</ele>
        <time>2013-06-15T15:33:08Z</time>
      </trkpt>
      <trkpt lat="45.38991" lon="5.75689">
        <ele>657</ele>
        <time>2013-06-15T15:33:26Z</time>
      </trkpt>
      <trkpt lat="45.39003" lon="5.75681">
        <ele>655</ele>
        <time>2013-06-15T15:33:37Z</time>
      </trkpt>
      <trkpt lat="45.39015" lon="5.75679">
        <ele>652</ele>
        <time>2013-06-15T15:33:51Z</time>
      </trkpt>
      <trkpt lat="45.39024" lon="5.75686">
        <ele>649</ele>
        <time>2013-06-15T15:34:03Z</time>
      </trkpt>
      <trkpt lat="45.39033" lon="5.75693">
        <ele>646</ele>
        <time>2013-06-15T15:34:15Z</time>
      </trkpt>
      <trkpt lat="45.39038" lon="5.75696">
        <ele>645</ele>
        <time>2013-06-15T15:34:21Z</time>
      </trkpt>
      <trkpt lat="45.39042" lon="5.75696">
        <ele>644</ele>
        <time>2013-06-15T15:34:24Z</time>
      </trkpt>
      <trkpt lat="45.39044" lon="5.75697">
        <ele>643</ele>
        <time>2013-06-15T15:34:26Z</time>
      </trkpt>
      <trkpt lat="45.3906" lon="5.75713">
        <ele>640</ele>
        <time>2013-06-15T15:34:43Z</time>
      </trkpt>
      <trkpt lat="45.39062" lon="5.75712">
        <ele>639</ele>
        <time>2013-06-15T15:34:44Z</time>
      </trkpt>
      <trkpt lat="45.39064" lon="5.75711">
        <ele>639</ele>
        <time>2013-06-15T15:34:46Z</time>
      </trkpt>
      <trkpt lat="45.39084" lon="5.75719">
        <ele>636</ele>
        <time>2013-06-15T15:35:05Z</time>
      </trkpt>
      <trkpt lat="45.39091" lon="5.75735">
        <ele>633</ele>
        <time>2013-06-15T15:35:29Z</time>
      </trkpt>
      <trkpt lat="45.39102" lon="5.75749">
        <ele>629</ele>
        <time>2013-06-15T15:35:43Z</time>
      </trkpt>
      <trkpt lat="45.39107" lon="5.75753">
        <ele>629</ele>
        <time>2013-06-15T15:35:50Z</time>
      </trkpt>
      <trkpt lat="45.39115" lon="5.7575">
        <ele>626</ele>
        <time>2013-06-15T15:35:58Z</time>
      </trkpt>
      <trkpt lat="45.39117" lon="5.75748">
        <ele>626</ele>
        <time>2013-06-15T15:36:00Z</time>
      </trkpt>
      <trkpt lat="45.39121" lon="5.75746">
        <ele>625</ele>
        <time>2013-06-15T15:36:04Z</time>
      </trkpt>
      <trkpt lat="45.39129" lon="5.75746">
        <ele>623</ele>
        <time>2013-06-15T15:36:17Z</time>
      </trkpt>
      <trkpt lat="45.39141" lon="5.75742">
        <ele>619</ele>
        <time>2013-06-15T15:36:32Z</time>
      </trkpt>
      <trkpt lat="45.39153" lon="5.75745">
        <ele>620</ele>
        <time>2013-06-15T15:37:07Z</time>
      </trkpt>
      <trkpt lat="45.39158" lon="5.75744">
        <ele>617</ele>
        <time>2013-06-15T15:37:33Z</time>
      </trkpt>
      <trkpt lat="45.3917" lon="5.75736">
        <ele>613</ele>
        <time>2013-06-15T15:37:49Z</time>
      </trkpt>
      <trkpt lat="45.39189" lon="5.75736">
        <ele>610</ele>
        <time>2013-06-15T15:38:08Z</time>
      </trkpt>
      <trkpt lat="45.39204" lon="5.75737">
        <ele>607</ele>
        <time>2013-06-15T15:38:22Z</time>
      </trkpt>
      <trkpt lat="45.39221" lon="5.75745">
        <ele>603</ele>
        <time>2013-06-15T15:38:45Z</time>
      </trkpt>
      <trkpt lat="45.39237" lon="5.75756">
        <ele>602</ele>
        <time>2013-06-15T15:38:57Z</time>
      </trkpt>
      <trkpt lat="45.39254" lon="5.75771">
        <ele>598</ele>
        <time>2013-06-15T15:39:18Z</time>
      </trkpt>
      <trkpt lat="45.39275" lon="5.75778">
        <ele>595</ele>
        <time>2013-06-15T15:39:37Z</time>
      </trkpt>
      <trkpt lat="45.39285" lon="5.75784">
        <ele>595</ele>
        <time>2013-06-15T15:40:02Z</time>
      </trkpt>
      <trkpt lat="45.39286" lon="5.75785">
        <ele>594</ele>
        <time>2013-06-15T15:40:40Z</time>
      </trkpt>
      <trkpt lat="45.39287" lon="5.75783">
        <ele>593</ele>
        <time>2013-06-15T15:41:50Z</time>
      </trkpt>
      <trkpt lat="45.39282" lon="5.75739">
        <ele>589</ele>
        <time>2013-06-15T15:42:16Z</time>
      </trkpt>
      <trkpt lat="45.39282" lon="5.7573">
        <ele>589</ele>
        <time>2013-06-15T15:42:21Z</time>
      </trkpt>
      <trkpt lat="45.39284" lon="5.75699">
        <ele>588</ele>
        <time>2013-06-15T15:42:37Z</time>
      </trkpt>
      <trkpt lat="45.39281" lon="5.75687">
        <ele>588</ele>
        <time>2013-06-15T15:42:44Z</time>
      </trkpt>
      <trkpt lat="45.39266" lon="5.75644">
        <ele>587</ele>
        <time>2013-06-15T15:43:10Z</time>
      </trkpt>
      <trkpt lat="45.39262" lon="5.75595">
        <ele>585</ele>
        <time>2013-06-15T15:43:36Z</time>
      </trkpt>
      <trkpt lat="45.39259" lon="5.75591">
        <ele>585</ele>
        <time>2013-06-15T15:43:39Z</time>
      </trkpt>
      <trkpt lat="45.39254" lon="5.75584">
        <ele>585</ele>
        <time>2013-06-15T15:43:44Z</time>
      </trkpt>
      <trkpt lat="45.39237" lon="5.7555">
        <ele>583</ele>
        <time>2013-06-15T15:44:07Z</time>
      </trkpt>
      <trkpt lat="45.39234" lon="5.75544">
        <ele>582</ele>
        <time>2013-06-15T15:44:11Z</time>
      </trkpt>
      <trkpt lat="45.39229" lon="5.7553">
        <ele>582</ele>
        <time>2013-06-15T15:44:20Z</time>
      </trkpt>
      <trkpt lat="45.39217" lon="5.75504">
        <ele>581</ele>
        <time>2013-06-15T15:44:37Z</time>
      </trkpt>
      <trkpt lat="45.39214" lon="5.75501">
        <ele>581</ele>
        <time>2013-06-15T15:44:40Z</time>
      </trkpt>
      <trkpt lat="45.39208" lon="5.75479">
        <ele>580</ele>
        <time>2013-06-15T15:44:53Z</time>
      </trkpt>
      <trkpt lat="45.39199" lon="5.75467">
        <ele>580</ele>
        <time>2013-06-15T15:45:02Z</time>
      </trkpt>
      <trkpt lat="45.39185" lon="5.7544">
        <ele>580</ele>
        <time>2013-06-15T15:45:17Z</time>
      </trkpt>
      <trkpt lat="45.39186" lon="5.75433">
        <ele>580</ele>
        <time>2013-06-15T15:45:21Z</time>
      </trkpt>
      <trkpt lat="45.39167" lon="5.75388">
        <ele>578</ele>
        <time>2013-06-15T15:45:50Z</time>
      </trkpt>
      <trkpt lat="45.3916" lon="5.75371">
        <ele>578</ele>
        <time>2013-06-15T15:46:00Z</time>
      </trkpt>
      <trkpt lat="45.39147" lon="5.75353">
        <ele>578</ele>
        <time>2013-06-15T15:46:17Z</time>
      </trkpt>
      <trkpt lat="45.39137" lon="5.75326">
        <ele>578</ele>
        <time>2013-06-15T15:46:32Z</time>
      </trkpt>
      <trkpt lat="45.39128" lon="5.75308">
        <ele>577</ele>
        <time>2013-06-15T15:46:43Z</time>
      </trkpt>
      <trkpt lat="45.39127" lon="5.753">
        <ele>577</ele>
        <time>2013-06-15T15:46:48Z</time>
      </trkpt>
      <trkpt lat="45.39112" lon="5.75271">
        <ele>576</ele>
        <time>2013-06-15T15:47:08Z</time>
      </trkpt>
      <trkpt lat="45.39103" lon="5.75252">
        <ele>576</ele>
        <time>2013-06-15T15:47:26Z</time>
      </trkpt>
      <trkpt lat="45.391" lon="5.75252">
        <ele>576</ele>
        <time>2013-06-15T15:47:27Z</time>
      </trkpt>
      <trkpt lat="45.39092" lon="5.75247">
        <ele>575</ele>
        <time>2013-06-15T15:47:33Z</time>
      </trkpt>
      <trkpt lat="45.3909" lon="5.75245">
        <ele>575</ele>
        <time>2013-06-15T15:47:35Z</time>
      </trkpt>
      <trkpt lat="45.39083" lon="5.75242">
        <ele>574</ele>
        <time>2013-06-15T15:47:43Z</time>
      </trkpt>
      <trkpt lat="45.39073" lon="5.75234">
        <ele>572</ele>
        <time>2013-06-15T15:47:59Z</time>
      </trkpt>
      <trkpt lat="45.39079" lon="5.75229">
        <ele>570</ele>
        <time>2013-06-15T15:49:25Z</time>
      </trkpt>
      <trkpt lat="45.39091" lon="5.7523">
        <ele>569</ele>
        <time>2013-06-15T15:50:53Z</time>
      </trkpt>
      <trkpt lat="45.39095" lon="5.75231">
        <ele>568</ele>
        <time>2013-06-15T15:50:57Z</time>
      </trkpt>
      <trkpt lat="45.3913" lon="5.75239">
        <ele>565</ele>
        <time>2013-06-15T15:51:26Z</time>
      </trkpt>
      <trkpt lat="45.39136" lon="5.75241">
        <ele>565</ele>
        <time>2013-06-15T15:51:31Z</time>
      </trkpt>
      <trkpt lat="45.39169" lon="5.75255">
        <ele>563</ele>
        <time>2013-06-15T15:51:58Z</time>
      </trkpt>
      <trkpt lat="45.39184" lon="5.75282">
        <ele>560</ele>
        <time>2013-06-15T15:52:20Z</time>
      </trkpt>
      <trkpt lat="45.39206" lon="5.75308">
        <ele>557</ele>
        <time>2013-06-15T15:52:46Z</time>
      </trkpt>
      <trkpt lat="45.39227" lon="5.75327">
        <ele>553</ele>
        <time>2013-06-15T15:53:07Z</time>
      </trkpt>
      <trkpt lat="45.39262" lon="5.75346">
        <ele>550</ele>
        <time>2013-06-15T15:53:35Z</time>
      </trkpt>
      <trkpt lat="45.3929" lon="5.75356">
        <ele>549</ele>
        <time>2013-06-15T15:54:00Z</time>
      </trkpt>
      <trkpt lat="45.39318" lon="5.75351">
        <ele>545</ele>
        <time>2013-06-15T15:54:22Z</time>
      </trkpt>
      <trkpt lat="45.39323" lon="5.75349">
        <ele>546</ele>
        <time>2013-06-15T15:54:26Z</time>
      </trkpt>
      <trkpt lat="45.39335" lon="5.75344">
        <ele>544</ele>
        <time>2013-06-15T15:54:34Z</time>
      </trkpt>
      <trkpt lat="45.39337" lon="5.75344">
        <ele>544</ele>
        <time>2013-06-15T15:54:36Z</time>
      </trkpt>
      <trkpt lat="45.39353" lon="5.75335">
        <ele>543</ele>
        <time>2013-06-15T15:54:53Z</time>
      </trkpt>
      <trkpt lat="45.39373" lon="5.75313">
        <ele>541</ele>
        <time>2013-06-15T15:55:17Z</time>
      </trkpt>
      <trkpt lat="45.3938" lon="5.75287">
        <ele>540</ele>
        <time>2013-06-15T15:55:40Z</time>
      </trkpt>
      <trkpt lat="45.39382" lon="5.75282">
        <ele>539</ele>
        <time>2013-06-15T15:55:42Z</time>
      </trkpt>
      <trkpt lat="45.3939" lon="5.75265">
        <ele>538</ele>
        <time>2013-06-15T15:55:58Z</time>
      </trkpt>
      <trkpt lat="45.39399" lon="5.75247">
        <ele>538</ele>
        <time>2013-06-15T15:56:07Z</time>
      </trkpt>
      <trkpt lat="45.39412" lon="5.75216">
        <ele>534</ele>
        <time>2013-06-15T15:56:22Z</time>
      </trkpt>
      <trkpt lat="45.39414" lon="5.75205">
        <ele>533</ele>
        <time>2013-06-15T15:56:29Z</time>
      </trkpt>
      <trkpt lat="45.39416" lon="5.75179">
        <ele>530</ele>
        <time>2013-06-15T15:56:48Z</time>
      </trkpt>
      <trkpt lat="45.39426" lon="5.75148">
        <ele>526</ele>
        <time>2013-06-15T15:57:09Z</time>
      </trkpt>
      <trkpt lat="45.39427" lon="5.75131">
        <ele>523</ele>
        <time>2013-06-15T15:57:22Z</time>
      </trkpt>
      <trkpt lat="45.39421" lon="5.75115">
        <ele>520</ele>
        <time>2013-06-15T15:57:32Z</time>
      </trkpt>
      <trkpt lat="45.39416" lon="5.75101">
        <ele>516</ele>
        <time>2013-06-15T15:57:43Z</time>
      </trkpt>
      <trkpt lat="45.39411" lon="5.75083">
        <ele>513</ele>
        <time>2013-06-15T15:57:55Z</time>
      </trkpt>
      <trkpt lat="45.39401" lon="5.75066">
        <ele>510</ele>
        <time>2013-06-15T15:58:08Z</time>
      </trkpt>
      <trkpt lat="45.39397" lon="5.75046">
        <ele>507</ele>
        <time>2013-06-15T15:58:20Z</time>
      </trkpt>
      <trkpt lat="45.39395" lon="5.75022">
        <ele>504</ele>
        <time>2013-06-15T15:58:33Z</time>
      </trkpt>
      <trkpt lat="45.39376" lon="5.75004">
        <ele>501</ele>
        <time>2013-06-15T15:58:47Z</time>
      </trkpt>
      <trkpt lat="45.39372" lon="5.7499">
        <ele>500</ele>
        <time>2013-06-15T15:58:54Z</time>
      </trkpt>
      <trkpt lat="45.39353" lon="5.74963">
        <ele>497</ele>
        <time>2013-06-15T15:59:10Z</time>
      </trkpt>
      <trkpt lat="45.39352" lon="5.74958">
        <ele>497</ele>
        <time>2013-06-15T15:59:12Z</time>
      </trkpt>
      <trkpt lat="45.39358" lon="5.74939">
        <ele>496</ele>
        <time>2013-06-15T15:59:21Z</time>
      </trkpt>
      <trkpt lat="45.39362" lon="5.74916">
        <ele>495</ele>
        <time>2013-06-15T15:59:33Z</time>
      </trkpt>
      <trkpt lat="45.39365" lon="5.74913">
        <ele>494</ele>
        <time>2013-06-15T15:59:36Z</time>
      </trkpt>
      <trkpt lat="45.39366" lon="5.74911">
        <ele>494</ele>
        <time>2013-06-15T15:59:38Z</time>
      </trkpt>
      <trkpt lat="45.39372" lon="5.74909">
        <ele>493</ele>
        <time>2013-06-15T15:59:42Z</time>
      </trkpt>
      <trkpt lat="45.39382" lon="5.74901">
        <ele>492</ele>
        <time>2013-06-15T15:59:51Z</time>
      </trkpt>
      <trkpt lat="45.39408" lon="5.74889">
        <ele>490</ele>
        <time>2013-06-15T16:00:10Z</time>
      </trkpt>
      <trkpt lat="45.39425" lon="5.74892">
        <ele>487</ele>
        <time>2013-06-15T16:00:28Z</time>
      </trkpt>
      <trkpt lat="45.39441" lon="5.74903">
        <ele>484</ele>
        <time>2013-06-15T16:00:45Z</time>
      </trkpt>
      <trkpt lat="45.3946" lon="5.74911">
        <ele>481</ele>
        <time>2013-06-15T16:00:58Z</time>
      </trkpt>
      <trkpt lat="45.39464" lon="5.74906">
        <ele>481</ele>
        <time>2013-06-15T16:01:02Z</time>
      </trkpt>
      <trkpt lat="45.39479" lon="5.74901">
        <ele>477</ele>
        <time>2013-06-15T16:01:16Z</time>
      </trkpt>
      <trkpt lat="45.395" lon="5.74887">
        <ele>474</ele>
        <time>2013-06-15T16:01:31Z</time>
      </trkpt>
      <trkpt lat="45.39501" lon="5.7488">
        <ele>474</ele>
        <time>2013-06-15T16:01:44Z</time>
      </trkpt>
      <trkpt lat="45.39514" lon="5.74848">
        <ele>470</ele>
        <time>2013-06-15T16:02:06Z</time>
      </trkpt>
      <trkpt lat="45.39531" lon="5.7485">
        <ele>468</ele>
        <time>2013-06-15T16:02:30Z</time>
      </trkpt>
      <trkpt lat="45.39515" lon="5.74851">
        <ele>470</ele>
        <time>2013-06-15T16:03:30Z</time>
      </trkpt>
      <trkpt lat="45.39508" lon="5.74851">
        <ele>471</ele>
        <time>2013-06-15T16:03:40Z</time>
      </trkpt>
      <trkpt lat="45.39504" lon="5.74857">
        <ele>473</ele>
        <time>2013-06-15T16:03:44Z</time>
      </trkpt>
      <trkpt lat="45.39476" lon="5.7486">
        <ele>469</ele>
        <time>2013-06-15T16:04:15Z</time>
      </trkpt>
      <trkpt lat="45.39487" lon="5.7484">
        <ele>466</ele>
        <time>2013-06-15T16:04:29Z</time>
      </trkpt>
      <trkpt lat="45.39489" lon="5.74836">
        <ele>464</ele>
        <time>2013-06-15T16:04:34Z</time>
      </trkpt>
      <trkpt lat="45.39493" lon="5.74815">
        <ele>461</ele>
        <time>2013-06-15T16:04:49Z</time>
      </trkpt>
      <trkpt lat="45.39495" lon="5.74809">
        <ele>461</ele>
        <time>2013-06-15T16:04:52Z</time>
      </trkpt>
      <trkpt lat="45.39502" lon="5.74787">
        <ele>458</ele>
        <time>2013-06-15T16:05:04Z</time>
      </trkpt>
      <trkpt lat="45.39505" lon="5.7476">
        <ele>454</ele>
        <time>2013-06-15T16:05:20Z</time>
      </trkpt>
      <trkpt lat="45.39502" lon="5.74738">
        <ele>451</ele>
        <time>2013-06-15T16:05:33Z</time>
      </trkpt>
      <trkpt lat="45.39498" lon="5.74733">
        <ele>451</ele>
        <time>2013-06-15T16:05:37Z</time>
      </trkpt>
      <trkpt lat="45.39487" lon="5.74718">
        <ele>448</ele>
        <time>2013-06-15T16:05:48Z</time>
      </trkpt>
      <trkpt lat="45.39471" lon="5.74702">
        <ele>444</ele>
        <time>2013-06-15T16:06:01Z</time>
      </trkpt>
      <trkpt lat="45.39457" lon="5.74692">
        <ele>443</ele>
        <time>2013-06-15T16:06:38Z</time>
      </trkpt>
      <trkpt lat="45.39455" lon="5.74664">
        <ele>439</ele>
        <time>2013-06-15T16:07:21Z</time>
      </trkpt>
      <trkpt lat="45.39455" lon="5.74649">
        <ele>437</ele>
        <time>2013-06-15T16:08:19Z</time>
      </trkpt>
      <trkpt lat="45.39455" lon="5.74613">
        <ele>434</ele>
        <time>2013-06-15T16:08:42Z</time>
      </trkpt>
      <trkpt lat="45.39459" lon="5.74597">
        <ele>432</ele>
        <time>2013-06-15T16:08:57Z</time>
      </trkpt>
      <trkpt lat="45.39464" lon="5.74569">
        <ele>428</ele>
        <time>2013-06-15T16:09:15Z</time>
      </trkpt>
      <trkpt lat="45.39462" lon="5.74544">
        <ele>426</ele>
        <time>2013-06-15T16:09:35Z</time>
      </trkpt>
      <trkpt lat="45.39464" lon="5.7453">
        <ele>425</ele>
        <time>2013-06-15T16:09:42Z</time>
      </trkpt>
      <trkpt lat="45.39485" lon="5.74468">
        <ele>422</ele>
        <time>2013-06-15T16:09:59Z</time>
      </trkpt>
      <trkpt lat="45.39527" lon="5.744">
        <ele>422</ele>
        <time>2013-06-15T16:10:18Z</time>
      </trkpt>
      <trkpt lat="45.39555" lon="5.74404">
        <ele>419</ele>
        <time>2013-06-15T16:10:33Z</time>
      </trkpt>
      <trkpt lat="45.39597" lon="5.74408">
        <ele>417</ele>
        <time>2013-06-15T16:10:50Z</time>
      </trkpt>
      <trkpt lat="45.39602" lon="5.74408">
        <ele>417</ele>
        <time>2013-06-15T16:10:53Z</time>
      </trkpt>
      <trkpt lat="45.39646" lon="5.74365">
        <ele>416</ele>
        <time>2013-06-15T16:11:13Z</time>
      </trkpt>
      <trkpt lat="45.39671" lon="5.74322">
        <ele>416</ele>
        <time>2013-06-15T16:11:28Z</time>
      </trkpt>
      <trkpt lat="45.39681" lon="5.74291">
        <ele>417</ele>
        <time>2013-06-15T16:11:46Z</time>
      </trkpt>
      <trkpt lat="45.39687" lon="5.74282">
        <ele>417</ele>
        <time>2013-06-15T16:11:50Z</time>
      </trkpt>
      <trkpt lat="45.39692" lon="5.74271">
        <ele>417</ele>
        <time>2013-06-15T16:12:02Z</time>
      </trkpt>
      <trkpt lat="45.39695" lon="5.74264">
        <ele>417</ele>
        <time>2013-06-15T16:12:39Z</time>
      </trkpt>
      <trkpt lat="45.39698" lon="5.74267">
        <ele>417</ele>
        <time>2013-06-15T16:13:53Z</time>
      </trkpt>
      <trkpt lat="45.39699" lon="5.74269">
        <ele>417</ele>
        <time>2013-06-15T16:14:10Z</time>
      </trkpt>
      <trkpt lat="45.39702" lon="5.74273">
        <ele>417</ele>
        <time>2013-06-15T16:14:14Z</time>
      </trkpt>
      <trkpt lat="45.39706" lon="5.7428">
        <ele>417</ele>
        <time>2013-06-15T16:14:18Z</time>
      </trkpt>
      <trkpt lat="45.39721" lon="5.74294">
        <ele>417</ele>
        <time>2013-06-15T16:14:29Z</time>
      </trkpt>
      <trkpt lat="45.39722" lon="5.74298">
        <ele>417</ele>
        <time>2013-06-15T16:14:32Z</time>
      </trkpt>
      <trkpt lat="45.39724" lon="5.74301">
        <ele>417</ele>
        <time>2013-06-15T16:14:34Z</time>
      </trkpt>
      <trkpt lat="45.39757" lon="5.74313">
        <ele>417</ele>
        <time>2013-06-15T16:14:57Z</time>
      </trkpt>
      <trkpt lat="45.39772" lon="5.74314">
        <ele>416</ele>
        <time>2013-06-15T16:15:19Z</time>
      </trkpt>
      <trkpt lat="45.39794" lon="5.74318">
        <ele>416</ele>
        <time>2013-06-15T16:15:40Z</time>
      </trkpt>
      <trkpt lat="45.39813" lon="5.74324">
        <ele>415</ele>
        <time>2013-06-15T16:16:03Z</time>
      </trkpt>
      <trkpt lat="45.39819" lon="5.74319">
        <ele>415</ele>
        <time>2013-06-15T16:16:13Z</time>
      </trkpt>
      <trkpt lat="45.39823" lon="5.74311">
        <ele>414</ele>
        <time>2013-06-15T16:16:19Z</time>
      </trkpt>
      <trkpt lat="45.39837" lon="5.74272">
        <ele>414</ele>
        <time>2013-06-15T16:16:42Z</time>
      </trkpt>
      <trkpt lat="45.3984" lon="5.74263">
        <ele>414</ele>
        <time>2013-06-15T16:17:00Z</time>
      </trkpt>
      <trkpt lat="45.39841" lon="5.7426">
        <ele>414</ele>
        <time>2013-06-15T16:17:02Z</time>
      </trkpt>
      <trkpt lat="45.39831" lon="5.74241">
        <ele>414</ele>
        <time>2013-06-15T16:17:13Z</time>
      </trkpt>
      <trkpt lat="45.39824" lon="5.74238">
        <ele>414</ele>
        <time>2013-06-15T16:17:18Z</time>
      </trkpt>
      <trkpt lat="45.39821" lon="5.74236">
        <ele>414</ele>
        <time>2013-06-15T16:17:21Z</time>
      </trkpt>
      <trkpt lat="45.39808" lon="5.74231">
        <ele>414</ele>
        <time>2013-06-15T16:17:32Z</time>
      </trkpt>
      <trkpt lat="45.39793" lon="5.74226">
        <ele>414</ele>
        <time>2013-06-15T16:17:45Z</time>
      </trkpt>
      <trkpt lat="45.39766" lon="5.74212">
        <ele>414</ele>
        <time>2013-06-15T16:18:07Z</time>
      </trkpt>
      <trkpt lat="45.39749" lon="5.74204">
        <ele>414</ele>
        <time>2013-06-15T16:18:21Z</time>
      </trkpt>
      <trkpt lat="45.39741" lon="5.74201">
        <ele>415</ele>
        <time>2013-06-15T16:18:27Z</time>
      </trkpt>
      <trkpt lat="45.39734" lon="5.74196">
        <ele>414</ele>
        <time>2013-06-15T16:18:33Z</time>
      </trkpt>
      <trkpt lat="45.39724" lon="5.74192">
        <ele>415</ele>
        <time>2013-06-15T16:18:40Z</time>
      </trkpt>
      <trkpt lat="45.39718" lon="5.7419">
        <ele>416</ele>
        <time>2013-06-15T16:18:45Z</time>
      </trkpt>
      <trkpt lat="45.39681" lon="5.74171">
        <ele>415</ele>
        <time>2013-06-15T16:19:13Z</time>
      </trkpt>
      <trkpt lat="45.3968" lon="5.74162">
        <ele>415</ele>
        <time>2013-06-15T16:19:18Z</time>
      </trkpt>
      <trkpt lat="45.39685" lon="5.74141">
        <ele>414</ele>
        <time>2013-06-15T16:19:31Z</time>
      </trkpt>
      <trkpt lat="45.39692" lon="5.74126">
        <ele>414</ele>
        <time>2013-06-15T16:19:39Z</time>
      </trkpt>
      <trkpt lat="45.39701" lon="5.74109">
        <ele>414</ele>
        <time>2013-06-15T16:19:48Z</time>
      </trkpt>
      <trkpt lat="45.39707" lon="5.74084">
        <ele>414</ele>
        <time>2013-06-15T16:20:02Z</time>
      </trkpt>
      <trkpt lat="45.39708" lon="5.74077">
        <ele>414</ele>
        <time>2013-06-15T16:20:06Z</time>
      </trkpt>
      <trkpt lat="45.39708" lon="5.74073">
        <ele>414</ele>
        <time>2013-06-15T16:20:09Z</time>
      </trkpt>
      <trkpt lat="45.39711" lon="5.74064">
        <ele>414</ele>
        <time>2013-06-15T16:20:15Z</time>
      </trkpt>
      <trkpt lat="45.39718" lon="5.74035">
        <ele>414</ele>
        <time>2013-06-15T16:20:28Z</time>
      </trkpt>
      <trkpt lat="45.3973" lon="5.74023">
        <ele>415</ele>
        <time>2013-06-15T16:20:42Z</time>
      </trkpt>
      <trkpt lat="45.39741" lon="5.74028">
        <ele>416</ele>
        <time>2013-06-15T16:20:52Z</time>
      </trkpt>
      <trkpt lat="45.3975" lon="5.74029">
        <ele>415</ele>
        <time>2013-06-15T16:21:00Z</time>
      </trkpt>
      <trkpt lat="45.39771" lon="5.74026">
        <ele>415</ele>
        <time>2013-06-15T16:21:16Z</time>
      </trkpt>
      <trkpt lat="45.3979" lon="5.74024">
        <ele>414</ele>
        <time>2013-06-15T16:21:29Z</time>
      </trkpt>
      <trkpt lat="45.39811" lon="5.74012">
        <ele>414</ele>
        <time>2013-06-15T16:21:44Z</time>
      </trkpt>
      <trkpt lat="45.39832" lon="5.73992">
        <ele>414</ele>
        <time>2013-06-15T16:22:01Z</time>
      </trkpt>
      <trkpt lat="45.3984" lon="5.73984">
        <ele>414</ele>
        <time>2013-06-15T16:22:08Z</time>
      </trkpt>
      <trkpt lat="45.3986" lon="5.73961">
        <ele>413</ele>
        <time>2013-06-15T16:22:29Z</time>
      </trkpt>
      <trkpt lat="45.39862" lon="5.73955">
        <ele>414</ele>
        <time>2013-06-15T16:22:34Z</time>
      </trkpt>
      <trkpt lat="45.39874" lon="5.73939">
        <ele>413</ele>
        <time>2013-06-15T16:22:46Z</time>
      </trkpt>
      <trkpt lat="45.3988" lon="5.73931">
        <ele>413</ele>
        <time>2013-06-15T16:22:53Z</time>
      </trkpt>
      <trkpt lat="45.39885" lon="5.73925">
        <ele>413</ele>
        <time>2013-06-15T16:22:56Z</time>
      </trkpt>
      <trkpt lat="45.39902" lon="5.73906">
        <ele>413</ele>
        <time>2013-06-15T16:23:11Z</time>
      </trkpt>
      <trkpt lat="45.39923" lon="5.73877">
        <ele>412</ele>
        <time>2013-06-15T16:23:32Z</time>
      </trkpt>
      <trkpt lat="45.39944" lon="5.73853">
        <ele>411</ele>
        <time>2013-06-15T16:23:49Z</time>
      </trkpt>
      <trkpt lat="45.39953" lon="5.73838">
        <ele>411</ele>
        <time>2013-06-15T16:24:01Z</time>
      </trkpt>
      <trkpt lat="45.3997" lon="5.73822">
        <ele>410</ele>
        <time>2013-06-15T16:24:15Z</time>
      </trkpt>
      <trkpt lat="45.39979" lon="5.7381">
        <ele>410</ele>
        <time>2013-06-15T16:24:29Z</time>
      </trkpt>
      <trkpt lat="45.39988" lon="5.73796">
        <ele>409</ele>
        <time>2013-06-15T16:25:06Z</time>
      </trkpt>
      <trkpt lat="45.39993" lon="5.73791">
        <ele>409</ele>
        <time>2013-06-15T16:25:10Z</time>
      </trkpt>
      <trkpt lat="45.40009" lon="5.73782">
        <ele>410</ele>
        <time>2013-06-15T16:25:30Z</time>
      </trkpt>
      <trkpt lat="45.40012" lon="5.73771">
        <ele>407</ele>
        <time>2013-06-15T16:25:53Z</time>
      </trkpt>
      <trkpt lat="45.40012" lon="5.73762">
        <ele>407</ele>
        <time>2013-06-15T16:26:18Z</time>
      </trkpt>
      <trkpt lat="45.40011" lon="5.73761">
        <ele>406</ele>
        <time>2013-06-15T16:27:00Z</time>
      </trkpt>
      <trkpt lat="45.40012" lon="5.73762">
        <ele>406</ele>
        <time>2013-06-15T16:28:11Z</time>
      </trkpt>
      <trkpt lat="45.40013" lon="5.7375">
        <ele>406</ele>
        <time>2013-06-15T16:29:15Z</time>
      </trkpt>
      <trkpt lat="45.40015" lon="5.73751">
        <ele>406</ele>
        <time>2013-06-15T16:30:54Z</time>
      </trkpt>
      <trkpt lat="45.40012" lon="5.73759">
        <ele>406</ele>
        <time>2013-06-15T16:31:13Z</time>
      </trkpt>
      <trkpt lat="45.3999" lon="5.73757">
        <ele>388</ele>
        <time>2013-06-15T16:31:45Z</time>
      </trkpt>
      <trkpt lat="45.3997" lon="5.73782">
        <ele>389</ele>
        <time>2013-06-15T16:31:47Z</time>
      </trkpt>
      <trkpt lat="45.39938" lon="5.73805">
        <ele>390</ele>
        <time>2013-06-15T16:32:03Z</time>
      </trkpt>
      <trkpt lat="45.39976" lon="5.73744">
        <ele>388</ele>
        <time>2013-06-15T16:32:24Z</time>
      </trkpt>
      <trkpt lat="45.4001" lon="5.73717">
        <ele>389</ele>
        <time>2013-06-15T16:32:40Z</time>
      </trkpt>
      <trkpt lat="45.40056" lon="5.73701">
        <ele>402</ele>
        <time>2013-06-15T16:57:02Z</time>
      </trkpt>
      <trkpt lat="45.40058" lon="5.737">
        <ele>402</ele>
        <time>2013-06-15T16:57:04Z</time>
      </trkpt>
      <trkpt lat="45.40064" lon="5.73695">
        <ele>403</ele>
        <time>2013-06-15T16:57:08Z</time>
      </trkpt>
      <trkpt lat="45.40082" lon="5.73693">
        <ele>402</ele>
        <time>2013-06-15T16:57:22Z</time>
      </trkpt>
      <trkpt lat="45.4009" lon="5.73693">
        <ele>403</ele>
        <time>2013-06-15T16:57:28Z</time>
      </trkpt>
      <trkpt lat="45.40108" lon="5.73691">
        <ele>403</ele>
        <time>2013-06-15T16:57:48Z</time>
      </trkpt>
      <trkpt lat="45.40109" lon="5.73689">
        <ele>403</ele>
        <time>2013-06-15T16:57:49Z</time>
      </trkpt>
      <trkpt lat="45.40126" lon="5.73643">
        <ele>403</ele>
        <time>2013-06-15T16:58:13Z</time>
      </trkpt>
      <trkpt lat="45.40149" lon="5.73613">
        <ele>403</ele>
        <time>2013-06-15T16:58:32Z</time>
      </trkpt>
      <trkpt lat="45.40156" lon="5.73607">
        <ele>402</ele>
        <time>2013-06-15T16:58:39Z</time>
      </trkpt>
      <trkpt lat="45.40161" lon="5.736">
        <ele>402</ele>
        <time>2013-06-15T16:58:44Z</time>
      </trkpt>
      <trkpt lat="45.40166" lon="5.73593">
        <ele>402</ele>
        <time>2013-06-15T16:58:48Z</time>
      </trkpt>
      <trkpt lat="45.40168" lon="5.7359">
        <ele>402</ele>
        <time>2013-06-15T16:58:50Z</time>
      </trkpt>
      <trkpt lat="45.40171" lon="5.73588">
        <ele>402</ele>
        <time>2013-06-15T16:58:53Z</time>
      </trkpt>
      <trkpt lat="45.40191" lon="5.73554">
        <ele>402</ele>
        <time>2013-06-15T16:59:13Z</time>
      </trkpt>
      <trkpt lat="45.40208" lon="5.73524">
        <ele>402</ele>
        <time>2013-06-15T16:59:32Z</time>
      </trkpt>
      <trkpt lat="45.40219" lon="5.73497">
        <ele>401</ele>
        <time>2013-06-15T16:59:48Z</time>
      </trkpt>
      <trkpt lat="45.40234" lon="5.73457">
        <ele>401</ele>
        <time>2013-06-15T17:00:08Z</time>
      </trkpt>
      <trkpt lat="45.40236" lon="5.73437">
        <ele>401</ele>
        <time>2013-06-15T17:00:20Z</time>
      </trkpt>
      <trkpt lat="45.40235" lon="5.73431">
        <ele>402</ele>
        <time>2013-06-15T17:00:24Z</time>
      </trkpt>
      <trkpt lat="45.40233" lon="5.73427">
        <ele>401</ele>
        <time>2013-06-15T17:00:27Z</time>
      </trkpt>
      <trkpt lat="45.40222" lon="5.73389">
        <ele>401</ele>
        <time>2013-06-15T17:00:45Z</time>
      </trkpt>
      <trkpt lat="45.40209" lon="5.73352">
        <ele>401</ele>
        <time>2013-06-15T17:01:06Z</time>
      </trkpt>
      <trkpt lat="45.40211" lon="5.73325">
        <ele>401</ele>
        <time>2013-06-15T17:01:19Z</time>
      </trkpt>
      <trkpt lat="45.4022" lon="5.73282">
        <ele>401</ele>
        <time>2013-06-15T17:01:41Z</time>
      </trkpt>
      <trkpt lat="45.4023" lon="5.73246">
        <ele>401</ele>
        <time>2013-06-15T17:02:00Z</time>
      </trkpt>
      <trkpt lat="45.40242" lon="5.732">
        <ele>401</ele>
        <time>2013-06-15T17:02:26Z</time>
      </trkpt>
      <trkpt lat="45.40256" lon="5.73157">
        <ele>402</ele>
        <time>2013-06-15T17:02:49Z</time>
      </trkpt>
      <trkpt lat="45.40273" lon="5.73118">
        <ele>401</ele>
        <time>2013-06-15T17:03:11Z</time>
      </trkpt>
      <trkpt lat="45.4029" lon="5.73078">
        <ele>401</ele>
        <time>2013-06-15T17:03:34Z</time>
      </trkpt>
      <trkpt lat="45.40307" lon="5.73047">
        <ele>401</ele>
        <time>2013-06-15T17:03:54Z</time>
      </trkpt>
      <trkpt lat="45.40319" lon="5.73022">
        <ele>401</ele>
        <time>2013-06-15T17:04:10Z</time>
      </trkpt>
      <trkpt lat="45.40324" lon="5.73016">
        <ele>401</ele>
        <time>2013-06-15T17:04:14Z</time>
      </trkpt>
      <trkpt lat="45.40334" lon="5.7299">
        <ele>401</ele>
        <time>2013-06-15T17:04:28Z</time>
      </trkpt>
      <trkpt lat="45.40334" lon="5.7298">
        <ele>401</ele>
        <time>2013-06-15T17:04:33Z</time>
      </trkpt>
      <trkpt lat="45.40335" lon="5.72976">
        <ele>401</ele>
        <time>2013-06-15T17:04:36Z</time>
      </trkpt>
      <trkpt lat="45.40336" lon="5.72947">
        <ele>401</ele>
        <time>2013-06-15T17:04:50Z</time>
      </trkpt>
      <trkpt lat="45.40336" lon="5.72943">
        <ele>401</ele>
        <time>2013-06-15T17:04:52Z</time>
      </trkpt>
      <trkpt lat="45.40337" lon="5.72926">
        <ele>401</ele>
        <time>2013-06-15T17:05:03Z</time>
      </trkpt>
      <trkpt lat="45.4034" lon="5.72917">
        <ele>401</ele>
        <time>2013-06-15T17:05:08Z</time>
      </trkpt>
      <trkpt lat="45.40446" lon="5.72884">
        <ele>388</ele>
        <time>2013-06-15T17:05:30Z</time>
      </trkpt>
      <trkpt lat="45.40562" lon="5.72847">
        <ele>386</ele>
        <time>2013-06-15T17:05:37Z</time>
      </trkpt>
      <trkpt lat="45.40648" lon="5.72826">
        <ele>386</ele>
        <time>2013-06-15T17:06:01Z</time>
      </trkpt>
      <trkpt lat="45.40691" lon="5.7281">
        <ele>386</ele>
        <time>2013-06-15T17:06:23Z</time>
      </trkpt>
      <trkpt lat="45.40723" lon="5.72882">
        <ele>386</ele>
        <time>2013-06-15T17:06:25Z</time>
      </trkpt>
      <trkpt lat="45.40776" lon="5.72837">
        <ele>386</ele>
        <time>2013-06-15T17:06:45Z</time>
      </trkpt>
      <trkpt lat="45.40811" lon="5.72807">
        <ele>386</ele>
        <time>2013-06-15T17:07:02Z</time>
      </trkpt>
      <trkpt lat="45.4076" lon="5.72699">
        <ele>386</ele>
        <time>2013-06-15T17:07:20Z</time>
      </trkpt>
      <trkpt lat="45.40722" lon="5.72604">
        <ele>386</ele>
        <time>2013-06-15T17:07:23Z</time>
      </trkpt>
      <trkpt lat="45.40652" lon="5.72481">
        <ele>386</ele>
        <time>2013-06-15T17:07:28Z</time>
      </trkpt>
      <trkpt lat="45.40569" lon="5.7238">
        <ele>386</ele>
        <time>2013-06-15T17:07:49Z</time>
      </trkpt>
      <trkpt lat="45.40474" lon="5.7226">
        <ele>387</ele>
        <time>2013-06-15T17:07:53Z</time>
      </trkpt>
      <trkpt lat="45.40429" lon="5.72174">
        <ele>387</ele>
        <time>2013-06-15T17:07:59Z</time>
      </trkpt>
      <trkpt lat="45.40386" lon="5.72104">
        <ele>386</ele>
        <time>2013-06-15T17:08:19Z</time>
      </trkpt>
      <trkpt lat="45.40326" lon="5.7202">
        <ele>386</ele>
        <time>2013-06-15T17:08:46Z</time>
      </trkpt>
      <trkpt lat="45.40261" lon="5.71917">
        <ele>387</ele>
        <time>2013-06-15T17:08:53Z</time>
      </trkpt>
      <trkpt lat="45.40187" lon="5.71846">
        <ele>388</ele>
        <time>2013-06-15T17:09:25Z</time>
      </trkpt>
      <trkpt lat="45.40135" lon="5.71766">
        <ele>388</ele>
        <time>2013-06-15T17:09:48Z</time>
      </trkpt>
      <trkpt lat="45.40088" lon="5.71702">
        <ele>388</ele>
        <time>2013-06-15T17:09:53Z</time>
      </trkpt>
      <trkpt lat="45.39993" lon="5.71626">
        <ele>387</ele>
        <time>2013-06-15T17:09:57Z</time>
      </trkpt>
      <trkpt lat="45.39908" lon="5.71541">
        <ele>387</ele>
        <time>2013-06-15T17:10:01Z</time>
      </trkpt>
      <trkpt lat="45.39858" lon="5.71484">
        <ele>387</ele>
        <time>2013-06-15T17:10:20Z</time>
      </trkpt>
      <trkpt lat="45.39805" lon="5.71445">
        <ele>387</ele>
        <time>2013-06-15T17:10:29Z</time>
      </trkpt>
      <trkpt lat="45.39735" lon="5.71377">
        <ele>388</ele>
        <time>2013-06-15T17:10:33Z</time>
      </trkpt>
      <trkpt lat="45.39672" lon="5.71329">
        <ele>388</ele>
        <time>2013-06-15T17:10:47Z</time>
      </trkpt>
      <trkpt lat="45.39617" lon="5.71271">
        <ele>388</ele>
        <time>2013-06-15T17:10:48Z</time>
      </trkpt>
      <trkpt lat="45.39553" lon="5.71222">
        <ele>388</ele>
        <time>2013-06-15T17:11:08Z</time>
      </trkpt>
      <trkpt lat="45.39485" lon="5.71167">
        <ele>388</ele>
        <time>2013-06-15T17:11:13Z</time>
      </trkpt>
      <trkpt lat="45.39429" lon="5.711">
        <ele>388</ele>
        <time>2013-06-15T17:11:25Z</time>
      </trkpt>
      <trkpt lat="45.39351" lon="5.71047">
        <ele>388</ele>
        <time>2013-06-15T17:11:40Z</time>
      </trkpt>
      <trkpt lat="45.39297" lon="5.7112">
        <ele>387</ele>
        <time>2013-06-15T17:11:48Z</time>
      </trkpt>
      <trkpt lat="45.39257" lon="5.71204">
        <ele>388</ele>
        <time>2013-06-15T17:11:58Z</time>
      </trkpt>
      <trkpt lat="45.3922" lon="5.71288">
        <ele>389</ele>
        <time>2013-06-15T17:12:00Z</time>
      </trkpt>
      <trkpt lat="45.39233" lon="5.71318">
        <ele>389</ele>
        <time>2013-06-15T17:12:07Z</time>
      </trkpt>
      <trkpt lat="45.39216" lon="5.71341">
        <ele>396</ele>
        <time>2013-06-15T17:27:51Z</time>
      </trkpt>
      <trkpt lat="45.39206" lon="5.71336">
        <ele>396</ele>
        <time>2013-06-15T17:27:57Z</time>
      </trkpt>
      <trkpt lat="45.39197" lon="5.71331">
        <ele>395</ele>
        <time>2013-06-15T17:28:02Z</time>
      </trkpt>
      <trkpt lat="45.39189" lon="5.71328">
        <ele>395</ele>
        <time>2013-06-15T17:28:08Z</time>
      </trkpt>
      <trkpt lat="45.3917" lon="5.71325">
        <ele>396</ele>
        <time>2013-06-15T17:28:20Z</time>
      </trkpt>
      <trkpt lat="45.39164" lon="5.71323">
        <ele>396</ele>
        <time>2013-06-15T17:28:24Z</time>
      </trkpt>
      <trkpt lat="45.39145" lon="5.71318">
        <ele>395</ele>
        <time>2013-06-15T17:28:41Z</time>
      </trkpt>
      <trkpt lat="45.39137" lon="5.71315">
        <ele>395</ele>
        <time>2013-06-15T17:28:47Z</time>
      </trkpt>
      <trkpt lat="45.39119" lon="5.71307">
        <ele>396</ele>
        <time>2013-06-15T17:28:58Z</time>
      </trkpt>
      <trkpt lat="45.39102" lon="5.71299">
        <ele>396</ele>
        <time>2013-06-15T17:29:13Z</time>
      </trkpt>
      <trkpt lat="45.39097" lon="5.71292">
        <ele>396</ele>
        <time>2013-06-15T17:29:24Z</time>
      </trkpt>
    </trkseg>
  </trk>
</gpx>